<?xml version="1.0" encoding="UTF-8" standalone="no" ?>
<gpx xmlns="http://www.topografix.com/GPX/1/1" xmlns:xsi="http://www.w3.org/2001/XMLSchema-instance" xsi:schemaLocation="http://www.topografix.com/GPX/1/1 http://www.topografix.com/GPX/1/1/gpx.xsd" version="1.1" creator="VisuGPX - https://www.visugpx.com">
  <metadata>
    <name>Julien Nuit</name>
    <desc><![CDATA[Itineraire de nuit.]]></desc>
  </metadata>
  <trk>
    <name><![CDATA[Julien Nuit_1]]></name>
    <trkseg>
      <trkpt lat="49.54967" lon="0.6894">
        <ele>37.387378692627</ele>
        <time>2014-03-29T17:44:07Z</time>
      </trkpt>
      <trkpt lat="49.54964" lon="0.68947">
        <ele>37.93709564209</ele>
        <time>2014-03-29T17:44:11Z</time>
      </trkpt>
      <trkpt lat="49.54963" lon="0.68949">
        <ele>37.875064849854</ele>
        <time>2014-03-29T17:44:14Z</time>
      </trkpt>
      <trkpt lat="49.54965" lon="0.68955">
        <ele>39.170276641846</ele>
        <time>2014-03-29T17:44:19Z</time>
      </trkpt>
      <trkpt lat="49.54967" lon="0.68957">
        <ele>39.898288726807</ele>
        <time>2014-03-29T17:44:21Z</time>
      </trkpt>
      <trkpt lat="49.5497" lon="0.68962">
        <ele>40.989845275879</ele>
        <time>2014-03-29T17:44:26Z</time>
      </trkpt>
      <trkpt lat="49.54971" lon="0.6897">
        <ele>42.268115997314</ele>
        <time>2014-03-29T17:44:32Z</time>
      </trkpt>
      <trkpt lat="49.54971" lon="0.68977">
        <ele>43.25545501709</ele>
        <time>2014-03-29T17:44:37Z</time>
      </trkpt>
      <trkpt lat="49.5497" lon="0.68979">
        <ele>43.560840606689</ele>
        <time>2014-03-29T17:44:39Z</time>
      </trkpt>
      <trkpt lat="49.54972" lon="0.68982">
        <ele>44.268058776855</ele>
        <time>2014-03-29T17:44:41Z</time>
      </trkpt>
      <trkpt lat="49.54973" lon="0.68992">
        <ele>45.939304351807</ele>
        <time>2014-03-29T17:44:47Z</time>
      </trkpt>
      <trkpt lat="49.54973" lon="0.69002">
        <ele>47.490875244141</ele>
        <time>2014-03-29T17:44:53Z</time>
      </trkpt>
      <trkpt lat="49.54976" lon="0.69012">
        <ele>49.763927459717</ele>
        <time>2014-03-29T17:44:58Z</time>
      </trkpt>
      <trkpt lat="49.54976" lon="0.69015">
        <ele>50.404285430908</ele>
        <time>2014-03-29T17:45:00Z</time>
      </trkpt>
      <trkpt lat="49.54976" lon="0.69018">
        <ele>50.901149749756</ele>
        <time>2014-03-29T17:45:02Z</time>
      </trkpt>
      <trkpt lat="49.54979" lon="0.69029">
        <ele>53.39965057373</ele>
        <time>2014-03-29T17:45:08Z</time>
      </trkpt>
      <trkpt lat="49.54984" lon="0.69043">
        <ele>57.060615539551</ele>
        <time>2014-03-29T17:45:16Z</time>
      </trkpt>
      <trkpt lat="49.54982" lon="0.69051">
        <ele>58.163963317871</ele>
        <time>2014-03-29T17:45:21Z</time>
      </trkpt>
      <trkpt lat="49.54982" lon="0.69053">
        <ele>58.386653900146</ele>
        <time>2014-03-29T17:45:22Z</time>
      </trkpt>
      <trkpt lat="49.54982" lon="0.6906">
        <ele>59.625537872314</ele>
        <time>2014-03-29T17:45:26Z</time>
      </trkpt>
      <trkpt lat="49.54981" lon="0.69069">
        <ele>61.003570556641</ele>
        <time>2014-03-29T17:45:31Z</time>
      </trkpt>
      <trkpt lat="49.5498" lon="0.69074">
        <ele>61.690208435059</ele>
        <time>2014-03-29T17:45:34Z</time>
      </trkpt>
      <trkpt lat="49.5498" lon="0.69083">
        <ele>63.145858764648</ele>
        <time>2014-03-29T17:45:40Z</time>
      </trkpt>
      <trkpt lat="49.54972" lon="0.69096">
        <ele>63.140071868896</ele>
        <time>2014-03-29T17:45:46Z</time>
      </trkpt>
      <trkpt lat="49.54968" lon="0.69102">
        <ele>63.00821685791</ele>
        <time>2014-03-29T17:45:49Z</time>
      </trkpt>
      <trkpt lat="49.54964" lon="0.69112">
        <ele>63.32487487793</ele>
        <time>2014-03-29T17:45:54Z</time>
      </trkpt>
      <trkpt lat="49.54959" lon="0.69119">
        <ele>63.044757843018</ele>
        <time>2014-03-29T17:45:58Z</time>
      </trkpt>
      <trkpt lat="49.54952" lon="0.69129">
        <ele>62.770935058594</ele>
        <time>2014-03-29T17:46:03Z</time>
      </trkpt>
      <trkpt lat="49.54949" lon="0.69136">
        <ele>62.883949279785</ele>
        <time>2014-03-29T17:46:06Z</time>
      </trkpt>
      <trkpt lat="49.54947" lon="0.69141">
        <ele>63.213073730469</ele>
        <time>2014-03-29T17:46:09Z</time>
      </trkpt>
      <trkpt lat="49.54943" lon="0.69153">
        <ele>64.082809448242</ele>
        <time>2014-03-29T17:46:15Z</time>
      </trkpt>
      <trkpt lat="49.54942" lon="0.69161">
        <ele>64.998321533203</ele>
        <time>2014-03-29T17:46:19Z</time>
      </trkpt>
      <trkpt lat="49.54944" lon="0.6917">
        <ele>67.290390014648</ele>
        <time>2014-03-29T17:46:23Z</time>
      </trkpt>
      <trkpt lat="49.54943" lon="0.69173">
        <ele>67.436401367188</ele>
        <time>2014-03-29T17:46:24Z</time>
      </trkpt>
      <trkpt lat="49.54939" lon="0.69184">
        <ele>68.499893188477</ele>
        <time>2014-03-29T17:46:30Z</time>
      </trkpt>
      <trkpt lat="49.54934" lon="0.69193">
        <ele>68.728370666504</ele>
        <time>2014-03-29T17:46:35Z</time>
      </trkpt>
      <trkpt lat="49.5493" lon="0.69199">
        <ele>68.897842407227</ele>
        <time>2014-03-29T17:46:39Z</time>
      </trkpt>
      <trkpt lat="49.54925" lon="0.69203">
        <ele>68.309783935547</ele>
        <time>2014-03-29T17:46:42Z</time>
      </trkpt>
      <trkpt lat="49.54924" lon="0.69212">
        <ele>69.825263977051</ele>
        <time>2014-03-29T17:46:46Z</time>
      </trkpt>
      <trkpt lat="49.54927" lon="0.69217">
        <ele>71.804016113281</ele>
        <time>2014-03-29T17:46:49Z</time>
      </trkpt>
      <trkpt lat="49.5493" lon="0.69221">
        <ele>73.375350952148</ele>
        <time>2014-03-29T17:46:53Z</time>
      </trkpt>
      <trkpt lat="49.54935" lon="0.69227">
        <ele>76.101631164551</ele>
        <time>2014-03-29T17:46:59Z</time>
      </trkpt>
      <trkpt lat="49.54937" lon="0.6923">
        <ele>77.047821044922</ele>
        <time>2014-03-29T17:47:01Z</time>
      </trkpt>
      <trkpt lat="49.54942" lon="0.69236">
        <ele>79.678184509277</ele>
        <time>2014-03-29T17:47:07Z</time>
      </trkpt>
      <trkpt lat="49.54944" lon="0.69238">
        <ele>80.48681640625</ele>
        <time>2014-03-29T17:47:09Z</time>
      </trkpt>
      <trkpt lat="49.54945" lon="0.6924">
        <ele>81.316497802734</ele>
        <time>2014-03-29T17:47:11Z</time>
      </trkpt>
      <trkpt lat="49.54948" lon="0.69243">
        <ele>82.430107116699</ele>
        <time>2014-03-29T17:47:14Z</time>
      </trkpt>
      <trkpt lat="49.5495" lon="0.69248">
        <ele>84.081405639648</ele>
        <time>2014-03-29T17:47:18Z</time>
      </trkpt>
      <trkpt lat="49.54951" lon="0.69251">
        <ele>84.932205200195</ele>
        <time>2014-03-29T17:47:23Z</time>
      </trkpt>
      <trkpt lat="49.54956" lon="0.69254">
        <ele>86.627014160156</ele>
        <time>2014-03-29T17:47:29Z</time>
      </trkpt>
      <trkpt lat="49.54957" lon="0.69256">
        <ele>87.129203796387</ele>
        <time>2014-03-29T17:47:31Z</time>
      </trkpt>
      <trkpt lat="49.54964" lon="0.69256">
        <ele>88.978744506836</ele>
        <time>2014-03-29T17:47:37Z</time>
      </trkpt>
      <trkpt lat="49.54966" lon="0.69258">
        <ele>89.894592285156</ele>
        <time>2014-03-29T17:47:41Z</time>
      </trkpt>
      <trkpt lat="49.54969" lon="0.6926">
        <ele>90.872100830078</ele>
        <time>2014-03-29T17:47:46Z</time>
      </trkpt>
      <trkpt lat="49.54969" lon="0.69261">
        <ele>91.151992797852</ele>
        <time>2014-03-29T17:47:47Z</time>
      </trkpt>
      <trkpt lat="49.54974" lon="0.69264">
        <ele>92.914253234863</ele>
        <time>2014-03-29T17:47:51Z</time>
      </trkpt>
      <trkpt lat="49.54978" lon="0.69267">
        <ele>94.42406463623</ele>
        <time>2014-03-29T17:47:55Z</time>
      </trkpt>
      <trkpt lat="49.5498" lon="0.69269">
        <ele>95.241027832031</ele>
        <time>2014-03-29T17:47:58Z</time>
      </trkpt>
      <trkpt lat="49.54984" lon="0.69272">
        <ele>96.426773071289</ele>
        <time>2014-03-29T17:48:03Z</time>
      </trkpt>
      <trkpt lat="49.54988" lon="0.69274">
        <ele>97.933609008789</ele>
        <time>2014-03-29T17:48:09Z</time>
      </trkpt>
      <trkpt lat="49.54992" lon="0.69275">
        <ele>98.907623291016</ele>
        <time>2014-03-29T17:48:12Z</time>
      </trkpt>
      <trkpt lat="49.54995" lon="0.69275">
        <ele>99.761947631836</ele>
        <time>2014-03-29T17:48:18Z</time>
      </trkpt>
      <trkpt lat="49.54996" lon="0.69274">
        <ele>99.927322387695</ele>
        <time>2014-03-29T17:48:22Z</time>
      </trkpt>
      <trkpt lat="49.54996" lon="0.69274">
        <ele>99.920722961426</ele>
        <time>2014-03-29T17:48:23Z</time>
      </trkpt>
      <trkpt lat="49.54999" lon="0.69272">
        <ele>100.21989440918</ele>
        <time>2014-03-29T17:48:28Z</time>
      </trkpt>
      <trkpt lat="49.55002" lon="0.69271">
        <ele>100.53005218506</ele>
        <time>2014-03-29T17:48:30Z</time>
      </trkpt>
      <trkpt lat="49.55003" lon="0.69269">
        <ele>100.43089294434</ele>
        <time>2014-03-29T17:48:33Z</time>
      </trkpt>
      <trkpt lat="49.55009" lon="0.69266">
        <ele>100.86339569092</ele>
        <time>2014-03-29T17:48:38Z</time>
      </trkpt>
      <trkpt lat="49.55013" lon="0.69263">
        <ele>100.79191589356</ele>
        <time>2014-03-29T17:48:42Z</time>
      </trkpt>
      <trkpt lat="49.5502" lon="0.69261">
        <ele>101.62281799316</ele>
        <time>2014-03-29T17:48:48Z</time>
      </trkpt>
      <trkpt lat="49.55025" lon="0.69259">
        <ele>102.19462585449</ele>
        <time>2014-03-29T17:48:54Z</time>
      </trkpt>
      <trkpt lat="49.55031" lon="0.69258">
        <ele>102.86122131348</ele>
        <time>2014-03-29T17:49:07Z</time>
      </trkpt>
      <trkpt lat="49.55037" lon="0.69255">
        <ele>103.24783325195</ele>
        <time>2014-03-29T17:49:16Z</time>
      </trkpt>
      <trkpt lat="49.5504" lon="0.69254">
        <ele>103.59632110596</ele>
        <time>2014-03-29T17:49:19Z</time>
      </trkpt>
      <trkpt lat="49.5504" lon="0.69253">
        <ele>103.54409790039</ele>
        <time>2014-03-29T17:49:20Z</time>
      </trkpt>
      <trkpt lat="49.55044" lon="0.69255">
        <ele>104.42398834228</ele>
        <time>2014-03-29T17:49:24Z</time>
      </trkpt>
      <trkpt lat="49.55045" lon="0.6925">
        <ele>104.0200881958</ele>
        <time>2014-03-29T17:49:31Z</time>
      </trkpt>
      <trkpt lat="49.55047" lon="0.69247">
        <ele>103.92422485352</ele>
        <time>2014-03-29T17:49:38Z</time>
      </trkpt>
      <trkpt lat="49.55048" lon="0.69241">
        <ele>103.36187744141</ele>
        <time>2014-03-29T17:49:48Z</time>
      </trkpt>
      <trkpt lat="49.55047" lon="0.69238">
        <ele>102.76889801025</ele>
        <time>2014-03-29T17:49:57Z</time>
      </trkpt>
      <trkpt lat="49.55048" lon="0.69237">
        <ele>102.72531890869</ele>
        <time>2014-03-29T17:50:00Z</time>
      </trkpt>
      <trkpt lat="49.55048" lon="0.69236">
        <ele>102.6134262085</ele>
        <time>2014-03-29T17:50:03Z</time>
      </trkpt>
      <trkpt lat="49.55048" lon="0.69233">
        <ele>102.26012420654</ele>
        <time>2014-03-29T17:50:13Z</time>
      </trkpt>
      <trkpt lat="49.55048" lon="0.69231">
        <ele>102.0234298706</ele>
        <time>2014-03-29T17:50:22Z</time>
      </trkpt>
      <trkpt lat="49.55047" lon="0.69228">
        <ele>101.49370574951</ele>
        <time>2014-03-29T17:50:32Z</time>
      </trkpt>
      <trkpt lat="49.55049" lon="0.69226">
        <ele>101.568359375</ele>
        <time>2014-03-29T17:50:37Z</time>
      </trkpt>
      <trkpt lat="49.55051" lon="0.69227">
        <ele>102.01671600342</ele>
        <time>2014-03-29T17:50:42Z</time>
      </trkpt>
      <trkpt lat="49.55056" lon="0.69232">
        <ele>103.48262023926</ele>
        <time>2014-03-29T17:50:49Z</time>
      </trkpt>
      <trkpt lat="49.55061" lon="0.69237">
        <ele>104.94161224365</ele>
        <time>2014-03-29T17:50:52Z</time>
      </trkpt>
      <trkpt lat="49.55064" lon="0.69238">
        <ele>105.62688446045</ele>
        <time>2014-03-29T17:50:54Z</time>
      </trkpt>
      <trkpt lat="49.55072" lon="0.69244">
        <ele>107.49054718018</ele>
        <time>2014-03-29T17:50:59Z</time>
      </trkpt>
      <trkpt lat="49.55077" lon="0.69247">
        <ele>108.72074127197</ele>
        <time>2014-03-29T17:51:03Z</time>
      </trkpt>
      <trkpt lat="49.55082" lon="0.69252">
        <ele>109.85587310791</ele>
        <time>2014-03-29T17:51:06Z</time>
      </trkpt>
      <trkpt lat="49.55086" lon="0.69253">
        <ele>110.3497467041</ele>
        <time>2014-03-29T17:51:10Z</time>
      </trkpt>
      <trkpt lat="49.55087" lon="0.69252">
        <ele>110.27617645264</ele>
        <time>2014-03-29T17:51:12Z</time>
      </trkpt>
      <trkpt lat="49.55092" lon="0.69248">
        <ele>110.14931488037</ele>
        <time>2014-03-29T17:51:17Z</time>
      </trkpt>
      <trkpt lat="49.55095" lon="0.69245">
        <ele>110.02907562256</ele>
        <time>2014-03-29T17:51:19Z</time>
      </trkpt>
      <trkpt lat="49.55105" lon="0.69233">
        <ele>109.34773254394</ele>
        <time>2014-03-29T17:51:24Z</time>
      </trkpt>
      <trkpt lat="49.55116" lon="0.69223">
        <ele>108.85789489746</ele>
        <time>2014-03-29T17:51:27Z</time>
      </trkpt>
      <trkpt lat="49.55117" lon="0.69217">
        <ele>108.39497375488</ele>
        <time>2014-03-29T17:51:29Z</time>
      </trkpt>
      <trkpt lat="49.5513" lon="0.69199">
        <ele>107.42099761963</ele>
        <time>2014-03-29T17:51:34Z</time>
      </trkpt>
      <trkpt lat="49.55136" lon="0.69184">
        <ele>106.39833068848</ele>
        <time>2014-03-29T17:51:39Z</time>
      </trkpt>
      <trkpt lat="49.55141" lon="0.69171">
        <ele>105.57866668701</ele>
        <time>2014-03-29T17:51:43Z</time>
      </trkpt>
      <trkpt lat="49.55154" lon="0.69156">
        <ele>104.71203613281</ele>
        <time>2014-03-29T17:51:48Z</time>
      </trkpt>
      <trkpt lat="49.55159" lon="0.69154">
        <ele>104.84957885742</ele>
        <time>2014-03-29T17:51:50Z</time>
      </trkpt>
      <trkpt lat="49.55167" lon="0.69153">
        <ele>105.40835571289</ele>
        <time>2014-03-29T17:51:54Z</time>
      </trkpt>
      <trkpt lat="49.5518" lon="0.69145">
        <ele>105.10671234131</ele>
        <time>2014-03-29T17:52:01Z</time>
      </trkpt>
      <trkpt lat="49.55192" lon="0.6914">
        <ele>105.15985107422</ele>
        <time>2014-03-29T17:52:06Z</time>
      </trkpt>
      <trkpt lat="49.55204" lon="0.69134">
        <ele>105.07746124268</ele>
        <time>2014-03-29T17:52:12Z</time>
      </trkpt>
      <trkpt lat="49.5521" lon="0.69131">
        <ele>105.00337982178</ele>
        <time>2014-03-29T17:52:15Z</time>
      </trkpt>
      <trkpt lat="49.55219" lon="0.69121">
        <ele>104.33879852295</ele>
        <time>2014-03-29T17:52:20Z</time>
      </trkpt>
      <trkpt lat="49.55228" lon="0.69109">
        <ele>103.54790496826</ele>
        <time>2014-03-29T17:52:26Z</time>
      </trkpt>
      <trkpt lat="49.55236" lon="0.691">
        <ele>103.06697845459</ele>
        <time>2014-03-29T17:52:31Z</time>
      </trkpt>
      <trkpt lat="49.55238" lon="0.69098">
        <ele>102.89823150635</ele>
        <time>2014-03-29T17:52:33Z</time>
      </trkpt>
      <trkpt lat="49.55248" lon="0.69089">
        <ele>102.48017120361</ele>
        <time>2014-03-29T17:52:38Z</time>
      </trkpt>
      <trkpt lat="49.5525" lon="0.69087">
        <ele>102.42951965332</ele>
        <time>2014-03-29T17:52:39Z</time>
      </trkpt>
      <trkpt lat="49.55259" lon="0.69086">
        <ele>102.57688903809</ele>
        <time>2014-03-29T17:52:43Z</time>
      </trkpt>
      <trkpt lat="49.55268" lon="0.69078">
        <ele>101.84429931641</ele>
        <time>2014-03-29T17:52:47Z</time>
      </trkpt>
      <trkpt lat="49.55273" lon="0.69075">
        <ele>101.63391876221</ele>
        <time>2014-03-29T17:52:49Z</time>
      </trkpt>
      <trkpt lat="49.55284" lon="0.69064">
        <ele>100.61378479004</ele>
        <time>2014-03-29T17:52:54Z</time>
      </trkpt>
      <trkpt lat="49.55287" lon="0.6906">
        <ele>100.2380065918</ele>
        <time>2014-03-29T17:52:56Z</time>
      </trkpt>
      <trkpt lat="49.55291" lon="0.69054">
        <ele>99.540077209473</ele>
        <time>2014-03-29T17:53:00Z</time>
      </trkpt>
      <trkpt lat="49.55297" lon="0.69049">
        <ele>99.25804901123</ele>
        <time>2014-03-29T17:53:03Z</time>
      </trkpt>
      <trkpt lat="49.55305" lon="0.69045">
        <ele>99.163307189941</ele>
        <time>2014-03-29T17:53:07Z</time>
      </trkpt>
      <trkpt lat="49.55312" lon="0.69042">
        <ele>99.241226196289</ele>
        <time>2014-03-29T17:53:10Z</time>
      </trkpt>
      <trkpt lat="49.5532" lon="0.69035">
        <ele>98.91674041748</ele>
        <time>2014-03-29T17:53:15Z</time>
      </trkpt>
      <trkpt lat="49.55326" lon="0.69031">
        <ele>98.858245849609</ele>
        <time>2014-03-29T17:53:18Z</time>
      </trkpt>
      <trkpt lat="49.55329" lon="0.69028">
        <ele>98.674278259277</ele>
        <time>2014-03-29T17:53:21Z</time>
      </trkpt>
      <trkpt lat="49.55334" lon="0.69022">
        <ele>98.502822875977</ele>
        <time>2014-03-29T17:53:25Z</time>
      </trkpt>
      <trkpt lat="49.55342" lon="0.69017">
        <ele>98.901641845703</ele>
        <time>2014-03-29T17:53:29Z</time>
      </trkpt>
      <trkpt lat="49.55347" lon="0.69012">
        <ele>99.165283203125</ele>
        <time>2014-03-29T17:53:33Z</time>
      </trkpt>
      <trkpt lat="49.55354" lon="0.69004">
        <ele>99.317070007324</ele>
        <time>2014-03-29T17:53:39Z</time>
      </trkpt>
      <trkpt lat="49.55355" lon="0.69003">
        <ele>99.352531433105</ele>
        <time>2014-03-29T17:53:40Z</time>
      </trkpt>
      <trkpt lat="49.55359" lon="0.68996">
        <ele>99.20677947998</ele>
        <time>2014-03-29T17:53:45Z</time>
      </trkpt>
      <trkpt lat="49.55362" lon="0.68992">
        <ele>99.305709838867</ele>
        <time>2014-03-29T17:53:52Z</time>
      </trkpt>
      <trkpt lat="49.55365" lon="0.68992">
        <ele>99.690200805664</ele>
        <time>2014-03-29T17:54:00Z</time>
      </trkpt>
      <trkpt lat="49.55365" lon="0.6899">
        <ele>99.616149902344</ele>
        <time>2014-03-29T17:54:03Z</time>
      </trkpt>
      <trkpt lat="49.55372" lon="0.68983">
        <ele>99.899841308594</ele>
        <time>2014-03-29T17:54:08Z</time>
      </trkpt>
      <trkpt lat="49.55383" lon="0.68985">
        <ele>101.77248382568</ele>
        <time>2014-03-29T17:54:13Z</time>
      </trkpt>
      <trkpt lat="49.55391" lon="0.68986">
        <ele>103.05935668945</ele>
        <time>2014-03-29T17:54:16Z</time>
      </trkpt>
      <trkpt lat="49.55395" lon="0.68986">
        <ele>103.80877685547</ele>
        <time>2014-03-29T17:54:18Z</time>
      </trkpt>
      <trkpt lat="49.55401" lon="0.68985">
        <ele>104.68951416016</ele>
        <time>2014-03-29T17:54:22Z</time>
      </trkpt>
      <trkpt lat="49.55405" lon="0.68986">
        <ele>105.39905548096</ele>
        <time>2014-03-29T17:54:24Z</time>
      </trkpt>
      <trkpt lat="49.55419" lon="0.68985">
        <ele>107.3576965332</ele>
        <time>2014-03-29T17:54:29Z</time>
      </trkpt>
      <trkpt lat="49.5543" lon="0.68985">
        <ele>108.39686584473</ele>
        <time>2014-03-29T17:54:33Z</time>
      </trkpt>
      <trkpt lat="49.55444" lon="0.68986">
        <ele>109.79566192627</ele>
        <time>2014-03-29T17:54:38Z</time>
      </trkpt>
      <trkpt lat="49.5546" lon="0.68985">
        <ele>111.29775238037</ele>
        <time>2014-03-29T17:54:44Z</time>
      </trkpt>
      <trkpt lat="49.55473" lon="0.68986">
        <ele>112.53651428223</ele>
        <time>2014-03-29T17:54:49Z</time>
      </trkpt>
      <trkpt lat="49.55485" lon="0.68988">
        <ele>113.70684051514</ele>
        <time>2014-03-29T17:54:54Z</time>
      </trkpt>
      <trkpt lat="49.55487" lon="0.68989">
        <ele>113.92239379883</ele>
        <time>2014-03-29T17:54:55Z</time>
      </trkpt>
      <trkpt lat="49.55499" lon="0.6899">
        <ele>114.9842376709</ele>
        <time>2014-03-29T17:55:00Z</time>
      </trkpt>
      <trkpt lat="49.55509" lon="0.68988">
        <ele>115.66938018799</ele>
        <time>2014-03-29T17:55:05Z</time>
      </trkpt>
      <trkpt lat="49.55513" lon="0.68988">
        <ele>115.89919281006</ele>
        <time>2014-03-29T17:55:08Z</time>
      </trkpt>
      <trkpt lat="49.55515" lon="0.68989">
        <ele>116.04982757568</ele>
        <time>2014-03-29T17:55:11Z</time>
      </trkpt>
      <trkpt lat="49.55524" lon="0.68994">
        <ele>116.49829101562</ele>
        <time>2014-03-29T17:55:17Z</time>
      </trkpt>
      <trkpt lat="49.55532" lon="0.68999">
        <ele>116.9169998169</ele>
        <time>2014-03-29T17:55:21Z</time>
      </trkpt>
      <trkpt lat="49.55532" lon="0.69006">
        <ele>116.96427917481</ele>
        <time>2014-03-29T17:55:24Z</time>
      </trkpt>
      <trkpt lat="49.55533" lon="0.69011">
        <ele>116.99892425537</ele>
        <time>2014-03-29T17:55:26Z</time>
      </trkpt>
      <trkpt lat="49.55539" lon="0.69026">
        <ele>117.3766784668</ele>
        <time>2014-03-29T17:55:31Z</time>
      </trkpt>
      <trkpt lat="49.55542" lon="0.69027">
        <ele>117.4970779419</ele>
        <time>2014-03-29T17:55:32Z</time>
      </trkpt>
      <trkpt lat="49.55549" lon="0.69032">
        <ele>117.88356781006</ele>
        <time>2014-03-29T17:55:37Z</time>
      </trkpt>
      <trkpt lat="49.55551" lon="0.69033">
        <ele>117.95956420898</ele>
        <time>2014-03-29T17:55:39Z</time>
      </trkpt>
      <trkpt lat="49.55555" lon="0.69033">
        <ele>118.15118408203</ele>
        <time>2014-03-29T17:55:43Z</time>
      </trkpt>
      <trkpt lat="49.5556" lon="0.69031">
        <ele>118.41060638428</ele>
        <time>2014-03-29T17:55:50Z</time>
      </trkpt>
      <trkpt lat="49.55562" lon="0.6903">
        <ele>118.5566329956</ele>
        <time>2014-03-29T17:55:55Z</time>
      </trkpt>
      <trkpt lat="49.55566" lon="0.69025">
        <ele>118.78503417969</ele>
        <time>2014-03-29T17:56:01Z</time>
      </trkpt>
      <trkpt lat="49.55566" lon="0.69022">
        <ele>118.80920410156</ele>
        <time>2014-03-29T17:56:03Z</time>
      </trkpt>
      <trkpt lat="49.55567" lon="0.69017">
        <ele>118.90740203857</ele>
        <time>2014-03-29T17:56:06Z</time>
      </trkpt>
      <trkpt lat="49.55568" lon="0.69013">
        <ele>118.95359802246</ele>
        <time>2014-03-29T17:56:08Z</time>
      </trkpt>
      <trkpt lat="49.55567" lon="0.69004">
        <ele>118.97910308838</ele>
        <time>2014-03-29T17:56:13Z</time>
      </trkpt>
      <trkpt lat="49.55568" lon="0.69">
        <ele>119.05130767822</ele>
        <time>2014-03-29T17:56:15Z</time>
      </trkpt>
      <trkpt lat="49.55566" lon="0.68998">
        <ele>119.01377868652</ele>
        <time>2014-03-29T17:56:19Z</time>
      </trkpt>
      <trkpt lat="49.55562" lon="0.68998">
        <ele>118.73861694336</ele>
        <time>2014-03-29T17:56:23Z</time>
      </trkpt>
      <trkpt lat="49.55557" lon="0.68997">
        <ele>118.44915008545</ele>
        <time>2014-03-29T17:56:26Z</time>
      </trkpt>
      <trkpt lat="49.55555" lon="0.68996">
        <ele>118.34379577637</ele>
        <time>2014-03-29T17:56:27Z</time>
      </trkpt>
      <trkpt lat="49.55545" lon="0.68995">
        <ele>117.76443481445</ele>
        <time>2014-03-29T17:56:31Z</time>
      </trkpt>
      <trkpt lat="49.55535" lon="0.68991">
        <ele>117.21962738037</ele>
        <time>2014-03-29T17:56:34Z</time>
      </trkpt>
      <trkpt lat="49.55531" lon="0.68972">
        <ele>117.19451904297</ele>
        <time>2014-03-29T17:56:40Z</time>
      </trkpt>
      <trkpt lat="49.55532" lon="0.68967">
        <ele>117.29286956787</ele>
        <time>2014-03-29T17:56:41Z</time>
      </trkpt>
      <trkpt lat="49.55535" lon="0.68942">
        <ele>117.80213165283</ele>
        <time>2014-03-29T17:56:48Z</time>
      </trkpt>
      <trkpt lat="49.55541" lon="0.6893">
        <ele>118.28786468506</ele>
        <time>2014-03-29T17:56:51Z</time>
      </trkpt>
      <trkpt lat="49.55547" lon="0.68922">
        <ele>118.73532867432</ele>
        <time>2014-03-29T17:56:53Z</time>
      </trkpt>
      <trkpt lat="49.55557" lon="0.68898">
        <ele>118.99574279785</ele>
        <time>2014-03-29T17:56:59Z</time>
      </trkpt>
      <trkpt lat="49.55558" lon="0.68887">
        <ele>118.75384521484</ele>
        <time>2014-03-29T17:57:02Z</time>
      </trkpt>
      <trkpt lat="49.55563" lon="0.68874">
        <ele>118.76557922363</ele>
        <time>2014-03-29T17:57:06Z</time>
      </trkpt>
      <trkpt lat="49.55564" lon="0.68864">
        <ele>118.57803344727</ele>
        <time>2014-03-29T17:57:09Z</time>
      </trkpt>
      <trkpt lat="49.55568" lon="0.68857">
        <ele>118.61894989014</ele>
        <time>2014-03-29T17:57:11Z</time>
      </trkpt>
      <trkpt lat="49.55566" lon="0.68843">
        <ele>118.16218566894</ele>
        <time>2014-03-29T17:57:15Z</time>
      </trkpt>
      <trkpt lat="49.55567" lon="0.68834">
        <ele>118.03916168213</ele>
        <time>2014-03-29T17:57:17Z</time>
      </trkpt>
      <trkpt lat="49.55564" lon="0.68813">
        <ele>116.89710235596</ele>
        <time>2014-03-29T17:57:22Z</time>
      </trkpt>
      <trkpt lat="49.55564" lon="0.68802">
        <ele>116.35200500488</ele>
        <time>2014-03-29T17:57:25Z</time>
      </trkpt>
      <trkpt lat="49.55568" lon="0.68777">
        <ele>115.53016662598</ele>
        <time>2014-03-29T17:57:31Z</time>
      </trkpt>
      <trkpt lat="49.55565" lon="0.68759">
        <ele>114.43231201172</ele>
        <time>2014-03-29T17:57:36Z</time>
      </trkpt>
      <trkpt lat="49.55564" lon="0.68744">
        <ele>113.30132293701</ele>
        <time>2014-03-29T17:57:40Z</time>
      </trkpt>
      <trkpt lat="49.55568" lon="0.68733">
        <ele>112.72132110596</ele>
        <time>2014-03-29T17:57:43Z</time>
      </trkpt>
      <trkpt lat="49.55567" lon="0.68725">
        <ele>111.90174865723</ele>
        <time>2014-03-29T17:57:45Z</time>
      </trkpt>
      <trkpt lat="49.55568" lon="0.68715">
        <ele>111.12882232666</ele>
        <time>2014-03-29T17:57:48Z</time>
      </trkpt>
      <trkpt lat="49.55573" lon="0.68696">
        <ele>109.94478607178</ele>
        <time>2014-03-29T17:57:53Z</time>
      </trkpt>
      <trkpt lat="49.55574" lon="0.68691">
        <ele>109.7236404419</ele>
        <time>2014-03-29T17:57:55Z</time>
      </trkpt>
      <trkpt lat="49.55577" lon="0.68684">
        <ele>109.53353118897</ele>
        <time>2014-03-29T17:58:00Z</time>
      </trkpt>
      <trkpt lat="49.55574" lon="0.68668">
        <ele>107.75039672852</ele>
        <time>2014-03-29T17:58:05Z</time>
      </trkpt>
      <trkpt lat="49.55575" lon="0.68666">
        <ele>107.49170684815</ele>
        <time>2014-03-29T17:58:06Z</time>
      </trkpt>
      <trkpt lat="49.55576" lon="0.68656">
        <ele>105.98626708984</ele>
        <time>2014-03-29T17:58:09Z</time>
      </trkpt>
      <trkpt lat="49.55579" lon="0.68641">
        <ele>103.64526367188</ele>
        <time>2014-03-29T17:58:14Z</time>
      </trkpt>
      <trkpt lat="49.55576" lon="0.6863">
        <ele>101.30397033691</ele>
        <time>2014-03-29T17:58:19Z</time>
      </trkpt>
      <trkpt lat="49.55576" lon="0.68626">
        <ele>100.64157104492</ele>
        <time>2014-03-29T17:58:21Z</time>
      </trkpt>
      <trkpt lat="49.55576" lon="0.68621">
        <ele>99.820838928223</ele>
        <time>2014-03-29T17:58:23Z</time>
      </trkpt>
      <trkpt lat="49.55575" lon="0.6861">
        <ele>97.637367248535</ele>
        <time>2014-03-29T17:58:28Z</time>
      </trkpt>
      <trkpt lat="49.55574" lon="0.68599">
        <ele>95.477828979492</ele>
        <time>2014-03-29T17:58:32Z</time>
      </trkpt>
      <trkpt lat="49.55579" lon="0.68584">
        <ele>93.53564453125</ele>
        <time>2014-03-29T17:58:37Z</time>
      </trkpt>
      <trkpt lat="49.55582" lon="0.68568">
        <ele>90.990661621094</ele>
        <time>2014-03-29T17:58:42Z</time>
      </trkpt>
      <trkpt lat="49.5558" lon="0.68561">
        <ele>89.216461181641</ele>
        <time>2014-03-29T17:58:45Z</time>
      </trkpt>
      <trkpt lat="49.55579" lon="0.68552">
        <ele>87.409576416016</ele>
        <time>2014-03-29T17:58:49Z</time>
      </trkpt>
      <trkpt lat="49.55584" lon="0.6854">
        <ele>85.736862182617</ele>
        <time>2014-03-29T17:58:53Z</time>
      </trkpt>
      <trkpt lat="49.55586" lon="0.68538">
        <ele>85.415283203125</ele>
        <time>2014-03-29T17:58:54Z</time>
      </trkpt>
      <trkpt lat="49.55597" lon="0.68519">
        <ele>82.523361206055</ele>
        <time>2014-03-29T17:59:00Z</time>
      </trkpt>
      <trkpt lat="49.55601" lon="0.68509">
        <ele>80.801025390625</ele>
        <time>2014-03-29T17:59:03Z</time>
      </trkpt>
      <trkpt lat="49.55599" lon="0.685">
        <ele>78.823188781738</ele>
        <time>2014-03-29T17:59:08Z</time>
      </trkpt>
      <trkpt lat="49.55598" lon="0.68492">
        <ele>76.886390686035</ele>
        <time>2014-03-29T17:59:12Z</time>
      </trkpt>
      <trkpt lat="49.55597" lon="0.68489">
        <ele>75.977745056152</ele>
        <time>2014-03-29T17:59:14Z</time>
      </trkpt>
      <trkpt lat="49.5559" lon="0.6848">
        <ele>73.191047668457</ele>
        <time>2014-03-29T17:59:20Z</time>
      </trkpt>
      <trkpt lat="49.55589" lon="0.68478">
        <ele>72.559341430664</ele>
        <time>2014-03-29T17:59:22Z</time>
      </trkpt>
      <trkpt lat="49.5559" lon="0.68472">
        <ele>71.115119934082</ele>
        <time>2014-03-29T17:59:27Z</time>
      </trkpt>
      <trkpt lat="49.55591" lon="0.68467">
        <ele>69.963623046875</ele>
        <time>2014-03-29T17:59:31Z</time>
      </trkpt>
      <trkpt lat="49.55588" lon="0.68461">
        <ele>68.07551574707</ele>
        <time>2014-03-29T17:59:35Z</time>
      </trkpt>
      <trkpt lat="49.55587" lon="0.68457">
        <ele>66.932998657227</ele>
        <time>2014-03-29T17:59:40Z</time>
      </trkpt>
      <trkpt lat="49.5559" lon="0.68452">
        <ele>65.901100158691</ele>
        <time>2014-03-29T17:59:45Z</time>
      </trkpt>
      <trkpt lat="49.55592" lon="0.68445">
        <ele>64.155662536621</ele>
        <time>2014-03-29T17:59:49Z</time>
      </trkpt>
      <trkpt lat="49.55587" lon="0.68435">
        <ele>61.078010559082</ele>
        <time>2014-03-29T17:59:54Z</time>
      </trkpt>
      <trkpt lat="49.55587" lon="0.68433">
        <ele>60.551124572754</ele>
        <time>2014-03-29T17:59:55Z</time>
      </trkpt>
      <trkpt lat="49.55587" lon="0.6843">
        <ele>59.722785949707</ele>
        <time>2014-03-29T17:59:57Z</time>
      </trkpt>
      <trkpt lat="49.55586" lon="0.68427">
        <ele>59.077304840088</ele>
        <time>2014-03-29T17:59:59Z</time>
      </trkpt>
      <trkpt lat="49.55584" lon="0.6842">
        <ele>56.873317718506</ele>
        <time>2014-03-29T18:00:04Z</time>
      </trkpt>
      <trkpt lat="49.55582" lon="0.68414">
        <ele>55.596141815186</ele>
        <time>2014-03-29T18:00:10Z</time>
      </trkpt>
      <trkpt lat="49.55582" lon="0.68411">
        <ele>55.218711853027</ele>
        <time>2014-03-29T18:00:13Z</time>
      </trkpt>
      <trkpt lat="49.55582" lon="0.68406">
        <ele>54.772399902344</ele>
        <time>2014-03-29T18:00:18Z</time>
      </trkpt>
      <trkpt lat="49.55581" lon="0.68397">
        <ele>53.701118469238</ele>
        <time>2014-03-29T18:00:24Z</time>
      </trkpt>
      <trkpt lat="49.55582" lon="0.68391">
        <ele>53.057971954346</ele>
        <time>2014-03-29T18:00:29Z</time>
      </trkpt>
      <trkpt lat="49.55581" lon="0.68388">
        <ele>52.724761962891</ele>
        <time>2014-03-29T18:00:32Z</time>
      </trkpt>
      <trkpt lat="49.55581" lon="0.68386">
        <ele>52.454792022705</ele>
        <time>2014-03-29T18:00:34Z</time>
      </trkpt>
      <trkpt lat="49.55581" lon="0.6838">
        <ele>51.920631408691</ele>
        <time>2014-03-29T18:00:41Z</time>
      </trkpt>
      <trkpt lat="49.55581" lon="0.68378">
        <ele>51.642669677734</ele>
        <time>2014-03-29T18:00:44Z</time>
      </trkpt>
      <trkpt lat="49.5558" lon="0.68374">
        <ele>51.16442489624</ele>
        <time>2014-03-29T18:00:52Z</time>
      </trkpt>
      <trkpt lat="49.55576" lon="0.68362">
        <ele>49.7551612854</ele>
        <time>2014-03-29T18:00:58Z</time>
      </trkpt>
      <trkpt lat="49.5558" lon="0.68351">
        <ele>48.812122344971</ele>
        <time>2014-03-29T18:01:03Z</time>
      </trkpt>
      <trkpt lat="49.55581" lon="0.6835">
        <ele>48.716022491455</ele>
        <time>2014-03-29T18:01:04Z</time>
      </trkpt>
      <trkpt lat="49.55584" lon="0.68344">
        <ele>48.241874694824</ele>
        <time>2014-03-29T18:01:09Z</time>
      </trkpt>
      <trkpt lat="49.55592" lon="0.68339">
        <ele>48.059661865234</ele>
        <time>2014-03-29T18:01:12Z</time>
      </trkpt>
      <trkpt lat="49.55598" lon="0.6833">
        <ele>47.806591033936</ele>
        <time>2014-03-29T18:01:15Z</time>
      </trkpt>
      <trkpt lat="49.556" lon="0.68321">
        <ele>48.244491577148</ele>
        <time>2014-03-29T18:01:17Z</time>
      </trkpt>
      <trkpt lat="49.55609" lon="0.6831">
        <ele>48.910194396973</ele>
        <time>2014-03-29T18:01:21Z</time>
      </trkpt>
      <trkpt lat="49.55613" lon="0.68303">
        <ele>49.240139007568</ele>
        <time>2014-03-29T18:01:24Z</time>
      </trkpt>
      <trkpt lat="49.55615" lon="0.68299">
        <ele>49.393653869629</ele>
        <time>2014-03-29T18:01:26Z</time>
      </trkpt>
      <trkpt lat="49.55615" lon="0.68289">
        <ele>49.642913818359</ele>
        <time>2014-03-29T18:01:30Z</time>
      </trkpt>
      <trkpt lat="49.55613" lon="0.68281">
        <ele>49.820251464844</ele>
        <time>2014-03-29T18:01:33Z</time>
      </trkpt>
      <trkpt lat="49.55611" lon="0.68272">
        <ele>50.040004730225</ele>
        <time>2014-03-29T18:01:36Z</time>
      </trkpt>
      <trkpt lat="49.55612" lon="0.68268">
        <ele>50.174377441406</ele>
        <time>2014-03-29T18:01:43Z</time>
      </trkpt>
      <trkpt lat="49.55614" lon="0.68261">
        <ele>50.335636138916</ele>
        <time>2014-03-29T18:01:47Z</time>
      </trkpt>
      <trkpt lat="49.55617" lon="0.68256">
        <ele>50.448059082031</ele>
        <time>2014-03-29T18:01:50Z</time>
      </trkpt>
      <trkpt lat="49.55624" lon="0.68243">
        <ele>50.996810913086</ele>
        <time>2014-03-29T18:01:58Z</time>
      </trkpt>
      <trkpt lat="49.55624" lon="0.68241">
        <ele>51.113998413086</ele>
        <time>2014-03-29T18:02:00Z</time>
      </trkpt>
      <trkpt lat="49.55637" lon="0.6823">
        <ele>51.421756744385</ele>
        <time>2014-03-29T18:02:05Z</time>
      </trkpt>
      <trkpt lat="49.55642" lon="0.68227">
        <ele>51.432903289795</ele>
        <time>2014-03-29T18:02:07Z</time>
      </trkpt>
      <trkpt lat="49.55655" lon="0.6821">
        <ele>51.58874130249</ele>
        <time>2014-03-29T18:02:13Z</time>
      </trkpt>
      <trkpt lat="49.55663" lon="0.68196">
        <ele>51.559158325195</ele>
        <time>2014-03-29T18:02:17Z</time>
      </trkpt>
      <trkpt lat="49.55669" lon="0.68185">
        <ele>51.76388168335</ele>
        <time>2014-03-29T18:02:20Z</time>
      </trkpt>
      <trkpt lat="49.55677" lon="0.68169">
        <ele>52.55598449707</ele>
        <time>2014-03-29T18:02:24Z</time>
      </trkpt>
      <trkpt lat="49.55682" lon="0.68158">
        <ele>53.167617797852</ele>
        <time>2014-03-29T18:02:27Z</time>
      </trkpt>
      <trkpt lat="49.55682" lon="0.68155">
        <ele>53.274963378906</ele>
        <time>2014-03-29T18:02:28Z</time>
      </trkpt>
      <trkpt lat="49.55682" lon="0.68137">
        <ele>53.767398834229</ele>
        <time>2014-03-29T18:02:33Z</time>
      </trkpt>
      <trkpt lat="49.55688" lon="0.68124">
        <ele>54.446338653564</ele>
        <time>2014-03-29T18:02:36Z</time>
      </trkpt>
      <trkpt lat="49.55689" lon="0.68116">
        <ele>54.684524536133</ele>
        <time>2014-03-29T18:02:38Z</time>
      </trkpt>
      <trkpt lat="49.55693" lon="0.68093">
        <ele>55.392673492432</ele>
        <time>2014-03-29T18:02:44Z</time>
      </trkpt>
      <trkpt lat="49.55696" lon="0.68078">
        <ele>55.909587860107</ele>
        <time>2014-03-29T18:02:48Z</time>
      </trkpt>
      <trkpt lat="49.55703" lon="0.68064">
        <ele>56.517295837402</ele>
        <time>2014-03-29T18:02:51Z</time>
      </trkpt>
      <trkpt lat="49.55711" lon="0.68041">
        <ele>57.253532409668</ele>
        <time>2014-03-29T18:02:56Z</time>
      </trkpt>
      <trkpt lat="49.55711" lon="0.68037">
        <ele>57.366981506348</ele>
        <time>2014-03-29T18:02:57Z</time>
      </trkpt>
      <trkpt lat="49.55711" lon="0.68022">
        <ele>57.766098022461</ele>
        <time>2014-03-29T18:03:01Z</time>
      </trkpt>
      <trkpt lat="49.55712" lon="0.68002">
        <ele>58.309314727783</ele>
        <time>2014-03-29T18:03:06Z</time>
      </trkpt>
      <trkpt lat="49.55714" lon="0.67983">
        <ele>58.231212615967</ele>
        <time>2014-03-29T18:03:11Z</time>
      </trkpt>
      <trkpt lat="49.55716" lon="0.67975">
        <ele>58.064361572266</ele>
        <time>2014-03-29T18:03:13Z</time>
      </trkpt>
      <trkpt lat="49.55718" lon="0.67964">
        <ele>57.839477539062</ele>
        <time>2014-03-29T18:03:16Z</time>
      </trkpt>
      <trkpt lat="49.55719" lon="0.67946">
        <ele>57.645999908447</ele>
        <time>2014-03-29T18:03:21Z</time>
      </trkpt>
      <trkpt lat="49.55717" lon="0.67932">
        <ele>57.670215606689</ele>
        <time>2014-03-29T18:03:25Z</time>
      </trkpt>
      <trkpt lat="49.55717" lon="0.67929">
        <ele>57.644428253174</ele>
        <time>2014-03-29T18:03:26Z</time>
      </trkpt>
      <trkpt lat="49.55721" lon="0.67909">
        <ele>57.247978210449</ele>
        <time>2014-03-29T18:03:32Z</time>
      </trkpt>
      <trkpt lat="49.55731" lon="0.6789">
        <ele>56.191505432129</ele>
        <time>2014-03-29T18:03:36Z</time>
      </trkpt>
      <trkpt lat="49.55739" lon="0.67871">
        <ele>55.098365783691</ele>
        <time>2014-03-29T18:03:41Z</time>
      </trkpt>
      <trkpt lat="49.55739" lon="0.67852">
        <ele>54.993160247803</ele>
        <time>2014-03-29T18:03:46Z</time>
      </trkpt>
      <trkpt lat="49.5574" lon="0.6784">
        <ele>54.827289581299</ele>
        <time>2014-03-29T18:03:49Z</time>
      </trkpt>
      <trkpt lat="49.55743" lon="0.67824">
        <ele>54.406436920166</ele>
        <time>2014-03-29T18:03:53Z</time>
      </trkpt>
      <trkpt lat="49.55743" lon="0.67812">
        <ele>54.610252380371</ele>
        <time>2014-03-29T18:03:56Z</time>
      </trkpt>
      <trkpt lat="49.55743" lon="0.67792">
        <ele>54.870838165283</ele>
        <time>2014-03-29T18:04:01Z</time>
      </trkpt>
      <trkpt lat="49.55743" lon="0.6778">
        <ele>55.072959899902</ele>
        <time>2014-03-29T18:04:04Z</time>
      </trkpt>
      <trkpt lat="49.55742" lon="0.67766">
        <ele>55.744613647461</ele>
        <time>2014-03-29T18:04:08Z</time>
      </trkpt>
      <trkpt lat="49.55734" lon="0.67746">
        <ele>57.97008895874</ele>
        <time>2014-03-29T18:04:14Z</time>
      </trkpt>
      <trkpt lat="49.55739" lon="0.67729">
        <ele>57.554206848145</ele>
        <time>2014-03-29T18:04:18Z</time>
      </trkpt>
      <trkpt lat="49.55754" lon="0.67701">
        <ele>56.066093444824</ele>
        <time>2014-03-29T18:04:25Z</time>
      </trkpt>
      <trkpt lat="49.55764" lon="0.67685">
        <ele>57.024494171143</ele>
        <time>2014-03-29T18:04:30Z</time>
      </trkpt>
      <trkpt lat="49.55772" lon="0.67674">
        <ele>57.457279205322</ele>
        <time>2014-03-29T18:04:34Z</time>
      </trkpt>
      <trkpt lat="49.55778" lon="0.67662">
        <ele>57.894466400146</ele>
        <time>2014-03-29T18:04:38Z</time>
      </trkpt>
      <trkpt lat="49.55781" lon="0.67655">
        <ele>58.290954589844</ele>
        <time>2014-03-29T18:04:41Z</time>
      </trkpt>
      <trkpt lat="49.55783" lon="0.67641">
        <ele>58.91450881958</ele>
        <time>2014-03-29T18:04:46Z</time>
      </trkpt>
      <trkpt lat="49.55786" lon="0.67629">
        <ele>59.316131591797</ele>
        <time>2014-03-29T18:04:49Z</time>
      </trkpt>
      <trkpt lat="49.55787" lon="0.67619">
        <ele>59.676769256592</ele>
        <time>2014-03-29T18:04:53Z</time>
      </trkpt>
      <trkpt lat="49.55788" lon="0.67616">
        <ele>59.712585449219</ele>
        <time>2014-03-29T18:04:54Z</time>
      </trkpt>
      <trkpt lat="49.55798" lon="0.67595">
        <ele>59.561206817627</ele>
        <time>2014-03-29T18:05:01Z</time>
      </trkpt>
      <trkpt lat="49.55803" lon="0.67587">
        <ele>59.237205505371</ele>
        <time>2014-03-29T18:05:03Z</time>
      </trkpt>
      <trkpt lat="49.55814" lon="0.67569">
        <ele>58.567497253418</ele>
        <time>2014-03-29T18:05:08Z</time>
      </trkpt>
      <trkpt lat="49.55823" lon="0.67554">
        <ele>57.85241317749</ele>
        <time>2014-03-29T18:05:13Z</time>
      </trkpt>
      <trkpt lat="49.5583" lon="0.67544">
        <ele>57.069465637207</ele>
        <time>2014-03-29T18:05:17Z</time>
      </trkpt>
      <trkpt lat="49.55835" lon="0.6754">
        <ele>56.767295837402</ele>
        <time>2014-03-29T18:05:19Z</time>
      </trkpt>
      <trkpt lat="49.55838" lon="0.67527">
        <ele>57.118942260742</ele>
        <time>2014-03-29T18:05:24Z</time>
      </trkpt>
      <trkpt lat="49.55842" lon="0.67514">
        <ele>57.530166625977</ele>
        <time>2014-03-29T18:05:28Z</time>
      </trkpt>
      <trkpt lat="49.55847" lon="0.67487">
        <ele>58.941722869873</ele>
        <time>2014-03-29T18:05:35Z</time>
      </trkpt>
      <trkpt lat="49.55848" lon="0.67484">
        <ele>59.215492248535</ele>
        <time>2014-03-29T18:05:36Z</time>
      </trkpt>
      <trkpt lat="49.55856" lon="0.67466">
        <ele>60.717803955078</ele>
        <time>2014-03-29T18:05:42Z</time>
      </trkpt>
      <trkpt lat="49.55857" lon="0.67447">
        <ele>61.989749908447</ele>
        <time>2014-03-29T18:05:47Z</time>
      </trkpt>
      <trkpt lat="49.55861" lon="0.67429">
        <ele>62.967182159424</ele>
        <time>2014-03-29T18:05:53Z</time>
      </trkpt>
      <trkpt lat="49.55866" lon="0.67414">
        <ele>63.350780487061</ele>
        <time>2014-03-29T18:05:57Z</time>
      </trkpt>
      <trkpt lat="49.55873" lon="0.67401">
        <ele>63.403457641602</ele>
        <time>2014-03-29T18:06:01Z</time>
      </trkpt>
      <trkpt lat="49.55881" lon="0.67387">
        <ele>63.087001800537</ele>
        <time>2014-03-29T18:06:05Z</time>
      </trkpt>
      <trkpt lat="49.55883" lon="0.67375">
        <ele>63.198291778564</ele>
        <time>2014-03-29T18:06:09Z</time>
      </trkpt>
      <trkpt lat="49.55889" lon="0.67364">
        <ele>62.825912475586</ele>
        <time>2014-03-29T18:06:14Z</time>
      </trkpt>
      <trkpt lat="49.55891" lon="0.6735">
        <ele>62.806602478027</ele>
        <time>2014-03-29T18:06:18Z</time>
      </trkpt>
      <trkpt lat="49.55896" lon="0.67342">
        <ele>62.229713439941</ele>
        <time>2014-03-29T18:06:21Z</time>
      </trkpt>
      <trkpt lat="49.55897" lon="0.67339">
        <ele>62.164928436279</ele>
        <time>2014-03-29T18:06:22Z</time>
      </trkpt>
      <trkpt lat="49.55898" lon="0.67334">
        <ele>62.211338043213</ele>
        <time>2014-03-29T18:06:24Z</time>
      </trkpt>
      <trkpt lat="49.55904" lon="0.67319">
        <ele>61.859851837158</ele>
        <time>2014-03-29T18:06:28Z</time>
      </trkpt>
      <trkpt lat="49.5591" lon="0.67309">
        <ele>61.44380569458</ele>
        <time>2014-03-29T18:06:31Z</time>
      </trkpt>
      <trkpt lat="49.55919" lon="0.67291">
        <ele>61.23384475708</ele>
        <time>2014-03-29T18:06:37Z</time>
      </trkpt>
      <trkpt lat="49.55925" lon="0.67277">
        <ele>62.33810043335</ele>
        <time>2014-03-29T18:06:42Z</time>
      </trkpt>
      <trkpt lat="49.55927" lon="0.67275">
        <ele>62.505989074707</ele>
        <time>2014-03-29T18:06:43Z</time>
      </trkpt>
      <trkpt lat="49.55931" lon="0.67263">
        <ele>63.086566925049</ele>
        <time>2014-03-29T18:06:47Z</time>
      </trkpt>
      <trkpt lat="49.55939" lon="0.67252">
        <ele>63.524101257324</ele>
        <time>2014-03-29T18:06:51Z</time>
      </trkpt>
      <trkpt lat="49.55943" lon="0.67246">
        <ele>63.727214813232</ele>
        <time>2014-03-29T18:06:53Z</time>
      </trkpt>
      <trkpt lat="49.55951" lon="0.67234">
        <ele>64.074012756348</ele>
        <time>2014-03-29T18:06:58Z</time>
      </trkpt>
      <trkpt lat="49.55957" lon="0.67222">
        <ele>64.19206237793</ele>
        <time>2014-03-29T18:07:02Z</time>
      </trkpt>
      <trkpt lat="49.55961" lon="0.67211">
        <ele>64.158126831055</ele>
        <time>2014-03-29T18:07:05Z</time>
      </trkpt>
      <trkpt lat="49.55965" lon="0.67195">
        <ele>64.030601501465</ele>
        <time>2014-03-29T18:07:10Z</time>
      </trkpt>
      <trkpt lat="49.55966" lon="0.67185">
        <ele>63.915637969971</ele>
        <time>2014-03-29T18:07:13Z</time>
      </trkpt>
      <trkpt lat="49.55967" lon="0.67181">
        <ele>63.827651977539</ele>
        <time>2014-03-29T18:07:14Z</time>
      </trkpt>
      <trkpt lat="49.55974" lon="0.67168">
        <ele>63.223125457764</ele>
        <time>2014-03-29T18:07:18Z</time>
      </trkpt>
      <trkpt lat="49.55981" lon="0.67155">
        <ele>63.099761962891</ele>
        <time>2014-03-29T18:07:22Z</time>
      </trkpt>
      <trkpt lat="49.55983" lon="0.67152">
        <ele>63.054248809814</ele>
        <time>2014-03-29T18:07:23Z</time>
      </trkpt>
      <trkpt lat="49.55993" lon="0.67139">
        <ele>62.699596405029</ele>
        <time>2014-03-29T18:07:28Z</time>
      </trkpt>
      <trkpt lat="49.55995" lon="0.67136">
        <ele>62.577579498291</ele>
        <time>2014-03-29T18:07:29Z</time>
      </trkpt>
      <trkpt lat="49.56009" lon="0.67129">
        <ele>62.018669128418</ele>
        <time>2014-03-29T18:07:34Z</time>
      </trkpt>
      <trkpt lat="49.56015" lon="0.67129">
        <ele>61.822505950928</ele>
        <time>2014-03-29T18:07:37Z</time>
      </trkpt>
      <trkpt lat="49.56026" lon="0.67127">
        <ele>61.416641235352</ele>
        <time>2014-03-29T18:07:43Z</time>
      </trkpt>
      <trkpt lat="49.56028" lon="0.67128">
        <ele>61.361141204834</ele>
        <time>2014-03-29T18:07:44Z</time>
      </trkpt>
      <trkpt lat="49.56032" lon="0.6713">
        <ele>61.228355407715</ele>
        <time>2014-03-29T18:07:48Z</time>
      </trkpt>
      <trkpt lat="49.56034" lon="0.67131">
        <ele>61.164112091064</ele>
        <time>2014-03-29T18:07:50Z</time>
      </trkpt>
      <trkpt lat="49.5604" lon="0.67135">
        <ele>61.098247528076</ele>
        <time>2014-03-29T18:07:54Z</time>
      </trkpt>
      <trkpt lat="49.56042" lon="0.67133">
        <ele>60.987358093262</ele>
        <time>2014-03-29T18:08:02Z</time>
      </trkpt>
      <trkpt lat="49.56044" lon="0.67126">
        <ele>60.655296325684</ele>
        <time>2014-03-29T18:08:06Z</time>
      </trkpt>
      <trkpt lat="49.56057" lon="0.67122">
        <ele>59.938125610352</ele>
        <time>2014-03-29T18:08:13Z</time>
      </trkpt>
      <trkpt lat="49.5606" lon="0.67121">
        <ele>59.702644348145</ele>
        <time>2014-03-29T18:08:15Z</time>
      </trkpt>
      <trkpt lat="49.56065" lon="0.6712">
        <ele>59.464015960693</ele>
        <time>2014-03-29T18:08:18Z</time>
      </trkpt>
      <trkpt lat="49.5607" lon="0.67122">
        <ele>59.327709197998</ele>
        <time>2014-03-29T18:08:22Z</time>
      </trkpt>
      <trkpt lat="49.56076" lon="0.67122">
        <ele>59.048530578613</ele>
        <time>2014-03-29T18:08:26Z</time>
      </trkpt>
      <trkpt lat="49.56086" lon="0.67125">
        <ele>59.132682800293</ele>
        <time>2014-03-29T18:08:32Z</time>
      </trkpt>
      <trkpt lat="49.56089" lon="0.67127">
        <ele>59.437633514404</ele>
        <time>2014-03-29T18:08:35Z</time>
      </trkpt>
      <trkpt lat="49.56087" lon="0.67134">
        <ele>60.05574798584</ele>
        <time>2014-03-29T18:08:39Z</time>
      </trkpt>
      <trkpt lat="49.56092" lon="0.67141">
        <ele>60.904563903809</ele>
        <time>2014-03-29T18:08:43Z</time>
      </trkpt>
      <trkpt lat="49.56097" lon="0.67146">
        <ele>61.447780609131</ele>
        <time>2014-03-29T18:08:48Z</time>
      </trkpt>
      <trkpt lat="49.56106" lon="0.67147">
        <ele>61.840030670166</ele>
        <time>2014-03-29T18:08:53Z</time>
      </trkpt>
      <trkpt lat="49.56108" lon="0.67149">
        <ele>62.030769348145</ele>
        <time>2014-03-29T18:08:55Z</time>
      </trkpt>
      <trkpt lat="49.56112" lon="0.67151">
        <ele>62.319339752197</ele>
        <time>2014-03-29T18:08:59Z</time>
      </trkpt>
      <trkpt lat="49.56118" lon="0.67157">
        <ele>62.845958709717</ele>
        <time>2014-03-29T18:09:04Z</time>
      </trkpt>
      <trkpt lat="49.56123" lon="0.67162">
        <ele>63.191112518311</ele>
        <time>2014-03-29T18:09:09Z</time>
      </trkpt>
      <trkpt lat="49.56124" lon="0.67162">
        <ele>63.245685577393</ele>
        <time>2014-03-29T18:09:10Z</time>
      </trkpt>
      <trkpt lat="49.56129" lon="0.67169">
        <ele>63.891231536865</ele>
        <time>2014-03-29T18:09:15Z</time>
      </trkpt>
      <trkpt lat="49.56133" lon="0.67172">
        <ele>64.347206115723</ele>
        <time>2014-03-29T18:09:18Z</time>
      </trkpt>
      <trkpt lat="49.5614" lon="0.67177">
        <ele>65.301643371582</ele>
        <time>2014-03-29T18:09:24Z</time>
      </trkpt>
      <trkpt lat="49.56148" lon="0.67183">
        <ele>66.274604797363</ele>
        <time>2014-03-29T18:09:29Z</time>
      </trkpt>
      <trkpt lat="49.56152" lon="0.67187">
        <ele>66.990859985352</ele>
        <time>2014-03-29T18:09:33Z</time>
      </trkpt>
      <trkpt lat="49.56152" lon="0.67188">
        <ele>67.186912536621</ele>
        <time>2014-03-29T18:09:34Z</time>
      </trkpt>
      <trkpt lat="49.56157" lon="0.67192">
        <ele>67.866767883301</ele>
        <time>2014-03-29T18:09:38Z</time>
      </trkpt>
      <trkpt lat="49.5616" lon="0.67196">
        <ele>68.481597900391</ele>
        <time>2014-03-29T18:09:41Z</time>
      </trkpt>
      <trkpt lat="49.56164" lon="0.67199">
        <ele>69.017395019531</ele>
        <time>2014-03-29T18:09:44Z</time>
      </trkpt>
      <trkpt lat="49.56167" lon="0.67201">
        <ele>69.399124145508</ele>
        <time>2014-03-29T18:09:46Z</time>
      </trkpt>
      <trkpt lat="49.5617" lon="0.67204">
        <ele>69.701972961426</ele>
        <time>2014-03-29T18:09:49Z</time>
      </trkpt>
      <trkpt lat="49.56172" lon="0.67206">
        <ele>69.997001647949</ele>
        <time>2014-03-29T18:09:51Z</time>
      </trkpt>
      <trkpt lat="49.56176" lon="0.6721">
        <ele>70.496925354004</ele>
        <time>2014-03-29T18:09:55Z</time>
      </trkpt>
      <trkpt lat="49.56183" lon="0.67215">
        <ele>70.89086151123</ele>
        <time>2014-03-29T18:10:01Z</time>
      </trkpt>
      <trkpt lat="49.56184" lon="0.67216">
        <ele>70.972885131836</ele>
        <time>2014-03-29T18:10:02Z</time>
      </trkpt>
      <trkpt lat="49.56187" lon="0.67218">
        <ele>71.196517944336</ele>
        <time>2014-03-29T18:10:06Z</time>
      </trkpt>
      <trkpt lat="49.56189" lon="0.67219">
        <ele>71.279319763184</ele>
        <time>2014-03-29T18:10:09Z</time>
      </trkpt>
      <trkpt lat="49.56192" lon="0.67224">
        <ele>71.739288330078</ele>
        <time>2014-03-29T18:10:13Z</time>
      </trkpt>
      <trkpt lat="49.56196" lon="0.67229">
        <ele>72.249542236328</ele>
        <time>2014-03-29T18:10:19Z</time>
      </trkpt>
      <trkpt lat="49.56201" lon="0.67234">
        <ele>72.613090515137</ele>
        <time>2014-03-29T18:10:23Z</time>
      </trkpt>
      <trkpt lat="49.56209" lon="0.67243">
        <ele>73.158058166504</ele>
        <time>2014-03-29T18:10:31Z</time>
      </trkpt>
      <trkpt lat="49.56213" lon="0.67245">
        <ele>73.143814086914</ele>
        <time>2014-03-29T18:10:35Z</time>
      </trkpt>
      <trkpt lat="49.56216" lon="0.67248">
        <ele>73.274299621582</ele>
        <time>2014-03-29T18:10:41Z</time>
      </trkpt>
      <trkpt lat="49.56219" lon="0.67251">
        <ele>73.472671508789</ele>
        <time>2014-03-29T18:10:46Z</time>
      </trkpt>
      <trkpt lat="49.56223" lon="0.67256">
        <ele>74.210250854492</ele>
        <time>2014-03-29T18:10:53Z</time>
      </trkpt>
      <trkpt lat="49.56225" lon="0.67259">
        <ele>74.513076782227</ele>
        <time>2014-03-29T18:10:55Z</time>
      </trkpt>
      <trkpt lat="49.56228" lon="0.67262">
        <ele>74.90128326416</ele>
        <time>2014-03-29T18:11:01Z</time>
      </trkpt>
      <trkpt lat="49.5623" lon="0.67263">
        <ele>75.059478759766</ele>
        <time>2014-03-29T18:11:02Z</time>
      </trkpt>
      <trkpt lat="49.56236" lon="0.67267">
        <ele>75.434707641602</ele>
        <time>2014-03-29T18:11:09Z</time>
      </trkpt>
      <trkpt lat="49.56237" lon="0.67269">
        <ele>75.616828918457</ele>
        <time>2014-03-29T18:11:11Z</time>
      </trkpt>
      <trkpt lat="49.5624" lon="0.67277">
        <ele>76.963645935059</ele>
        <time>2014-03-29T18:11:17Z</time>
      </trkpt>
      <trkpt lat="49.56245" lon="0.67283">
        <ele>77.6181640625</ele>
        <time>2014-03-29T18:11:22Z</time>
      </trkpt>
      <trkpt lat="49.56247" lon="0.67285">
        <ele>78.05931854248</ele>
        <time>2014-03-29T18:11:24Z</time>
      </trkpt>
      <trkpt lat="49.56247" lon="0.67287">
        <ele>78.368591308594</ele>
        <time>2014-03-29T18:11:26Z</time>
      </trkpt>
      <trkpt lat="49.5625" lon="0.67292">
        <ele>79.042037963867</ele>
        <time>2014-03-29T18:11:30Z</time>
      </trkpt>
      <trkpt lat="49.56253" lon="0.67295">
        <ele>79.254997253418</ele>
        <time>2014-03-29T18:11:33Z</time>
      </trkpt>
      <trkpt lat="49.56256" lon="0.67299">
        <ele>79.714714050293</ele>
        <time>2014-03-29T18:11:37Z</time>
      </trkpt>
      <trkpt lat="49.56261" lon="0.67308">
        <ele>80.602203369141</ele>
        <time>2014-03-29T18:11:43Z</time>
      </trkpt>
      <trkpt lat="49.56271" lon="0.67319">
        <ele>80.850456237793</ele>
        <time>2014-03-29T18:11:50Z</time>
      </trkpt>
      <trkpt lat="49.56277" lon="0.67326">
        <ele>80.852867126465</ele>
        <time>2014-03-29T18:11:55Z</time>
      </trkpt>
      <trkpt lat="49.5628" lon="0.67328">
        <ele>80.629463195801</ele>
        <time>2014-03-29T18:11:57Z</time>
      </trkpt>
      <trkpt lat="49.56283" lon="0.67333">
        <ele>80.529678344727</ele>
        <time>2014-03-29T18:12:00Z</time>
      </trkpt>
      <trkpt lat="49.56287" lon="0.67337">
        <ele>80.509117126465</ele>
        <time>2014-03-29T18:12:04Z</time>
      </trkpt>
      <trkpt lat="49.5629" lon="0.6734">
        <ele>80.354454040527</ele>
        <time>2014-03-29T18:12:07Z</time>
      </trkpt>
      <trkpt lat="49.56297" lon="0.67347">
        <ele>80.463989257812</ele>
        <time>2014-03-29T18:12:12Z</time>
      </trkpt>
      <trkpt lat="49.56298" lon="0.67348">
        <ele>80.464179992676</ele>
        <time>2014-03-29T18:12:14Z</time>
      </trkpt>
      <trkpt lat="49.56303" lon="0.67358">
        <ele>81.275405883789</ele>
        <time>2014-03-29T18:12:20Z</time>
      </trkpt>
      <trkpt lat="49.56307" lon="0.67365">
        <ele>81.807624816895</ele>
        <time>2014-03-29T18:12:27Z</time>
      </trkpt>
      <trkpt lat="49.56308" lon="0.67366">
        <ele>81.915740966797</ele>
        <time>2014-03-29T18:12:28Z</time>
      </trkpt>
      <trkpt lat="49.56313" lon="0.67373">
        <ele>82.270652770996</ele>
        <time>2014-03-29T18:12:33Z</time>
      </trkpt>
      <trkpt lat="49.56315" lon="0.67375">
        <ele>82.285545349121</ele>
        <time>2014-03-29T18:12:35Z</time>
      </trkpt>
      <trkpt lat="49.56317" lon="0.67378">
        <ele>82.454048156738</ele>
        <time>2014-03-29T18:12:37Z</time>
      </trkpt>
      <trkpt lat="49.56323" lon="0.67386">
        <ele>82.9609375</ele>
        <time>2014-03-29T18:12:42Z</time>
      </trkpt>
      <trkpt lat="49.56329" lon="0.67393">
        <ele>83.283248901367</ele>
        <time>2014-03-29T18:12:47Z</time>
      </trkpt>
      <trkpt lat="49.5633" lon="0.67395">
        <ele>83.486465454102</ele>
        <time>2014-03-29T18:12:49Z</time>
      </trkpt>
      <trkpt lat="49.56335" lon="0.67403">
        <ele>84.17839050293</ele>
        <time>2014-03-29T18:12:54Z</time>
      </trkpt>
      <trkpt lat="49.56339" lon="0.67409">
        <ele>84.944297790527</ele>
        <time>2014-03-29T18:12:58Z</time>
      </trkpt>
      <trkpt lat="49.5634" lon="0.67411">
        <ele>85.046127319336</ele>
        <time>2014-03-29T18:12:59Z</time>
      </trkpt>
      <trkpt lat="49.56344" lon="0.67416">
        <ele>85.41682434082</ele>
        <time>2014-03-29T18:13:03Z</time>
      </trkpt>
      <trkpt lat="49.56345" lon="0.67419">
        <ele>85.822929382324</ele>
        <time>2014-03-29T18:13:05Z</time>
      </trkpt>
      <trkpt lat="49.56351" lon="0.67428">
        <ele>86.943794250488</ele>
        <time>2014-03-29T18:13:10Z</time>
      </trkpt>
      <trkpt lat="49.56355" lon="0.67435">
        <ele>87.68962097168</ele>
        <time>2014-03-29T18:13:15Z</time>
      </trkpt>
      <trkpt lat="49.56356" lon="0.67437">
        <ele>87.966148376465</ele>
        <time>2014-03-29T18:13:17Z</time>
      </trkpt>
      <trkpt lat="49.56357" lon="0.67439">
        <ele>88.265167236328</ele>
        <time>2014-03-29T18:13:19Z</time>
      </trkpt>
      <trkpt lat="49.56359" lon="0.67444">
        <ele>88.918533325195</ele>
        <time>2014-03-29T18:13:22Z</time>
      </trkpt>
      <trkpt lat="49.56364" lon="0.6745">
        <ele>89.444786071777</ele>
        <time>2014-03-29T18:13:28Z</time>
      </trkpt>
      <trkpt lat="49.56372" lon="0.67457">
        <ele>89.662124633789</ele>
        <time>2014-03-29T18:13:35Z</time>
      </trkpt>
      <trkpt lat="49.56375" lon="0.67461">
        <ele>89.983245849609</ele>
        <time>2014-03-29T18:13:39Z</time>
      </trkpt>
      <trkpt lat="49.5638" lon="0.67465">
        <ele>90.097869873047</ele>
        <time>2014-03-29T18:13:43Z</time>
      </trkpt>
      <trkpt lat="49.56382" lon="0.6747">
        <ele>90.576278686523</ele>
        <time>2014-03-29T18:13:46Z</time>
      </trkpt>
      <trkpt lat="49.56389" lon="0.67476">
        <ele>90.809532165527</ele>
        <time>2014-03-29T18:13:51Z</time>
      </trkpt>
      <trkpt lat="49.56396" lon="0.67485">
        <ele>91.421287536621</ele>
        <time>2014-03-29T18:13:56Z</time>
      </trkpt>
      <trkpt lat="49.56402" lon="0.67493">
        <ele>91.953559875488</ele>
        <time>2014-03-29T18:14:01Z</time>
      </trkpt>
      <trkpt lat="49.56406" lon="0.67498">
        <ele>92.432197570801</ele>
        <time>2014-03-29T18:14:05Z</time>
      </trkpt>
      <trkpt lat="49.56411" lon="0.67503">
        <ele>92.49853515625</ele>
        <time>2014-03-29T18:14:09Z</time>
      </trkpt>
      <trkpt lat="49.56413" lon="0.67506">
        <ele>92.881462097168</ele>
        <time>2014-03-29T18:14:12Z</time>
      </trkpt>
      <trkpt lat="49.56419" lon="0.67512">
        <ele>93.417839050293</ele>
        <time>2014-03-29T18:14:17Z</time>
      </trkpt>
      <trkpt lat="49.56421" lon="0.67515">
        <ele>93.841117858887</ele>
        <time>2014-03-29T18:14:19Z</time>
      </trkpt>
      <trkpt lat="49.56425" lon="0.67521">
        <ele>94.717086791992</ele>
        <time>2014-03-29T18:14:24Z</time>
      </trkpt>
      <trkpt lat="49.56429" lon="0.67526">
        <ele>95.31600189209</ele>
        <time>2014-03-29T18:14:29Z</time>
      </trkpt>
      <trkpt lat="49.5643" lon="0.67527">
        <ele>95.491722106934</ele>
        <time>2014-03-29T18:14:30Z</time>
      </trkpt>
      <trkpt lat="49.56431" lon="0.67531">
        <ele>96.165466308594</ele>
        <time>2014-03-29T18:14:34Z</time>
      </trkpt>
      <trkpt lat="49.56437" lon="0.67534">
        <ele>96.195289611816</ele>
        <time>2014-03-29T18:14:38Z</time>
      </trkpt>
      <trkpt lat="49.56439" lon="0.67535">
        <ele>96.233764648438</ele>
        <time>2014-03-29T18:14:41Z</time>
      </trkpt>
      <trkpt lat="49.56445" lon="0.67539">
        <ele>96.338775634766</ele>
        <time>2014-03-29T18:14:46Z</time>
      </trkpt>
      <trkpt lat="49.56448" lon="0.67543">
        <ele>96.793312072754</ele>
        <time>2014-03-29T18:14:49Z</time>
      </trkpt>
      <trkpt lat="49.56454" lon="0.67548">
        <ele>97.234375</ele>
        <time>2014-03-29T18:14:55Z</time>
      </trkpt>
      <trkpt lat="49.56456" lon="0.6755">
        <ele>97.300064086914</ele>
        <time>2014-03-29T18:14:58Z</time>
      </trkpt>
      <trkpt lat="49.56454" lon="0.67542">
        <ele>95.982666015625</ele>
        <time>2014-03-29T18:15:04Z</time>
      </trkpt>
      <trkpt lat="49.56452" lon="0.67533">
        <ele>94.457969665527</ele>
        <time>2014-03-29T18:15:08Z</time>
      </trkpt>
      <trkpt lat="49.56452" lon="0.67522">
        <ele>92.238784790039</ele>
        <time>2014-03-29T18:15:13Z</time>
      </trkpt>
      <trkpt lat="49.56454" lon="0.6751">
        <ele>89.825408935547</ele>
        <time>2014-03-29T18:15:18Z</time>
      </trkpt>
      <trkpt lat="49.5645" lon="0.67501">
        <ele>88.277046203613</ele>
        <time>2014-03-29T18:15:22Z</time>
      </trkpt>
      <trkpt lat="49.56447" lon="0.67489">
        <ele>87.11400604248</ele>
        <time>2014-03-29T18:15:27Z</time>
      </trkpt>
      <trkpt lat="49.56444" lon="0.6748">
        <ele>86.073295593262</ele>
        <time>2014-03-29T18:15:31Z</time>
      </trkpt>
      <trkpt lat="49.56446" lon="0.67469">
        <ele>84.697776794434</ele>
        <time>2014-03-29T18:15:36Z</time>
      </trkpt>
      <trkpt lat="49.56444" lon="0.67458">
        <ele>83.234603881836</ele>
        <time>2014-03-29T18:15:40Z</time>
      </trkpt>
      <trkpt lat="49.56441" lon="0.67448">
        <ele>81.905570983887</ele>
        <time>2014-03-29T18:15:45Z</time>
      </trkpt>
      <trkpt lat="49.56438" lon="0.67439">
        <ele>80.711791992188</ele>
        <time>2014-03-29T18:15:49Z</time>
      </trkpt>
      <trkpt lat="49.56438" lon="0.67426">
        <ele>78.882934570312</ele>
        <time>2014-03-29T18:15:54Z</time>
      </trkpt>
      <trkpt lat="49.56446" lon="0.6741">
        <ele>78.227104187012</ele>
        <time>2014-03-29T18:16:00Z</time>
      </trkpt>
      <trkpt lat="49.56451" lon="0.67402">
        <ele>78.888710021973</ele>
        <time>2014-03-29T18:16:03Z</time>
      </trkpt>
      <trkpt lat="49.56459" lon="0.67392">
        <ele>80.142707824707</ele>
        <time>2014-03-29T18:16:08Z</time>
      </trkpt>
      <trkpt lat="49.56461" lon="0.67389">
        <ele>80.481094360352</ele>
        <time>2014-03-29T18:16:10Z</time>
      </trkpt>
      <trkpt lat="49.56466" lon="0.67386">
        <ele>81.146171569824</ele>
        <time>2014-03-29T18:16:13Z</time>
      </trkpt>
      <trkpt lat="49.5647" lon="0.67379">
        <ele>82.133522033691</ele>
        <time>2014-03-29T18:16:19Z</time>
      </trkpt>
      <trkpt lat="49.56471" lon="0.67378">
        <ele>82.370986938477</ele>
        <time>2014-03-29T18:16:21Z</time>
      </trkpt>
      <trkpt lat="49.56472" lon="0.67373">
        <ele>82.831474304199</ele>
        <time>2014-03-29T18:16:25Z</time>
      </trkpt>
      <trkpt lat="49.56472" lon="0.67363">
        <ele>83.397644042969</ele>
        <time>2014-03-29T18:16:32Z</time>
      </trkpt>
      <trkpt lat="49.56472" lon="0.67361">
        <ele>83.494926452637</ele>
        <time>2014-03-29T18:16:34Z</time>
      </trkpt>
      <trkpt lat="49.56477" lon="0.67352">
        <ele>84.998695373535</ele>
        <time>2014-03-29T18:16:40Z</time>
      </trkpt>
      <trkpt lat="49.5648" lon="0.67347">
        <ele>85.900703430176</ele>
        <time>2014-03-29T18:16:44Z</time>
      </trkpt>
      <trkpt lat="49.56481" lon="0.67342">
        <ele>86.430358886719</ele>
        <time>2014-03-29T18:16:47Z</time>
      </trkpt>
      <trkpt lat="49.56481" lon="0.6734">
        <ele>86.539009094238</ele>
        <time>2014-03-29T18:16:48Z</time>
      </trkpt>
      <trkpt lat="49.56482" lon="0.67338">
        <ele>87.050331115723</ele>
        <time>2014-03-29T18:16:51Z</time>
      </trkpt>
      <trkpt lat="49.56484" lon="0.67336">
        <ele>87.558120727539</ele>
        <time>2014-03-29T18:16:53Z</time>
      </trkpt>
      <trkpt lat="49.56486" lon="0.67334">
        <ele>88.044166564941</ele>
        <time>2014-03-29T18:16:55Z</time>
      </trkpt>
      <trkpt lat="49.56487" lon="0.67327">
        <ele>89.249900817871</ele>
        <time>2014-03-29T18:17:01Z</time>
      </trkpt>
      <trkpt lat="49.56486" lon="0.67318">
        <ele>90.589004516602</ele>
        <time>2014-03-29T18:17:07Z</time>
      </trkpt>
      <trkpt lat="49.56487" lon="0.67311">
        <ele>91.709037780762</ele>
        <time>2014-03-29T18:17:12Z</time>
      </trkpt>
      <trkpt lat="49.56487" lon="0.67309">
        <ele>92.124389648438</ele>
        <time>2014-03-29T18:17:14Z</time>
      </trkpt>
      <trkpt lat="49.56485" lon="0.67303">
        <ele>92.652656555176</ele>
        <time>2014-03-29T18:17:20Z</time>
      </trkpt>
      <trkpt lat="49.56481" lon="0.67296">
        <ele>92.755393981934</ele>
        <time>2014-03-29T18:17:25Z</time>
      </trkpt>
      <trkpt lat="49.56479" lon="0.67294">
        <ele>92.633277893066</ele>
        <time>2014-03-29T18:17:26Z</time>
      </trkpt>
      <trkpt lat="49.56476" lon="0.67287">
        <ele>93.264030456543</ele>
        <time>2014-03-29T18:17:32Z</time>
      </trkpt>
      <trkpt lat="49.56478" lon="0.67284">
        <ele>93.953491210938</ele>
        <time>2014-03-29T18:17:35Z</time>
      </trkpt>
      <trkpt lat="49.56479" lon="0.67276">
        <ele>95.444984436035</ele>
        <time>2014-03-29T18:17:40Z</time>
      </trkpt>
      <trkpt lat="49.5648" lon="0.67269">
        <ele>96.637878417969</ele>
        <time>2014-03-29T18:17:46Z</time>
      </trkpt>
      <trkpt lat="49.5648" lon="0.67265">
        <ele>97.532783508301</ele>
        <time>2014-03-29T18:17:51Z</time>
      </trkpt>
      <trkpt lat="49.5648" lon="0.67263">
        <ele>97.597679138184</ele>
        <time>2014-03-29T18:17:53Z</time>
      </trkpt>
      <trkpt lat="49.56481" lon="0.67254">
        <ele>99.293983459473</ele>
        <time>2014-03-29T18:17:58Z</time>
      </trkpt>
      <trkpt lat="49.56484" lon="0.67244">
        <ele>101.65837097168</ele>
        <time>2014-03-29T18:18:05Z</time>
      </trkpt>
      <trkpt lat="49.56486" lon="0.6724">
        <ele>102.92880249023</ele>
        <time>2014-03-29T18:18:09Z</time>
      </trkpt>
      <trkpt lat="49.56487" lon="0.67237">
        <ele>103.65490722656</ele>
        <time>2014-03-29T18:18:11Z</time>
      </trkpt>
      <trkpt lat="49.56486" lon="0.67231">
        <ele>104.62725830078</ele>
        <time>2014-03-29T18:18:16Z</time>
      </trkpt>
      <trkpt lat="49.56485" lon="0.67229">
        <ele>104.78307342529</ele>
        <time>2014-03-29T18:18:18Z</time>
      </trkpt>
      <trkpt lat="49.56487" lon="0.67226">
        <ele>105.75686645508</ele>
        <time>2014-03-29T18:18:21Z</time>
      </trkpt>
      <trkpt lat="49.56486" lon="0.6722">
        <ele>106.60321044922</ele>
        <time>2014-03-29T18:18:28Z</time>
      </trkpt>
      <trkpt lat="49.56487" lon="0.67217">
        <ele>107.40549468994</ele>
        <time>2014-03-29T18:18:33Z</time>
      </trkpt>
      <trkpt lat="49.56487" lon="0.67215">
        <ele>107.75286865234</ele>
        <time>2014-03-29T18:18:40Z</time>
      </trkpt>
      <trkpt lat="49.56487" lon="0.67212">
        <ele>108.3283996582</ele>
        <time>2014-03-29T18:18:46Z</time>
      </trkpt>
      <trkpt lat="49.56484" lon="0.67208">
        <ele>108.47464752197</ele>
        <time>2014-03-29T18:18:51Z</time>
      </trkpt>
      <trkpt lat="49.56482" lon="0.67203">
        <ele>109.02906036377</ele>
        <time>2014-03-29T18:18:56Z</time>
      </trkpt>
      <trkpt lat="49.56483" lon="0.672">
        <ele>109.88171386719</ele>
        <time>2014-03-29T18:19:02Z</time>
      </trkpt>
      <trkpt lat="49.56484" lon="0.67198">
        <ele>110.4376449585</ele>
        <time>2014-03-29T18:19:06Z</time>
      </trkpt>
      <trkpt lat="49.56485" lon="0.67196">
        <ele>111.02220153809</ele>
        <time>2014-03-29T18:19:09Z</time>
      </trkpt>
      <trkpt lat="49.56489" lon="0.67189">
        <ele>113.37622070312</ele>
        <time>2014-03-29T18:19:15Z</time>
      </trkpt>
      <trkpt lat="49.56489" lon="0.67182">
        <ele>114.89989471435</ele>
        <time>2014-03-29T18:19:25Z</time>
      </trkpt>
      <trkpt lat="49.56488" lon="0.67179">
        <ele>115.34589385986</ele>
        <time>2014-03-29T18:19:31Z</time>
      </trkpt>
      <trkpt lat="49.56488" lon="0.67175">
        <ele>116.01106262207</ele>
        <time>2014-03-29T18:19:36Z</time>
      </trkpt>
      <trkpt lat="49.56487" lon="0.67169">
        <ele>116.82974243164</ele>
        <time>2014-03-29T18:19:42Z</time>
      </trkpt>
      <trkpt lat="49.56487" lon="0.67164">
        <ele>117.47294616699</ele>
        <time>2014-03-29T18:19:47Z</time>
      </trkpt>
      <trkpt lat="49.56488" lon="0.67161">
        <ele>118.2477722168</ele>
        <time>2014-03-29T18:19:51Z</time>
      </trkpt>
      <trkpt lat="49.56488" lon="0.67156">
        <ele>118.69454193115</ele>
        <time>2014-03-29T18:19:56Z</time>
      </trkpt>
      <trkpt lat="49.56488" lon="0.67148">
        <ele>119.6181564331</ele>
        <time>2014-03-29T18:20:08Z</time>
      </trkpt>
      <trkpt lat="49.56488" lon="0.67139">
        <ele>120.49295043945</ele>
        <time>2014-03-29T18:20:17Z</time>
      </trkpt>
      <trkpt lat="49.56488" lon="0.67131">
        <ele>121.55554199219</ele>
        <time>2014-03-29T18:20:23Z</time>
      </trkpt>
      <trkpt lat="49.5649" lon="0.67124">
        <ele>122.49868011475</ele>
        <time>2014-03-29T18:20:30Z</time>
      </trkpt>
      <trkpt lat="49.56489" lon="0.67124">
        <ele>122.34664154053</ele>
        <time>2014-03-29T18:20:33Z</time>
      </trkpt>
      <trkpt lat="49.56483" lon="0.67116">
        <ele>121.80166625977</ele>
        <time>2014-03-29T18:20:40Z</time>
      </trkpt>
      <trkpt lat="49.56482" lon="0.67114">
        <ele>121.77096557617</ele>
        <time>2014-03-29T18:20:42Z</time>
      </trkpt>
      <trkpt lat="49.56481" lon="0.67107">
        <ele>122.29386138916</ele>
        <time>2014-03-29T18:20:48Z</time>
      </trkpt>
      <trkpt lat="49.56481" lon="0.67105">
        <ele>122.6845779419</ele>
        <time>2014-03-29T18:20:52Z</time>
      </trkpt>
      <trkpt lat="49.56482" lon="0.67104">
        <ele>122.86492919922</ele>
        <time>2014-03-29T18:20:53Z</time>
      </trkpt>
      <trkpt lat="49.56484" lon="0.67095">
        <ele>124.39223480225</ele>
        <time>2014-03-29T18:21:00Z</time>
      </trkpt>
      <trkpt lat="49.56485" lon="0.67093">
        <ele>124.77753448486</ele>
        <time>2014-03-29T18:21:02Z</time>
      </trkpt>
      <trkpt lat="49.56485" lon="0.67091">
        <ele>125.21458435059</ele>
        <time>2014-03-29T18:21:04Z</time>
      </trkpt>
      <trkpt lat="49.56486" lon="0.67084">
        <ele>126.09949493408</ele>
        <time>2014-03-29T18:21:08Z</time>
      </trkpt>
      <trkpt lat="49.56481" lon="0.67077">
        <ele>125.31828308106</ele>
        <time>2014-03-29T18:21:16Z</time>
      </trkpt>
      <trkpt lat="49.56477" lon="0.67071">
        <ele>124.62652587891</ele>
        <time>2014-03-29T18:21:22Z</time>
      </trkpt>
      <trkpt lat="49.56471" lon="0.67063">
        <ele>123.89966583252</ele>
        <time>2014-03-29T18:21:29Z</time>
      </trkpt>
      <trkpt lat="49.56469" lon="0.67061">
        <ele>123.59382629394</ele>
        <time>2014-03-29T18:21:31Z</time>
      </trkpt>
      <trkpt lat="49.56462" lon="0.67052">
        <ele>122.97633361816</ele>
        <time>2014-03-29T18:21:38Z</time>
      </trkpt>
      <trkpt lat="49.56458" lon="0.67047">
        <ele>122.63972473144</ele>
        <time>2014-03-29T18:21:42Z</time>
      </trkpt>
      <trkpt lat="49.56454" lon="0.67042">
        <ele>122.36447906494</ele>
        <time>2014-03-29T18:21:47Z</time>
      </trkpt>
      <trkpt lat="49.56452" lon="0.67039">
        <ele>122.24593353272</ele>
        <time>2014-03-29T18:21:50Z</time>
      </trkpt>
      <trkpt lat="49.56446" lon="0.67034">
        <ele>121.75755310059</ele>
        <time>2014-03-29T18:21:55Z</time>
      </trkpt>
      <trkpt lat="49.56438" lon="0.67027">
        <ele>121.45821380615</ele>
        <time>2014-03-29T18:22:01Z</time>
      </trkpt>
      <trkpt lat="49.56432" lon="0.67017">
        <ele>121.62522888184</ele>
        <time>2014-03-29T18:22:07Z</time>
      </trkpt>
      <trkpt lat="49.5643" lon="0.67013">
        <ele>121.79631042481</ele>
        <time>2014-03-29T18:22:09Z</time>
      </trkpt>
      <trkpt lat="49.56425" lon="0.67004">
        <ele>122.24212646484</ele>
        <time>2014-03-29T18:22:14Z</time>
      </trkpt>
      <trkpt lat="49.56419" lon="0.66995">
        <ele>122.49504852295</ele>
        <time>2014-03-29T18:22:20Z</time>
      </trkpt>
      <trkpt lat="49.56413" lon="0.66985">
        <ele>122.48748016357</ele>
        <time>2014-03-29T18:22:27Z</time>
      </trkpt>
      <trkpt lat="49.56406" lon="0.6698">
        <ele>121.94094085693</ele>
        <time>2014-03-29T18:22:33Z</time>
      </trkpt>
      <trkpt lat="49.56397" lon="0.66977">
        <ele>121.01160430908</ele>
        <time>2014-03-29T18:22:37Z</time>
      </trkpt>
      <trkpt lat="49.56383" lon="0.66969">
        <ele>119.65414428711</ele>
        <time>2014-03-29T18:22:42Z</time>
      </trkpt>
      <trkpt lat="49.56377" lon="0.66965">
        <ele>119.13556671143</ele>
        <time>2014-03-29T18:22:44Z</time>
      </trkpt>
      <trkpt lat="49.56363" lon="0.66957">
        <ele>117.86335754394</ele>
        <time>2014-03-29T18:22:49Z</time>
      </trkpt>
      <trkpt lat="49.56354" lon="0.66951">
        <ele>116.96578979492</ele>
        <time>2014-03-29T18:22:53Z</time>
      </trkpt>
      <trkpt lat="49.56347" lon="0.66947">
        <ele>116.32391357422</ele>
        <time>2014-03-29T18:22:55Z</time>
      </trkpt>
      <trkpt lat="49.56334" lon="0.66947">
        <ele>114.65071868897</ele>
        <time>2014-03-29T18:23:00Z</time>
      </trkpt>
      <trkpt lat="49.56321" lon="0.66954">
        <ele>110.97189331055</ele>
        <time>2014-03-29T18:23:07Z</time>
      </trkpt>
      <trkpt lat="49.56318" lon="0.66958">
        <ele>110.03910827637</ele>
        <time>2014-03-29T18:23:10Z</time>
      </trkpt>
      <trkpt lat="49.56319" lon="0.66961">
        <ele>110.10660552978</ele>
        <time>2014-03-29T18:23:14Z</time>
      </trkpt>
      <trkpt lat="49.56319" lon="0.66961">
        <ele>110.29392242432</ele>
        <time>2014-03-29T18:23:15Z</time>
      </trkpt>
      <trkpt lat="49.56321" lon="0.66961">
        <ele>110.68347167969</ele>
        <time>2014-03-29T18:23:25Z</time>
      </trkpt>
      <trkpt lat="49.5632" lon="0.66962">
        <ele>110.47664642334</ele>
        <time>2014-03-29T18:23:50Z</time>
      </trkpt>
      <trkpt lat="49.56318" lon="0.66961">
        <ele>109.8071975708</ele>
        <time>2014-03-29T18:23:58Z</time>
      </trkpt>
      <trkpt lat="49.56316" lon="0.66962">
        <ele>109.49655914307</ele>
        <time>2014-03-29T18:23:59Z</time>
      </trkpt>
      <trkpt lat="49.56312" lon="0.6696">
        <ele>108.38971710205</ele>
        <time>2014-03-29T18:24:08Z</time>
      </trkpt>
      <trkpt lat="49.56306" lon="0.66951">
        <ele>107.18143463135</ele>
        <time>2014-03-29T18:24:12Z</time>
      </trkpt>
      <trkpt lat="49.56303" lon="0.66945">
        <ele>106.53636169434</ele>
        <time>2014-03-29T18:24:15Z</time>
      </trkpt>
      <trkpt lat="49.56302" lon="0.66942">
        <ele>106.40491485596</ele>
        <time>2014-03-29T18:24:17Z</time>
      </trkpt>
      <trkpt lat="49.56297" lon="0.66935">
        <ele>105.22332763672</ele>
        <time>2014-03-29T18:24:24Z</time>
      </trkpt>
      <trkpt lat="49.56296" lon="0.66932">
        <ele>104.86562347412</ele>
        <time>2014-03-29T18:24:26Z</time>
      </trkpt>
      <trkpt lat="49.56294" lon="0.66925">
        <ele>104.46298217773</ele>
        <time>2014-03-29T18:24:34Z</time>
      </trkpt>
      <trkpt lat="49.5629" lon="0.6692">
        <ele>103.48764038086</ele>
        <time>2014-03-29T18:24:39Z</time>
      </trkpt>
      <trkpt lat="49.56285" lon="0.66919">
        <ele>102.08280181885</ele>
        <time>2014-03-29T18:24:45Z</time>
      </trkpt>
      <trkpt lat="49.56282" lon="0.66918">
        <ele>101.31915283203</ele>
        <time>2014-03-29T18:24:47Z</time>
      </trkpt>
      <trkpt lat="49.56276" lon="0.66915">
        <ele>99.260391235352</ele>
        <time>2014-03-29T18:24:53Z</time>
      </trkpt>
      <trkpt lat="49.56272" lon="0.66912">
        <ele>97.700019836426</ele>
        <time>2014-03-29T18:24:58Z</time>
      </trkpt>
      <trkpt lat="49.56271" lon="0.66912">
        <ele>97.359878540039</ele>
        <time>2014-03-29T18:24:59Z</time>
      </trkpt>
      <trkpt lat="49.56271" lon="0.6691">
        <ele>97.05591583252</ele>
        <time>2014-03-29T18:25:01Z</time>
      </trkpt>
      <trkpt lat="49.56271" lon="0.66903">
        <ele>96.168739318848</ele>
        <time>2014-03-29T18:25:06Z</time>
      </trkpt>
      <trkpt lat="49.5627" lon="0.66899">
        <ele>95.359245300293</ele>
        <time>2014-03-29T18:25:11Z</time>
      </trkpt>
      <trkpt lat="49.56268" lon="0.66894">
        <ele>93.957572937012</ele>
        <time>2014-03-29T18:25:16Z</time>
      </trkpt>
      <trkpt lat="49.56266" lon="0.66893">
        <ele>93.439682006836</ele>
        <time>2014-03-29T18:25:17Z</time>
      </trkpt>
      <trkpt lat="49.56257" lon="0.66888">
        <ele>89.920082092285</ele>
        <time>2014-03-29T18:25:23Z</time>
      </trkpt>
      <trkpt lat="49.56253" lon="0.66887">
        <ele>88.607353210449</ele>
        <time>2014-03-29T18:25:25Z</time>
      </trkpt>
      <trkpt lat="49.56246" lon="0.66883">
        <ele>86.007316589355</ele>
        <time>2014-03-29T18:25:29Z</time>
      </trkpt>
      <trkpt lat="49.56239" lon="0.66885">
        <ele>84.080619812012</ele>
        <time>2014-03-29T18:25:34Z</time>
      </trkpt>
      <trkpt lat="49.56231" lon="0.6688">
        <ele>80.98299407959</ele>
        <time>2014-03-29T18:25:39Z</time>
      </trkpt>
      <trkpt lat="49.56229" lon="0.6688">
        <ele>80.383445739746</ele>
        <time>2014-03-29T18:25:40Z</time>
      </trkpt>
      <trkpt lat="49.56225" lon="0.66881">
        <ele>79.170654296875</ele>
        <time>2014-03-29T18:25:43Z</time>
      </trkpt>
      <trkpt lat="49.56218" lon="0.66875">
        <ele>76.558547973633</ele>
        <time>2014-03-29T18:25:51Z</time>
      </trkpt>
      <trkpt lat="49.56212" lon="0.6687">
        <ele>74.509490966797</ele>
        <time>2014-03-29T18:25:55Z</time>
      </trkpt>
      <trkpt lat="49.56209" lon="0.66869">
        <ele>73.404067993164</ele>
        <time>2014-03-29T18:25:59Z</time>
      </trkpt>
      <trkpt lat="49.562" lon="0.66865">
        <ele>70.686126708984</ele>
        <time>2014-03-29T18:26:05Z</time>
      </trkpt>
      <trkpt lat="49.56192" lon="0.66863">
        <ele>68.316482543945</ele>
        <time>2014-03-29T18:26:09Z</time>
      </trkpt>
      <trkpt lat="49.56189" lon="0.66855">
        <ele>67.021789550781</ele>
        <time>2014-03-29T18:26:13Z</time>
      </trkpt>
      <trkpt lat="49.56187" lon="0.66852">
        <ele>66.593162536621</ele>
        <time>2014-03-29T18:26:15Z</time>
      </trkpt>
      <trkpt lat="49.56179" lon="0.66845">
        <ele>64.297332763672</ele>
        <time>2014-03-29T18:26:20Z</time>
      </trkpt>
      <trkpt lat="49.56173" lon="0.66837">
        <ele>62.503524780273</ele>
        <time>2014-03-29T18:26:24Z</time>
      </trkpt>
      <trkpt lat="49.56166" lon="0.66829">
        <ele>61.171909332275</ele>
        <time>2014-03-29T18:26:28Z</time>
      </trkpt>
      <trkpt lat="49.56165" lon="0.6682">
        <ele>61.657264709473</ele>
        <time>2014-03-29T18:26:33Z</time>
      </trkpt>
      <trkpt lat="49.56167" lon="0.66809">
        <ele>61.892841339111</ele>
        <time>2014-03-29T18:26:39Z</time>
      </trkpt>
      <trkpt lat="49.56172" lon="0.66794">
        <ele>63.109874725342</ele>
        <time>2014-03-29T18:26:47Z</time>
      </trkpt>
      <trkpt lat="49.56178" lon="0.66784">
        <ele>64.018119812012</ele>
        <time>2014-03-29T18:26:51Z</time>
      </trkpt>
      <trkpt lat="49.56182" lon="0.66777">
        <ele>64.543678283691</ele>
        <time>2014-03-29T18:26:54Z</time>
      </trkpt>
      <trkpt lat="49.56189" lon="0.66758">
        <ele>64.897987365723</ele>
        <time>2014-03-29T18:27:01Z</time>
      </trkpt>
      <trkpt lat="49.56194" lon="0.6675">
        <ele>64.969139099121</ele>
        <time>2014-03-29T18:27:05Z</time>
      </trkpt>
      <trkpt lat="49.56198" lon="0.66742">
        <ele>65.500831604004</ele>
        <time>2014-03-29T18:27:08Z</time>
      </trkpt>
      <trkpt lat="49.56205" lon="0.66732">
        <ele>66.039901733398</ele>
        <time>2014-03-29T18:27:12Z</time>
      </trkpt>
      <trkpt lat="49.56213" lon="0.66725">
        <ele>66.199600219727</ele>
        <time>2014-03-29T18:27:15Z</time>
      </trkpt>
      <trkpt lat="49.56224" lon="0.66712">
        <ele>66.101303100586</ele>
        <time>2014-03-29T18:27:21Z</time>
      </trkpt>
      <trkpt lat="49.56228" lon="0.66693">
        <ele>65.799995422363</ele>
        <time>2014-03-29T18:27:26Z</time>
      </trkpt>
      <trkpt lat="49.56227" lon="0.66684">
        <ele>65.804962158203</ele>
        <time>2014-03-29T18:27:28Z</time>
      </trkpt>
      <trkpt lat="49.56228" lon="0.66671">
        <ele>65.685325622559</ele>
        <time>2014-03-29T18:27:31Z</time>
      </trkpt>
      <trkpt lat="49.56232" lon="0.66659">
        <ele>65.899398803711</ele>
        <time>2014-03-29T18:27:36Z</time>
      </trkpt>
      <trkpt lat="49.56235" lon="0.66653">
        <ele>66.084686279297</ele>
        <time>2014-03-29T18:27:38Z</time>
      </trkpt>
      <trkpt lat="49.56237" lon="0.6664">
        <ele>66.860847473145</ele>
        <time>2014-03-29T18:27:43Z</time>
      </trkpt>
      <trkpt lat="49.56236" lon="0.66632">
        <ele>67.751441955566</ele>
        <time>2014-03-29T18:27:48Z</time>
      </trkpt>
      <trkpt lat="49.56235" lon="0.66628">
        <ele>68.278274536133</ele>
        <time>2014-03-29T18:27:52Z</time>
      </trkpt>
      <trkpt lat="49.56233" lon="0.66621">
        <ele>69.19873046875</ele>
        <time>2014-03-29T18:27:57Z</time>
      </trkpt>
      <trkpt lat="49.56235" lon="0.6662">
        <ele>69.019920349121</ele>
        <time>2014-03-29T18:28:07Z</time>
      </trkpt>
      <trkpt lat="49.56237" lon="0.66626">
        <ele>68.177787780762</ele>
        <time>2014-03-29T18:28:11Z</time>
      </trkpt>
      <trkpt lat="49.56238" lon="0.66635">
        <ele>67.198287963867</ele>
        <time>2014-03-29T18:28:17Z</time>
      </trkpt>
      <trkpt lat="49.56236" lon="0.6664">
        <ele>67.141296386719</ele>
        <time>2014-03-29T18:28:21Z</time>
      </trkpt>
      <trkpt lat="49.56231" lon="0.66646">
        <ele>67.170021057129</ele>
        <time>2014-03-29T18:28:27Z</time>
      </trkpt>
      <trkpt lat="49.56229" lon="0.66653">
        <ele>66.828033447266</ele>
        <time>2014-03-29T18:28:32Z</time>
      </trkpt>
      <trkpt lat="49.56225" lon="0.66654">
        <ele>67.212577819824</ele>
        <time>2014-03-29T18:28:36Z</time>
      </trkpt>
      <trkpt lat="49.56221" lon="0.66656">
        <ele>67.600563049316</ele>
        <time>2014-03-29T18:28:41Z</time>
      </trkpt>
      <trkpt lat="49.56217" lon="0.66652">
        <ele>68.375465393066</ele>
        <time>2014-03-29T18:28:47Z</time>
      </trkpt>
      <trkpt lat="49.56212" lon="0.6665">
        <ele>69.153823852539</ele>
        <time>2014-03-29T18:28:54Z</time>
      </trkpt>
      <trkpt lat="49.56211" lon="0.66651">
        <ele>69.284729003906</ele>
        <time>2014-03-29T18:28:55Z</time>
      </trkpt>
      <trkpt lat="49.56203" lon="0.66652">
        <ele>70.083671569824</ele>
        <time>2014-03-29T18:29:02Z</time>
      </trkpt>
      <trkpt lat="49.56197" lon="0.66647">
        <ele>71.478782653809</ele>
        <time>2014-03-29T18:29:10Z</time>
      </trkpt>
      <trkpt lat="49.56194" lon="0.66645">
        <ele>72.13988494873</ele>
        <time>2014-03-29T18:29:13Z</time>
      </trkpt>
      <trkpt lat="49.56188" lon="0.66638">
        <ele>73.597785949707</ele>
        <time>2014-03-29T18:29:20Z</time>
      </trkpt>
      <trkpt lat="49.56186" lon="0.66637">
        <ele>73.97200012207</ele>
        <time>2014-03-29T18:29:22Z</time>
      </trkpt>
      <trkpt lat="49.56184" lon="0.66634">
        <ele>74.635780334473</ele>
        <time>2014-03-29T18:29:25Z</time>
      </trkpt>
      <trkpt lat="49.56179" lon="0.66633">
        <ele>75.421051025391</ele>
        <time>2014-03-29T18:29:27Z</time>
      </trkpt>
      <trkpt lat="49.56172" lon="0.66627">
        <ele>77.07706451416</ele>
        <time>2014-03-29T18:29:33Z</time>
      </trkpt>
      <trkpt lat="49.56165" lon="0.66624">
        <ele>78.541091918945</ele>
        <time>2014-03-29T18:29:39Z</time>
      </trkpt>
      <trkpt lat="49.56158" lon="0.66621">
        <ele>79.997451782227</ele>
        <time>2014-03-29T18:29:45Z</time>
      </trkpt>
      <trkpt lat="49.56155" lon="0.66619">
        <ele>80.828338623047</ele>
        <time>2014-03-29T18:29:48Z</time>
      </trkpt>
      <trkpt lat="49.56149" lon="0.66615">
        <ele>82.254829406738</ele>
        <time>2014-03-29T18:29:53Z</time>
      </trkpt>
      <trkpt lat="49.56143" lon="0.66615">
        <ele>83.330368041992</ele>
        <time>2014-03-29T18:29:58Z</time>
      </trkpt>
      <trkpt lat="49.5614" lon="0.66613">
        <ele>84.180084228516</ele>
        <time>2014-03-29T18:30:04Z</time>
      </trkpt>
      <trkpt lat="49.56134" lon="0.66611">
        <ele>85.32592010498</ele>
        <time>2014-03-29T18:30:11Z</time>
      </trkpt>
      <trkpt lat="49.56131" lon="0.66609">
        <ele>86.285270690918</ele>
        <time>2014-03-29T18:30:16Z</time>
      </trkpt>
      <trkpt lat="49.56126" lon="0.66608">
        <ele>87.230163574219</ele>
        <time>2014-03-29T18:30:24Z</time>
      </trkpt>
      <trkpt lat="49.56125" lon="0.66609">
        <ele>87.264839172363</ele>
        <time>2014-03-29T18:30:25Z</time>
      </trkpt>
      <trkpt lat="49.5612" lon="0.66618">
        <ele>86.981025695801</ele>
        <time>2014-03-29T18:30:31Z</time>
      </trkpt>
      <trkpt lat="49.56116" lon="0.66625">
        <ele>86.874244689941</ele>
        <time>2014-03-29T18:30:36Z</time>
      </trkpt>
      <trkpt lat="49.56114" lon="0.66628">
        <ele>86.796936035156</ele>
        <time>2014-03-29T18:30:41Z</time>
      </trkpt>
      <trkpt lat="49.56112" lon="0.66631">
        <ele>86.835739135742</ele>
        <time>2014-03-29T18:30:44Z</time>
      </trkpt>
      <trkpt lat="49.56107" lon="0.6664">
        <ele>86.450210571289</ele>
        <time>2014-03-29T18:30:51Z</time>
      </trkpt>
      <trkpt lat="49.56105" lon="0.66644">
        <ele>86.22713470459</ele>
        <time>2014-03-29T18:30:54Z</time>
      </trkpt>
      <trkpt lat="49.561" lon="0.66654">
        <ele>85.949226379395</ele>
        <time>2014-03-29T18:31:02Z</time>
      </trkpt>
      <trkpt lat="49.56097" lon="0.6666">
        <ele>85.494422912598</ele>
        <time>2014-03-29T18:31:07Z</time>
      </trkpt>
      <trkpt lat="49.56097" lon="0.6666">
        <ele>85.672943115234</ele>
        <time>2014-03-29T18:31:15Z</time>
      </trkpt>
      <trkpt lat="49.56098" lon="0.66657">
        <ele>85.813690185547</ele>
        <time>2014-03-29T18:31:21Z</time>
      </trkpt>
      <trkpt lat="49.56104" lon="0.66648">
        <ele>86.016754150391</ele>
        <time>2014-03-29T18:31:41Z</time>
      </trkpt>
      <trkpt lat="49.56107" lon="0.66644">
        <ele>85.996437072754</ele>
        <time>2014-03-29T18:31:45Z</time>
      </trkpt>
      <trkpt lat="49.56111" lon="0.66632">
        <ele>86.807563781738</ele>
        <time>2014-03-29T18:31:51Z</time>
      </trkpt>
      <trkpt lat="49.56114" lon="0.66621">
        <ele>87.621788024902</ele>
        <time>2014-03-29T18:31:56Z</time>
      </trkpt>
      <trkpt lat="49.56116" lon="0.66616">
        <ele>87.852432250977</ele>
        <time>2014-03-29T18:32:00Z</time>
      </trkpt>
      <trkpt lat="49.56123" lon="0.66613">
        <ele>87.04549407959</ele>
        <time>2014-03-29T18:32:11Z</time>
      </trkpt>
      <trkpt lat="49.5613" lon="0.66616">
        <ele>85.510848999023</ele>
        <time>2014-03-29T18:32:17Z</time>
      </trkpt>
      <trkpt lat="49.56132" lon="0.66615">
        <ele>85.205047607422</ele>
        <time>2014-03-29T18:32:19Z</time>
      </trkpt>
      <trkpt lat="49.56139" lon="0.66617">
        <ele>83.817092895508</ele>
        <time>2014-03-29T18:32:23Z</time>
      </trkpt>
      <trkpt lat="49.56144" lon="0.66621">
        <ele>82.31950378418</ele>
        <time>2014-03-29T18:32:27Z</time>
      </trkpt>
      <trkpt lat="49.56149" lon="0.66623">
        <ele>81.416236877441</ele>
        <time>2014-03-29T18:32:31Z</time>
      </trkpt>
      <trkpt lat="49.56153" lon="0.66624">
        <ele>80.492835998535</ele>
        <time>2014-03-29T18:32:33Z</time>
      </trkpt>
      <trkpt lat="49.56158" lon="0.66626">
        <ele>79.395317077637</ele>
        <time>2014-03-29T18:32:35Z</time>
      </trkpt>
      <trkpt lat="49.56172" lon="0.66629">
        <ele>76.831352233887</ele>
        <time>2014-03-29T18:32:41Z</time>
      </trkpt>
      <trkpt lat="49.56174" lon="0.6663">
        <ele>76.487007141113</ele>
        <time>2014-03-29T18:32:42Z</time>
      </trkpt>
      <trkpt lat="49.56178" lon="0.66632">
        <ele>75.601989746094</ele>
        <time>2014-03-29T18:32:44Z</time>
      </trkpt>
      <trkpt lat="49.56187" lon="0.66629">
        <ele>74.694412231445</ele>
        <time>2014-03-29T18:32:48Z</time>
      </trkpt>
      <trkpt lat="49.56191" lon="0.66628">
        <ele>74.345031738281</ele>
        <time>2014-03-29T18:32:51Z</time>
      </trkpt>
      <trkpt lat="49.56201" lon="0.66626">
        <ele>73.154251098633</ele>
        <time>2014-03-29T18:32:57Z</time>
      </trkpt>
      <trkpt lat="49.56211" lon="0.66621">
        <ele>72.258422851562</ele>
        <time>2014-03-29T18:33:02Z</time>
      </trkpt>
      <trkpt lat="49.56218" lon="0.66618">
        <ele>71.654571533203</ele>
        <time>2014-03-29T18:33:05Z</time>
      </trkpt>
      <trkpt lat="49.56228" lon="0.66613">
        <ele>70.656929016113</ele>
        <time>2014-03-29T18:33:11Z</time>
      </trkpt>
      <trkpt lat="49.56229" lon="0.66612">
        <ele>70.520561218262</ele>
        <time>2014-03-29T18:33:12Z</time>
      </trkpt>
      <trkpt lat="49.56236" lon="0.66614">
        <ele>69.385292053223</ele>
        <time>2014-03-29T18:33:17Z</time>
      </trkpt>
      <trkpt lat="49.56243" lon="0.66617">
        <ele>68.19465637207</ele>
        <time>2014-03-29T18:33:21Z</time>
      </trkpt>
      <trkpt lat="49.56249" lon="0.66609">
        <ele>68.029884338379</ele>
        <time>2014-03-29T18:33:27Z</time>
      </trkpt>
      <trkpt lat="49.56259" lon="0.66598">
        <ele>67.76594543457</ele>
        <time>2014-03-29T18:33:33Z</time>
      </trkpt>
      <trkpt lat="49.5626" lon="0.66596">
        <ele>67.76025390625</ele>
        <time>2014-03-29T18:33:34Z</time>
      </trkpt>
      <trkpt lat="49.56269" lon="0.66582">
        <ele>67.570518493652</ele>
        <time>2014-03-29T18:33:42Z</time>
      </trkpt>
      <trkpt lat="49.56279" lon="0.6657">
        <ele>68.071342468262</ele>
        <time>2014-03-29T18:33:47Z</time>
      </trkpt>
      <trkpt lat="49.56281" lon="0.66566">
        <ele>68.324607849121</ele>
        <time>2014-03-29T18:33:48Z</time>
      </trkpt>
      <trkpt lat="49.56295" lon="0.66552">
        <ele>68.36408996582</ele>
        <time>2014-03-29T18:33:54Z</time>
      </trkpt>
      <trkpt lat="49.56305" lon="0.66536">
        <ele>69.199890136719</ele>
        <time>2014-03-29T18:33:59Z</time>
      </trkpt>
      <trkpt lat="49.56311" lon="0.66526">
        <ele>69.761306762695</ele>
        <time>2014-03-29T18:34:02Z</time>
      </trkpt>
      <trkpt lat="49.56313" lon="0.66522">
        <ele>69.916709899902</ele>
        <time>2014-03-29T18:34:03Z</time>
      </trkpt>
      <trkpt lat="49.56317" lon="0.66507">
        <ele>71.381408691406</ele>
        <time>2014-03-29T18:34:08Z</time>
      </trkpt>
      <trkpt lat="49.56319" lon="0.66497">
        <ele>72.434997558594</ele>
        <time>2014-03-29T18:34:13Z</time>
      </trkpt>
      <trkpt lat="49.56318" lon="0.66481">
        <ele>73.983039855957</ele>
        <time>2014-03-29T18:34:18Z</time>
      </trkpt>
      <trkpt lat="49.56317" lon="0.66466">
        <ele>75.516960144043</ele>
        <time>2014-03-29T18:34:22Z</time>
      </trkpt>
      <trkpt lat="49.56313" lon="0.66451">
        <ele>77.446273803711</ele>
        <time>2014-03-29T18:34:26Z</time>
      </trkpt>
      <trkpt lat="49.56307" lon="0.66433">
        <ele>79.922119140625</ele>
        <time>2014-03-29T18:34:31Z</time>
      </trkpt>
      <trkpt lat="49.56304" lon="0.66413">
        <ele>81.837379455566</ele>
        <time>2014-03-29T18:34:38Z</time>
      </trkpt>
      <trkpt lat="49.56303" lon="0.6641">
        <ele>81.917892456055</ele>
        <time>2014-03-29T18:34:39Z</time>
      </trkpt>
      <trkpt lat="49.56297" lon="0.66394">
        <ele>82.248741149902</ele>
        <time>2014-03-29T18:34:44Z</time>
      </trkpt>
      <trkpt lat="49.56292" lon="0.66377">
        <ele>82.25479888916</ele>
        <time>2014-03-29T18:34:49Z</time>
      </trkpt>
      <trkpt lat="49.56291" lon="0.66371">
        <ele>82.201179504395</ele>
        <time>2014-03-29T18:34:51Z</time>
      </trkpt>
      <trkpt lat="49.56285" lon="0.66352">
        <ele>81.985610961914</ele>
        <time>2014-03-29T18:34:56Z</time>
      </trkpt>
      <trkpt lat="49.56276" lon="0.66336">
        <ele>81.873878479004</ele>
        <time>2014-03-29T18:35:01Z</time>
      </trkpt>
      <trkpt lat="49.56268" lon="0.66322">
        <ele>81.526412963867</ele>
        <time>2014-03-29T18:35:05Z</time>
      </trkpt>
      <trkpt lat="49.56261" lon="0.66309">
        <ele>80.622497558594</ele>
        <time>2014-03-29T18:35:10Z</time>
      </trkpt>
      <trkpt lat="49.56252" lon="0.66301">
        <ele>79.622161865234</ele>
        <time>2014-03-29T18:35:13Z</time>
      </trkpt>
      <trkpt lat="49.56251" lon="0.66298">
        <ele>79.258018493652</ele>
        <time>2014-03-29T18:35:14Z</time>
      </trkpt>
      <trkpt lat="49.56245" lon="0.66286">
        <ele>78.933731079102</ele>
        <time>2014-03-29T18:35:18Z</time>
      </trkpt>
      <trkpt lat="49.56234" lon="0.66271">
        <ele>79.29808807373</ele>
        <time>2014-03-29T18:35:23Z</time>
      </trkpt>
      <trkpt lat="49.56227" lon="0.6626">
        <ele>79.573959350586</ele>
        <time>2014-03-29T18:35:27Z</time>
      </trkpt>
      <trkpt lat="49.56219" lon="0.66249">
        <ele>80.043930053711</ele>
        <time>2014-03-29T18:35:31Z</time>
      </trkpt>
      <trkpt lat="49.5621" lon="0.66234">
        <ele>82.106605529785</ele>
        <time>2014-03-29T18:35:36Z</time>
      </trkpt>
      <trkpt lat="49.562" lon="0.66223">
        <ele>83.420364379883</ele>
        <time>2014-03-29T18:35:41Z</time>
      </trkpt>
      <trkpt lat="49.56199" lon="0.66219">
        <ele>83.609382629395</ele>
        <time>2014-03-29T18:35:42Z</time>
      </trkpt>
      <trkpt lat="49.56194" lon="0.66211">
        <ele>83.938537597656</ele>
        <time>2014-03-29T18:35:45Z</time>
      </trkpt>
      <trkpt lat="49.56189" lon="0.66206">
        <ele>84.155899047852</ele>
        <time>2014-03-29T18:35:50Z</time>
      </trkpt>
      <trkpt lat="49.5618" lon="0.66195">
        <ele>84.187255859375</ele>
        <time>2014-03-29T18:35:57Z</time>
      </trkpt>
      <trkpt lat="49.56176" lon="0.66188">
        <ele>83.839881896973</ele>
        <time>2014-03-29T18:36:02Z</time>
      </trkpt>
      <trkpt lat="49.56173" lon="0.66184">
        <ele>83.588104248047</ele>
        <time>2014-03-29T18:36:05Z</time>
      </trkpt>
      <trkpt lat="49.56174" lon="0.66173">
        <ele>82.763160705566</ele>
        <time>2014-03-29T18:36:13Z</time>
      </trkpt>
      <trkpt lat="49.56174" lon="0.66169">
        <ele>82.474884033203</ele>
        <time>2014-03-29T18:36:17Z</time>
      </trkpt>
      <trkpt lat="49.56175" lon="0.66166">
        <ele>82.390914916992</ele>
        <time>2014-03-29T18:36:21Z</time>
      </trkpt>
      <trkpt lat="49.56176" lon="0.66162">
        <ele>82.746620178223</ele>
        <time>2014-03-29T18:36:25Z</time>
      </trkpt>
      <trkpt lat="49.56178" lon="0.66159">
        <ele>83.070762634277</ele>
        <time>2014-03-29T18:36:30Z</time>
      </trkpt>
      <trkpt lat="49.56181" lon="0.66156">
        <ele>83.524101257324</ele>
        <time>2014-03-29T18:36:34Z</time>
      </trkpt>
      <trkpt lat="49.56183" lon="0.66152">
        <ele>83.965637207031</ele>
        <time>2014-03-29T18:36:38Z</time>
      </trkpt>
      <trkpt lat="49.56187" lon="0.66143">
        <ele>85.108070373535</ele>
        <time>2014-03-29T18:36:45Z</time>
      </trkpt>
      <trkpt lat="49.5619" lon="0.66134">
        <ele>86.152412414551</ele>
        <time>2014-03-29T18:36:51Z</time>
      </trkpt>
      <trkpt lat="49.56193" lon="0.66127">
        <ele>87.170944213867</ele>
        <time>2014-03-29T18:36:56Z</time>
      </trkpt>
      <trkpt lat="49.56197" lon="0.66119">
        <ele>88.394813537598</ele>
        <time>2014-03-29T18:37:01Z</time>
      </trkpt>
      <trkpt lat="49.56201" lon="0.66109">
        <ele>89.891052246094</ele>
        <time>2014-03-29T18:37:07Z</time>
      </trkpt>
      <trkpt lat="49.56203" lon="0.66102">
        <ele>91.000984191895</ele>
        <time>2014-03-29T18:37:11Z</time>
      </trkpt>
      <trkpt lat="49.56207" lon="0.66092">
        <ele>92.77466583252</ele>
        <time>2014-03-29T18:37:18Z</time>
      </trkpt>
      <trkpt lat="49.5621" lon="0.66084">
        <ele>94.057518005371</ele>
        <time>2014-03-29T18:37:22Z</time>
      </trkpt>
      <trkpt lat="49.56213" lon="0.66075">
        <ele>95.546752929688</ele>
        <time>2014-03-29T18:37:27Z</time>
      </trkpt>
      <trkpt lat="49.56214" lon="0.66073">
        <ele>95.926971435547</ele>
        <time>2014-03-29T18:37:29Z</time>
      </trkpt>
      <trkpt lat="49.56216" lon="0.66069">
        <ele>96.582611083984</ele>
        <time>2014-03-29T18:37:32Z</time>
      </trkpt>
      <trkpt lat="49.56218" lon="0.6606">
        <ele>97.81591796875</ele>
        <time>2014-03-29T18:37:41Z</time>
      </trkpt>
      <trkpt lat="49.56219" lon="0.66054">
        <ele>98.641487121582</ele>
        <time>2014-03-29T18:37:49Z</time>
      </trkpt>
      <trkpt lat="49.56223" lon="0.66044">
        <ele>100.20950317383</ele>
        <time>2014-03-29T18:37:58Z</time>
      </trkpt>
      <trkpt lat="49.56224" lon="0.66039">
        <ele>100.82698059082</ele>
        <time>2014-03-29T18:38:02Z</time>
      </trkpt>
      <trkpt lat="49.56226" lon="0.66034">
        <ele>101.56634521484</ele>
        <time>2014-03-29T18:38:06Z</time>
      </trkpt>
      <trkpt lat="49.56229" lon="0.66029">
        <ele>102.51817321777</ele>
        <time>2014-03-29T18:38:12Z</time>
      </trkpt>
      <trkpt lat="49.5623" lon="0.66028">
        <ele>102.72171020508</ele>
        <time>2014-03-29T18:38:13Z</time>
      </trkpt>
      <trkpt lat="49.56233" lon="0.66022">
        <ele>103.79846954346</ele>
        <time>2014-03-29T18:38:17Z</time>
      </trkpt>
      <trkpt lat="49.56236" lon="0.66016">
        <ele>104.69206237793</ele>
        <time>2014-03-29T18:38:23Z</time>
      </trkpt>
      <trkpt lat="49.56237" lon="0.66014">
        <ele>105.01390075684</ele>
        <time>2014-03-29T18:38:25Z</time>
      </trkpt>
      <trkpt lat="49.56239" lon="0.66005">
        <ele>106.21641540527</ele>
        <time>2014-03-29T18:38:32Z</time>
      </trkpt>
      <trkpt lat="49.5624" lon="0.66003">
        <ele>106.50894927978</ele>
        <time>2014-03-29T18:38:33Z</time>
      </trkpt>
      <trkpt lat="49.56242" lon="0.65995">
        <ele>107.48338317871</ele>
        <time>2014-03-29T18:38:39Z</time>
      </trkpt>
      <trkpt lat="49.56243" lon="0.65993">
        <ele>107.61506652832</ele>
        <time>2014-03-29T18:38:40Z</time>
      </trkpt>
      <trkpt lat="49.56244" lon="0.65987">
        <ele>108.14234924316</ele>
        <time>2014-03-29T18:38:44Z</time>
      </trkpt>
      <trkpt lat="49.56243" lon="0.65982">
        <ele>108.48619842529</ele>
        <time>2014-03-29T18:38:49Z</time>
      </trkpt>
      <trkpt lat="49.56244" lon="0.65977">
        <ele>108.94023132324</ele>
        <time>2014-03-29T18:38:53Z</time>
      </trkpt>
      <trkpt lat="49.56246" lon="0.65967">
        <ele>109.87079620361</ele>
        <time>2014-03-29T18:38:59Z</time>
      </trkpt>
      <trkpt lat="49.56244" lon="0.65959">
        <ele>110.23769378662</ele>
        <time>2014-03-29T18:39:05Z</time>
      </trkpt>
      <trkpt lat="49.56244" lon="0.65956">
        <ele>110.49188232422</ele>
        <time>2014-03-29T18:39:07Z</time>
      </trkpt>
      <trkpt lat="49.56243" lon="0.6595">
        <ele>110.83066558838</ele>
        <time>2014-03-29T18:39:11Z</time>
      </trkpt>
      <trkpt lat="49.56243" lon="0.65948">
        <ele>110.95917510986</ele>
        <time>2014-03-29T18:39:13Z</time>
      </trkpt>
      <trkpt lat="49.56242" lon="0.65941">
        <ele>111.33927917481</ele>
        <time>2014-03-29T18:39:18Z</time>
      </trkpt>
      <trkpt lat="49.5624" lon="0.65935">
        <ele>111.62982940674</ele>
        <time>2014-03-29T18:39:25Z</time>
      </trkpt>
      <trkpt lat="49.56238" lon="0.65932">
        <ele>111.59846496582</ele>
        <time>2014-03-29T18:39:32Z</time>
      </trkpt>
      <trkpt lat="49.56237" lon="0.65933">
        <ele>111.37637329102</ele>
        <time>2014-03-29T18:39:34Z</time>
      </trkpt>
      <trkpt lat="49.56229" lon="0.65938">
        <ele>110.16154479981</ele>
        <time>2014-03-29T18:39:41Z</time>
      </trkpt>
      <trkpt lat="49.56229" lon="0.65939">
        <ele>110.04188537598</ele>
        <time>2014-03-29T18:39:42Z</time>
      </trkpt>
      <trkpt lat="49.56221" lon="0.65945">
        <ele>108.64517974853</ele>
        <time>2014-03-29T18:39:52Z</time>
      </trkpt>
      <trkpt lat="49.56219" lon="0.65946">
        <ele>108.47315216065</ele>
        <time>2014-03-29T18:39:53Z</time>
      </trkpt>
      <trkpt lat="49.56217" lon="0.6595">
        <ele>107.85729980469</ele>
        <time>2014-03-29T18:39:57Z</time>
      </trkpt>
      <trkpt lat="49.56208" lon="0.65954">
        <ele>106.54483795166</ele>
        <time>2014-03-29T18:40:04Z</time>
      </trkpt>
      <trkpt lat="49.56205" lon="0.65953">
        <ele>106.29717254639</ele>
        <time>2014-03-29T18:40:06Z</time>
      </trkpt>
      <trkpt lat="49.562" lon="0.65953">
        <ele>105.71220397949</ele>
        <time>2014-03-29T18:40:12Z</time>
      </trkpt>
      <trkpt lat="49.56195" lon="0.65947">
        <ele>105.66471099853</ele>
        <time>2014-03-29T18:40:19Z</time>
      </trkpt>
      <trkpt lat="49.56192" lon="0.65943">
        <ele>105.63415527344</ele>
        <time>2014-03-29T18:40:25Z</time>
      </trkpt>
      <trkpt lat="49.56191" lon="0.65937">
        <ele>105.96166992188</ele>
        <time>2014-03-29T18:40:30Z</time>
      </trkpt>
      <trkpt lat="49.5619" lon="0.65934">
        <ele>106.08427429199</ele>
        <time>2014-03-29T18:40:34Z</time>
      </trkpt>
      <trkpt lat="49.56189" lon="0.65928">
        <ele>106.53776550293</ele>
        <time>2014-03-29T18:40:38Z</time>
      </trkpt>
      <trkpt lat="49.56189" lon="0.65919">
        <ele>107.19235229492</ele>
        <time>2014-03-29T18:40:45Z</time>
      </trkpt>
      <trkpt lat="49.56188" lon="0.65907">
        <ele>107.81230926514</ele>
        <time>2014-03-29T18:40:52Z</time>
      </trkpt>
      <trkpt lat="49.56186" lon="0.65899">
        <ele>108.05363464356</ele>
        <time>2014-03-29T18:40:58Z</time>
      </trkpt>
      <trkpt lat="49.56184" lon="0.6589">
        <ele>108.47801971435</ele>
        <time>2014-03-29T18:41:04Z</time>
      </trkpt>
      <trkpt lat="49.56183" lon="0.65878">
        <ele>109.1203918457</ele>
        <time>2014-03-29T18:41:10Z</time>
      </trkpt>
      <trkpt lat="49.56182" lon="0.65871">
        <ele>109.46683502197</ele>
        <time>2014-03-29T18:41:14Z</time>
      </trkpt>
      <trkpt lat="49.56181" lon="0.65862">
        <ele>109.94316864014</ele>
        <time>2014-03-29T18:41:20Z</time>
      </trkpt>
      <trkpt lat="49.56179" lon="0.65853">
        <ele>110.32229614258</ele>
        <time>2014-03-29T18:41:25Z</time>
      </trkpt>
      <trkpt lat="49.56174" lon="0.65839">
        <ele>110.94673919678</ele>
        <time>2014-03-29T18:41:30Z</time>
      </trkpt>
      <trkpt lat="49.56171" lon="0.65828">
        <ele>111.42095947266</ele>
        <time>2014-03-29T18:41:33Z</time>
      </trkpt>
      <trkpt lat="49.56168" lon="0.65811">
        <ele>111.86611938477</ele>
        <time>2014-03-29T18:41:38Z</time>
      </trkpt>
      <trkpt lat="49.56165" lon="0.65804">
        <ele>111.7442855835</ele>
        <time>2014-03-29T18:41:40Z</time>
      </trkpt>
      <trkpt lat="49.56157" lon="0.65786">
        <ele>110.93238067627</ele>
        <time>2014-03-29T18:41:46Z</time>
      </trkpt>
      <trkpt lat="49.56153" lon="0.65774">
        <ele>110.37174987793</ele>
        <time>2014-03-29T18:41:49Z</time>
      </trkpt>
      <trkpt lat="49.5615" lon="0.65762">
        <ele>110.19245910644</ele>
        <time>2014-03-29T18:41:52Z</time>
      </trkpt>
      <trkpt lat="49.56148" lon="0.65755">
        <ele>109.87997436523</ele>
        <time>2014-03-29T18:41:54Z</time>
      </trkpt>
      <trkpt lat="49.56145" lon="0.6574">
        <ele>109.32317352295</ele>
        <time>2014-03-29T18:41:58Z</time>
      </trkpt>
      <trkpt lat="49.56145" lon="0.65734">
        <ele>109.36180114746</ele>
        <time>2014-03-29T18:42:00Z</time>
      </trkpt>
      <trkpt lat="49.56136" lon="0.65703">
        <ele>107.78187561035</ele>
        <time>2014-03-29T18:42:07Z</time>
      </trkpt>
      <trkpt lat="49.56134" lon="0.65691">
        <ele>107.42783355713</ele>
        <time>2014-03-29T18:42:10Z</time>
      </trkpt>
      <trkpt lat="49.56133" lon="0.65688">
        <ele>107.38182067871</ele>
        <time>2014-03-29T18:42:11Z</time>
      </trkpt>
      <trkpt lat="49.56132" lon="0.65674">
        <ele>107.29668426514</ele>
        <time>2014-03-29T18:42:15Z</time>
      </trkpt>
      <trkpt lat="49.56131" lon="0.65656">
        <ele>107.52964019775</ele>
        <time>2014-03-29T18:42:20Z</time>
      </trkpt>
      <trkpt lat="49.56129" lon="0.65648">
        <ele>107.33596801758</ele>
        <time>2014-03-29T18:42:23Z</time>
      </trkpt>
      <trkpt lat="49.56129" lon="0.65638">
        <ele>107.63102722168</ele>
        <time>2014-03-29T18:42:26Z</time>
      </trkpt>
      <trkpt lat="49.56129" lon="0.65625">
        <ele>108.08135986328</ele>
        <time>2014-03-29T18:42:30Z</time>
      </trkpt>
      <trkpt lat="49.5613" lon="0.65614">
        <ele>108.53043365478</ele>
        <time>2014-03-29T18:42:33Z</time>
      </trkpt>
      <trkpt lat="49.5613" lon="0.65599">
        <ele>108.92588806152</ele>
        <time>2014-03-29T18:42:38Z</time>
      </trkpt>
      <trkpt lat="49.5613" lon="0.65582">
        <ele>109.45223999023</ele>
        <time>2014-03-29T18:42:42Z</time>
      </trkpt>
      <trkpt lat="49.5613" lon="0.65575">
        <ele>109.47627258301</ele>
        <time>2014-03-29T18:42:44Z</time>
      </trkpt>
      <trkpt lat="49.56124" lon="0.65549">
        <ele>108.81658935547</ele>
        <time>2014-03-29T18:42:50Z</time>
      </trkpt>
      <trkpt lat="49.56124" lon="0.65546">
        <ele>108.79420471191</ele>
        <time>2014-03-29T18:42:51Z</time>
      </trkpt>
      <trkpt lat="49.56123" lon="0.65528">
        <ele>108.7272567749</ele>
        <time>2014-03-29T18:42:56Z</time>
      </trkpt>
      <trkpt lat="49.56121" lon="0.65517">
        <ele>108.52204895019</ele>
        <time>2014-03-29T18:42:59Z</time>
      </trkpt>
      <trkpt lat="49.5612" lon="0.65512">
        <ele>108.50610351562</ele>
        <time>2014-03-29T18:43:00Z</time>
      </trkpt>
      <trkpt lat="49.56118" lon="0.65494">
        <ele>108.29252624512</ele>
        <time>2014-03-29T18:43:05Z</time>
      </trkpt>
      <trkpt lat="49.56116" lon="0.6548">
        <ele>108.27919769287</ele>
        <time>2014-03-29T18:43:11Z</time>
      </trkpt>
      <trkpt lat="49.56116" lon="0.65472">
        <ele>108.43479919434</ele>
        <time>2014-03-29T18:43:16Z</time>
      </trkpt>
      <trkpt lat="49.56113" lon="0.65465">
        <ele>108.10385894775</ele>
        <time>2014-03-29T18:43:21Z</time>
      </trkpt>
      <trkpt lat="49.56112" lon="0.65463">
        <ele>107.94876098633</ele>
        <time>2014-03-29T18:43:23Z</time>
      </trkpt>
      <trkpt lat="49.56108" lon="0.65455">
        <ele>107.44699859619</ele>
        <time>2014-03-29T18:43:28Z</time>
      </trkpt>
      <trkpt lat="49.56109" lon="0.65447">
        <ele>107.73267364502</ele>
        <time>2014-03-29T18:43:32Z</time>
      </trkpt>
      <trkpt lat="49.56108" lon="0.65437">
        <ele>107.80776977539</ele>
        <time>2014-03-29T18:43:36Z</time>
      </trkpt>
      <trkpt lat="49.56111" lon="0.6542">
        <ele>108.61008453369</ele>
        <time>2014-03-29T18:43:41Z</time>
      </trkpt>
      <trkpt lat="49.5611" lon="0.65401">
        <ele>109.23742675781</ele>
        <time>2014-03-29T18:43:46Z</time>
      </trkpt>
      <trkpt lat="49.56107" lon="0.65386">
        <ele>109.52428436279</ele>
        <time>2014-03-29T18:43:50Z</time>
      </trkpt>
      <trkpt lat="49.56106" lon="0.65382">
        <ele>109.66539764404</ele>
        <time>2014-03-29T18:43:51Z</time>
      </trkpt>
      <trkpt lat="49.56105" lon="0.65358">
        <ele>110.84275054932</ele>
        <time>2014-03-29T18:43:56Z</time>
      </trkpt>
      <trkpt lat="49.56102" lon="0.65344">
        <ele>111.1240310669</ele>
        <time>2014-03-29T18:44:00Z</time>
      </trkpt>
      <trkpt lat="49.56101" lon="0.65326">
        <ele>111.39703369141</ele>
        <time>2014-03-29T18:44:04Z</time>
      </trkpt>
      <trkpt lat="49.56099" lon="0.65305">
        <ele>110.73427581787</ele>
        <time>2014-03-29T18:44:08Z</time>
      </trkpt>
      <trkpt lat="49.56098" lon="0.65295">
        <ele>110.5135269165</ele>
        <time>2014-03-29T18:44:10Z</time>
      </trkpt>
      <trkpt lat="49.56097" lon="0.65277">
        <ele>110.07273101807</ele>
        <time>2014-03-29T18:44:14Z</time>
      </trkpt>
      <trkpt lat="49.56095" lon="0.65261">
        <ele>109.53215789795</ele>
        <time>2014-03-29T18:44:19Z</time>
      </trkpt>
      <trkpt lat="49.56091" lon="0.6525">
        <ele>108.95886993408</ele>
        <time>2014-03-29T18:44:23Z</time>
      </trkpt>
      <trkpt lat="49.56089" lon="0.65245">
        <ele>108.84867858887</ele>
        <time>2014-03-29T18:44:25Z</time>
      </trkpt>
      <trkpt lat="49.56086" lon="0.65238">
        <ele>108.82998657227</ele>
        <time>2014-03-29T18:44:28Z</time>
      </trkpt>
      <trkpt lat="49.56079" lon="0.65228">
        <ele>108.75653076172</ele>
        <time>2014-03-29T18:44:32Z</time>
      </trkpt>
      <trkpt lat="49.56077" lon="0.65222">
        <ele>108.83274841309</ele>
        <time>2014-03-29T18:44:34Z</time>
      </trkpt>
      <trkpt lat="49.56073" lon="0.65205">
        <ele>109.39151000977</ele>
        <time>2014-03-29T18:44:39Z</time>
      </trkpt>
      <trkpt lat="49.56071" lon="0.65197">
        <ele>109.59073638916</ele>
        <time>2014-03-29T18:44:42Z</time>
      </trkpt>
      <trkpt lat="49.56068" lon="0.65184">
        <ele>109.93326568603</ele>
        <time>2014-03-29T18:44:47Z</time>
      </trkpt>
      <trkpt lat="49.56068" lon="0.65166">
        <ele>110.74801635742</ele>
        <time>2014-03-29T18:44:52Z</time>
      </trkpt>
      <trkpt lat="49.56068" lon="0.65162">
        <ele>110.76240539551</ele>
        <time>2014-03-29T18:44:53Z</time>
      </trkpt>
      <trkpt lat="49.56066" lon="0.65148">
        <ele>110.59393310547</ele>
        <time>2014-03-29T18:44:56Z</time>
      </trkpt>
      <trkpt lat="49.56064" lon="0.65126">
        <ele>110.43482971191</ele>
        <time>2014-03-29T18:45:01Z</time>
      </trkpt>
      <trkpt lat="49.56061" lon="0.65105">
        <ele>110.04596710205</ele>
        <time>2014-03-29T18:45:06Z</time>
      </trkpt>
      <trkpt lat="49.56059" lon="0.65095">
        <ele>109.7487487793</ele>
        <time>2014-03-29T18:45:08Z</time>
      </trkpt>
      <trkpt lat="49.56052" lon="0.65081">
        <ele>108.86438751221</ele>
        <time>2014-03-29T18:45:12Z</time>
      </trkpt>
      <trkpt lat="49.56048" lon="0.65064">
        <ele>108.67107391357</ele>
        <time>2014-03-29T18:45:18Z</time>
      </trkpt>
      <trkpt lat="49.56042" lon="0.65049">
        <ele>108.18422698975</ele>
        <time>2014-03-29T18:45:22Z</time>
      </trkpt>
      <trkpt lat="49.56041" lon="0.65043">
        <ele>108.07940673828</ele>
        <time>2014-03-29T18:45:24Z</time>
      </trkpt>
      <trkpt lat="49.56039" lon="0.65029">
        <ele>108.10488891602</ele>
        <time>2014-03-29T18:45:28Z</time>
      </trkpt>
      <trkpt lat="49.56039" lon="0.65009">
        <ele>108.51139831543</ele>
        <time>2014-03-29T18:45:34Z</time>
      </trkpt>
      <trkpt lat="49.56038" lon="0.64991">
        <ele>108.77124786377</ele>
        <time>2014-03-29T18:45:40Z</time>
      </trkpt>
      <trkpt lat="49.56039" lon="0.64973">
        <ele>109.36330413818</ele>
        <time>2014-03-29T18:45:45Z</time>
      </trkpt>
      <trkpt lat="49.56038" lon="0.64955">
        <ele>109.71739196777</ele>
        <time>2014-03-29T18:45:50Z</time>
      </trkpt>
      <trkpt lat="49.56037" lon="0.64952">
        <ele>109.7626876831</ele>
        <time>2014-03-29T18:45:51Z</time>
      </trkpt>
      <trkpt lat="49.56035" lon="0.64938">
        <ele>109.86695098877</ele>
        <time>2014-03-29T18:45:55Z</time>
      </trkpt>
      <trkpt lat="49.56035" lon="0.64926">
        <ele>110.18015289307</ele>
        <time>2014-03-29T18:45:59Z</time>
      </trkpt>
      <trkpt lat="49.5603" lon="0.64914">
        <ele>109.76113128662</ele>
        <time>2014-03-29T18:46:03Z</time>
      </trkpt>
      <trkpt lat="49.56028" lon="0.64901">
        <ele>109.56280517578</ele>
        <time>2014-03-29T18:46:07Z</time>
      </trkpt>
      <trkpt lat="49.56027" lon="0.64887">
        <ele>109.66734313965</ele>
        <time>2014-03-29T18:46:11Z</time>
      </trkpt>
      <trkpt lat="49.56029" lon="0.64875">
        <ele>110.14498138428</ele>
        <time>2014-03-29T18:46:14Z</time>
      </trkpt>
      <trkpt lat="49.56025" lon="0.6485">
        <ele>110.01398468018</ele>
        <time>2014-03-29T18:46:21Z</time>
      </trkpt>
      <trkpt lat="49.56023" lon="0.64835">
        <ele>110.01600646973</ele>
        <time>2014-03-29T18:46:25Z</time>
      </trkpt>
      <trkpt lat="49.5602" lon="0.64817">
        <ele>110.31326293945</ele>
        <time>2014-03-29T18:46:30Z</time>
      </trkpt>
      <trkpt lat="49.56018" lon="0.64797">
        <ele>110.79473114014</ele>
        <time>2014-03-29T18:46:35Z</time>
      </trkpt>
      <trkpt lat="49.56015" lon="0.64786">
        <ele>110.97964477539</ele>
        <time>2014-03-29T18:46:38Z</time>
      </trkpt>
      <trkpt lat="49.5601" lon="0.64776">
        <ele>110.84522247315</ele>
        <time>2014-03-29T18:46:42Z</time>
      </trkpt>
      <trkpt lat="49.56009" lon="0.64773">
        <ele>110.82109069824</ele>
        <time>2014-03-29T18:46:43Z</time>
      </trkpt>
      <trkpt lat="49.56005" lon="0.64759">
        <ele>111.01878356934</ele>
        <time>2014-03-29T18:46:48Z</time>
      </trkpt>
      <trkpt lat="49.56003" lon="0.64744">
        <ele>111.8251876831</ele>
        <time>2014-03-29T18:46:52Z</time>
      </trkpt>
      <trkpt lat="49.56002" lon="0.64723">
        <ele>113.41767883301</ele>
        <time>2014-03-29T18:46:58Z</time>
      </trkpt>
      <trkpt lat="49.56002" lon="0.64703">
        <ele>115.17449951172</ele>
        <time>2014-03-29T18:47:03Z</time>
      </trkpt>
      <trkpt lat="49.56003" lon="0.64687">
        <ele>116.57627868652</ele>
        <time>2014-03-29T18:47:07Z</time>
      </trkpt>
      <trkpt lat="49.56003" lon="0.6468">
        <ele>117.11689758301</ele>
        <time>2014-03-29T18:47:09Z</time>
      </trkpt>
      <trkpt lat="49.56002" lon="0.64663">
        <ele>118.35636138916</ele>
        <time>2014-03-29T18:47:14Z</time>
      </trkpt>
      <trkpt lat="49.56002" lon="0.64658">
        <ele>118.55267333984</ele>
        <time>2014-03-29T18:47:15Z</time>
      </trkpt>
      <trkpt lat="49.56002" lon="0.64641">
        <ele>119.33444213867</ele>
        <time>2014-03-29T18:47:20Z</time>
      </trkpt>
      <trkpt lat="49.56001" lon="0.64632">
        <ele>119.71839141846</ele>
        <time>2014-03-29T18:47:23Z</time>
      </trkpt>
      <trkpt lat="49.56" lon="0.64623">
        <ele>120.1243057251</ele>
        <time>2014-03-29T18:47:26Z</time>
      </trkpt>
      <trkpt lat="49.56" lon="0.64613">
        <ele>120.57137298584</ele>
        <time>2014-03-29T18:47:29Z</time>
      </trkpt>
      <trkpt lat="49.55998" lon="0.64598">
        <ele>121.40976715088</ele>
        <time>2014-03-29T18:47:34Z</time>
      </trkpt>
      <trkpt lat="49.55995" lon="0.64587">
        <ele>122.06525421143</ele>
        <time>2014-03-29T18:47:37Z</time>
      </trkpt>
      <trkpt lat="49.55991" lon="0.64579">
        <ele>122.4789352417</ele>
        <time>2014-03-29T18:47:40Z</time>
      </trkpt>
      <trkpt lat="49.55986" lon="0.6457">
        <ele>122.70612335205</ele>
        <time>2014-03-29T18:47:43Z</time>
      </trkpt>
      <trkpt lat="49.55985" lon="0.64565">
        <ele>122.77281951904</ele>
        <time>2014-03-29T18:47:45Z</time>
      </trkpt>
      <trkpt lat="49.5598" lon="0.64549">
        <ele>122.96802520752</ele>
        <time>2014-03-29T18:47:50Z</time>
      </trkpt>
      <trkpt lat="49.55978" lon="0.64529">
        <ele>123.01291656494</ele>
        <time>2014-03-29T18:47:55Z</time>
      </trkpt>
      <trkpt lat="49.55982" lon="0.64502">
        <ele>122.99600219727</ele>
        <time>2014-03-29T18:48:01Z</time>
      </trkpt>
      <trkpt lat="49.55982" lon="0.64481">
        <ele>122.92025756836</ele>
        <time>2014-03-29T18:48:06Z</time>
      </trkpt>
      <trkpt lat="49.55982" lon="0.64474">
        <ele>122.88939666748</ele>
        <time>2014-03-29T18:48:08Z</time>
      </trkpt>
      <trkpt lat="49.55984" lon="0.64452">
        <ele>122.76273345947</ele>
        <time>2014-03-29T18:48:14Z</time>
      </trkpt>
      <trkpt lat="49.55983" lon="0.64443">
        <ele>122.73317718506</ele>
        <time>2014-03-29T18:48:17Z</time>
      </trkpt>
      <trkpt lat="49.55981" lon="0.64437">
        <ele>122.74970245361</ele>
        <time>2014-03-29T18:48:19Z</time>
      </trkpt>
      <trkpt lat="49.5598" lon="0.64427">
        <ele>122.7440032959</ele>
        <time>2014-03-29T18:48:23Z</time>
      </trkpt>
      <trkpt lat="49.55976" lon="0.64413">
        <ele>122.76277160644</ele>
        <time>2014-03-29T18:48:27Z</time>
      </trkpt>
      <trkpt lat="49.55973" lon="0.64397">
        <ele>122.51056671143</ele>
        <time>2014-03-29T18:48:32Z</time>
      </trkpt>
      <trkpt lat="49.55968" lon="0.64369">
        <ele>121.99729919434</ele>
        <time>2014-03-29T18:48:39Z</time>
      </trkpt>
      <trkpt lat="49.55968" lon="0.64349">
        <ele>121.5313873291</ele>
        <time>2014-03-29T18:48:44Z</time>
      </trkpt>
      <trkpt lat="49.55966" lon="0.64333">
        <ele>121.21361541748</ele>
        <time>2014-03-29T18:48:48Z</time>
      </trkpt>
      <trkpt lat="49.55968" lon="0.64314">
        <ele>121.03520202637</ele>
        <time>2014-03-29T18:48:52Z</time>
      </trkpt>
      <trkpt lat="49.55972" lon="0.64299">
        <ele>120.86191558838</ele>
        <time>2014-03-29T18:48:57Z</time>
      </trkpt>
      <trkpt lat="49.55974" lon="0.64295">
        <ele>120.8235244751</ele>
        <time>2014-03-29T18:48:59Z</time>
      </trkpt>
      <trkpt lat="49.5598" lon="0.64277">
        <ele>120.74564361572</ele>
        <time>2014-03-29T18:49:05Z</time>
      </trkpt>
      <trkpt lat="49.55984" lon="0.64265">
        <ele>120.76425933838</ele>
        <time>2014-03-29T18:49:09Z</time>
      </trkpt>
      <trkpt lat="49.55985" lon="0.64262">
        <ele>120.78054046631</ele>
        <time>2014-03-29T18:49:10Z</time>
      </trkpt>
      <trkpt lat="49.55991" lon="0.64242">
        <ele>120.90249633789</ele>
        <time>2014-03-29T18:49:16Z</time>
      </trkpt>
      <trkpt lat="49.55999" lon="0.64222">
        <ele>120.98903656006</ele>
        <time>2014-03-29T18:49:22Z</time>
      </trkpt>
      <trkpt lat="49.56004" lon="0.64205">
        <ele>121.21113586426</ele>
        <time>2014-03-29T18:49:27Z</time>
      </trkpt>
      <trkpt lat="49.5601" lon="0.64191">
        <ele>121.55249786377</ele>
        <time>2014-03-29T18:49:31Z</time>
      </trkpt>
      <trkpt lat="49.56018" lon="0.6417">
        <ele>121.90198516846</ele>
        <time>2014-03-29T18:49:37Z</time>
      </trkpt>
      <trkpt lat="49.56028" lon="0.6415">
        <ele>122.56224060059</ele>
        <time>2014-03-29T18:49:44Z</time>
      </trkpt>
      <trkpt lat="49.56036" lon="0.64135">
        <ele>122.9931716919</ele>
        <time>2014-03-29T18:49:49Z</time>
      </trkpt>
      <trkpt lat="49.56043" lon="0.64123">
        <ele>123.30832672119</ele>
        <time>2014-03-29T18:49:54Z</time>
      </trkpt>
      <trkpt lat="49.56052" lon="0.6411">
        <ele>123.59246063232</ele>
        <time>2014-03-29T18:49:59Z</time>
      </trkpt>
      <trkpt lat="49.5606" lon="0.641">
        <ele>123.75946807861</ele>
        <time>2014-03-29T18:50:03Z</time>
      </trkpt>
      <trkpt lat="49.56071" lon="0.64089">
        <ele>123.89203643799</ele>
        <time>2014-03-29T18:50:08Z</time>
      </trkpt>
      <trkpt lat="49.56077" lon="0.64085">
        <ele>123.94492340088</ele>
        <time>2014-03-29T18:50:12Z</time>
      </trkpt>
      <trkpt lat="49.56083" lon="0.64082">
        <ele>124.00995635986</ele>
        <time>2014-03-29T18:50:16Z</time>
      </trkpt>
      <trkpt lat="49.56087" lon="0.64082">
        <ele>124.15468597412</ele>
        <time>2014-03-29T18:50:18Z</time>
      </trkpt>
      <trkpt lat="49.56096" lon="0.64081">
        <ele>124.48328399658</ele>
        <time>2014-03-29T18:50:23Z</time>
      </trkpt>
      <trkpt lat="49.56106" lon="0.64079">
        <ele>124.88127136231</ele>
        <time>2014-03-29T18:50:28Z</time>
      </trkpt>
      <trkpt lat="49.56114" lon="0.64078">
        <ele>125.20128631592</ele>
        <time>2014-03-29T18:50:32Z</time>
      </trkpt>
      <trkpt lat="49.56126" lon="0.64077">
        <ele>125.64215087891</ele>
        <time>2014-03-29T18:50:37Z</time>
      </trkpt>
      <trkpt lat="49.56134" lon="0.64074">
        <ele>126.01200866699</ele>
        <time>2014-03-29T18:50:41Z</time>
      </trkpt>
      <trkpt lat="49.56148" lon="0.64068">
        <ele>126.66661834717</ele>
        <time>2014-03-29T18:50:47Z</time>
      </trkpt>
      <trkpt lat="49.56166" lon="0.64056">
        <ele>127.62509155273</ele>
        <time>2014-03-29T18:50:55Z</time>
      </trkpt>
      <trkpt lat="49.56178" lon="0.64049">
        <ele>128.31576538086</ele>
        <time>2014-03-29T18:51:00Z</time>
      </trkpt>
      <trkpt lat="49.56186" lon="0.64042">
        <ele>128.81474304199</ele>
        <time>2014-03-29T18:51:04Z</time>
      </trkpt>
      <trkpt lat="49.56197" lon="0.64034">
        <ele>129.43031311035</ele>
        <time>2014-03-29T18:51:09Z</time>
      </trkpt>
      <trkpt lat="49.56208" lon="0.64027">
        <ele>130.00546264648</ele>
        <time>2014-03-29T18:51:14Z</time>
      </trkpt>
      <trkpt lat="49.5622" lon="0.64017">
        <ele>130.65184020996</ele>
        <time>2014-03-29T18:51:21Z</time>
      </trkpt>
      <trkpt lat="49.56224" lon="0.64012">
        <ele>130.88589477539</ele>
        <time>2014-03-29T18:51:24Z</time>
      </trkpt>
      <trkpt lat="49.56229" lon="0.6401">
        <ele>131.09510803223</ele>
        <time>2014-03-29T18:51:27Z</time>
      </trkpt>
      <trkpt lat="49.56234" lon="0.64006">
        <ele>131.34785461426</ele>
        <time>2014-03-29T18:51:32Z</time>
      </trkpt>
      <trkpt lat="49.5624" lon="0.64003">
        <ele>131.59001159668</ele>
        <time>2014-03-29T18:51:38Z</time>
      </trkpt>
      <trkpt lat="49.56244" lon="0.63999">
        <ele>131.80076599121</ele>
        <time>2014-03-29T18:51:42Z</time>
      </trkpt>
      <trkpt lat="49.56246" lon="0.63993">
        <ele>132.11630249023</ele>
        <time>2014-03-29T18:51:46Z</time>
      </trkpt>
      <trkpt lat="49.56243" lon="0.63982">
        <ele>132.34330749512</ele>
        <time>2014-03-29T18:51:53Z</time>
      </trkpt>
      <trkpt lat="49.56238" lon="0.63971">
        <ele>132.49095153809</ele>
        <time>2014-03-29T18:52:00Z</time>
      </trkpt>
      <trkpt lat="49.56235" lon="0.63968">
        <ele>132.47430419922</ele>
        <time>2014-03-29T18:52:03Z</time>
      </trkpt>
      <trkpt lat="49.56229" lon="0.63954">
        <ele>132.60995483398</ele>
        <time>2014-03-29T18:52:11Z</time>
      </trkpt>
      <trkpt lat="49.5622" lon="0.63936">
        <ele>132.67695617676</ele>
        <time>2014-03-29T18:52:21Z</time>
      </trkpt>
      <trkpt lat="49.56214" lon="0.6392">
        <ele>132.74520874023</ele>
        <time>2014-03-29T18:52:29Z</time>
      </trkpt>
      <trkpt lat="49.56209" lon="0.63906">
        <ele>132.55096435547</ele>
        <time>2014-03-29T18:52:36Z</time>
      </trkpt>
      <trkpt lat="49.56204" lon="0.63889">
        <ele>132.23052978516</ele>
        <time>2014-03-29T18:52:44Z</time>
      </trkpt>
      <trkpt lat="49.562" lon="0.63875">
        <ele>132.02453613281</ele>
        <time>2014-03-29T18:52:51Z</time>
      </trkpt>
      <trkpt lat="49.56188" lon="0.6385">
        <ele>131.29211425781</ele>
        <time>2014-03-29T18:53:04Z</time>
      </trkpt>
      <trkpt lat="49.56181" lon="0.6384">
        <ele>130.88012695312</ele>
        <time>2014-03-29T18:53:09Z</time>
      </trkpt>
      <trkpt lat="49.56173" lon="0.63827">
        <ele>130.27815246582</ele>
        <time>2014-03-29T18:53:14Z</time>
      </trkpt>
      <trkpt lat="49.56161" lon="0.63808">
        <ele>129.38583374023</ele>
        <time>2014-03-29T18:53:21Z</time>
      </trkpt>
      <trkpt lat="49.56153" lon="0.63794">
        <ele>128.84814453125</ele>
        <time>2014-03-29T18:53:26Z</time>
      </trkpt>
      <trkpt lat="49.5614" lon="0.63767">
        <ele>128.11697387695</ele>
        <time>2014-03-29T18:53:35Z</time>
      </trkpt>
      <trkpt lat="49.56131" lon="0.63747">
        <ele>127.76680755615</ele>
        <time>2014-03-29T18:53:41Z</time>
      </trkpt>
      <trkpt lat="49.56124" lon="0.63729">
        <ele>127.86041259766</ele>
        <time>2014-03-29T18:53:47Z</time>
      </trkpt>
      <trkpt lat="49.5612" lon="0.63718">
        <ele>127.95808410644</ele>
        <time>2014-03-29T18:53:52Z</time>
      </trkpt>
      <trkpt lat="49.56115" lon="0.63706">
        <ele>128.1076965332</ele>
        <time>2014-03-29T18:53:59Z</time>
      </trkpt>
      <trkpt lat="49.56108" lon="0.63694">
        <ele>128.32185363769</ele>
        <time>2014-03-29T18:54:04Z</time>
      </trkpt>
      <trkpt lat="49.56104" lon="0.6368">
        <ele>128.62992858887</ele>
        <time>2014-03-29T18:54:08Z</time>
      </trkpt>
      <trkpt lat="49.56095" lon="0.63664">
        <ele>129.08848571777</ele>
        <time>2014-03-29T18:54:14Z</time>
      </trkpt>
      <trkpt lat="49.56087" lon="0.63645">
        <ele>129.56303405762</ele>
        <time>2014-03-29T18:54:20Z</time>
      </trkpt>
      <trkpt lat="49.5608" lon="0.63629">
        <ele>129.86935424805</ele>
        <time>2014-03-29T18:54:25Z</time>
      </trkpt>
      <trkpt lat="49.5607" lon="0.6361">
        <ele>130.20266723633</ele>
        <time>2014-03-29T18:54:31Z</time>
      </trkpt>
      <trkpt lat="49.5606" lon="0.63595">
        <ele>130.43496704102</ele>
        <time>2014-03-29T18:54:37Z</time>
      </trkpt>
      <trkpt lat="49.56048" lon="0.63582">
        <ele>130.63458251953</ele>
        <time>2014-03-29T18:54:43Z</time>
      </trkpt>
      <trkpt lat="49.56038" lon="0.63572">
        <ele>130.93063354492</ele>
        <time>2014-03-29T18:54:48Z</time>
      </trkpt>
      <trkpt lat="49.56026" lon="0.6356">
        <ele>131.12995910644</ele>
        <time>2014-03-29T18:54:54Z</time>
      </trkpt>
      <trkpt lat="49.56013" lon="0.63546">
        <ele>131.26593017578</ele>
        <time>2014-03-29T18:55:01Z</time>
      </trkpt>
      <trkpt lat="49.55998" lon="0.63531">
        <ele>131.30851745606</ele>
        <time>2014-03-29T18:55:09Z</time>
      </trkpt>
      <trkpt lat="49.55984" lon="0.63516">
        <ele>132.01983642578</ele>
        <time>2014-03-29T18:55:16Z</time>
      </trkpt>
      <trkpt lat="49.55971" lon="0.63501">
        <ele>132.67454528809</ele>
        <time>2014-03-29T18:55:23Z</time>
      </trkpt>
      <trkpt lat="49.55964" lon="0.63495">
        <ele>132.96116638184</ele>
        <time>2014-03-29T18:55:27Z</time>
      </trkpt>
      <trkpt lat="49.55954" lon="0.63486">
        <ele>133.33728027344</ele>
        <time>2014-03-29T18:55:32Z</time>
      </trkpt>
      <trkpt lat="49.55952" lon="0.63484">
        <ele>133.40797424316</ele>
        <time>2014-03-29T18:55:33Z</time>
      </trkpt>
      <trkpt lat="49.55941" lon="0.63472">
        <ele>133.83845520019</ele>
        <time>2014-03-29T18:55:39Z</time>
      </trkpt>
      <trkpt lat="49.5593" lon="0.6346">
        <ele>134.23306274414</ele>
        <time>2014-03-29T18:55:45Z</time>
      </trkpt>
      <trkpt lat="49.55922" lon="0.63452">
        <ele>134.47532653809</ele>
        <time>2014-03-29T18:55:49Z</time>
      </trkpt>
      <trkpt lat="49.5591" lon="0.63438">
        <ele>134.58027648926</ele>
        <time>2014-03-29T18:55:56Z</time>
      </trkpt>
      <trkpt lat="49.55901" lon="0.63428">
        <ele>134.41259765625</ele>
        <time>2014-03-29T18:56:01Z</time>
      </trkpt>
      <trkpt lat="49.5589" lon="0.63414">
        <ele>133.98612976074</ele>
        <time>2014-03-29T18:56:07Z</time>
      </trkpt>
      <trkpt lat="49.55884" lon="0.63404">
        <ele>133.59725952148</ele>
        <time>2014-03-29T18:56:11Z</time>
      </trkpt>
      <trkpt lat="49.55875" lon="0.6339">
        <ele>133.03439331055</ele>
        <time>2014-03-29T18:56:16Z</time>
      </trkpt>
      <trkpt lat="49.55864" lon="0.63371">
        <ele>132.22393798828</ele>
        <time>2014-03-29T18:56:22Z</time>
      </trkpt>
      <trkpt lat="49.55852" lon="0.6335">
        <ele>131.23091125488</ele>
        <time>2014-03-29T18:56:29Z</time>
      </trkpt>
      <trkpt lat="49.55842" lon="0.63326">
        <ele>130.23561096191</ele>
        <time>2014-03-29T18:56:36Z</time>
      </trkpt>
      <trkpt lat="49.55834" lon="0.63307">
        <ele>129.38273620606</ele>
        <time>2014-03-29T18:56:42Z</time>
      </trkpt>
      <trkpt lat="49.55825" lon="0.63283">
        <ele>129.20567321777</ele>
        <time>2014-03-29T18:56:49Z</time>
      </trkpt>
      <trkpt lat="49.55822" lon="0.63273">
        <ele>129.15434265137</ele>
        <time>2014-03-29T18:56:53Z</time>
      </trkpt>
      <trkpt lat="49.55819" lon="0.63262">
        <ele>129.09593200684</ele>
        <time>2014-03-29T18:57:00Z</time>
      </trkpt>
      <trkpt lat="49.55816" lon="0.6325">
        <ele>129.03468322754</ele>
        <time>2014-03-29T18:57:09Z</time>
      </trkpt>
      <trkpt lat="49.55816" lon="0.63249">
        <ele>128.98013305664</ele>
        <time>2014-03-29T18:57:18Z</time>
      </trkpt>
      <trkpt lat="49.55813" lon="0.63246">
        <ele>128.99745178223</ele>
        <time>2014-03-29T18:57:24Z</time>
      </trkpt>
      <trkpt lat="49.55806" lon="0.63238">
        <ele>128.71894836426</ele>
        <time>2014-03-29T18:57:31Z</time>
      </trkpt>
      <trkpt lat="49.55803" lon="0.63234">
        <ele>128.56819152832</ele>
        <time>2014-03-29T18:57:34Z</time>
      </trkpt>
      <trkpt lat="49.55799" lon="0.6323">
        <ele>128.34030151367</ele>
        <time>2014-03-29T18:57:39Z</time>
      </trkpt>
      <trkpt lat="49.55795" lon="0.63225">
        <ele>128.03971862793</ele>
        <time>2014-03-29T18:57:44Z</time>
      </trkpt>
      <trkpt lat="49.55791" lon="0.63222">
        <ele>127.79416656494</ele>
        <time>2014-03-29T18:57:48Z</time>
      </trkpt>
      <trkpt lat="49.55791" lon="0.6322">
        <ele>127.60010528565</ele>
        <time>2014-03-29T18:57:50Z</time>
      </trkpt>
      <trkpt lat="49.55793" lon="0.63217">
        <ele>127.30884552002</ele>
        <time>2014-03-29T18:57:57Z</time>
      </trkpt>
      <trkpt lat="49.55795" lon="0.63215">
        <ele>127.1099319458</ele>
        <time>2014-03-29T18:58:01Z</time>
      </trkpt>
      <trkpt lat="49.558" lon="0.6321">
        <ele>126.60738372803</ele>
        <time>2014-03-29T18:58:05Z</time>
      </trkpt>
      <trkpt lat="49.55799" lon="0.63196">
        <ele>125.45462799072</ele>
        <time>2014-03-29T18:58:10Z</time>
      </trkpt>
      <trkpt lat="49.55796" lon="0.63193">
        <ele>125.12849426269</ele>
        <time>2014-03-29T18:58:12Z</time>
      </trkpt>
      <trkpt lat="49.55781" lon="0.63183">
        <ele>123.64853668213</ele>
        <time>2014-03-29T18:58:18Z</time>
      </trkpt>
      <trkpt lat="49.55767" lon="0.63176">
        <ele>122.2134475708</ele>
        <time>2014-03-29T18:58:23Z</time>
      </trkpt>
      <trkpt lat="49.55759" lon="0.63173">
        <ele>121.40265655518</ele>
        <time>2014-03-29T18:58:26Z</time>
      </trkpt>
      <trkpt lat="49.55747" lon="0.63171">
        <ele>120.65226745606</ele>
        <time>2014-03-29T18:58:31Z</time>
      </trkpt>
      <trkpt lat="49.5574" lon="0.63172">
        <ele>120.98433685303</ele>
        <time>2014-03-29T18:58:34Z</time>
      </trkpt>
      <trkpt lat="49.55734" lon="0.63173">
        <ele>121.23184204102</ele>
        <time>2014-03-29T18:58:36Z</time>
      </trkpt>
      <trkpt lat="49.55722" lon="0.63173">
        <ele>121.41233062744</ele>
        <time>2014-03-29T18:58:42Z</time>
      </trkpt>
      <trkpt lat="49.55713" lon="0.63172">
        <ele>121.32945251465</ele>
        <time>2014-03-29T18:58:46Z</time>
      </trkpt>
      <trkpt lat="49.55704" lon="0.6317">
        <ele>121.16176605225</ele>
        <time>2014-03-29T18:58:50Z</time>
      </trkpt>
      <trkpt lat="49.55701" lon="0.6317">
        <ele>121.12342834473</ele>
        <time>2014-03-29T18:58:52Z</time>
      </trkpt>
      <trkpt lat="49.55698" lon="0.6317">
        <ele>121.12225341797</ele>
        <time>2014-03-29T18:58:54Z</time>
      </trkpt>
      <trkpt lat="49.55688" lon="0.63166">
        <ele>120.67620849609</ele>
        <time>2014-03-29T18:59:01Z</time>
      </trkpt>
      <trkpt lat="49.5568" lon="0.63163">
        <ele>119.99394989014</ele>
        <time>2014-03-29T18:59:07Z</time>
      </trkpt>
      <trkpt lat="49.55678" lon="0.63162">
        <ele>119.8159866333</ele>
        <time>2014-03-29T18:59:08Z</time>
      </trkpt>
      <trkpt lat="49.55666" lon="0.63156">
        <ele>118.45267486572</ele>
        <time>2014-03-29T18:59:14Z</time>
      </trkpt>
      <trkpt lat="49.55658" lon="0.63154">
        <ele>118.74770355225</ele>
        <time>2014-03-29T18:59:18Z</time>
      </trkpt>
      <trkpt lat="49.55649" lon="0.63143">
        <ele>117.16311645508</ele>
        <time>2014-03-29T18:59:24Z</time>
      </trkpt>
      <trkpt lat="49.55647" lon="0.63138">
        <ele>116.27554321289</ele>
        <time>2014-03-29T18:59:27Z</time>
      </trkpt>
      <trkpt lat="49.55642" lon="0.63122">
        <ele>112.90880584717</ele>
        <time>2014-03-29T18:59:33Z</time>
      </trkpt>
      <trkpt lat="49.55635" lon="0.63103">
        <ele>109.2734375</ele>
        <time>2014-03-29T18:59:38Z</time>
      </trkpt>
      <trkpt lat="49.55626" lon="0.63083">
        <ele>105.79357147217</ele>
        <time>2014-03-29T18:59:43Z</time>
      </trkpt>
      <trkpt lat="49.55615" lon="0.63062">
        <ele>103.98670959473</ele>
        <time>2014-03-29T18:59:49Z</time>
      </trkpt>
      <trkpt lat="49.55613" lon="0.63059">
        <ele>103.65330505371</ele>
        <time>2014-03-29T18:59:50Z</time>
      </trkpt>
      <trkpt lat="49.55608" lon="0.63045">
        <ele>101.74835968018</ele>
        <time>2014-03-29T18:59:53Z</time>
      </trkpt>
      <trkpt lat="49.55599" lon="0.63024">
        <ele>98.946350097656</ele>
        <time>2014-03-29T18:59:59Z</time>
      </trkpt>
      <trkpt lat="49.55595" lon="0.63016">
        <ele>97.56812286377</ele>
        <time>2014-03-29T19:00:02Z</time>
      </trkpt>
      <trkpt lat="49.55587" lon="0.63002">
        <ele>95.279067993164</ele>
        <time>2014-03-29T19:00:06Z</time>
      </trkpt>
      <trkpt lat="49.5557" lon="0.63004">
        <ele>95.378852844238</ele>
        <time>2014-03-29T19:00:13Z</time>
      </trkpt>
      <trkpt lat="49.55566" lon="0.63007">
        <ele>95.926727294922</ele>
        <time>2014-03-29T19:00:15Z</time>
      </trkpt>
      <trkpt lat="49.55558" lon="0.63014">
        <ele>96.875328063965</ele>
        <time>2014-03-29T19:00:19Z</time>
      </trkpt>
      <trkpt lat="49.55541" lon="0.63017">
        <ele>96.821884155273</ele>
        <time>2014-03-29T19:00:26Z</time>
      </trkpt>
      <trkpt lat="49.55529" lon="0.63017">
        <ele>96.329772949219</ele>
        <time>2014-03-29T19:00:35Z</time>
      </trkpt>
      <trkpt lat="49.55526" lon="0.63014">
        <ele>95.850036621094</ele>
        <time>2014-03-29T19:00:38Z</time>
      </trkpt>
      <trkpt lat="49.55526" lon="0.63011">
        <ele>95.320526123047</ele>
        <time>2014-03-29T19:00:42Z</time>
      </trkpt>
      <trkpt lat="49.55524" lon="0.63008">
        <ele>94.766914367676</ele>
        <time>2014-03-29T19:01:22Z</time>
      </trkpt>
      <trkpt lat="49.55523" lon="0.63009">
        <ele>94.854461669922</ele>
        <time>2014-03-29T19:01:38Z</time>
      </trkpt>
      <trkpt lat="49.55521" lon="0.63005">
        <ele>94.291015625</ele>
        <time>2014-03-29T19:01:50Z</time>
      </trkpt>
      <trkpt lat="49.55521" lon="0.63004">
        <ele>94.047454833984</ele>
        <time>2014-03-29T19:01:55Z</time>
      </trkpt>
      <trkpt lat="49.55519" lon="0.62998">
        <ele>93.445320129395</ele>
        <time>2014-03-29T19:02:09Z</time>
      </trkpt>
      <trkpt lat="49.55518" lon="0.6299">
        <ele>93.295288085938</ele>
        <time>2014-03-29T19:02:13Z</time>
      </trkpt>
      <trkpt lat="49.55515" lon="0.62974">
        <ele>93.080184936523</ele>
        <time>2014-03-29T19:02:18Z</time>
      </trkpt>
      <trkpt lat="49.55508" lon="0.6296">
        <ele>92.9580078125</ele>
        <time>2014-03-29T19:02:23Z</time>
      </trkpt>
      <trkpt lat="49.55505" lon="0.62952">
        <ele>92.945663452148</ele>
        <time>2014-03-29T19:02:26Z</time>
      </trkpt>
      <trkpt lat="49.55505" lon="0.62948">
        <ele>92.939453125</ele>
        <time>2014-03-29T19:02:29Z</time>
      </trkpt>
      <trkpt lat="49.55503" lon="0.6294">
        <ele>92.947525024414</ele>
        <time>2014-03-29T19:02:35Z</time>
      </trkpt>
      <trkpt lat="49.555" lon="0.62928">
        <ele>92.988433837891</ele>
        <time>2014-03-29T19:02:42Z</time>
      </trkpt>
      <trkpt lat="49.55499" lon="0.6292">
        <ele>93.011833190918</ele>
        <time>2014-03-29T19:02:47Z</time>
      </trkpt>
      <trkpt lat="49.55498" lon="0.62917">
        <ele>93.021675109863</ele>
        <time>2014-03-29T19:02:49Z</time>
      </trkpt>
      <trkpt lat="49.55496" lon="0.62909">
        <ele>93.781135559082</ele>
        <time>2014-03-29T19:02:56Z</time>
      </trkpt>
      <trkpt lat="49.55495" lon="0.62903">
        <ele>94.432243347168</ele>
        <time>2014-03-29T19:03:00Z</time>
      </trkpt>
      <trkpt lat="49.55493" lon="0.62898">
        <ele>95.014221191406</ele>
        <time>2014-03-29T19:03:05Z</time>
      </trkpt>
      <trkpt lat="49.5549" lon="0.62885">
        <ele>96.366439819336</ele>
        <time>2014-03-29T19:03:13Z</time>
      </trkpt>
      <trkpt lat="49.5549" lon="0.62883">
        <ele>96.603378295898</ele>
        <time>2014-03-29T19:03:15Z</time>
      </trkpt>
      <trkpt lat="49.55489" lon="0.62883">
        <ele>96.658599853516</ele>
        <time>2014-03-29T19:03:23Z</time>
      </trkpt>
      <trkpt lat="49.55489" lon="0.62878">
        <ele>97.185516357422</ele>
        <time>2014-03-29T19:03:27Z</time>
      </trkpt>
      <trkpt lat="49.55487" lon="0.62872">
        <ele>97.817039489746</ele>
        <time>2014-03-29T19:03:31Z</time>
      </trkpt>
      <trkpt lat="49.55485" lon="0.62862">
        <ele>98.988380432129</ele>
        <time>2014-03-29T19:03:39Z</time>
      </trkpt>
      <trkpt lat="49.55483" lon="0.62855">
        <ele>99.904602050781</ele>
        <time>2014-03-29T19:03:46Z</time>
      </trkpt>
      <trkpt lat="49.55482" lon="0.62848">
        <ele>100.70648193359</ele>
        <time>2014-03-29T19:03:52Z</time>
      </trkpt>
      <trkpt lat="49.55479" lon="0.62841">
        <ele>101.64572143555</ele>
        <time>2014-03-29T19:03:57Z</time>
      </trkpt>
      <trkpt lat="49.55478" lon="0.62834">
        <ele>102.51400756836</ele>
        <time>2014-03-29T19:04:02Z</time>
      </trkpt>
      <trkpt lat="49.55476" lon="0.62829">
        <ele>103.0927658081</ele>
        <time>2014-03-29T19:04:07Z</time>
      </trkpt>
      <trkpt lat="49.55474" lon="0.62819">
        <ele>104.14558410644</ele>
        <time>2014-03-29T19:04:13Z</time>
      </trkpt>
      <trkpt lat="49.55468" lon="0.62809">
        <ele>105.6184463501</ele>
        <time>2014-03-29T19:04:21Z</time>
      </trkpt>
      <trkpt lat="49.55463" lon="0.62797">
        <ele>107.16923522949</ele>
        <time>2014-03-29T19:04:29Z</time>
      </trkpt>
      <trkpt lat="49.55457" lon="0.62785">
        <ele>109.04428100586</ele>
        <time>2014-03-29T19:04:38Z</time>
      </trkpt>
      <trkpt lat="49.55455" lon="0.62783">
        <ele>109.46029663086</ele>
        <time>2014-03-29T19:04:40Z</time>
      </trkpt>
      <trkpt lat="49.55453" lon="0.62781">
        <ele>109.94179534912</ele>
        <time>2014-03-29T19:04:43Z</time>
      </trkpt>
      <trkpt lat="49.55447" lon="0.62785">
        <ele>110.10886383057</ele>
        <time>2014-03-29T19:04:48Z</time>
      </trkpt>
      <trkpt lat="49.55447" lon="0.62785">
        <ele>110.16275024414</ele>
        <time>2014-03-29T19:04:49Z</time>
      </trkpt>
      <trkpt lat="49.55445" lon="0.62784">
        <ele>110.44020080566</ele>
        <time>2014-03-29T19:04:54Z</time>
      </trkpt>
      <trkpt lat="49.55444" lon="0.62779">
        <ele>111.15292358398</ele>
        <time>2014-03-29T19:05:00Z</time>
      </trkpt>
      <trkpt lat="49.55445" lon="0.6277">
        <ele>111.97912597656</ele>
        <time>2014-03-29T19:05:07Z</time>
      </trkpt>
      <trkpt lat="49.55447" lon="0.62763">
        <ele>112.55702972412</ele>
        <time>2014-03-29T19:05:11Z</time>
      </trkpt>
      <trkpt lat="49.5545" lon="0.62738">
        <ele>114.73745727539</ele>
        <time>2014-03-29T19:05:23Z</time>
      </trkpt>
      <trkpt lat="49.55451" lon="0.62716">
        <ele>116.58030700684</ele>
        <time>2014-03-29T19:05:34Z</time>
      </trkpt>
      <trkpt lat="49.55451" lon="0.62701">
        <ele>117.90195465088</ele>
        <time>2014-03-29T19:05:41Z</time>
      </trkpt>
      <trkpt lat="49.55454" lon="0.62685">
        <ele>119.12997436523</ele>
        <time>2014-03-29T19:05:49Z</time>
      </trkpt>
      <trkpt lat="49.55455" lon="0.62674">
        <ele>120.1067199707</ele>
        <time>2014-03-29T19:05:55Z</time>
      </trkpt>
      <trkpt lat="49.55452" lon="0.62672">
        <ele>120.53440856934</ele>
        <time>2014-03-29T19:06:00Z</time>
      </trkpt>
      <trkpt lat="49.55451" lon="0.62674">
        <ele>120.48628997803</ele>
        <time>2014-03-29T19:06:01Z</time>
      </trkpt>
      <trkpt lat="49.5545" lon="0.62677">
        <ele>120.30659484863</ele>
        <time>2014-03-29T19:06:07Z</time>
      </trkpt>
      <trkpt lat="49.55448" lon="0.62676">
        <ele>120.48180389404</ele>
        <time>2014-03-29T19:06:12Z</time>
      </trkpt>
      <trkpt lat="49.55447" lon="0.62677">
        <ele>120.48652648926</ele>
        <time>2014-03-29T19:06:16Z</time>
      </trkpt>
      <trkpt lat="49.55448" lon="0.62677">
        <ele>120.42486572266</ele>
        <time>2014-03-29T19:06:17Z</time>
      </trkpt>
      <trkpt lat="49.55445" lon="0.62674">
        <ele>120.92115020752</ele>
        <time>2014-03-29T19:06:23Z</time>
      </trkpt>
      <trkpt lat="49.55442" lon="0.6267">
        <ele>121.55857849121</ele>
        <time>2014-03-29T19:06:28Z</time>
      </trkpt>
      <trkpt lat="49.55441" lon="0.62667">
        <ele>121.92928314209</ele>
        <time>2014-03-29T19:06:31Z</time>
      </trkpt>
      <trkpt lat="49.55434" lon="0.6266">
        <ele>122.93748474121</ele>
        <time>2014-03-29T19:06:39Z</time>
      </trkpt>
      <trkpt lat="49.55426" lon="0.62648">
        <ele>124.18542480469</ele>
        <time>2014-03-29T19:06:48Z</time>
      </trkpt>
      <trkpt lat="49.55417" lon="0.62639">
        <ele>125.32690429688</ele>
        <time>2014-03-29T19:06:57Z</time>
      </trkpt>
      <trkpt lat="49.55408" lon="0.62629">
        <ele>126.38000488281</ele>
        <time>2014-03-29T19:07:05Z</time>
      </trkpt>
      <trkpt lat="49.55401" lon="0.62624">
        <ele>127.0788192749</ele>
        <time>2014-03-29T19:07:11Z</time>
      </trkpt>
      <trkpt lat="49.55392" lon="0.62615">
        <ele>128.03163146973</ele>
        <time>2014-03-29T19:07:20Z</time>
      </trkpt>
      <trkpt lat="49.55384" lon="0.62608">
        <ele>128.74336242676</ele>
        <time>2014-03-29T19:07:27Z</time>
      </trkpt>
      <trkpt lat="49.55371" lon="0.62597">
        <ele>129.77404785156</ele>
        <time>2014-03-29T19:07:39Z</time>
      </trkpt>
      <trkpt lat="49.5537" lon="0.62595">
        <ele>129.93702697754</ele>
        <time>2014-03-29T19:07:41Z</time>
      </trkpt>
      <trkpt lat="49.55368" lon="0.62594">
        <ele>130.01376342773</ele>
        <time>2014-03-29T19:07:45Z</time>
      </trkpt>
      <trkpt lat="49.55366" lon="0.62599">
        <ele>130.01077270508</ele>
        <time>2014-03-29T19:07:52Z</time>
      </trkpt>
      <trkpt lat="49.55366" lon="0.626">
        <ele>130.01356506348</ele>
        <time>2014-03-29T19:07:56Z</time>
      </trkpt>
      <trkpt lat="49.55366" lon="0.626">
        <ele>130.01356506348</ele>
        <time>2014-03-29T19:08:03Z</time>
      </trkpt>
      <trkpt lat="49.55366" lon="0.626">
        <ele>129.98597717285</ele>
        <time>2014-03-29T19:08:20Z</time>
      </trkpt>
      <trkpt lat="49.55365" lon="0.62599">
        <ele>130.09172058106</ele>
        <time>2014-03-29T19:08:28Z</time>
      </trkpt>
      <trkpt lat="49.55364" lon="0.62599">
        <ele>130.15116882324</ele>
        <time>2014-03-29T19:08:30Z</time>
      </trkpt>
      <trkpt lat="49.5536" lon="0.62592">
        <ele>130.53053283691</ele>
        <time>2014-03-29T19:08:34Z</time>
      </trkpt>
      <trkpt lat="49.55358" lon="0.6259">
        <ele>130.6775970459</ele>
        <time>2014-03-29T19:08:44Z</time>
      </trkpt>
      <trkpt lat="49.55359" lon="0.62591">
        <ele>130.62350463867</ele>
        <time>2014-03-29T19:08:45Z</time>
      </trkpt>
      <trkpt lat="49.55366" lon="0.62598">
        <ele>130.06735229492</ele>
        <time>2014-03-29T19:08:53Z</time>
      </trkpt>
      <trkpt lat="49.55366" lon="0.62598">
        <ele>130.03994750977</ele>
        <time>2014-03-29T19:08:54Z</time>
      </trkpt>
      <trkpt lat="49.55367" lon="0.62598">
        <ele>129.99234008789</ele>
        <time>2014-03-29T19:09:00Z</time>
      </trkpt>
      <trkpt lat="49.55368" lon="0.62598">
        <ele>129.91438293457</ele>
        <time>2014-03-29T19:09:06Z</time>
      </trkpt>
      <trkpt lat="49.55368" lon="0.62598">
        <ele>129.9040222168</ele>
        <time>2014-03-29T19:09:07Z</time>
      </trkpt>
      <trkpt lat="49.55377" lon="0.62601">
        <ele>129.35864257812</ele>
        <time>2014-03-29T19:09:14Z</time>
      </trkpt>
      <trkpt lat="49.55378" lon="0.62601">
        <ele>129.30345153809</ele>
        <time>2014-03-29T19:09:19Z</time>
      </trkpt>
      <trkpt lat="49.55381" lon="0.62601">
        <ele>129.13806152344</ele>
        <time>2014-03-29T19:09:23Z</time>
      </trkpt>
      <trkpt lat="49.55386" lon="0.62602">
        <ele>128.79266357422</ele>
        <time>2014-03-29T19:09:28Z</time>
      </trkpt>
      <trkpt lat="49.55396" lon="0.62604">
        <ele>128.17413330078</ele>
        <time>2014-03-29T19:09:36Z</time>
      </trkpt>
      <trkpt lat="49.55409" lon="0.62607">
        <ele>127.3381652832</ele>
        <time>2014-03-29T19:09:46Z</time>
      </trkpt>
      <trkpt lat="49.5542" lon="0.62612">
        <ele>126.42595672607</ele>
        <time>2014-03-29T19:09:55Z</time>
      </trkpt>
      <trkpt lat="49.5543" lon="0.62618">
        <ele>125.52690887451</ele>
        <time>2014-03-29T19:10:04Z</time>
      </trkpt>
      <trkpt lat="49.55436" lon="0.62625">
        <ele>124.74636077881</ele>
        <time>2014-03-29T19:10:09Z</time>
      </trkpt>
      <trkpt lat="49.55444" lon="0.62637">
        <ele>123.47541046143</ele>
        <time>2014-03-29T19:10:15Z</time>
      </trkpt>
      <trkpt lat="49.55451" lon="0.62652">
        <ele>122.05158233643</ele>
        <time>2014-03-29T19:10:20Z</time>
      </trkpt>
      <trkpt lat="49.55457" lon="0.62656">
        <ele>121.299659729</ele>
        <time>2014-03-29T19:10:26Z</time>
      </trkpt>
      <trkpt lat="49.55458" lon="0.62659">
        <ele>121.06391143799</ele>
        <time>2014-03-29T19:10:31Z</time>
      </trkpt>
      <trkpt lat="49.55464" lon="0.62661">
        <ele>120.41886901856</ele>
        <time>2014-03-29T19:10:35Z</time>
      </trkpt>
      <trkpt lat="49.55467" lon="0.6266">
        <ele>120.24231719971</ele>
        <time>2014-03-29T19:10:38Z</time>
      </trkpt>
      <trkpt lat="49.55468" lon="0.62657">
        <ele>120.34752655029</ele>
        <time>2014-03-29T19:10:40Z</time>
      </trkpt>
      <trkpt lat="49.55476" lon="0.62641">
        <ele>120.9209060669</ele>
        <time>2014-03-29T19:10:49Z</time>
      </trkpt>
      <trkpt lat="49.55485" lon="0.62624">
        <ele>121.58557128906</ele>
        <time>2014-03-29T19:10:59Z</time>
      </trkpt>
      <trkpt lat="49.55492" lon="0.62612">
        <ele>122.06163024902</ele>
        <time>2014-03-29T19:11:06Z</time>
      </trkpt>
      <trkpt lat="49.55498" lon="0.62602">
        <ele>122.54463195801</ele>
        <time>2014-03-29T19:11:12Z</time>
      </trkpt>
      <trkpt lat="49.55504" lon="0.62589">
        <ele>123.50946807861</ele>
        <time>2014-03-29T19:11:20Z</time>
      </trkpt>
      <trkpt lat="49.55511" lon="0.62578">
        <ele>124.24290466309</ele>
        <time>2014-03-29T19:11:27Z</time>
      </trkpt>
      <trkpt lat="49.55514" lon="0.62572">
        <ele>124.56706237793</ele>
        <time>2014-03-29T19:11:31Z</time>
      </trkpt>
      <trkpt lat="49.55519" lon="0.62563">
        <ele>124.99563598633</ele>
        <time>2014-03-29T19:11:36Z</time>
      </trkpt>
      <trkpt lat="49.55526" lon="0.62548">
        <ele>125.71719360352</ele>
        <time>2014-03-29T19:11:44Z</time>
      </trkpt>
      <trkpt lat="49.55527" lon="0.62529">
        <ele>126.63043212891</ele>
        <time>2014-03-29T19:11:52Z</time>
      </trkpt>
      <trkpt lat="49.55522" lon="0.62511">
        <ele>127.49588775635</ele>
        <time>2014-03-29T19:12:00Z</time>
      </trkpt>
      <trkpt lat="49.55516" lon="0.62494">
        <ele>128.52671813965</ele>
        <time>2014-03-29T19:12:08Z</time>
      </trkpt>
      <trkpt lat="49.55508" lon="0.62473">
        <ele>130.228515625</ele>
        <time>2014-03-29T19:12:19Z</time>
      </trkpt>
      <trkpt lat="49.55507" lon="0.62472">
        <ele>130.3857421875</ele>
        <time>2014-03-29T19:12:20Z</time>
      </trkpt>
      <trkpt lat="49.55505" lon="0.62457">
        <ele>131.57334899902</ele>
        <time>2014-03-29T19:12:27Z</time>
      </trkpt>
      <trkpt lat="49.55503" lon="0.62446">
        <ele>132.56118774414</ele>
        <time>2014-03-29T19:12:32Z</time>
      </trkpt>
      <trkpt lat="49.55501" lon="0.62427">
        <ele>134.13031005859</ele>
        <time>2014-03-29T19:12:40Z</time>
      </trkpt>
      <trkpt lat="49.555" lon="0.62417">
        <ele>134.97895812988</ele>
        <time>2014-03-29T19:12:45Z</time>
      </trkpt>
      <trkpt lat="49.55499" lon="0.62402">
        <ele>135.16429138184</ele>
        <time>2014-03-29T19:12:51Z</time>
      </trkpt>
      <trkpt lat="49.55496" lon="0.62382">
        <ele>135.39213562012</ele>
        <time>2014-03-29T19:12:59Z</time>
      </trkpt>
      <trkpt lat="49.55495" lon="0.62368">
        <ele>135.56372070312</ele>
        <time>2014-03-29T19:13:05Z</time>
      </trkpt>
      <trkpt lat="49.55497" lon="0.62354">
        <ele>135.73832702637</ele>
        <time>2014-03-29T19:13:11Z</time>
      </trkpt>
      <trkpt lat="49.55502" lon="0.62341">
        <ele>135.9621887207</ele>
        <time>2014-03-29T19:13:18Z</time>
      </trkpt>
      <trkpt lat="49.55513" lon="0.62326">
        <ele>136.44779968262</ele>
        <time>2014-03-29T19:13:27Z</time>
      </trkpt>
      <trkpt lat="49.55518" lon="0.62316">
        <ele>136.71165466309</ele>
        <time>2014-03-29T19:13:33Z</time>
      </trkpt>
      <trkpt lat="49.55524" lon="0.62311">
        <ele>136.88137817383</ele>
        <time>2014-03-29T19:13:38Z</time>
      </trkpt>
      <trkpt lat="49.55531" lon="0.62302">
        <ele>137.07977294922</ele>
        <time>2014-03-29T19:13:45Z</time>
      </trkpt>
      <trkpt lat="49.55538" lon="0.62294">
        <ele>137.21444702148</ele>
        <time>2014-03-29T19:13:51Z</time>
      </trkpt>
      <trkpt lat="49.55547" lon="0.62284">
        <ele>137.31176757812</ele>
        <time>2014-03-29T19:13:58Z</time>
      </trkpt>
      <trkpt lat="49.55553" lon="0.62276">
        <ele>137.33573913574</ele>
        <time>2014-03-29T19:14:03Z</time>
      </trkpt>
      <trkpt lat="49.5556" lon="0.62265">
        <ele>137.3108215332</ele>
        <time>2014-03-29T19:14:09Z</time>
      </trkpt>
      <trkpt lat="49.55566" lon="0.62254">
        <ele>137.22178649902</ele>
        <time>2014-03-29T19:14:15Z</time>
      </trkpt>
      <trkpt lat="49.55576" lon="0.6224">
        <ele>137.20991516113</ele>
        <time>2014-03-29T19:14:23Z</time>
      </trkpt>
      <trkpt lat="49.55578" lon="0.62235">
        <ele>137.24203491211</ele>
        <time>2014-03-29T19:14:26Z</time>
      </trkpt>
      <trkpt lat="49.55586" lon="0.62218">
        <ele>137.18008422852</ele>
        <time>2014-03-29T19:14:35Z</time>
      </trkpt>
      <trkpt lat="49.55592" lon="0.62203">
        <ele>136.92390441894</ele>
        <time>2014-03-29T19:14:42Z</time>
      </trkpt>
      <trkpt lat="49.55596" lon="0.6219">
        <ele>136.77792358398</ele>
        <time>2014-03-29T19:14:48Z</time>
      </trkpt>
      <trkpt lat="49.55598" lon="0.62182">
        <ele>136.69284057617</ele>
        <time>2014-03-29T19:14:52Z</time>
      </trkpt>
      <trkpt lat="49.55601" lon="0.62172">
        <ele>136.64619445801</ele>
        <time>2014-03-29T19:14:57Z</time>
      </trkpt>
      <trkpt lat="49.55605" lon="0.62156">
        <ele>136.5735168457</ele>
        <time>2014-03-29T19:15:04Z</time>
      </trkpt>
      <trkpt lat="49.55608" lon="0.62145">
        <ele>136.47755432129</ele>
        <time>2014-03-29T19:15:09Z</time>
      </trkpt>
      <trkpt lat="49.55608" lon="0.62144">
        <ele>136.46949768066</ele>
        <time>2014-03-29T19:15:10Z</time>
      </trkpt>
      <trkpt lat="49.55612" lon="0.62131">
        <ele>136.39100646973</ele>
        <time>2014-03-29T19:15:16Z</time>
      </trkpt>
      <trkpt lat="49.55613" lon="0.62126">
        <ele>136.41217041016</ele>
        <time>2014-03-29T19:15:18Z</time>
      </trkpt>
      <trkpt lat="49.55618" lon="0.62106">
        <ele>136.43611145019</ele>
        <time>2014-03-29T19:15:27Z</time>
      </trkpt>
      <trkpt lat="49.55621" lon="0.62083">
        <ele>136.66134643555</ele>
        <time>2014-03-29T19:15:37Z</time>
      </trkpt>
      <trkpt lat="49.55622" lon="0.62064">
        <ele>136.69825744629</ele>
        <time>2014-03-29T19:15:45Z</time>
      </trkpt>
      <trkpt lat="49.55626" lon="0.62047">
        <ele>136.69200134277</ele>
        <time>2014-03-29T19:15:53Z</time>
      </trkpt>
      <trkpt lat="49.55628" lon="0.62035">
        <ele>136.69805908203</ele>
        <time>2014-03-29T19:15:58Z</time>
      </trkpt>
      <trkpt lat="49.5563" lon="0.62028">
        <ele>136.67767333984</ele>
        <time>2014-03-29T19:16:02Z</time>
      </trkpt>
      <trkpt lat="49.55634" lon="0.62011">
        <ele>136.70503234863</ele>
        <time>2014-03-29T19:16:10Z</time>
      </trkpt>
      <trkpt lat="49.55638" lon="0.61984">
        <ele>136.74504089356</ele>
        <time>2014-03-29T19:16:22Z</time>
      </trkpt>
      <trkpt lat="49.55641" lon="0.61973">
        <ele>136.7448425293</ele>
        <time>2014-03-29T19:16:28Z</time>
      </trkpt>
      <trkpt lat="49.55645" lon="0.61955">
        <ele>136.77938842773</ele>
        <time>2014-03-29T19:16:36Z</time>
      </trkpt>
      <trkpt lat="49.55649" lon="0.61937">
        <ele>136.85816955566</ele>
        <time>2014-03-29T19:16:44Z</time>
      </trkpt>
      <trkpt lat="49.55654" lon="0.61922">
        <ele>136.95381164551</ele>
        <time>2014-03-29T19:16:51Z</time>
      </trkpt>
      <trkpt lat="49.55659" lon="0.61907">
        <ele>136.89796447754</ele>
        <time>2014-03-29T19:16:58Z</time>
      </trkpt>
      <trkpt lat="49.55664" lon="0.61891">
        <ele>136.7003326416</ele>
        <time>2014-03-29T19:17:06Z</time>
      </trkpt>
      <trkpt lat="49.55668" lon="0.61877">
        <ele>136.42640686035</ele>
        <time>2014-03-29T19:17:13Z</time>
      </trkpt>
      <trkpt lat="49.55671" lon="0.61869">
        <ele>136.15031433106</ele>
        <time>2014-03-29T19:17:17Z</time>
      </trkpt>
      <trkpt lat="49.55679" lon="0.61868">
        <ele>135.70715332031</ele>
        <time>2014-03-29T19:17:22Z</time>
      </trkpt>
      <trkpt lat="49.55688" lon="0.61874">
        <ele>135.20468139648</ele>
        <time>2014-03-29T19:17:30Z</time>
      </trkpt>
      <trkpt lat="49.55688" lon="0.61874">
        <ele>135.18171691894</ele>
        <time>2014-03-29T19:17:32Z</time>
      </trkpt>
      <trkpt lat="49.55678" lon="0.61864">
        <ele>135.70121765137</ele>
        <time>2014-03-29T19:17:41Z</time>
      </trkpt>
      <trkpt lat="49.55674" lon="0.61852">
        <ele>135.78596496582</ele>
        <time>2014-03-29T19:17:47Z</time>
      </trkpt>
      <trkpt lat="49.55676" lon="0.61845">
        <ele>135.59077453613</ele>
        <time>2014-03-29T19:17:50Z</time>
      </trkpt>
      <trkpt lat="49.55683" lon="0.61824">
        <ele>135.23240661621</ele>
        <time>2014-03-29T19:18:01Z</time>
      </trkpt>
      <trkpt lat="49.55687" lon="0.61812">
        <ele>135.26058959961</ele>
        <time>2014-03-29T19:18:07Z</time>
      </trkpt>
      <trkpt lat="49.55693" lon="0.618">
        <ele>135.24057006836</ele>
        <time>2014-03-29T19:18:11Z</time>
      </trkpt>
      <trkpt lat="49.55694" lon="0.61796">
        <ele>135.23226928711</ele>
        <time>2014-03-29T19:18:13Z</time>
      </trkpt>
      <trkpt lat="49.55698" lon="0.61784">
        <ele>135.27261352539</ele>
        <time>2014-03-29T19:18:20Z</time>
      </trkpt>
      <trkpt lat="49.55704" lon="0.61769">
        <ele>135.27288818359</ele>
        <time>2014-03-29T19:18:27Z</time>
      </trkpt>
      <trkpt lat="49.55711" lon="0.61754">
        <ele>135.27490234375</ele>
        <time>2014-03-29T19:18:32Z</time>
      </trkpt>
      <trkpt lat="49.55719" lon="0.61735">
        <ele>135.28134155273</ele>
        <time>2014-03-29T19:18:38Z</time>
      </trkpt>
      <trkpt lat="49.55728" lon="0.61716">
        <ele>135.49772644043</ele>
        <time>2014-03-29T19:18:44Z</time>
      </trkpt>
      <trkpt lat="49.55737" lon="0.61698">
        <ele>135.88104248047</ele>
        <time>2014-03-29T19:18:50Z</time>
      </trkpt>
      <trkpt lat="49.55738" lon="0.61696">
        <ele>135.94371032715</ele>
        <time>2014-03-29T19:18:51Z</time>
      </trkpt>
      <trkpt lat="49.55747" lon="0.61696">
        <ele>135.67726135254</ele>
        <time>2014-03-29T19:18:56Z</time>
      </trkpt>
      <trkpt lat="49.55761" lon="0.61708">
        <ele>134.70413208008</ele>
        <time>2014-03-29T19:19:02Z</time>
      </trkpt>
      <trkpt lat="49.55773" lon="0.6172">
        <ele>133.71789550781</ele>
        <time>2014-03-29T19:19:08Z</time>
      </trkpt>
      <trkpt lat="49.55781" lon="0.61726">
        <ele>133.15562438965</ele>
        <time>2014-03-29T19:19:12Z</time>
      </trkpt>
      <trkpt lat="49.5579" lon="0.61735">
        <ele>132.38429260254</ele>
        <time>2014-03-29T19:19:21Z</time>
      </trkpt>
      <trkpt lat="49.55792" lon="0.61739">
        <ele>132.07452392578</ele>
        <time>2014-03-29T19:19:24Z</time>
      </trkpt>
      <trkpt lat="49.55793" lon="0.61742">
        <ele>131.88899230957</ele>
        <time>2014-03-29T19:19:31Z</time>
      </trkpt>
      <trkpt lat="49.55795" lon="0.61745">
        <ele>131.66105651856</ele>
        <time>2014-03-29T19:19:34Z</time>
      </trkpt>
      <trkpt lat="49.55799" lon="0.61758">
        <ele>130.90580749512</ele>
        <time>2014-03-29T19:19:39Z</time>
      </trkpt>
      <trkpt lat="49.55808" lon="0.61775">
        <ele>129.6554107666</ele>
        <time>2014-03-29T19:19:45Z</time>
      </trkpt>
      <trkpt lat="49.5581" lon="0.61778">
        <ele>129.42579650879</ele>
        <time>2014-03-29T19:19:46Z</time>
      </trkpt>
      <trkpt lat="49.5582" lon="0.61794">
        <ele>128.05418395996</ele>
        <time>2014-03-29T19:19:51Z</time>
      </trkpt>
      <trkpt lat="49.55833" lon="0.61808">
        <ele>126.53361511231</ele>
        <time>2014-03-29T19:19:56Z</time>
      </trkpt>
      <trkpt lat="49.55842" lon="0.61818">
        <ele>125.25457000732</ele>
        <time>2014-03-29T19:20:00Z</time>
      </trkpt>
      <trkpt lat="49.55853" lon="0.61835">
        <ele>123.51684570312</ele>
        <time>2014-03-29T19:20:06Z</time>
      </trkpt>
      <trkpt lat="49.55859" lon="0.61843">
        <ele>122.82299041748</ele>
        <time>2014-03-29T19:20:10Z</time>
      </trkpt>
      <trkpt lat="49.55862" lon="0.61841">
        <ele>122.702003479</ele>
        <time>2014-03-29T19:20:16Z</time>
      </trkpt>
      <trkpt lat="49.55862" lon="0.61841">
        <ele>122.71969604492</ele>
        <time>2014-03-29T19:20:19Z</time>
      </trkpt>
      <trkpt lat="49.55861" lon="0.6184">
        <ele>122.84177398682</ele>
        <time>2014-03-29T19:20:32Z</time>
      </trkpt>
      <trkpt lat="49.5586" lon="0.61839">
        <ele>122.88384246826</ele>
        <time>2014-03-29T19:20:37Z</time>
      </trkpt>
      <trkpt lat="49.55861" lon="0.6184">
        <ele>122.77228546143</ele>
        <time>2014-03-29T19:20:43Z</time>
      </trkpt>
      <trkpt lat="49.55875" lon="0.61847">
        <ele>121.59980010986</ele>
        <time>2014-03-29T19:20:50Z</time>
      </trkpt>
      <trkpt lat="49.55885" lon="0.61854">
        <ele>120.67858886719</ele>
        <time>2014-03-29T19:20:55Z</time>
      </trkpt>
      <trkpt lat="49.55898" lon="0.61863">
        <ele>119.59613800049</ele>
        <time>2014-03-29T19:21:01Z</time>
      </trkpt>
      <trkpt lat="49.55902" lon="0.61864">
        <ele>119.2703704834</ele>
        <time>2014-03-29T19:21:06Z</time>
      </trkpt>
      <trkpt lat="49.55903" lon="0.61866">
        <ele>119.10869598389</ele>
        <time>2014-03-29T19:21:13Z</time>
      </trkpt>
      <trkpt lat="49.55906" lon="0.61865">
        <ele>118.98913574219</ele>
        <time>2014-03-29T19:21:17Z</time>
      </trkpt>
      <trkpt lat="49.55906" lon="0.61865">
        <ele>118.95671844482</ele>
        <time>2014-03-29T19:21:19Z</time>
      </trkpt>
      <trkpt lat="49.55912" lon="0.61867">
        <ele>118.53675842285</ele>
        <time>2014-03-29T19:21:25Z</time>
      </trkpt>
      <trkpt lat="49.55915" lon="0.61872">
        <ele>118.17637634277</ele>
        <time>2014-03-29T19:21:30Z</time>
      </trkpt>
      <trkpt lat="49.55917" lon="0.61876">
        <ele>117.99719238281</ele>
        <time>2014-03-29T19:21:34Z</time>
      </trkpt>
      <trkpt lat="49.55918" lon="0.6188">
        <ele>117.93598937988</ele>
        <time>2014-03-29T19:21:39Z</time>
      </trkpt>
      <trkpt lat="49.55922" lon="0.61885">
        <ele>118.09324645996</ele>
        <time>2014-03-29T19:21:43Z</time>
      </trkpt>
      <trkpt lat="49.55924" lon="0.61889">
        <ele>118.20551300049</ele>
        <time>2014-03-29T19:21:46Z</time>
      </trkpt>
      <trkpt lat="49.55925" lon="0.61891">
        <ele>118.27169799805</ele>
        <time>2014-03-29T19:21:49Z</time>
      </trkpt>
      <trkpt lat="49.55926" lon="0.61891">
        <ele>118.33319854736</ele>
        <time>2014-03-29T19:21:50Z</time>
      </trkpt>
      <trkpt lat="49.55935" lon="0.61888">
        <ele>119.02108764648</ele>
        <time>2014-03-29T19:21:56Z</time>
      </trkpt>
      <trkpt lat="49.55941" lon="0.61882">
        <ele>119.42251586914</ele>
        <time>2014-03-29T19:22:01Z</time>
      </trkpt>
      <trkpt lat="49.55944" lon="0.61878">
        <ele>119.53555297852</ele>
        <time>2014-03-29T19:22:04Z</time>
      </trkpt>
      <trkpt lat="49.5595" lon="0.6187">
        <ele>119.67718505859</ele>
        <time>2014-03-29T19:22:11Z</time>
      </trkpt>
      <trkpt lat="49.55955" lon="0.61861">
        <ele>119.55467224121</ele>
        <time>2014-03-29T19:22:17Z</time>
      </trkpt>
      <trkpt lat="49.55956" lon="0.61859">
        <ele>119.53358459473</ele>
        <time>2014-03-29T19:22:18Z</time>
      </trkpt>
      <trkpt lat="49.55959" lon="0.61857">
        <ele>119.50134277344</ele>
        <time>2014-03-29T19:22:20Z</time>
      </trkpt>
      <trkpt lat="49.55963" lon="0.61852">
        <ele>119.34510803223</ele>
        <time>2014-03-29T19:22:24Z</time>
      </trkpt>
      <trkpt lat="49.55968" lon="0.61843">
        <ele>118.9256439209</ele>
        <time>2014-03-29T19:22:29Z</time>
      </trkpt>
      <trkpt lat="49.55971" lon="0.61833">
        <ele>118.34867095947</ele>
        <time>2014-03-29T19:22:32Z</time>
      </trkpt>
      <trkpt lat="49.55974" lon="0.61828">
        <ele>118.32415008545</ele>
        <time>2014-03-29T19:22:34Z</time>
      </trkpt>
      <trkpt lat="49.55981" lon="0.61818">
        <ele>118.2180557251</ele>
        <time>2014-03-29T19:22:39Z</time>
      </trkpt>
      <trkpt lat="49.55986" lon="0.61811">
        <ele>118.08094024658</ele>
        <time>2014-03-29T19:22:43Z</time>
      </trkpt>
      <trkpt lat="49.55993" lon="0.61799">
        <ele>117.80547332764</ele>
        <time>2014-03-29T19:22:48Z</time>
      </trkpt>
      <trkpt lat="49.55997" lon="0.61794">
        <ele>117.63735198975</ele>
        <time>2014-03-29T19:22:51Z</time>
      </trkpt>
      <trkpt lat="49.56002" lon="0.6179">
        <ele>117.6837310791</ele>
        <time>2014-03-29T19:22:55Z</time>
      </trkpt>
      <trkpt lat="49.56009" lon="0.61784">
        <ele>118.48137664795</ele>
        <time>2014-03-29T19:23:00Z</time>
      </trkpt>
      <trkpt lat="49.56018" lon="0.61777">
        <ele>119.35438537598</ele>
        <time>2014-03-29T19:23:05Z</time>
      </trkpt>
      <trkpt lat="49.56024" lon="0.61765">
        <ele>119.72503662109</ele>
        <time>2014-03-29T19:23:10Z</time>
      </trkpt>
      <trkpt lat="49.56029" lon="0.61755">
        <ele>119.97604370117</ele>
        <time>2014-03-29T19:23:14Z</time>
      </trkpt>
      <trkpt lat="49.56033" lon="0.61747">
        <ele>120.07369995117</ele>
        <time>2014-03-29T19:23:17Z</time>
      </trkpt>
      <trkpt lat="49.56046" lon="0.61726">
        <ele>120.56125640869</ele>
        <time>2014-03-29T19:23:24Z</time>
      </trkpt>
      <trkpt lat="49.56051" lon="0.6172">
        <ele>120.64266967773</ele>
        <time>2014-03-29T19:23:27Z</time>
      </trkpt>
      <trkpt lat="49.56057" lon="0.61708">
        <ele>120.41431427002</ele>
        <time>2014-03-29T19:23:32Z</time>
      </trkpt>
      <trkpt lat="49.56063" lon="0.61698">
        <ele>120.01821899414</ele>
        <time>2014-03-29T19:23:37Z</time>
      </trkpt>
      <trkpt lat="49.56069" lon="0.61685">
        <ele>119.35767364502</ele>
        <time>2014-03-29T19:23:42Z</time>
      </trkpt>
      <trkpt lat="49.56074" lon="0.61674">
        <ele>118.65431976318</ele>
        <time>2014-03-29T19:23:47Z</time>
      </trkpt>
      <trkpt lat="49.56079" lon="0.61662">
        <ele>117.65682983398</ele>
        <time>2014-03-29T19:23:54Z</time>
      </trkpt>
      <trkpt lat="49.56079" lon="0.61661">
        <ele>117.58478546143</ele>
        <time>2014-03-29T19:23:55Z</time>
      </trkpt>
      <trkpt lat="49.56087" lon="0.61647">
        <ele>116.93724822998</ele>
        <time>2014-03-29T19:24:02Z</time>
      </trkpt>
      <trkpt lat="49.56092" lon="0.61638">
        <ele>117.01485443115</ele>
        <time>2014-03-29T19:24:06Z</time>
      </trkpt>
      <trkpt lat="49.56096" lon="0.6163">
        <ele>116.92274475098</ele>
        <time>2014-03-29T19:24:11Z</time>
      </trkpt>
      <trkpt lat="49.56099" lon="0.61626">
        <ele>117.03870391846</ele>
        <time>2014-03-29T19:24:14Z</time>
      </trkpt>
      <trkpt lat="49.56104" lon="0.61618">
        <ele>117.05463409424</ele>
        <time>2014-03-29T19:24:19Z</time>
      </trkpt>
      <trkpt lat="49.56107" lon="0.61615">
        <ele>117.13149261475</ele>
        <time>2014-03-29T19:24:29Z</time>
      </trkpt>
      <trkpt lat="49.56108" lon="0.61613">
        <ele>117.04814910889</ele>
        <time>2014-03-29T19:24:31Z</time>
      </trkpt>
      <trkpt lat="49.56113" lon="0.61606">
        <ele>117.09591674805</ele>
        <time>2014-03-29T19:24:36Z</time>
      </trkpt>
      <trkpt lat="49.56116" lon="0.61605">
        <ele>117.41088104248</ele>
        <time>2014-03-29T19:24:40Z</time>
      </trkpt>
      <trkpt lat="49.5612" lon="0.61602">
        <ele>117.55547332764</ele>
        <time>2014-03-29T19:24:50Z</time>
      </trkpt>
      <trkpt lat="49.56124" lon="0.61597">
        <ele>117.52286529541</ele>
        <time>2014-03-29T19:25:15Z</time>
      </trkpt>
      <trkpt lat="49.56124" lon="0.61598">
        <ele>117.65785217285</ele>
        <time>2014-03-29T19:25:18Z</time>
      </trkpt>
      <trkpt lat="49.56125" lon="0.61598">
        <ele>117.71771240234</ele>
        <time>2014-03-29T19:25:22Z</time>
      </trkpt>
      <trkpt lat="49.56124" lon="0.61596">
        <ele>117.37570953369</ele>
        <time>2014-03-29T19:25:57Z</time>
      </trkpt>
      <trkpt lat="49.56126" lon="0.61598">
        <ele>117.7850189209</ele>
        <time>2014-03-29T19:26:17Z</time>
      </trkpt>
      <trkpt lat="49.56127" lon="0.61597">
        <ele>117.82913970947</ele>
        <time>2014-03-29T19:26:35Z</time>
      </trkpt>
      <trkpt lat="49.56132" lon="0.61596">
        <ele>118.41024780273</ele>
        <time>2014-03-29T19:26:39Z</time>
      </trkpt>
      <trkpt lat="49.56141" lon="0.61594">
        <ele>119.37705230713</ele>
        <time>2014-03-29T19:26:43Z</time>
      </trkpt>
      <trkpt lat="49.56143" lon="0.61594">
        <ele>119.58136749268</ele>
        <time>2014-03-29T19:26:44Z</time>
      </trkpt>
      <trkpt lat="49.56158" lon="0.61589">
        <ele>120.72100067139</ele>
        <time>2014-03-29T19:26:50Z</time>
      </trkpt>
      <trkpt lat="49.56169" lon="0.61583">
        <ele>121.15823364258</ele>
        <time>2014-03-29T19:26:54Z</time>
      </trkpt>
      <trkpt lat="49.5618" lon="0.61576">
        <ele>121.55563354492</ele>
        <time>2014-03-29T19:26:58Z</time>
      </trkpt>
      <trkpt lat="49.56186" lon="0.61573">
        <ele>121.81047058106</ele>
        <time>2014-03-29T19:27:00Z</time>
      </trkpt>
      <trkpt lat="49.562" lon="0.61563">
        <ele>122.12682342529</ele>
        <time>2014-03-29T19:27:05Z</time>
      </trkpt>
      <trkpt lat="49.56203" lon="0.61561">
        <ele>122.1916809082</ele>
        <time>2014-03-29T19:27:06Z</time>
      </trkpt>
      <trkpt lat="49.56216" lon="0.61557">
        <ele>122.69680786133</ele>
        <time>2014-03-29T19:27:10Z</time>
      </trkpt>
      <trkpt lat="49.56237" lon="0.61551">
        <ele>123.51159667969</ele>
        <time>2014-03-29T19:27:17Z</time>
      </trkpt>
      <trkpt lat="49.56249" lon="0.61547">
        <ele>123.86359405518</ele>
        <time>2014-03-29T19:27:21Z</time>
      </trkpt>
      <trkpt lat="49.56257" lon="0.61544">
        <ele>124.36335754394</ele>
        <time>2014-03-29T19:27:24Z</time>
      </trkpt>
      <trkpt lat="49.56268" lon="0.61533">
        <ele>124.49360656738</ele>
        <time>2014-03-29T19:27:29Z</time>
      </trkpt>
      <trkpt lat="49.56272" lon="0.6153">
        <ele>124.56684875488</ele>
        <time>2014-03-29T19:27:31Z</time>
      </trkpt>
      <trkpt lat="49.56282" lon="0.61514">
        <ele>124.18267822266</ele>
        <time>2014-03-29T19:27:37Z</time>
      </trkpt>
      <trkpt lat="49.56284" lon="0.61509">
        <ele>124.02439880371</ele>
        <time>2014-03-29T19:27:39Z</time>
      </trkpt>
      <trkpt lat="49.56286" lon="0.61506">
        <ele>123.9857711792</ele>
        <time>2014-03-29T19:27:41Z</time>
      </trkpt>
      <trkpt lat="49.56292" lon="0.61494">
        <ele>124.1658782959</ele>
        <time>2014-03-29T19:27:46Z</time>
      </trkpt>
      <trkpt lat="49.56297" lon="0.61488">
        <ele>124.6312789917</ele>
        <time>2014-03-29T19:27:50Z</time>
      </trkpt>
      <trkpt lat="49.56302" lon="0.6148">
        <ele>125.13339233398</ele>
        <time>2014-03-29T19:27:54Z</time>
      </trkpt>
      <trkpt lat="49.56305" lon="0.61476">
        <ele>125.35655212402</ele>
        <time>2014-03-29T19:27:56Z</time>
      </trkpt>
      <trkpt lat="49.56311" lon="0.61465">
        <ele>125.80623626709</ele>
        <time>2014-03-29T19:28:01Z</time>
      </trkpt>
      <trkpt lat="49.56312" lon="0.61463">
        <ele>125.86986541748</ele>
        <time>2014-03-29T19:28:02Z</time>
      </trkpt>
      <trkpt lat="49.56319" lon="0.61451">
        <ele>126.14344787598</ele>
        <time>2014-03-29T19:28:07Z</time>
      </trkpt>
      <trkpt lat="49.56323" lon="0.61444">
        <ele>126.2596282959</ele>
        <time>2014-03-29T19:28:10Z</time>
      </trkpt>
      <trkpt lat="49.5633" lon="0.61435">
        <ele>126.35942840576</ele>
        <time>2014-03-29T19:28:15Z</time>
      </trkpt>
      <trkpt lat="49.56335" lon="0.61428">
        <ele>126.51049041748</ele>
        <time>2014-03-29T19:28:18Z</time>
      </trkpt>
      <trkpt lat="49.56343" lon="0.61411">
        <ele>127.10799407959</ele>
        <time>2014-03-29T19:28:23Z</time>
      </trkpt>
      <trkpt lat="49.56349" lon="0.61399">
        <ele>127.32481384277</ele>
        <time>2014-03-29T19:28:27Z</time>
      </trkpt>
      <trkpt lat="49.56352" lon="0.61393">
        <ele>127.44026947022</ele>
        <time>2014-03-29T19:28:29Z</time>
      </trkpt>
      <trkpt lat="49.56355" lon="0.61387">
        <ele>127.43226623535</ele>
        <time>2014-03-29T19:28:31Z</time>
      </trkpt>
      <trkpt lat="49.56362" lon="0.61372">
        <ele>127.39288330078</ele>
        <time>2014-03-29T19:28:36Z</time>
      </trkpt>
      <trkpt lat="49.56364" lon="0.61366">
        <ele>127.3247756958</ele>
        <time>2014-03-29T19:28:38Z</time>
      </trkpt>
      <trkpt lat="49.56373" lon="0.61355">
        <ele>127.25894165039</ele>
        <time>2014-03-29T19:28:43Z</time>
      </trkpt>
      <trkpt lat="49.5638" lon="0.61346">
        <ele>127.15519714356</ele>
        <time>2014-03-29T19:28:47Z</time>
      </trkpt>
      <trkpt lat="49.56384" lon="0.61339">
        <ele>126.87162017822</ele>
        <time>2014-03-29T19:28:50Z</time>
      </trkpt>
      <trkpt lat="49.5639" lon="0.6133">
        <ele>126.51232910156</ele>
        <time>2014-03-29T19:28:54Z</time>
      </trkpt>
      <trkpt lat="49.56402" lon="0.6132">
        <ele>126.30899047852</ele>
        <time>2014-03-29T19:29:01Z</time>
      </trkpt>
      <trkpt lat="49.56407" lon="0.61316">
        <ele>126.11868286133</ele>
        <time>2014-03-29T19:29:04Z</time>
      </trkpt>
      <trkpt lat="49.56418" lon="0.61305">
        <ele>125.44926452637</ele>
        <time>2014-03-29T19:29:10Z</time>
      </trkpt>
      <trkpt lat="49.56426" lon="0.61299">
        <ele>125.67869567871</ele>
        <time>2014-03-29T19:29:14Z</time>
      </trkpt>
      <trkpt lat="49.56429" lon="0.61293">
        <ele>125.40539550781</ele>
        <time>2014-03-29T19:29:17Z</time>
      </trkpt>
      <trkpt lat="49.56437" lon="0.61286">
        <ele>125.47173309326</ele>
        <time>2014-03-29T19:29:22Z</time>
      </trkpt>
      <trkpt lat="49.56443" lon="0.61281">
        <ele>125.63285064697</ele>
        <time>2014-03-29T19:29:26Z</time>
      </trkpt>
      <trkpt lat="49.56452" lon="0.61275">
        <ele>125.77141571045</ele>
        <time>2014-03-29T19:29:30Z</time>
      </trkpt>
      <trkpt lat="49.56457" lon="0.61273">
        <ele>125.92150115967</ele>
        <time>2014-03-29T19:29:33Z</time>
      </trkpt>
      <trkpt lat="49.56465" lon="0.61267">
        <ele>126.08849334717</ele>
        <time>2014-03-29T19:29:37Z</time>
      </trkpt>
      <trkpt lat="49.56473" lon="0.61266">
        <ele>126.58766174316</ele>
        <time>2014-03-29T19:29:41Z</time>
      </trkpt>
      <trkpt lat="49.56484" lon="0.61264">
        <ele>127.41188049316</ele>
        <time>2014-03-29T19:29:46Z</time>
      </trkpt>
      <trkpt lat="49.56496" lon="0.61261">
        <ele>128.10879516602</ele>
        <time>2014-03-29T19:29:51Z</time>
      </trkpt>
      <trkpt lat="49.56505" lon="0.61259">
        <ele>128.50144958496</ele>
        <time>2014-03-29T19:29:55Z</time>
      </trkpt>
      <trkpt lat="49.56514" lon="0.61255">
        <ele>128.77696228027</ele>
        <time>2014-03-29T19:29:59Z</time>
      </trkpt>
      <trkpt lat="49.56516" lon="0.61254">
        <ele>128.88986206055</ele>
        <time>2014-03-29T19:30:00Z</time>
      </trkpt>
      <trkpt lat="49.56525" lon="0.61251">
        <ele>129.30221557617</ele>
        <time>2014-03-29T19:30:04Z</time>
      </trkpt>
      <trkpt lat="49.56528" lon="0.61251">
        <ele>129.42576599121</ele>
        <time>2014-03-29T19:30:05Z</time>
      </trkpt>
      <trkpt lat="49.56538" lon="0.61245">
        <ele>130.39064025879</ele>
        <time>2014-03-29T19:30:09Z</time>
      </trkpt>
      <trkpt lat="49.56551" lon="0.61241">
        <ele>131.50144958496</ele>
        <time>2014-03-29T19:30:14Z</time>
      </trkpt>
      <trkpt lat="49.56561" lon="0.61237">
        <ele>132.48252868652</ele>
        <time>2014-03-29T19:30:18Z</time>
      </trkpt>
      <trkpt lat="49.56565" lon="0.61223">
        <ele>133.16165161133</ele>
        <time>2014-03-29T19:30:23Z</time>
      </trkpt>
      <trkpt lat="49.56562" lon="0.61214">
        <ele>133.20922851562</ele>
        <time>2014-03-29T19:30:26Z</time>
      </trkpt>
      <trkpt lat="49.56558" lon="0.6119">
        <ele>133.54908752441</ele>
        <time>2014-03-29T19:30:34Z</time>
      </trkpt>
      <trkpt lat="49.56557" lon="0.61173">
        <ele>133.93576049805</ele>
        <time>2014-03-29T19:30:40Z</time>
      </trkpt>
      <trkpt lat="49.56556" lon="0.61156">
        <ele>134.60815429688</ele>
        <time>2014-03-29T19:30:46Z</time>
      </trkpt>
      <trkpt lat="49.56557" lon="0.61143">
        <ele>135.39512634277</ele>
        <time>2014-03-29T19:30:51Z</time>
      </trkpt>
      <trkpt lat="49.56557" lon="0.61135">
        <ele>135.83776855469</ele>
        <time>2014-03-29T19:30:54Z</time>
      </trkpt>
      <trkpt lat="49.56556" lon="0.61122">
        <ele>136.52093505859</ele>
        <time>2014-03-29T19:30:58Z</time>
      </trkpt>
      <trkpt lat="49.56555" lon="0.61109">
        <ele>137.17037963867</ele>
        <time>2014-03-29T19:31:02Z</time>
      </trkpt>
      <trkpt lat="49.56555" lon="0.61099">
        <ele>137.76644897461</ele>
        <time>2014-03-29T19:31:05Z</time>
      </trkpt>
      <trkpt lat="49.56555" lon="0.61085">
        <ele>138.57244873047</ele>
        <time>2014-03-29T19:31:09Z</time>
      </trkpt>
      <trkpt lat="49.56555" lon="0.61067">
        <ele>138.84432983398</ele>
        <time>2014-03-29T19:31:14Z</time>
      </trkpt>
      <trkpt lat="49.56554" lon="0.61045">
        <ele>139.03637695312</ele>
        <time>2014-03-29T19:31:21Z</time>
      </trkpt>
      <trkpt lat="49.56552" lon="0.61029">
        <ele>139.15768432617</ele>
        <time>2014-03-29T19:31:26Z</time>
      </trkpt>
      <trkpt lat="49.56551" lon="0.61011">
        <ele>139.29708862305</ele>
        <time>2014-03-29T19:31:32Z</time>
      </trkpt>
      <trkpt lat="49.56549" lon="0.60995">
        <ele>139.46232604981</ele>
        <time>2014-03-29T19:31:38Z</time>
      </trkpt>
      <trkpt lat="49.56548" lon="0.60982">
        <ele>139.71598815918</ele>
        <time>2014-03-29T19:31:45Z</time>
      </trkpt>
      <trkpt lat="49.56548" lon="0.60976">
        <ele>139.8430480957</ele>
        <time>2014-03-29T19:31:48Z</time>
      </trkpt>
      <trkpt lat="49.56548" lon="0.60974">
        <ele>139.88597106934</ele>
        <time>2014-03-29T19:31:51Z</time>
      </trkpt>
      <trkpt lat="49.56548" lon="0.60967">
        <ele>140.04280090332</ele>
        <time>2014-03-29T19:31:58Z</time>
      </trkpt>
      <trkpt lat="49.56547" lon="0.60956">
        <ele>140.2219543457</ele>
        <time>2014-03-29T19:32:04Z</time>
      </trkpt>
      <trkpt lat="49.56546" lon="0.60944">
        <ele>140.39208984375</ele>
        <time>2014-03-29T19:32:12Z</time>
      </trkpt>
      <trkpt lat="49.56546" lon="0.60943">
        <ele>140.45207214356</ele>
        <time>2014-03-29T19:32:17Z</time>
      </trkpt>
      <trkpt lat="49.56547" lon="0.60944">
        <ele>140.50126647949</ele>
        <time>2014-03-29T19:32:18Z</time>
      </trkpt>
      <trkpt lat="49.56553" lon="0.60957">
        <ele>140.65864562988</ele>
        <time>2014-03-29T19:32:24Z</time>
      </trkpt>
      <trkpt lat="49.56554" lon="0.60961">
        <ele>140.63302612305</ele>
        <time>2014-03-29T19:32:26Z</time>
      </trkpt>
      <trkpt lat="49.56557" lon="0.60964">
        <ele>140.74736022949</ele>
        <time>2014-03-29T19:32:32Z</time>
      </trkpt>
      <trkpt lat="49.5656" lon="0.60962">
        <ele>141.08572387695</ele>
        <time>2014-03-29T19:32:44Z</time>
      </trkpt>
      <trkpt lat="49.56562" lon="0.6096">
        <ele>141.28968811035</ele>
        <time>2014-03-29T19:32:48Z</time>
      </trkpt>
      <trkpt lat="49.56564" lon="0.60959">
        <ele>141.42575073242</ele>
        <time>2014-03-29T19:32:52Z</time>
      </trkpt>
      <trkpt lat="49.56561" lon="0.60961">
        <ele>141.15069580078</ele>
        <time>2014-03-29T19:33:01Z</time>
      </trkpt>
      <trkpt lat="49.56559" lon="0.60963">
        <ele>140.92251586914</ele>
        <time>2014-03-29T19:33:06Z</time>
      </trkpt>
      <trkpt lat="49.56559" lon="0.6097">
        <ele>140.77697753906</ele>
        <time>2014-03-29T19:33:12Z</time>
      </trkpt>
      <trkpt lat="49.56562" lon="0.60972">
        <ele>140.90353393555</ele>
        <time>2014-03-29T19:33:16Z</time>
      </trkpt>
      <trkpt lat="49.56564" lon="0.60971">
        <ele>141.07356262207</ele>
        <time>2014-03-29T19:33:18Z</time>
      </trkpt>
      <trkpt lat="49.56564" lon="0.6097">
        <ele>141.05902099609</ele>
        <time>2014-03-29T19:33:26Z</time>
      </trkpt>
      <trkpt lat="49.56561" lon="0.60971">
        <ele>140.83418273926</ele>
        <time>2014-03-29T19:33:33Z</time>
      </trkpt>
      <trkpt lat="49.56561" lon="0.60971">
        <ele>140.81591796875</ele>
        <time>2014-03-29T19:33:40Z</time>
      </trkpt>
      <trkpt lat="49.56559" lon="0.60969">
        <ele>140.76177978516</ele>
        <time>2014-03-29T19:33:46Z</time>
      </trkpt>
      <trkpt lat="49.56553" lon="0.6096">
        <ele>140.59133911133</ele>
        <time>2014-03-29T19:33:51Z</time>
      </trkpt>
      <trkpt lat="49.56551" lon="0.60941">
        <ele>140.8625793457</ele>
        <time>2014-03-29T19:33:56Z</time>
      </trkpt>
      <trkpt lat="49.56548" lon="0.60921">
        <ele>141.07957458496</ele>
        <time>2014-03-29T19:34:01Z</time>
      </trkpt>
      <trkpt lat="49.56547" lon="0.60907">
        <ele>141.23919677734</ele>
        <time>2014-03-29T19:34:05Z</time>
      </trkpt>
      <trkpt lat="49.56544" lon="0.60883">
        <ele>141.38595581055</ele>
        <time>2014-03-29T19:34:11Z</time>
      </trkpt>
      <trkpt lat="49.56542" lon="0.60865">
        <ele>141.4520111084</ele>
        <time>2014-03-29T19:34:16Z</time>
      </trkpt>
      <trkpt lat="49.5654" lon="0.60851">
        <ele>141.42616271973</ele>
        <time>2014-03-29T19:34:20Z</time>
      </trkpt>
      <trkpt lat="49.56536" lon="0.60827">
        <ele>141.07389831543</ele>
        <time>2014-03-29T19:34:27Z</time>
      </trkpt>
      <trkpt lat="49.56533" lon="0.60806">
        <ele>139.97024536133</ele>
        <time>2014-03-29T19:34:33Z</time>
      </trkpt>
      <trkpt lat="49.56531" lon="0.60786">
        <ele>138.96781921387</ele>
        <time>2014-03-29T19:34:39Z</time>
      </trkpt>
      <trkpt lat="49.56533" lon="0.60765">
        <ele>138.40226745606</ele>
        <time>2014-03-29T19:34:45Z</time>
      </trkpt>
      <trkpt lat="49.56541" lon="0.60757">
        <ele>138.71478271484</ele>
        <time>2014-03-29T19:34:50Z</time>
      </trkpt>
      <trkpt lat="49.56548" lon="0.60751">
        <ele>139.07025146484</ele>
        <time>2014-03-29T19:34:55Z</time>
      </trkpt>
      <trkpt lat="49.56557" lon="0.60745">
        <ele>139.61676025391</ele>
        <time>2014-03-29T19:35:03Z</time>
      </trkpt>
      <trkpt lat="49.56565" lon="0.60741">
        <ele>140.19084167481</ele>
        <time>2014-03-29T19:35:09Z</time>
      </trkpt>
      <trkpt lat="49.56568" lon="0.60739">
        <ele>140.38989257812</ele>
        <time>2014-03-29T19:35:11Z</time>
      </trkpt>
      <trkpt lat="49.56573" lon="0.60737">
        <ele>140.67250061035</ele>
        <time>2014-03-29T19:35:16Z</time>
      </trkpt>
      <trkpt lat="49.56581" lon="0.60732">
        <ele>141.13983154297</ele>
        <time>2014-03-29T19:35:21Z</time>
      </trkpt>
      <trkpt lat="49.56592" lon="0.60725">
        <ele>141.82415771484</ele>
        <time>2014-03-29T19:35:29Z</time>
      </trkpt>
      <trkpt lat="49.56605" lon="0.60721">
        <ele>142.68725585938</ele>
        <time>2014-03-29T19:35:38Z</time>
      </trkpt>
      <trkpt lat="49.56614" lon="0.60715">
        <ele>143.19392395019</ele>
        <time>2014-03-29T19:35:45Z</time>
      </trkpt>
      <trkpt lat="49.56624" lon="0.60712">
        <ele>143.82481384277</ele>
        <time>2014-03-29T19:35:52Z</time>
      </trkpt>
      <trkpt lat="49.56634" lon="0.60708">
        <ele>144.4049987793</ele>
        <time>2014-03-29T19:35:59Z</time>
      </trkpt>
      <trkpt lat="49.56641" lon="0.60706">
        <ele>144.91050720215</ele>
        <time>2014-03-29T19:36:06Z</time>
      </trkpt>
      <trkpt lat="49.56644" lon="0.60708">
        <ele>145.21621704102</ele>
        <time>2014-03-29T19:36:11Z</time>
      </trkpt>
      <trkpt lat="49.56645" lon="0.6071">
        <ele>145.3556060791</ele>
        <time>2014-03-29T19:36:14Z</time>
      </trkpt>
      <trkpt lat="49.56646" lon="0.60721">
        <ele>145.9402923584</ele>
        <time>2014-03-29T19:36:20Z</time>
      </trkpt>
      <trkpt lat="49.56646" lon="0.60723">
        <ele>146.09097290039</ele>
        <time>2014-03-29T19:36:21Z</time>
      </trkpt>
      <trkpt lat="49.56654" lon="0.60743">
        <ele>147.64624023438</ele>
        <time>2014-03-29T19:36:28Z</time>
      </trkpt>
      <trkpt lat="49.56658" lon="0.60765">
        <ele>148.70709228516</ele>
        <time>2014-03-29T19:36:34Z</time>
      </trkpt>
      <trkpt lat="49.56659" lon="0.60782">
        <ele>149.22277832031</ele>
        <time>2014-03-29T19:36:38Z</time>
      </trkpt>
      <trkpt lat="49.56663" lon="0.60794">
        <ele>149.81115722656</ele>
        <time>2014-03-29T19:36:41Z</time>
      </trkpt>
      <trkpt lat="49.56664" lon="0.60798">
        <ele>149.97291564941</ele>
        <time>2014-03-29T19:36:42Z</time>
      </trkpt>
      <trkpt lat="49.56667" lon="0.60818">
        <ele>150.62110900879</ele>
        <time>2014-03-29T19:36:47Z</time>
      </trkpt>
      <trkpt lat="49.56671" lon="0.6083">
        <ele>150.77339172363</ele>
        <time>2014-03-29T19:36:51Z</time>
      </trkpt>
      <trkpt lat="49.56676" lon="0.60843">
        <ele>150.94502258301</ele>
        <time>2014-03-29T19:36:56Z</time>
      </trkpt>
      <trkpt lat="49.56678" lon="0.60853">
        <ele>151.11892700195</ele>
        <time>2014-03-29T19:37:02Z</time>
      </trkpt>
      <trkpt lat="49.5668" lon="0.6086">
        <ele>151.15742492676</ele>
        <time>2014-03-29T19:37:06Z</time>
      </trkpt>
      <trkpt lat="49.5668" lon="0.60864">
        <ele>151.26123046875</ele>
        <time>2014-03-29T19:37:08Z</time>
      </trkpt>
      <trkpt lat="49.56683" lon="0.60871">
        <ele>151.25561523438</ele>
        <time>2014-03-29T19:37:12Z</time>
      </trkpt>
      <trkpt lat="49.56686" lon="0.60883">
        <ele>151.27029418945</ele>
        <time>2014-03-29T19:37:18Z</time>
      </trkpt>
      <trkpt lat="49.56689" lon="0.60895">
        <ele>151.22486877441</ele>
        <time>2014-03-29T19:37:24Z</time>
      </trkpt>
      <trkpt lat="49.56688" lon="0.60904">
        <ele>151.51321411133</ele>
        <time>2014-03-29T19:37:28Z</time>
      </trkpt>
      <trkpt lat="49.56688" lon="0.60904">
        <ele>151.4723815918</ele>
        <time>2014-03-29T19:37:36Z</time>
      </trkpt>
      <trkpt lat="49.56689" lon="0.60901">
        <ele>151.31800842285</ele>
        <time>2014-03-29T19:37:40Z</time>
      </trkpt>
      <trkpt lat="49.5669" lon="0.60898">
        <ele>151.16511535644</ele>
        <time>2014-03-29T19:37:46Z</time>
      </trkpt>
      <trkpt lat="49.56689" lon="0.60891">
        <ele>151.1252746582</ele>
        <time>2014-03-29T19:37:51Z</time>
      </trkpt>
      <trkpt lat="49.56689" lon="0.60886">
        <ele>151.03689575195</ele>
        <time>2014-03-29T19:37:55Z</time>
      </trkpt>
      <trkpt lat="49.56689" lon="0.60883">
        <ele>150.98876953125</ele>
        <time>2014-03-29T19:37:57Z</time>
      </trkpt>
      <trkpt lat="49.56689" lon="0.60877">
        <ele>150.91876220703</ele>
        <time>2014-03-29T19:38:01Z</time>
      </trkpt>
      <trkpt lat="49.56688" lon="0.6087">
        <ele>150.88987731934</ele>
        <time>2014-03-29T19:38:05Z</time>
      </trkpt>
      <trkpt lat="49.56686" lon="0.60862">
        <ele>150.87010192871</ele>
        <time>2014-03-29T19:38:11Z</time>
      </trkpt>
      <trkpt lat="49.56683" lon="0.60854">
        <ele>150.86018371582</ele>
        <time>2014-03-29T19:38:16Z</time>
      </trkpt>
      <trkpt lat="49.56682" lon="0.60851">
        <ele>150.86817932129</ele>
        <time>2014-03-29T19:38:18Z</time>
      </trkpt>
      <trkpt lat="49.5668" lon="0.6085">
        <ele>150.91732788086</ele>
        <time>2014-03-29T19:38:25Z</time>
      </trkpt>
      <trkpt lat="49.56679" lon="0.60848">
        <ele>150.92575073242</ele>
        <time>2014-03-29T19:38:38Z</time>
      </trkpt>
      <trkpt lat="49.56679" lon="0.60842">
        <ele>150.77456665039</ele>
        <time>2014-03-29T19:38:57Z</time>
      </trkpt>
      <trkpt lat="49.56678" lon="0.60832">
        <ele>150.57409667969</ele>
        <time>2014-03-29T19:39:03Z</time>
      </trkpt>
      <trkpt lat="49.56677" lon="0.60826">
        <ele>150.47058105469</ele>
        <time>2014-03-29T19:39:06Z</time>
      </trkpt>
      <trkpt lat="49.56674" lon="0.60807">
        <ele>150.17994689941</ele>
        <time>2014-03-29T19:39:13Z</time>
      </trkpt>
      <trkpt lat="49.56672" lon="0.60789">
        <ele>149.84904479981</ele>
        <time>2014-03-29T19:39:17Z</time>
      </trkpt>
      <trkpt lat="49.56665" lon="0.60759">
        <ele>149.06280517578</ele>
        <time>2014-03-29T19:39:24Z</time>
      </trkpt>
      <trkpt lat="49.5666" lon="0.60744">
        <ele>148.17729187012</ele>
        <time>2014-03-29T19:39:28Z</time>
      </trkpt>
      <trkpt lat="49.56658" lon="0.60729">
        <ele>147.31072998047</ele>
        <time>2014-03-29T19:39:33Z</time>
      </trkpt>
      <trkpt lat="49.56657" lon="0.60723">
        <ele>146.96299743652</ele>
        <time>2014-03-29T19:39:39Z</time>
      </trkpt>
      <trkpt lat="49.56657" lon="0.6072">
        <ele>146.80462646484</ele>
        <time>2014-03-29T19:39:42Z</time>
      </trkpt>
      <trkpt lat="49.56646" lon="0.6072">
        <ele>145.9391784668</ele>
        <time>2014-03-29T19:39:47Z</time>
      </trkpt>
      <trkpt lat="49.56632" lon="0.60725">
        <ele>145.02217102051</ele>
        <time>2014-03-29T19:39:53Z</time>
      </trkpt>
      <trkpt lat="49.56623" lon="0.60727">
        <ele>144.34635925293</ele>
        <time>2014-03-29T19:39:57Z</time>
      </trkpt>
      <trkpt lat="49.56611" lon="0.60731">
        <ele>143.58595275879</ele>
        <time>2014-03-29T19:40:02Z</time>
      </trkpt>
      <trkpt lat="49.566" lon="0.60735">
        <ele>142.79359436035</ele>
        <time>2014-03-29T19:40:07Z</time>
      </trkpt>
      <trkpt lat="49.56585" lon="0.6074">
        <ele>141.78373718262</ele>
        <time>2014-03-29T19:40:13Z</time>
      </trkpt>
      <trkpt lat="49.56572" lon="0.60746">
        <ele>140.88671875</ele>
        <time>2014-03-29T19:40:18Z</time>
      </trkpt>
      <trkpt lat="49.56559" lon="0.6075">
        <ele>139.95352172852</ele>
        <time>2014-03-29T19:40:23Z</time>
      </trkpt>
      <trkpt lat="49.56545" lon="0.60756">
        <ele>139.06155395508</ele>
        <time>2014-03-29T19:40:29Z</time>
      </trkpt>
      <trkpt lat="49.56531" lon="0.60764">
        <ele>138.10035705566</ele>
        <time>2014-03-29T19:40:35Z</time>
      </trkpt>
      <trkpt lat="49.56518" lon="0.60772">
        <ele>137.23434448242</ele>
        <time>2014-03-29T19:40:40Z</time>
      </trkpt>
      <trkpt lat="49.56509" lon="0.60779">
        <ele>136.61433410644</ele>
        <time>2014-03-29T19:40:44Z</time>
      </trkpt>
      <trkpt lat="49.56501" lon="0.60787">
        <ele>135.97714233398</ele>
        <time>2014-03-29T19:40:48Z</time>
      </trkpt>
      <trkpt lat="49.56491" lon="0.60796">
        <ele>136.69358825684</ele>
        <time>2014-03-29T19:40:53Z</time>
      </trkpt>
      <trkpt lat="49.5648" lon="0.60807">
        <ele>137.64698791504</ele>
        <time>2014-03-29T19:40:59Z</time>
      </trkpt>
      <trkpt lat="49.56473" lon="0.60815">
        <ele>138.2615814209</ele>
        <time>2014-03-29T19:41:04Z</time>
      </trkpt>
      <trkpt lat="49.56465" lon="0.60822">
        <ele>138.87940979004</ele>
        <time>2014-03-29T19:41:09Z</time>
      </trkpt>
      <trkpt lat="49.56459" lon="0.60828">
        <ele>139.38478088379</ele>
        <time>2014-03-29T19:41:14Z</time>
      </trkpt>
      <trkpt lat="49.56454" lon="0.60832">
        <ele>139.73515319824</ele>
        <time>2014-03-29T19:41:17Z</time>
      </trkpt>
      <trkpt lat="49.56446" lon="0.60839">
        <ele>140.28030395508</ele>
        <time>2014-03-29T19:41:23Z</time>
      </trkpt>
      <trkpt lat="49.56438" lon="0.60846">
        <ele>140.76637268066</ele>
        <time>2014-03-29T19:41:29Z</time>
      </trkpt>
      <trkpt lat="49.56429" lon="0.60854">
        <ele>141.41181945801</ele>
        <time>2014-03-29T19:41:36Z</time>
      </trkpt>
      <trkpt lat="49.56423" lon="0.60858">
        <ele>141.88159179688</ele>
        <time>2014-03-29T19:41:41Z</time>
      </trkpt>
      <trkpt lat="49.56415" lon="0.60861">
        <ele>142.36018371582</ele>
        <time>2014-03-29T19:41:47Z</time>
      </trkpt>
      <trkpt lat="49.56406" lon="0.60864">
        <ele>142.57562255859</ele>
        <time>2014-03-29T19:41:53Z</time>
      </trkpt>
      <trkpt lat="49.56389" lon="0.6087">
        <ele>142.96328735352</ele>
        <time>2014-03-29T19:42:04Z</time>
      </trkpt>
      <trkpt lat="49.56371" lon="0.60874">
        <ele>143.31340026856</ele>
        <time>2014-03-29T19:42:15Z</time>
      </trkpt>
      <trkpt lat="49.56357" lon="0.60878">
        <ele>143.58120727539</ele>
        <time>2014-03-29T19:42:24Z</time>
      </trkpt>
      <trkpt lat="49.56345" lon="0.6088">
        <ele>143.79849243164</ele>
        <time>2014-03-29T19:42:32Z</time>
      </trkpt>
      <trkpt lat="49.56332" lon="0.60883">
        <ele>144.01219177246</ele>
        <time>2014-03-29T19:42:41Z</time>
      </trkpt>
      <trkpt lat="49.56324" lon="0.60883">
        <ele>144.06462097168</ele>
        <time>2014-03-29T19:42:47Z</time>
      </trkpt>
      <trkpt lat="49.56321" lon="0.60878">
        <ele>144.0823059082</ele>
        <time>2014-03-29T19:42:51Z</time>
      </trkpt>
      <trkpt lat="49.56317" lon="0.60861">
        <ele>144.06587219238</ele>
        <time>2014-03-29T19:42:59Z</time>
      </trkpt>
      <trkpt lat="49.56316" lon="0.60842">
        <ele>144.02238464356</ele>
        <time>2014-03-29T19:43:05Z</time>
      </trkpt>
      <trkpt lat="49.56316" lon="0.6082">
        <ele>144</ele>
        <time>2014-03-29T19:43:11Z</time>
      </trkpt>
      <trkpt lat="49.56315" lon="0.60803">
        <ele>144</ele>
        <time>2014-03-29T19:43:16Z</time>
      </trkpt>
      <trkpt lat="49.56315" lon="0.60781">
        <ele>144</ele>
        <time>2014-03-29T19:43:22Z</time>
      </trkpt>
      <trkpt lat="49.56315" lon="0.60759">
        <ele>144</ele>
        <time>2014-03-29T19:43:28Z</time>
      </trkpt>
      <trkpt lat="49.56316" lon="0.60751">
        <ele>144</ele>
        <time>2014-03-29T19:43:32Z</time>
      </trkpt>
      <trkpt lat="49.56318" lon="0.60744">
        <ele>144</ele>
        <time>2014-03-29T19:43:37Z</time>
      </trkpt>
      <trkpt lat="49.56319" lon="0.60731">
        <ele>144</ele>
        <time>2014-03-29T19:43:45Z</time>
      </trkpt>
      <trkpt lat="49.56319" lon="0.60727">
        <ele>144</ele>
        <time>2014-03-29T19:43:47Z</time>
      </trkpt>
      <trkpt lat="49.56319" lon="0.60719">
        <ele>144</ele>
        <time>2014-03-29T19:43:52Z</time>
      </trkpt>
      <trkpt lat="49.56317" lon="0.607">
        <ele>144</ele>
        <time>2014-03-29T19:43:57Z</time>
      </trkpt>
      <trkpt lat="49.56316" lon="0.60676">
        <ele>144</ele>
        <time>2014-03-29T19:44:03Z</time>
      </trkpt>
      <trkpt lat="49.56316" lon="0.60654">
        <ele>144</ele>
        <time>2014-03-29T19:44:09Z</time>
      </trkpt>
      <trkpt lat="49.56318" lon="0.60632">
        <ele>144</ele>
        <time>2014-03-29T19:44:15Z</time>
      </trkpt>
      <trkpt lat="49.56318" lon="0.60613">
        <ele>144</ele>
        <time>2014-03-29T19:44:20Z</time>
      </trkpt>
      <trkpt lat="49.5632" lon="0.6059">
        <ele>144</ele>
        <time>2014-03-29T19:44:26Z</time>
      </trkpt>
      <trkpt lat="49.5632" lon="0.6057">
        <ele>143.86500549316</ele>
        <time>2014-03-29T19:44:31Z</time>
      </trkpt>
      <trkpt lat="49.56321" lon="0.60543">
        <ele>143.58943176269</ele>
        <time>2014-03-29T19:44:38Z</time>
      </trkpt>
      <trkpt lat="49.56322" lon="0.60517">
        <ele>143.31990051269</ele>
        <time>2014-03-29T19:44:45Z</time>
      </trkpt>
      <trkpt lat="49.56322" lon="0.60499">
        <ele>143.11618041992</ele>
        <time>2014-03-29T19:44:50Z</time>
      </trkpt>
      <trkpt lat="49.56323" lon="0.60481">
        <ele>142.90225219727</ele>
        <time>2014-03-29T19:44:55Z</time>
      </trkpt>
      <trkpt lat="49.56324" lon="0.60465">
        <ele>142.69195556641</ele>
        <time>2014-03-29T19:45:00Z</time>
      </trkpt>
      <trkpt lat="49.56324" lon="0.60448">
        <ele>142.47903442383</ele>
        <time>2014-03-29T19:45:05Z</time>
      </trkpt>
      <trkpt lat="49.56325" lon="0.6043">
        <ele>142.25830078125</ele>
        <time>2014-03-29T19:45:10Z</time>
      </trkpt>
      <trkpt lat="49.56326" lon="0.60412">
        <ele>142.18522644043</ele>
        <time>2014-03-29T19:45:15Z</time>
      </trkpt>
      <trkpt lat="49.56327" lon="0.60393">
        <ele>142.62054443359</ele>
        <time>2014-03-29T19:45:21Z</time>
      </trkpt>
      <trkpt lat="49.56325" lon="0.60374">
        <ele>143.07095336914</ele>
        <time>2014-03-29T19:45:27Z</time>
      </trkpt>
      <trkpt lat="49.56326" lon="0.60358">
        <ele>143.42698669434</ele>
        <time>2014-03-29T19:45:32Z</time>
      </trkpt>
      <trkpt lat="49.56326" lon="0.60343">
        <ele>143.78274536133</ele>
        <time>2014-03-29T19:45:37Z</time>
      </trkpt>
      <trkpt lat="49.56326" lon="0.60322">
        <ele>144.15373229981</ele>
        <time>2014-03-29T19:45:43Z</time>
      </trkpt>
      <trkpt lat="49.56327" lon="0.60303">
        <ele>144.39060974121</ele>
        <time>2014-03-29T19:45:48Z</time>
      </trkpt>
      <trkpt lat="49.56327" lon="0.60288">
        <ele>144.58003234863</ele>
        <time>2014-03-29T19:45:52Z</time>
      </trkpt>
      <trkpt lat="49.56327" lon="0.60266">
        <ele>144.86026000977</ele>
        <time>2014-03-29T19:45:58Z</time>
      </trkpt>
      <trkpt lat="49.56327" lon="0.60245">
        <ele>145.12339782715</ele>
        <time>2014-03-29T19:46:04Z</time>
      </trkpt>
      <trkpt lat="49.56329" lon="0.6022">
        <ele>145.37599182129</ele>
        <time>2014-03-29T19:46:11Z</time>
      </trkpt>
      <trkpt lat="49.5633" lon="0.60202">
        <ele>145.56872558594</ele>
        <time>2014-03-29T19:46:16Z</time>
      </trkpt>
      <trkpt lat="49.56331" lon="0.60181">
        <ele>145.80622863769</ele>
        <time>2014-03-29T19:46:22Z</time>
      </trkpt>
      <trkpt lat="49.56332" lon="0.60164">
        <ele>145.94752502441</ele>
        <time>2014-03-29T19:46:27Z</time>
      </trkpt>
      <trkpt lat="49.56332" lon="0.60143">
        <ele>145.69718933106</ele>
        <time>2014-03-29T19:46:33Z</time>
      </trkpt>
      <trkpt lat="49.56331" lon="0.60116">
        <ele>145.36651611328</ele>
        <time>2014-03-29T19:46:40Z</time>
      </trkpt>
      <trkpt lat="49.56331" lon="0.60094">
        <ele>145.10015869141</ele>
        <time>2014-03-29T19:46:46Z</time>
      </trkpt>
      <trkpt lat="49.56332" lon="0.60069">
        <ele>144.98320007324</ele>
        <time>2014-03-29T19:46:53Z</time>
      </trkpt>
      <trkpt lat="49.56332" lon="0.60045">
        <ele>144.99391174316</ele>
        <time>2014-03-29T19:46:59Z</time>
      </trkpt>
      <trkpt lat="49.56334" lon="0.60031">
        <ele>144.99499511719</ele>
        <time>2014-03-29T19:47:03Z</time>
      </trkpt>
      <trkpt lat="49.56337" lon="0.60027">
        <ele>144.92175292969</ele>
        <time>2014-03-29T19:47:09Z</time>
      </trkpt>
      <trkpt lat="49.56337" lon="0.60026">
        <ele>144.92175292969</ele>
        <time>2014-03-29T19:47:16Z</time>
      </trkpt>
      <trkpt lat="49.56338" lon="0.60027">
        <ele>144.88513183594</ele>
        <time>2014-03-29T19:47:27Z</time>
      </trkpt>
      <trkpt lat="49.5634" lon="0.60026">
        <ele>144.84851074219</ele>
        <time>2014-03-29T19:47:35Z</time>
      </trkpt>
      <trkpt lat="49.56348" lon="0.60018">
        <ele>144.64709472656</ele>
        <time>2014-03-29T19:47:40Z</time>
      </trkpt>
      <trkpt lat="49.5635" lon="0.60018">
        <ele>144.59216308594</ele>
        <time>2014-03-29T19:47:41Z</time>
      </trkpt>
      <trkpt lat="49.56366" lon="0.60019">
        <ele>144.20764160156</ele>
        <time>2014-03-29T19:47:47Z</time>
      </trkpt>
      <trkpt lat="49.56381" lon="0.60019">
        <ele>143.85974121094</ele>
        <time>2014-03-29T19:47:52Z</time>
      </trkpt>
      <trkpt lat="49.56398" lon="0.60019">
        <ele>143.44775390625</ele>
        <time>2014-03-29T19:47:58Z</time>
      </trkpt>
      <trkpt lat="49.56416" lon="0.6002">
        <ele>143.02661132812</ele>
        <time>2014-03-29T19:48:04Z</time>
      </trkpt>
      <trkpt lat="49.56428" lon="0.6002">
        <ele>143.17051696777</ele>
        <time>2014-03-29T19:48:09Z</time>
      </trkpt>
      <trkpt lat="49.56433" lon="0.60017">
        <ele>143.23709106445</ele>
        <time>2014-03-29T19:48:11Z</time>
      </trkpt>
      <trkpt lat="49.56434" lon="0.60001">
        <ele>143.2096862793</ele>
        <time>2014-03-29T19:48:15Z</time>
      </trkpt>
      <trkpt lat="49.56434" lon="0.59989">
        <ele>143.04518127441</ele>
        <time>2014-03-29T19:48:18Z</time>
      </trkpt>
      <trkpt lat="49.56434" lon="0.59972">
        <ele>142.7999420166</ele>
        <time>2014-03-29T19:48:23Z</time>
      </trkpt>
      <trkpt lat="49.56433" lon="0.59962">
        <ele>142.65997314453</ele>
        <time>2014-03-29T19:48:26Z</time>
      </trkpt>
      <trkpt lat="49.56435" lon="0.59952">
        <ele>142.51788330078</ele>
        <time>2014-03-29T19:48:30Z</time>
      </trkpt>
      <trkpt lat="49.56433" lon="0.59941">
        <ele>142.34532165527</ele>
        <time>2014-03-29T19:48:33Z</time>
      </trkpt>
      <trkpt lat="49.56433" lon="0.59921">
        <ele>142.05827331543</ele>
        <time>2014-03-29T19:48:39Z</time>
      </trkpt>
      <trkpt lat="49.56431" lon="0.59899">
        <ele>142</ele>
        <time>2014-03-29T19:48:44Z</time>
      </trkpt>
      <trkpt lat="49.56429" lon="0.59878">
        <ele>142</ele>
        <time>2014-03-29T19:48:49Z</time>
      </trkpt>
      <trkpt lat="49.56425" lon="0.59857">
        <ele>142</ele>
        <time>2014-03-29T19:48:54Z</time>
      </trkpt>
      <trkpt lat="49.56423" lon="0.59832">
        <ele>141.98670959473</ele>
        <time>2014-03-29T19:49:01Z</time>
      </trkpt>
      <trkpt lat="49.56423" lon="0.59814">
        <ele>141.78297424316</ele>
        <time>2014-03-29T19:49:06Z</time>
      </trkpt>
      <trkpt lat="49.56423" lon="0.5979">
        <ele>141.52111816406</ele>
        <time>2014-03-29T19:49:12Z</time>
      </trkpt>
      <trkpt lat="49.56423" lon="0.59779">
        <ele>141.39749145508</ele>
        <time>2014-03-29T19:49:15Z</time>
      </trkpt>
      <trkpt lat="49.56419" lon="0.59758">
        <ele>141.11918640137</ele>
        <time>2014-03-29T19:49:20Z</time>
      </trkpt>
      <trkpt lat="49.56415" lon="0.59739">
        <ele>141.34338378906</ele>
        <time>2014-03-29T19:49:25Z</time>
      </trkpt>
      <trkpt lat="49.56419" lon="0.59727">
        <ele>141.58421325684</ele>
        <time>2014-03-29T19:49:30Z</time>
      </trkpt>
      <trkpt lat="49.56418" lon="0.59708">
        <ele>142.01391601562</ele>
        <time>2014-03-29T19:49:36Z</time>
      </trkpt>
      <trkpt lat="49.56417" lon="0.59698">
        <ele>142.24592590332</ele>
        <time>2014-03-29T19:49:39Z</time>
      </trkpt>
      <trkpt lat="49.56417" lon="0.59683">
        <ele>142.59776306152</ele>
        <time>2014-03-29T19:49:44Z</time>
      </trkpt>
      <trkpt lat="49.56414" lon="0.59664">
        <ele>143.09382629394</ele>
        <time>2014-03-29T19:49:49Z</time>
      </trkpt>
      <trkpt lat="49.56413" lon="0.59649">
        <ele>143.12638854981</ele>
        <time>2014-03-29T19:49:53Z</time>
      </trkpt>
      <trkpt lat="49.56413" lon="0.59639">
        <ele>143.13291931152</ele>
        <time>2014-03-29T19:49:56Z</time>
      </trkpt>
      <trkpt lat="49.5641" lon="0.59625">
        <ele>143.20492553711</ele>
        <time>2014-03-29T19:50:00Z</time>
      </trkpt>
      <trkpt lat="49.56408" lon="0.596">
        <ele>143.24078369141</ele>
        <time>2014-03-29T19:50:06Z</time>
      </trkpt>
      <trkpt lat="49.56406" lon="0.59589">
        <ele>143.2737121582</ele>
        <time>2014-03-29T19:50:09Z</time>
      </trkpt>
      <trkpt lat="49.56402" lon="0.59576">
        <ele>143.22966003418</ele>
        <time>2014-03-29T19:50:13Z</time>
      </trkpt>
      <trkpt lat="49.56398" lon="0.59569">
        <ele>143.20707702637</ele>
        <time>2014-03-29T19:50:16Z</time>
      </trkpt>
      <trkpt lat="49.56393" lon="0.59563">
        <ele>143.19273376465</ele>
        <time>2014-03-29T19:50:20Z</time>
      </trkpt>
      <trkpt lat="49.56386" lon="0.59558">
        <ele>143.20562744141</ele>
        <time>2014-03-29T19:50:25Z</time>
      </trkpt>
      <trkpt lat="49.56383" lon="0.59554">
        <ele>143.17233276367</ele>
        <time>2014-03-29T19:50:28Z</time>
      </trkpt>
      <trkpt lat="49.56373" lon="0.59544">
        <ele>143.07695007324</ele>
        <time>2014-03-29T19:50:34Z</time>
      </trkpt>
      <trkpt lat="49.56366" lon="0.59535">
        <ele>142.93682861328</ele>
        <time>2014-03-29T19:50:44Z</time>
      </trkpt>
      <trkpt lat="49.56363" lon="0.59531">
        <ele>142.84873962402</ele>
        <time>2014-03-29T19:50:52Z</time>
      </trkpt>
      <trkpt lat="49.56364" lon="0.59529">
        <ele>142.78050231934</ele>
        <time>2014-03-29T19:50:57Z</time>
      </trkpt>
      <trkpt lat="49.56366" lon="0.59524">
        <ele>142.6533203125</ele>
        <time>2014-03-29T19:51:01Z</time>
      </trkpt>
      <trkpt lat="49.56367" lon="0.59522">
        <ele>142.57586669922</ele>
        <time>2014-03-29T19:51:06Z</time>
      </trkpt>
      <trkpt lat="49.56368" lon="0.5952">
        <ele>142.51205444336</ele>
        <time>2014-03-29T19:51:13Z</time>
      </trkpt>
      <trkpt lat="49.56371" lon="0.59515">
        <ele>142.3664855957</ele>
        <time>2014-03-29T19:51:18Z</time>
      </trkpt>
      <trkpt lat="49.56371" lon="0.5951">
        <ele>142.25463867188</ele>
        <time>2014-03-29T19:51:21Z</time>
      </trkpt>
      <trkpt lat="49.56371" lon="0.59508">
        <ele>142.19876098633</ele>
        <time>2014-03-29T19:51:23Z</time>
      </trkpt>
      <trkpt lat="49.56375" lon="0.5951">
        <ele>142.25175476074</ele>
        <time>2014-03-29T19:51:28Z</time>
      </trkpt>
      <trkpt lat="49.56377" lon="0.59514">
        <ele>142.32916259766</ele>
        <time>2014-03-29T19:51:33Z</time>
      </trkpt>
      <trkpt lat="49.56376" lon="0.5951">
        <ele>142.24632263184</ele>
        <time>2014-03-29T19:51:36Z</time>
      </trkpt>
      <trkpt lat="49.56371" lon="0.59508">
        <ele>142.19502258301</ele>
        <time>2014-03-29T19:51:43Z</time>
      </trkpt>
      <trkpt lat="49.56371" lon="0.59509">
        <ele>142.22883605957</ele>
        <time>2014-03-29T19:51:46Z</time>
      </trkpt>
      <trkpt lat="49.56369" lon="0.59511">
        <ele>142.29399108887</ele>
        <time>2014-03-29T19:51:48Z</time>
      </trkpt>
      <trkpt lat="49.56366" lon="0.59513">
        <ele>142.3563079834</ele>
        <time>2014-03-29T19:51:54Z</time>
      </trkpt>
      <trkpt lat="49.56365" lon="0.59515">
        <ele>142.39352416992</ele>
        <time>2014-03-29T19:51:58Z</time>
      </trkpt>
      <trkpt lat="49.56361" lon="0.59521">
        <ele>142.57763671875</ele>
        <time>2014-03-29T19:52:05Z</time>
      </trkpt>
      <trkpt lat="49.56358" lon="0.59522">
        <ele>142.64126586914</ele>
        <time>2014-03-29T19:52:11Z</time>
      </trkpt>
      <trkpt lat="49.56353" lon="0.59523">
        <ele>142.69769287109</ele>
        <time>2014-03-29T19:52:16Z</time>
      </trkpt>
      <trkpt lat="49.5635" lon="0.59523">
        <ele>142.70574951172</ele>
        <time>2014-03-29T19:52:21Z</time>
      </trkpt>
      <trkpt lat="49.56347" lon="0.59523">
        <ele>142.7391204834</ele>
        <time>2014-03-29T19:52:26Z</time>
      </trkpt>
      <trkpt lat="49.56342" lon="0.59522">
        <ele>142.72317504883</ele>
        <time>2014-03-29T19:52:30Z</time>
      </trkpt>
      <trkpt lat="49.56335" lon="0.59518">
        <ele>142.65342712402</ele>
        <time>2014-03-29T19:52:36Z</time>
      </trkpt>
      <trkpt lat="49.5632" lon="0.59513">
        <ele>142.74356079102</ele>
        <time>2014-03-29T19:52:45Z</time>
      </trkpt>
      <trkpt lat="49.56306" lon="0.5951">
        <ele>142.92472839356</ele>
        <time>2014-03-29T19:52:54Z</time>
      </trkpt>
      <trkpt lat="49.56295" lon="0.59506">
        <ele>143.06829833984</ele>
        <time>2014-03-29T19:53:01Z</time>
      </trkpt>
      <trkpt lat="49.56283" lon="0.59502">
        <ele>143.25700378418</ele>
        <time>2014-03-29T19:53:08Z</time>
      </trkpt>
      <trkpt lat="49.56268" lon="0.59497">
        <ele>143.56970214844</ele>
        <time>2014-03-29T19:53:18Z</time>
      </trkpt>
      <trkpt lat="49.56257" lon="0.59494">
        <ele>143.82604980469</ele>
        <time>2014-03-29T19:53:23Z</time>
      </trkpt>
      <trkpt lat="49.56244" lon="0.59489">
        <ele>144.27416992188</ele>
        <time>2014-03-29T19:53:29Z</time>
      </trkpt>
      <trkpt lat="49.5623" lon="0.59484">
        <ele>144.85998535156</ele>
        <time>2014-03-29T19:53:35Z</time>
      </trkpt>
      <trkpt lat="49.56215" lon="0.59479">
        <ele>145.45611572266</ele>
        <time>2014-03-29T19:53:41Z</time>
      </trkpt>
      <trkpt lat="49.56204" lon="0.59477">
        <ele>145.90968322754</ele>
        <time>2014-03-29T19:53:46Z</time>
      </trkpt>
      <trkpt lat="49.56189" lon="0.59475">
        <ele>146.4981842041</ele>
        <time>2014-03-29T19:53:52Z</time>
      </trkpt>
      <trkpt lat="49.56173" lon="0.59472">
        <ele>147.07801818848</ele>
        <time>2014-03-29T19:53:58Z</time>
      </trkpt>
      <trkpt lat="49.56161" lon="0.59471">
        <ele>147.2501373291</ele>
        <time>2014-03-29T19:54:03Z</time>
      </trkpt>
      <trkpt lat="49.56145" lon="0.59468">
        <ele>147.07751464844</ele>
        <time>2014-03-29T19:54:09Z</time>
      </trkpt>
      <trkpt lat="49.5613" lon="0.59465">
        <ele>146.90550231934</ele>
        <time>2014-03-29T19:54:15Z</time>
      </trkpt>
      <trkpt lat="49.56115" lon="0.59464">
        <ele>146.77912902832</ele>
        <time>2014-03-29T19:54:21Z</time>
      </trkpt>
      <trkpt lat="49.561" lon="0.59462">
        <ele>146.65675354004</ele>
        <time>2014-03-29T19:54:27Z</time>
      </trkpt>
      <trkpt lat="49.56085" lon="0.59461">
        <ele>146.54563903809</ele>
        <time>2014-03-29T19:54:33Z</time>
      </trkpt>
      <trkpt lat="49.56073" lon="0.5946">
        <ele>146.57566833496</ele>
        <time>2014-03-29T19:54:38Z</time>
      </trkpt>
      <trkpt lat="49.56059" lon="0.59458">
        <ele>146.64761352539</ele>
        <time>2014-03-29T19:54:44Z</time>
      </trkpt>
      <trkpt lat="49.5604" lon="0.59458">
        <ele>146.75956726074</ele>
        <time>2014-03-29T19:54:52Z</time>
      </trkpt>
      <trkpt lat="49.56022" lon="0.59458">
        <ele>146.86520385742</ele>
        <time>2014-03-29T19:55:00Z</time>
      </trkpt>
      <trkpt lat="49.56011" lon="0.59457">
        <ele>146.93325805664</ele>
        <time>2014-03-29T19:55:05Z</time>
      </trkpt>
      <trkpt lat="49.55998" lon="0.59456">
        <ele>147.05307006836</ele>
        <time>2014-03-29T19:55:11Z</time>
      </trkpt>
      <trkpt lat="49.55987" lon="0.59454">
        <ele>147.32348632812</ele>
        <time>2014-03-29T19:55:16Z</time>
      </trkpt>
      <trkpt lat="49.55973" lon="0.5945">
        <ele>147.72132873535</ele>
        <time>2014-03-29T19:55:23Z</time>
      </trkpt>
      <trkpt lat="49.55958" lon="0.59446">
        <ele>148.15641784668</ele>
        <time>2014-03-29T19:55:30Z</time>
      </trkpt>
      <trkpt lat="49.55944" lon="0.59442">
        <ele>148.61126708984</ele>
        <time>2014-03-29T19:55:37Z</time>
      </trkpt>
      <trkpt lat="49.55931" lon="0.59439">
        <ele>149.04522705078</ele>
        <time>2014-03-29T19:55:43Z</time>
      </trkpt>
      <trkpt lat="49.55929" lon="0.59438">
        <ele>149.11752319336</ele>
        <time>2014-03-29T19:55:44Z</time>
      </trkpt>
      <trkpt lat="49.55916" lon="0.59435">
        <ele>149.55096435547</ele>
        <time>2014-03-29T19:55:50Z</time>
      </trkpt>
      <trkpt lat="49.55912" lon="0.59435">
        <ele>149.52751159668</ele>
        <time>2014-03-29T19:55:52Z</time>
      </trkpt>
      <trkpt lat="49.55904" lon="0.59429">
        <ele>149.58227539062</ele>
        <time>2014-03-29T19:55:58Z</time>
      </trkpt>
      <trkpt lat="49.55897" lon="0.59426">
        <ele>149.56343078613</ele>
        <time>2014-03-29T19:56:04Z</time>
      </trkpt>
      <trkpt lat="49.55894" lon="0.59425">
        <ele>149.55963134766</ele>
        <time>2014-03-29T19:56:07Z</time>
      </trkpt>
      <trkpt lat="49.55885" lon="0.59421">
        <ele>149.5313873291</ele>
        <time>2014-03-29T19:56:14Z</time>
      </trkpt>
      <trkpt lat="49.55884" lon="0.59421">
        <ele>149.52732849121</ele>
        <time>2014-03-29T19:56:15Z</time>
      </trkpt>
      <trkpt lat="49.55873" lon="0.59416">
        <ele>149.47814941406</ele>
        <time>2014-03-29T19:56:23Z</time>
      </trkpt>
      <trkpt lat="49.55864" lon="0.59412">
        <ele>149.39381408691</ele>
        <time>2014-03-29T19:56:29Z</time>
      </trkpt>
      <trkpt lat="49.55856" lon="0.59412">
        <ele>149.28564453125</ele>
        <time>2014-03-29T19:56:35Z</time>
      </trkpt>
      <trkpt lat="49.55847" lon="0.59423">
        <ele>149.0792388916</ele>
        <time>2014-03-29T19:56:43Z</time>
      </trkpt>
      <trkpt lat="49.55841" lon="0.59433">
        <ele>148.88142395019</ele>
        <time>2014-03-29T19:56:49Z</time>
      </trkpt>
      <trkpt lat="49.55834" lon="0.59443">
        <ele>148.69337463379</ele>
        <time>2014-03-29T19:56:55Z</time>
      </trkpt>
      <trkpt lat="49.55828" lon="0.59452">
        <ele>148.50436401367</ele>
        <time>2014-03-29T19:57:01Z</time>
      </trkpt>
      <trkpt lat="49.55821" lon="0.59461">
        <ele>148.31869506836</ele>
        <time>2014-03-29T19:57:08Z</time>
      </trkpt>
      <trkpt lat="49.55815" lon="0.59471">
        <ele>148.12664794922</ele>
        <time>2014-03-29T19:57:14Z</time>
      </trkpt>
      <trkpt lat="49.55809" lon="0.59483">
        <ele>147.90469360352</ele>
        <time>2014-03-29T19:57:21Z</time>
      </trkpt>
      <trkpt lat="49.55797" lon="0.59501">
        <ele>147.56712341309</ele>
        <time>2014-03-29T19:57:31Z</time>
      </trkpt>
      <trkpt lat="49.55788" lon="0.59513">
        <ele>147.62826538086</ele>
        <time>2014-03-29T19:57:39Z</time>
      </trkpt>
      <trkpt lat="49.5578" lon="0.59525">
        <ele>147.75138854981</ele>
        <time>2014-03-29T19:57:46Z</time>
      </trkpt>
      <trkpt lat="49.55771" lon="0.59538">
        <ele>147.92924499512</ele>
        <time>2014-03-29T19:57:53Z</time>
      </trkpt>
      <trkpt lat="49.55763" lon="0.59548">
        <ele>148.12121582031</ele>
        <time>2014-03-29T19:58:00Z</time>
      </trkpt>
      <trkpt lat="49.55753" lon="0.59558">
        <ele>148.38348388672</ele>
        <time>2014-03-29T19:58:07Z</time>
      </trkpt>
      <trkpt lat="49.55742" lon="0.59571">
        <ele>148.62171936035</ele>
        <time>2014-03-29T19:58:15Z</time>
      </trkpt>
      <trkpt lat="49.55732" lon="0.59582">
        <ele>148.75175476074</ele>
        <time>2014-03-29T19:58:23Z</time>
      </trkpt>
      <trkpt lat="49.55721" lon="0.59596">
        <ele>148.64624023438</ele>
        <time>2014-03-29T19:58:33Z</time>
      </trkpt>
      <trkpt lat="49.55713" lon="0.59603">
        <ele>148.55926513672</ele>
        <time>2014-03-29T19:58:39Z</time>
      </trkpt>
      <trkpt lat="49.55705" lon="0.59611">
        <ele>148.46313476562</ele>
        <time>2014-03-29T19:58:46Z</time>
      </trkpt>
      <trkpt lat="49.55694" lon="0.5962">
        <ele>148.32580566406</ele>
        <time>2014-03-29T19:58:55Z</time>
      </trkpt>
      <trkpt lat="49.55685" lon="0.59626">
        <ele>148.22052001953</ele>
        <time>2014-03-29T19:59:02Z</time>
      </trkpt>
      <trkpt lat="49.55672" lon="0.59637">
        <ele>148.06030273438</ele>
        <time>2014-03-29T19:59:12Z</time>
      </trkpt>
      <trkpt lat="49.55659" lon="0.59646">
        <ele>148.04496765137</ele>
        <time>2014-03-29T19:59:21Z</time>
      </trkpt>
      <trkpt lat="49.55649" lon="0.59651">
        <ele>148.13288879394</ele>
        <time>2014-03-29T19:59:28Z</time>
      </trkpt>
      <trkpt lat="49.55641" lon="0.59655">
        <ele>148.21836853027</ele>
        <time>2014-03-29T19:59:33Z</time>
      </trkpt>
      <trkpt lat="49.55634" lon="0.59659">
        <ele>148.32568359375</ele>
        <time>2014-03-29T19:59:38Z</time>
      </trkpt>
      <trkpt lat="49.55624" lon="0.59662">
        <ele>148.45803833008</ele>
        <time>2014-03-29T19:59:45Z</time>
      </trkpt>
      <trkpt lat="49.55616" lon="0.59666">
        <ele>148.60003662109</ele>
        <time>2014-03-29T19:59:51Z</time>
      </trkpt>
      <trkpt lat="49.55606" lon="0.59669">
        <ele>148.73231506348</ele>
        <time>2014-03-29T19:59:57Z</time>
      </trkpt>
      <trkpt lat="49.55598" lon="0.59671">
        <ele>148.85740661621</ele>
        <time>2014-03-29T20:00:02Z</time>
      </trkpt>
      <trkpt lat="49.5559" lon="0.59675">
        <ele>149.00480651856</ele>
        <time>2014-03-29T20:00:08Z</time>
      </trkpt>
      <trkpt lat="49.55583" lon="0.5968">
        <ele>149.14291381836</ele>
        <time>2014-03-29T20:00:13Z</time>
      </trkpt>
      <trkpt lat="49.55576" lon="0.59688">
        <ele>148.96510314941</ele>
        <time>2014-03-29T20:00:18Z</time>
      </trkpt>
      <trkpt lat="49.55569" lon="0.59703">
        <ele>148.77577209473</ele>
        <time>2014-03-29T20:00:26Z</time>
      </trkpt>
      <trkpt lat="49.55561" lon="0.59716">
        <ele>148.47537231445</ele>
        <time>2014-03-29T20:00:34Z</time>
      </trkpt>
      <trkpt lat="49.55547" lon="0.59725">
        <ele>147.79888916016</ele>
        <time>2014-03-29T20:00:45Z</time>
      </trkpt>
      <trkpt lat="49.55535" lon="0.59732">
        <ele>147.12075805664</ele>
        <time>2014-03-29T20:00:55Z</time>
      </trkpt>
      <trkpt lat="49.55524" lon="0.59738">
        <ele>146.50621032715</ele>
        <time>2014-03-29T20:01:03Z</time>
      </trkpt>
      <trkpt lat="49.55523" lon="0.59738">
        <ele>146.41563415527</ele>
        <time>2014-03-29T20:01:04Z</time>
      </trkpt>
      <trkpt lat="49.55519" lon="0.59745">
        <ele>146.20063781738</ele>
        <time>2014-03-29T20:01:08Z</time>
      </trkpt>
      <trkpt lat="49.5552" lon="0.59759">
        <ele>146.0764465332</ele>
        <time>2014-03-29T20:01:15Z</time>
      </trkpt>
      <trkpt lat="49.55521" lon="0.59766">
        <ele>146.00473022461</ele>
        <time>2014-03-29T20:01:18Z</time>
      </trkpt>
      <trkpt lat="49.55518" lon="0.59771">
        <ele>145.82171630859</ele>
        <time>2014-03-29T20:01:22Z</time>
      </trkpt>
      <trkpt lat="49.55518" lon="0.59772">
        <ele>145.78210449219</ele>
        <time>2014-03-29T20:01:28Z</time>
      </trkpt>
      <trkpt lat="49.55507" lon="0.59781">
        <ele>145.24719238281</ele>
        <time>2014-03-29T20:02:24Z</time>
      </trkpt>
      <trkpt lat="49.55514" lon="0.59787">
        <ele>145.47583007812</ele>
        <time>2014-03-29T20:02:30Z</time>
      </trkpt>
      <trkpt lat="49.55522" lon="0.59802">
        <ele>145.49571228027</ele>
        <time>2014-03-29T20:02:40Z</time>
      </trkpt>
      <trkpt lat="49.55523" lon="0.59807">
        <ele>145.43643188477</ele>
        <time>2014-03-29T20:02:47Z</time>
      </trkpt>
      <trkpt lat="49.55525" lon="0.5981">
        <ele>145.42282104492</ele>
        <time>2014-03-29T20:02:51Z</time>
      </trkpt>
      <trkpt lat="49.55527" lon="0.59812">
        <ele>145.40861511231</ele>
        <time>2014-03-29T20:02:58Z</time>
      </trkpt>
      <trkpt lat="49.55526" lon="0.59813">
        <ele>145.3826751709</ele>
        <time>2014-03-29T20:03:03Z</time>
      </trkpt>
      <trkpt lat="49.55526" lon="0.59813">
        <ele>145.37387084961</ele>
        <time>2014-03-29T20:03:04Z</time>
      </trkpt>
      <trkpt lat="49.55525" lon="0.59816">
        <ele>145.32189941406</ele>
        <time>2014-03-29T20:03:10Z</time>
      </trkpt>
      <trkpt lat="49.5553" lon="0.59812">
        <ele>145.45857238769</ele>
        <time>2014-03-29T20:03:30Z</time>
      </trkpt>
      <trkpt lat="49.55528" lon="0.5981">
        <ele>145.47109985352</ele>
        <time>2014-03-29T20:03:39Z</time>
      </trkpt>
      <trkpt lat="49.5553" lon="0.5981">
        <ele>145.49871826172</ele>
        <time>2014-03-29T20:03:46Z</time>
      </trkpt>
      <trkpt lat="49.55527" lon="0.59815">
        <ele>145.35893249512</ele>
        <time>2014-03-29T20:03:59Z</time>
      </trkpt>
      <trkpt lat="49.55524" lon="0.59819">
        <ele>145.2607421875</ele>
        <time>2014-03-29T20:04:04Z</time>
      </trkpt>
      <trkpt lat="49.55526" lon="0.59816">
        <ele>145.322265625</ele>
        <time>2014-03-29T20:04:10Z</time>
      </trkpt>
      <trkpt lat="49.55527" lon="0.59817">
        <ele>145.30535888672</ele>
        <time>2014-03-29T20:04:13Z</time>
      </trkpt>
      <trkpt lat="49.55528" lon="0.59818">
        <ele>145.29809570312</ele>
        <time>2014-03-29T20:04:17Z</time>
      </trkpt>
      <trkpt lat="49.55527" lon="0.59818">
        <ele>145.29652404785</ele>
        <time>2014-03-29T20:04:22Z</time>
      </trkpt>
      <trkpt lat="49.55529" lon="0.59818">
        <ele>145.31288146973</ele>
        <time>2014-03-29T20:04:28Z</time>
      </trkpt>
      <trkpt lat="49.55525" lon="0.59821">
        <ele>145.21943664551</ele>
        <time>2014-03-29T20:04:35Z</time>
      </trkpt>
      <trkpt lat="49.55526" lon="0.59813">
        <ele>145.38246154785</ele>
        <time>2014-03-29T20:04:57Z</time>
      </trkpt>
      <trkpt lat="49.55524" lon="0.59813">
        <ele>145.35211181641</ele>
        <time>2014-03-29T20:05:03Z</time>
      </trkpt>
      <trkpt lat="49.55523" lon="0.59814">
        <ele>145.32708740234</ele>
        <time>2014-03-29T20:05:05Z</time>
      </trkpt>
      <trkpt lat="49.55523" lon="0.59814">
        <ele>145.31604003906</ele>
        <time>2014-03-29T20:05:06Z</time>
      </trkpt>
      <trkpt lat="49.55524" lon="0.5981">
        <ele>145.40394592285</ele>
        <time>2014-03-29T20:05:12Z</time>
      </trkpt>
      <trkpt lat="49.55526" lon="0.59806">
        <ele>145.51371765137</ele>
        <time>2014-03-29T20:05:17Z</time>
      </trkpt>
      <trkpt lat="49.55529" lon="0.59803">
        <ele>145.62680053711</ele>
        <time>2014-03-29T20:05:26Z</time>
      </trkpt>
      <trkpt lat="49.55529" lon="0.59801">
        <ele>145.68980407715</ele>
        <time>2014-03-29T20:05:33Z</time>
      </trkpt>
      <trkpt lat="49.5553" lon="0.598">
        <ele>145.72509765625</ele>
        <time>2014-03-29T20:05:36Z</time>
      </trkpt>
      <trkpt lat="49.55531" lon="0.5979">
        <ele>145.96440124512</ele>
        <time>2014-03-29T20:06:36Z</time>
      </trkpt>
      <trkpt lat="49.55531" lon="0.59791">
        <ele>145.94444274902</ele>
        <time>2014-03-29T20:06:40Z</time>
      </trkpt>
      <trkpt lat="49.55532" lon="0.59791">
        <ele>145.97805786133</ele>
        <time>2014-03-29T20:06:45Z</time>
      </trkpt>
      <trkpt lat="49.55532" lon="0.5979">
        <ele>146.02381896973</ele>
        <time>2014-03-29T20:06:57Z</time>
      </trkpt>
      <trkpt lat="49.55533" lon="0.59788">
        <ele>146.07080078125</ele>
        <time>2014-03-29T20:07:00Z</time>
      </trkpt>
      <trkpt lat="49.55535" lon="0.59784">
        <ele>146.24055480957</ele>
        <time>2014-03-29T20:07:09Z</time>
      </trkpt>
      <trkpt lat="49.55534" lon="0.59787">
        <ele>146.12162780762</ele>
        <time>2014-03-29T20:07:18Z</time>
      </trkpt>
      <trkpt lat="49.55531" lon="0.59787">
        <ele>146.05288696289</ele>
        <time>2014-03-29T20:07:21Z</time>
      </trkpt>
      <trkpt lat="49.55525" lon="0.5979">
        <ele>145.78684997559</ele>
        <time>2014-03-29T20:07:27Z</time>
      </trkpt>
      <trkpt lat="49.55524" lon="0.59799">
        <ele>145.57844543457</ele>
        <time>2014-03-29T20:07:55Z</time>
      </trkpt>
      <trkpt lat="49.55522" lon="0.59799">
        <ele>145.54116821289</ele>
        <time>2014-03-29T20:08:14Z</time>
      </trkpt>
      <trkpt lat="49.55523" lon="0.598">
        <ele>145.54545593262</ele>
        <time>2014-03-29T20:08:16Z</time>
      </trkpt>
      <trkpt lat="49.55522" lon="0.598">
        <ele>145.53108215332</ele>
        <time>2014-03-29T20:08:28Z</time>
      </trkpt>
      <trkpt lat="49.55523" lon="0.59801">
        <ele>145.54481506348</ele>
        <time>2014-03-29T20:08:39Z</time>
      </trkpt>
      <trkpt lat="49.55523" lon="0.59802">
        <ele>145.51219177246</ele>
        <time>2014-03-29T20:08:51Z</time>
      </trkpt>
      <trkpt lat="49.55524" lon="0.59802">
        <ele>145.54655456543</ele>
        <time>2014-03-29T20:09:51Z</time>
      </trkpt>
      <trkpt lat="49.55524" lon="0.59802">
        <ele>145.54913330078</ele>
        <time>2014-03-29T20:09:52Z</time>
      </trkpt>
      <trkpt lat="49.55523" lon="0.59801">
        <ele>145.54891967773</ele>
        <time>2014-03-29T20:10:21Z</time>
      </trkpt>
      <trkpt lat="49.55522" lon="0.59798">
        <ele>145.56941223144</ele>
        <time>2014-03-29T20:10:28Z</time>
      </trkpt>
      <trkpt lat="49.55523" lon="0.59793">
        <ele>145.65078735352</ele>
        <time>2014-03-29T20:10:34Z</time>
      </trkpt>
      <trkpt lat="49.55522" lon="0.59788">
        <ele>145.72639465332</ele>
        <time>2014-03-29T20:10:38Z</time>
      </trkpt>
      <trkpt lat="49.55519" lon="0.59766">
        <ele>145.92935180664</ele>
        <time>2014-03-29T20:10:48Z</time>
      </trkpt>
      <trkpt lat="49.55516" lon="0.59749">
        <ele>145.97080993652</ele>
        <time>2014-03-29T20:10:54Z</time>
      </trkpt>
      <trkpt lat="49.55521" lon="0.59742">
        <ele>146.33023071289</ele>
        <time>2014-03-29T20:10:59Z</time>
      </trkpt>
      <trkpt lat="49.55533" lon="0.59735">
        <ele>147.00843811035</ele>
        <time>2014-03-29T20:11:05Z</time>
      </trkpt>
      <trkpt lat="49.55549" lon="0.59727">
        <ele>147.88430786133</ele>
        <time>2014-03-29T20:11:12Z</time>
      </trkpt>
      <trkpt lat="49.55555" lon="0.59725">
        <ele>148.22143554688</ele>
        <time>2014-03-29T20:11:15Z</time>
      </trkpt>
      <trkpt lat="49.55563" lon="0.59715">
        <ele>148.58151245117</ele>
        <time>2014-03-29T20:11:20Z</time>
      </trkpt>
      <trkpt lat="49.55572" lon="0.59698">
        <ele>148.87509155273</ele>
        <time>2014-03-29T20:11:26Z</time>
      </trkpt>
      <trkpt lat="49.55574" lon="0.59688">
        <ele>148.8497467041</ele>
        <time>2014-03-29T20:11:29Z</time>
      </trkpt>
      <trkpt lat="49.55573" lon="0.5967">
        <ele>148.65010070801</ele>
        <time>2014-03-29T20:11:35Z</time>
      </trkpt>
      <trkpt lat="49.55571" lon="0.59654">
        <ele>148.25364685059</ele>
        <time>2014-03-29T20:11:40Z</time>
      </trkpt>
      <trkpt lat="49.55568" lon="0.5964">
        <ele>147.81246948242</ele>
        <time>2014-03-29T20:11:44Z</time>
      </trkpt>
      <trkpt lat="49.55562" lon="0.59616">
        <ele>147.00938415527</ele>
        <time>2014-03-29T20:11:51Z</time>
      </trkpt>
      <trkpt lat="49.55556" lon="0.59598">
        <ele>146.37953186035</ele>
        <time>2014-03-29T20:11:57Z</time>
      </trkpt>
      <trkpt lat="49.55551" lon="0.59585">
        <ele>145.89158630371</ele>
        <time>2014-03-29T20:12:01Z</time>
      </trkpt>
      <trkpt lat="49.55538" lon="0.59565">
        <ele>145.14547729492</ele>
        <time>2014-03-29T20:12:08Z</time>
      </trkpt>
      <trkpt lat="49.55532" lon="0.59549">
        <ele>144.72891235352</ele>
        <time>2014-03-29T20:12:13Z</time>
      </trkpt>
      <trkpt lat="49.55527" lon="0.59529">
        <ele>144.31605529785</ele>
        <time>2014-03-29T20:12:19Z</time>
      </trkpt>
      <trkpt lat="49.55523" lon="0.59508">
        <ele>143.93719482422</ele>
        <time>2014-03-29T20:12:25Z</time>
      </trkpt>
      <trkpt lat="49.55526" lon="0.59486">
        <ele>143.87001037598</ele>
        <time>2014-03-29T20:12:31Z</time>
      </trkpt>
      <trkpt lat="49.55528" lon="0.59468">
        <ele>143.87509155273</ele>
        <time>2014-03-29T20:12:36Z</time>
      </trkpt>
      <trkpt lat="49.55529" lon="0.59453">
        <ele>143.86093139648</ele>
        <time>2014-03-29T20:12:40Z</time>
      </trkpt>
      <trkpt lat="49.55531" lon="0.59435">
        <ele>143.8253326416</ele>
        <time>2014-03-29T20:12:45Z</time>
      </trkpt>
      <trkpt lat="49.55532" lon="0.59417">
        <ele>143.77964782715</ele>
        <time>2014-03-29T20:12:50Z</time>
      </trkpt>
      <trkpt lat="49.55534" lon="0.59409">
        <ele>143.67617797852</ele>
        <time>2014-03-29T20:12:52Z</time>
      </trkpt>
      <trkpt lat="49.55534" lon="0.59395">
        <ele>143.43791198731</ele>
        <time>2014-03-29T20:12:56Z</time>
      </trkpt>
      <trkpt lat="49.55537" lon="0.59372">
        <ele>143.10803222656</ele>
        <time>2014-03-29T20:13:02Z</time>
      </trkpt>
      <trkpt lat="49.55539" lon="0.5935">
        <ele>142.76832580566</ele>
        <time>2014-03-29T20:13:08Z</time>
      </trkpt>
      <trkpt lat="49.5554" lon="0.59343">
        <ele>142.65548706055</ele>
        <time>2014-03-29T20:13:11Z</time>
      </trkpt>
      <trkpt lat="49.55539" lon="0.59337">
        <ele>142.53240966797</ele>
        <time>2014-03-29T20:13:15Z</time>
      </trkpt>
      <trkpt lat="49.5554" lon="0.59318">
        <ele>142.48559570312</ele>
        <time>2014-03-29T20:13:21Z</time>
      </trkpt>
      <trkpt lat="49.55541" lon="0.59305">
        <ele>142.49017333984</ele>
        <time>2014-03-29T20:13:25Z</time>
      </trkpt>
      <trkpt lat="49.55541" lon="0.59288">
        <ele>142.49475097656</ele>
        <time>2014-03-29T20:13:30Z</time>
      </trkpt>
      <trkpt lat="49.55542" lon="0.59267">
        <ele>142.49932861328</ele>
        <time>2014-03-29T20:13:36Z</time>
      </trkpt>
      <trkpt lat="49.55542" lon="0.59245">
        <ele>142.39468383789</ele>
        <time>2014-03-29T20:13:42Z</time>
      </trkpt>
      <trkpt lat="49.55542" lon="0.59225">
        <ele>141.91117858887</ele>
        <time>2014-03-29T20:13:48Z</time>
      </trkpt>
      <trkpt lat="49.55542" lon="0.59212">
        <ele>141.58702087402</ele>
        <time>2014-03-29T20:13:52Z</time>
      </trkpt>
      <trkpt lat="49.55542" lon="0.59197">
        <ele>141.22882080078</ele>
        <time>2014-03-29T20:13:56Z</time>
      </trkpt>
      <trkpt lat="49.55542" lon="0.59182">
        <ele>140.88578796387</ele>
        <time>2014-03-29T20:14:00Z</time>
      </trkpt>
      <trkpt lat="49.55544" lon="0.59167">
        <ele>140.5233001709</ele>
        <time>2014-03-29T20:14:05Z</time>
      </trkpt>
      <trkpt lat="49.55544" lon="0.59156">
        <ele>140.40202331543</ele>
        <time>2014-03-29T20:14:09Z</time>
      </trkpt>
      <trkpt lat="49.55547" lon="0.59144">
        <ele>140.29064941406</ele>
        <time>2014-03-29T20:14:14Z</time>
      </trkpt>
      <trkpt lat="49.5555" lon="0.59128">
        <ele>140.14094543457</ele>
        <time>2014-03-29T20:14:19Z</time>
      </trkpt>
      <trkpt lat="49.55552" lon="0.59111">
        <ele>139.95455932617</ele>
        <time>2014-03-29T20:14:24Z</time>
      </trkpt>
      <trkpt lat="49.55553" lon="0.59101">
        <ele>139.84411621094</ele>
        <time>2014-03-29T20:14:27Z</time>
      </trkpt>
      <trkpt lat="49.55553" lon="0.59093">
        <ele>139.76200866699</ele>
        <time>2014-03-29T20:14:29Z</time>
      </trkpt>
      <trkpt lat="49.55554" lon="0.59087">
        <ele>139.69076538086</ele>
        <time>2014-03-29T20:14:31Z</time>
      </trkpt>
      <trkpt lat="49.55558" lon="0.59071">
        <ele>139.53349304199</ele>
        <time>2014-03-29T20:14:36Z</time>
      </trkpt>
      <trkpt lat="49.55558" lon="0.59068">
        <ele>139.49284362793</ele>
        <time>2014-03-29T20:14:37Z</time>
      </trkpt>
      <trkpt lat="49.5556" lon="0.59049">
        <ele>139.24261474609</ele>
        <time>2014-03-29T20:14:43Z</time>
      </trkpt>
      <trkpt lat="49.55561" lon="0.59032">
        <ele>138.99829101562</ele>
        <time>2014-03-29T20:14:48Z</time>
      </trkpt>
      <trkpt lat="49.55564" lon="0.59021">
        <ele>138.78611755371</ele>
        <time>2014-03-29T20:14:51Z</time>
      </trkpt>
      <trkpt lat="49.55564" lon="0.59011">
        <ele>138.64033508301</ele>
        <time>2014-03-29T20:14:54Z</time>
      </trkpt>
      <trkpt lat="49.55565" lon="0.59008">
        <ele>138.57858276367</ele>
        <time>2014-03-29T20:14:55Z</time>
      </trkpt>
      <trkpt lat="49.55561" lon="0.58991">
        <ele>138.2509765625</ele>
        <time>2014-03-29T20:15:00Z</time>
      </trkpt>
      <trkpt lat="49.55557" lon="0.58977">
        <ele>137.87269592285</ele>
        <time>2014-03-29T20:15:05Z</time>
      </trkpt>
      <trkpt lat="49.55555" lon="0.58962">
        <ele>137.48258972168</ele>
        <time>2014-03-29T20:15:09Z</time>
      </trkpt>
      <trkpt lat="49.55554" lon="0.58959">
        <ele>137.39418029785</ele>
        <time>2014-03-29T20:15:10Z</time>
      </trkpt>
      <trkpt lat="49.55548" lon="0.58932">
        <ele>136.72396850586</ele>
        <time>2014-03-29T20:15:17Z</time>
      </trkpt>
      <trkpt lat="49.55545" lon="0.58911">
        <ele>136.13920593262</ele>
        <time>2014-03-29T20:15:22Z</time>
      </trkpt>
      <trkpt lat="49.55544" lon="0.58894">
        <ele>135.37014770508</ele>
        <time>2014-03-29T20:15:26Z</time>
      </trkpt>
      <trkpt lat="49.55544" lon="0.58883">
        <ele>134.82962036133</ele>
        <time>2014-03-29T20:15:29Z</time>
      </trkpt>
      <trkpt lat="49.55542" lon="0.58858">
        <ele>133.66995239258</ele>
        <time>2014-03-29T20:15:35Z</time>
      </trkpt>
      <trkpt lat="49.55542" lon="0.58842">
        <ele>132.90660095215</ele>
        <time>2014-03-29T20:15:39Z</time>
      </trkpt>
      <trkpt lat="49.55542" lon="0.58825">
        <ele>132.55564880371</ele>
        <time>2014-03-29T20:15:44Z</time>
      </trkpt>
      <trkpt lat="49.55544" lon="0.58803">
        <ele>132.70082092285</ele>
        <time>2014-03-29T20:15:50Z</time>
      </trkpt>
      <trkpt lat="49.5555" lon="0.58779">
        <ele>132.86192321777</ele>
        <time>2014-03-29T20:15:57Z</time>
      </trkpt>
      <trkpt lat="49.55558" lon="0.58743">
        <ele>133.12632751465</ele>
        <time>2014-03-29T20:16:06Z</time>
      </trkpt>
      <trkpt lat="49.5556" lon="0.58729">
        <ele>133.3819732666</ele>
        <time>2014-03-29T20:16:10Z</time>
      </trkpt>
      <trkpt lat="49.55564" lon="0.5871">
        <ele>133.70893859863</ele>
        <time>2014-03-29T20:16:16Z</time>
      </trkpt>
      <trkpt lat="49.55567" lon="0.587">
        <ele>133.84632873535</ele>
        <time>2014-03-29T20:16:19Z</time>
      </trkpt>
      <trkpt lat="49.55571" lon="0.58686">
        <ele>133.98970031738</ele>
        <time>2014-03-29T20:16:25Z</time>
      </trkpt>
      <trkpt lat="49.55574" lon="0.58681">
        <ele>134.01454162598</ele>
        <time>2014-03-29T20:16:28Z</time>
      </trkpt>
      <trkpt lat="49.55575" lon="0.5868">
        <ele>134.00619506836</ele>
        <time>2014-03-29T20:16:31Z</time>
      </trkpt>
      <trkpt lat="49.55584" lon="0.58659">
        <ele>134.18827819824</ele>
        <time>2014-03-29T20:16:38Z</time>
      </trkpt>
      <trkpt lat="49.55587" lon="0.58643">
        <ele>134.65687561035</ele>
        <time>2014-03-29T20:16:43Z</time>
      </trkpt>
      <trkpt lat="49.55593" lon="0.58622">
        <ele>135.2325592041</ele>
        <time>2014-03-29T20:16:50Z</time>
      </trkpt>
      <trkpt lat="49.55593" lon="0.58619">
        <ele>135.29702758789</ele>
        <time>2014-03-29T20:16:51Z</time>
      </trkpt>
      <trkpt lat="49.55601" lon="0.58603">
        <ele>135.67390441894</ele>
        <time>2014-03-29T20:16:57Z</time>
      </trkpt>
      <trkpt lat="49.55603" lon="0.58597">
        <ele>135.78515625</ele>
        <time>2014-03-29T20:16:59Z</time>
      </trkpt>
      <trkpt lat="49.55611" lon="0.58579">
        <ele>136.15028381348</ele>
        <time>2014-03-29T20:17:06Z</time>
      </trkpt>
      <trkpt lat="49.55616" lon="0.58569">
        <ele>136.52429199219</ele>
        <time>2014-03-29T20:17:10Z</time>
      </trkpt>
      <trkpt lat="49.55621" lon="0.58554">
        <ele>137.05236816406</ele>
        <time>2014-03-29T20:17:16Z</time>
      </trkpt>
      <trkpt lat="49.55623" lon="0.5855">
        <ele>137.20364379883</ele>
        <time>2014-03-29T20:17:18Z</time>
      </trkpt>
      <trkpt lat="49.55625" lon="0.58542">
        <ele>137.48645019531</ele>
        <time>2014-03-29T20:17:23Z</time>
      </trkpt>
      <trkpt lat="49.55627" lon="0.58538">
        <ele>137.63772583008</ele>
        <time>2014-03-29T20:17:25Z</time>
      </trkpt>
      <trkpt lat="49.55631" lon="0.58525">
        <ele>138.10357666016</ele>
        <time>2014-03-29T20:17:32Z</time>
      </trkpt>
      <trkpt lat="49.55638" lon="0.58512">
        <ele>138.56791687012</ele>
        <time>2014-03-29T20:17:38Z</time>
      </trkpt>
      <trkpt lat="49.55643" lon="0.58502">
        <ele>138.93699645996</ele>
        <time>2014-03-29T20:17:43Z</time>
      </trkpt>
      <trkpt lat="49.55647" lon="0.58495">
        <ele>139.14945983887</ele>
        <time>2014-03-29T20:17:46Z</time>
      </trkpt>
      <trkpt lat="49.55649" lon="0.5849">
        <ele>139.31309509277</ele>
        <time>2014-03-29T20:17:48Z</time>
      </trkpt>
      <trkpt lat="49.55652" lon="0.58486">
        <ele>139.44137573242</ele>
        <time>2014-03-29T20:17:51Z</time>
      </trkpt>
      <trkpt lat="49.55657" lon="0.58477">
        <ele>139.74932861328</ele>
        <time>2014-03-29T20:17:56Z</time>
      </trkpt>
      <trkpt lat="49.5566" lon="0.58472">
        <ele>139.94134521484</ele>
        <time>2014-03-29T20:17:59Z</time>
      </trkpt>
      <trkpt lat="49.55664" lon="0.58467">
        <ele>140.18075561523</ele>
        <time>2014-03-29T20:18:03Z</time>
      </trkpt>
      <trkpt lat="49.55668" lon="0.58461">
        <ele>140.38104248047</ele>
        <time>2014-03-29T20:18:07Z</time>
      </trkpt>
      <trkpt lat="49.55671" lon="0.58454">
        <ele>140.61441040039</ele>
        <time>2014-03-29T20:18:16Z</time>
      </trkpt>
      <trkpt lat="49.55671" lon="0.58447">
        <ele>140.85890197754</ele>
        <time>2014-03-29T20:18:22Z</time>
      </trkpt>
      <trkpt lat="49.55672" lon="0.58442">
        <ele>141.06254577637</ele>
        <time>2014-03-29T20:18:28Z</time>
      </trkpt>
      <trkpt lat="49.55672" lon="0.58437">
        <ele>141.20867919922</ele>
        <time>2014-03-29T20:18:33Z</time>
      </trkpt>
      <trkpt lat="49.55672" lon="0.58435">
        <ele>141.30157470703</ele>
        <time>2014-03-29T20:18:40Z</time>
      </trkpt>
      <trkpt lat="49.55671" lon="0.58425">
        <ele>141.63246154785</ele>
        <time>2014-03-29T20:18:49Z</time>
      </trkpt>
      <trkpt lat="49.5567" lon="0.5842">
        <ele>141.85501098633</ele>
        <time>2014-03-29T20:18:53Z</time>
      </trkpt>
      <trkpt lat="49.55668" lon="0.58412">
        <ele>142.08940124512</ele>
        <time>2014-03-29T20:18:58Z</time>
      </trkpt>
      <trkpt lat="49.55667" lon="0.58409">
        <ele>142.17985534668</ele>
        <time>2014-03-29T20:19:00Z</time>
      </trkpt>
      <trkpt lat="49.55663" lon="0.58399">
        <ele>142.33880615234</ele>
        <time>2014-03-29T20:19:05Z</time>
      </trkpt>
      <trkpt lat="49.55663" lon="0.58397">
        <ele>142.38372802734</ele>
        <time>2014-03-29T20:19:06Z</time>
      </trkpt>
      <trkpt lat="49.55659" lon="0.58383">
        <ele>142.6173248291</ele>
        <time>2014-03-29T20:19:12Z</time>
      </trkpt>
      <trkpt lat="49.55658" lon="0.5838">
        <ele>142.69071960449</ele>
        <time>2014-03-29T20:19:14Z</time>
      </trkpt>
      <trkpt lat="49.55658" lon="0.58372">
        <ele>142.86180114746</ele>
        <time>2014-03-29T20:19:18Z</time>
      </trkpt>
      <trkpt lat="49.55655" lon="0.58361">
        <ele>143.03817749023</ele>
        <time>2014-03-29T20:19:23Z</time>
      </trkpt>
      <trkpt lat="49.55653" lon="0.58356">
        <ele>143.11857604981</ele>
        <time>2014-03-29T20:19:25Z</time>
      </trkpt>
      <trkpt lat="49.55648" lon="0.5834">
        <ele>143.38623046875</ele>
        <time>2014-03-29T20:19:31Z</time>
      </trkpt>
      <trkpt lat="49.55643" lon="0.58326">
        <ele>143.43395996094</ele>
        <time>2014-03-29T20:19:37Z</time>
      </trkpt>
      <trkpt lat="49.55638" lon="0.58312">
        <ele>143.31494140625</ele>
        <time>2014-03-29T20:19:43Z</time>
      </trkpt>
      <trkpt lat="49.55634" lon="0.583">
        <ele>143.205078125</ele>
        <time>2014-03-29T20:19:48Z</time>
      </trkpt>
      <trkpt lat="49.55626" lon="0.58281">
        <ele>143.03112792969</ele>
        <time>2014-03-29T20:19:54Z</time>
      </trkpt>
      <trkpt lat="49.55619" lon="0.58261">
        <ele>142.86633300781</ele>
        <time>2014-03-29T20:20:00Z</time>
      </trkpt>
      <trkpt lat="49.55613" lon="0.58245">
        <ele>142.75827026367</ele>
        <time>2014-03-29T20:20:05Z</time>
      </trkpt>
      <trkpt lat="49.55608" lon="0.58228">
        <ele>142.77603149414</ele>
        <time>2014-03-29T20:20:10Z</time>
      </trkpt>
      <trkpt lat="49.55602" lon="0.58207">
        <ele>142.84205627441</ele>
        <time>2014-03-29T20:20:16Z</time>
      </trkpt>
      <trkpt lat="49.55595" lon="0.58188">
        <ele>142.91819763184</ele>
        <time>2014-03-29T20:20:22Z</time>
      </trkpt>
      <trkpt lat="49.55586" lon="0.58164">
        <ele>143.06741333008</ele>
        <time>2014-03-29T20:20:29Z</time>
      </trkpt>
      <trkpt lat="49.55577" lon="0.58145">
        <ele>143.31329345703</ele>
        <time>2014-03-29T20:20:35Z</time>
      </trkpt>
      <trkpt lat="49.55571" lon="0.58127">
        <ele>143.55807495117</ele>
        <time>2014-03-29T20:20:41Z</time>
      </trkpt>
      <trkpt lat="49.55565" lon="0.58112">
        <ele>143.73489379883</ele>
        <time>2014-03-29T20:20:46Z</time>
      </trkpt>
      <trkpt lat="49.55559" lon="0.58095">
        <ele>143.90058898926</ele>
        <time>2014-03-29T20:20:51Z</time>
      </trkpt>
      <trkpt lat="49.5555" lon="0.58074">
        <ele>144</ele>
        <time>2014-03-29T20:20:58Z</time>
      </trkpt>
      <trkpt lat="49.5554" lon="0.58049">
        <ele>144</ele>
        <time>2014-03-29T20:21:06Z</time>
      </trkpt>
      <trkpt lat="49.55533" lon="0.5803">
        <ele>144</ele>
        <time>2014-03-29T20:21:12Z</time>
      </trkpt>
      <trkpt lat="49.55526" lon="0.58012">
        <ele>144</ele>
        <time>2014-03-29T20:21:18Z</time>
      </trkpt>
      <trkpt lat="49.55518" lon="0.57994">
        <ele>143.90963745117</ele>
        <time>2014-03-29T20:21:24Z</time>
      </trkpt>
      <trkpt lat="49.55509" lon="0.57976">
        <ele>143.677734375</ele>
        <time>2014-03-29T20:21:30Z</time>
      </trkpt>
      <trkpt lat="49.55502" lon="0.57959">
        <ele>143.49937438965</ele>
        <time>2014-03-29T20:21:36Z</time>
      </trkpt>
      <trkpt lat="49.55493" lon="0.57941">
        <ele>143.37075805664</ele>
        <time>2014-03-29T20:21:43Z</time>
      </trkpt>
      <trkpt lat="49.55485" lon="0.57923">
        <ele>143.26461791992</ele>
        <time>2014-03-29T20:21:49Z</time>
      </trkpt>
      <trkpt lat="49.55476" lon="0.57905">
        <ele>142.93533325195</ele>
        <time>2014-03-29T20:21:55Z</time>
      </trkpt>
      <trkpt lat="49.55469" lon="0.57885">
        <ele>142.51057434082</ele>
        <time>2014-03-29T20:22:01Z</time>
      </trkpt>
      <trkpt lat="49.55464" lon="0.57867">
        <ele>142.17471313477</ele>
        <time>2014-03-29T20:22:06Z</time>
      </trkpt>
      <trkpt lat="49.55458" lon="0.57851">
        <ele>141.92045593262</ele>
        <time>2014-03-29T20:22:12Z</time>
      </trkpt>
      <trkpt lat="49.55453" lon="0.57832">
        <ele>141.67802429199</ele>
        <time>2014-03-29T20:22:18Z</time>
      </trkpt>
      <trkpt lat="49.55447" lon="0.57811">
        <ele>141.7003326416</ele>
        <time>2014-03-29T20:22:25Z</time>
      </trkpt>
      <trkpt lat="49.55442" lon="0.57793">
        <ele>141.77029418945</ele>
        <time>2014-03-29T20:22:31Z</time>
      </trkpt>
      <trkpt lat="49.55437" lon="0.57774">
        <ele>141.91641235352</ele>
        <time>2014-03-29T20:22:37Z</time>
      </trkpt>
      <trkpt lat="49.55432" lon="0.57759">
        <ele>142.1114654541</ele>
        <time>2014-03-29T20:22:42Z</time>
      </trkpt>
      <trkpt lat="49.55431" lon="0.57756">
        <ele>142.16596984863</ele>
        <time>2014-03-29T20:22:43Z</time>
      </trkpt>
      <trkpt lat="49.55426" lon="0.57756">
        <ele>142.47611999512</ele>
        <time>2014-03-29T20:22:46Z</time>
      </trkpt>
      <trkpt lat="49.55416" lon="0.57771">
        <ele>143.01414489746</ele>
        <time>2014-03-29T20:22:53Z</time>
      </trkpt>
      <trkpt lat="49.55407" lon="0.57785">
        <ele>143.17198181152</ele>
        <time>2014-03-29T20:22:59Z</time>
      </trkpt>
      <trkpt lat="49.55396" lon="0.57802">
        <ele>143.41098022461</ele>
        <time>2014-03-29T20:23:06Z</time>
      </trkpt>
      <trkpt lat="49.55385" lon="0.57819">
        <ele>143.69752502441</ele>
        <time>2014-03-29T20:23:13Z</time>
      </trkpt>
      <trkpt lat="49.55374" lon="0.57837">
        <ele>143.99633789062</ele>
        <time>2014-03-29T20:23:20Z</time>
      </trkpt>
      <trkpt lat="49.55363" lon="0.57853">
        <ele>144.07009887695</ele>
        <time>2014-03-29T20:23:27Z</time>
      </trkpt>
      <trkpt lat="49.55353" lon="0.57869">
        <ele>143.97941589356</ele>
        <time>2014-03-29T20:23:33Z</time>
      </trkpt>
      <trkpt lat="49.55344" lon="0.57884">
        <ele>143.75430297852</ele>
        <time>2014-03-29T20:23:39Z</time>
      </trkpt>
      <trkpt lat="49.55334" lon="0.579">
        <ele>143.4128112793</ele>
        <time>2014-03-29T20:23:45Z</time>
      </trkpt>
      <trkpt lat="49.55323" lon="0.57919">
        <ele>142.61212158203</ele>
        <time>2014-03-29T20:23:53Z</time>
      </trkpt>
      <trkpt lat="49.55311" lon="0.57935">
        <ele>142.14460754394</ele>
        <time>2014-03-29T20:24:00Z</time>
      </trkpt>
      <trkpt lat="49.55302" lon="0.5795">
        <ele>141.73812866211</ele>
        <time>2014-03-29T20:24:06Z</time>
      </trkpt>
      <trkpt lat="49.55294" lon="0.57962">
        <ele>141.34518432617</ele>
        <time>2014-03-29T20:24:11Z</time>
      </trkpt>
      <trkpt lat="49.55284" lon="0.57976">
        <ele>140.79359436035</ele>
        <time>2014-03-29T20:24:17Z</time>
      </trkpt>
      <trkpt lat="49.55273" lon="0.57988">
        <ele>140.18898010254</ele>
        <time>2014-03-29T20:24:23Z</time>
      </trkpt>
      <trkpt lat="49.5526" lon="0.57999">
        <ele>139.47695922852</ele>
        <time>2014-03-29T20:24:29Z</time>
      </trkpt>
      <trkpt lat="49.55244" lon="0.5801">
        <ele>138.51835632324</ele>
        <time>2014-03-29T20:24:36Z</time>
      </trkpt>
      <trkpt lat="49.55231" lon="0.58019">
        <ele>137.61727905273</ele>
        <time>2014-03-29T20:24:42Z</time>
      </trkpt>
      <trkpt lat="49.55218" lon="0.58026">
        <ele>136.77111816406</ele>
        <time>2014-03-29T20:24:48Z</time>
      </trkpt>
      <trkpt lat="49.5521" lon="0.58031">
        <ele>136.20664978027</ele>
        <time>2014-03-29T20:24:52Z</time>
      </trkpt>
      <trkpt lat="49.55199" lon="0.5804">
        <ele>135.43545532227</ele>
        <time>2014-03-29T20:24:58Z</time>
      </trkpt>
      <trkpt lat="49.5519" lon="0.58046">
        <ele>134.82090759277</ele>
        <time>2014-03-29T20:25:03Z</time>
      </trkpt>
      <trkpt lat="49.55182" lon="0.58051">
        <ele>134.27230834961</ele>
        <time>2014-03-29T20:25:08Z</time>
      </trkpt>
      <trkpt lat="49.55178" lon="0.5806">
        <ele>133.96997070312</ele>
        <time>2014-03-29T20:25:14Z</time>
      </trkpt>
      <trkpt lat="49.5518" lon="0.5807">
        <ele>133.96318054199</ele>
        <time>2014-03-29T20:25:19Z</time>
      </trkpt>
      <trkpt lat="49.55186" lon="0.58085">
        <ele>134.17712402344</ele>
        <time>2014-03-29T20:25:25Z</time>
      </trkpt>
      <trkpt lat="49.55192" lon="0.58098">
        <ele>134.86047363281</ele>
        <time>2014-03-29T20:25:30Z</time>
      </trkpt>
      <trkpt lat="49.55197" lon="0.58111">
        <ele>135.49890136719</ele>
        <time>2014-03-29T20:25:35Z</time>
      </trkpt>
      <trkpt lat="49.55203" lon="0.58128">
        <ele>136.25622558594</ele>
        <time>2014-03-29T20:25:41Z</time>
      </trkpt>
      <trkpt lat="49.55209" lon="0.58143">
        <ele>136.98992919922</ele>
        <time>2014-03-29T20:25:47Z</time>
      </trkpt>
      <trkpt lat="49.55217" lon="0.58159">
        <ele>137.81576538086</ele>
        <time>2014-03-29T20:25:54Z</time>
      </trkpt>
      <trkpt lat="49.55222" lon="0.58175">
        <ele>138.40664672852</ele>
        <time>2014-03-29T20:26:01Z</time>
      </trkpt>
      <trkpt lat="49.55228" lon="0.5819">
        <ele>138.81101989746</ele>
        <time>2014-03-29T20:26:07Z</time>
      </trkpt>
      <trkpt lat="49.55233" lon="0.58202">
        <ele>139.13471984863</ele>
        <time>2014-03-29T20:26:12Z</time>
      </trkpt>
      <trkpt lat="49.55236" lon="0.58209">
        <ele>139.31655883789</ele>
        <time>2014-03-29T20:26:15Z</time>
      </trkpt>
      <trkpt lat="49.55236" lon="0.58217">
        <ele>139.34632873535</ele>
        <time>2014-03-29T20:26:19Z</time>
      </trkpt>
      <trkpt lat="49.55233" lon="0.58224">
        <ele>139.24647521973</ele>
        <time>2014-03-29T20:26:23Z</time>
      </trkpt>
      <trkpt lat="49.55221" lon="0.58231">
        <ele>138.7878112793</ele>
        <time>2014-03-29T20:26:32Z</time>
      </trkpt>
      <trkpt lat="49.55212" lon="0.58233">
        <ele>138.43572998047</ele>
        <time>2014-03-29T20:26:37Z</time>
      </trkpt>
      <trkpt lat="49.55202" lon="0.58237">
        <ele>138.09757995606</ele>
        <time>2014-03-29T20:26:42Z</time>
      </trkpt>
      <trkpt lat="49.55191" lon="0.58239">
        <ele>137.69694519043</ele>
        <time>2014-03-29T20:26:47Z</time>
      </trkpt>
      <trkpt lat="49.55182" lon="0.58241">
        <ele>137.39167785644</ele>
        <time>2014-03-29T20:26:51Z</time>
      </trkpt>
      <trkpt lat="49.55173" lon="0.58243">
        <ele>137.06748962402</ele>
        <time>2014-03-29T20:26:56Z</time>
      </trkpt>
      <trkpt lat="49.5516" lon="0.58248">
        <ele>136.3779296875</ele>
        <time>2014-03-29T20:27:02Z</time>
      </trkpt>
      <trkpt lat="49.55148" lon="0.58253">
        <ele>135.4133605957</ele>
        <time>2014-03-29T20:27:07Z</time>
      </trkpt>
      <trkpt lat="49.55136" lon="0.58256">
        <ele>134.48432922363</ele>
        <time>2014-03-29T20:27:12Z</time>
      </trkpt>
      <trkpt lat="49.55124" lon="0.58259">
        <ele>133.37165832519</ele>
        <time>2014-03-29T20:27:18Z</time>
      </trkpt>
      <trkpt lat="49.55119" lon="0.5826">
        <ele>133.00631713867</ele>
        <time>2014-03-29T20:27:20Z</time>
      </trkpt>
      <trkpt lat="49.55106" lon="0.58269">
        <ele>131.76168823242</ele>
        <time>2014-03-29T20:27:26Z</time>
      </trkpt>
      <trkpt lat="49.55103" lon="0.58271">
        <ele>131.51324462891</ele>
        <time>2014-03-29T20:27:27Z</time>
      </trkpt>
      <trkpt lat="49.5509" lon="0.58277">
        <ele>130.28349304199</ele>
        <time>2014-03-29T20:27:33Z</time>
      </trkpt>
      <trkpt lat="49.55087" lon="0.58278">
        <ele>129.95289611816</ele>
        <time>2014-03-29T20:27:36Z</time>
      </trkpt>
      <trkpt lat="49.55081" lon="0.58279">
        <ele>129.28717041016</ele>
        <time>2014-03-29T20:27:42Z</time>
      </trkpt>
      <trkpt lat="49.5508" lon="0.58277">
        <ele>129.18395996094</ele>
        <time>2014-03-29T20:27:47Z</time>
      </trkpt>
      <trkpt lat="49.55079" lon="0.58275">
        <ele>129.01472473144</ele>
        <time>2014-03-29T20:27:49Z</time>
      </trkpt>
      <trkpt lat="49.55077" lon="0.58269">
        <ele>128.63957214356</ele>
        <time>2014-03-29T20:27:54Z</time>
      </trkpt>
      <trkpt lat="49.55077" lon="0.58265">
        <ele>128.68292236328</ele>
        <time>2014-03-29T20:27:57Z</time>
      </trkpt>
      <trkpt lat="49.55073" lon="0.5826">
        <ele>128.17008972168</ele>
        <time>2014-03-29T20:28:01Z</time>
      </trkpt>
      <trkpt lat="49.55069" lon="0.58252">
        <ele>127.49381256103</ele>
        <time>2014-03-29T20:28:06Z</time>
      </trkpt>
      <trkpt lat="49.55062" lon="0.58248">
        <ele>126.44074249268</ele>
        <time>2014-03-29T20:28:10Z</time>
      </trkpt>
      <trkpt lat="49.55058" lon="0.58246">
        <ele>125.6681060791</ele>
        <time>2014-03-29T20:28:15Z</time>
      </trkpt>
      <trkpt lat="49.55055" lon="0.58241">
        <ele>124.96636962891</ele>
        <time>2014-03-29T20:28:20Z</time>
      </trkpt>
      <trkpt lat="49.55054" lon="0.5824">
        <ele>124.89212036133</ele>
        <time>2014-03-29T20:28:21Z</time>
      </trkpt>
      <trkpt lat="49.55051" lon="0.58236">
        <ele>124.1795501709</ele>
        <time>2014-03-29T20:28:25Z</time>
      </trkpt>
      <trkpt lat="49.55046" lon="0.58233">
        <ele>123.45115661621</ele>
        <time>2014-03-29T20:28:29Z</time>
      </trkpt>
      <trkpt lat="49.55043" lon="0.58234">
        <ele>122.98694610596</ele>
        <time>2014-03-29T20:28:32Z</time>
      </trkpt>
      <trkpt lat="49.55042" lon="0.58233">
        <ele>122.73551177978</ele>
        <time>2014-03-29T20:28:34Z</time>
      </trkpt>
      <trkpt lat="49.55036" lon="0.58229">
        <ele>121.78147888184</ele>
        <time>2014-03-29T20:28:40Z</time>
      </trkpt>
      <trkpt lat="49.55035" lon="0.58229">
        <ele>121.66006469727</ele>
        <time>2014-03-29T20:28:41Z</time>
      </trkpt>
      <trkpt lat="49.55033" lon="0.58228">
        <ele>121.24736022949</ele>
        <time>2014-03-29T20:28:44Z</time>
      </trkpt>
      <trkpt lat="49.55027" lon="0.58226">
        <ele>120.41799926758</ele>
        <time>2014-03-29T20:28:49Z</time>
      </trkpt>
      <trkpt lat="49.55025" lon="0.58226">
        <ele>120.07122039795</ele>
        <time>2014-03-29T20:28:51Z</time>
      </trkpt>
      <trkpt lat="49.55021" lon="0.58229">
        <ele>119.38987731934</ele>
        <time>2014-03-29T20:28:55Z</time>
      </trkpt>
      <trkpt lat="49.55019" lon="0.58232">
        <ele>119.22016143799</ele>
        <time>2014-03-29T20:28:59Z</time>
      </trkpt>
      <trkpt lat="49.55016" lon="0.5823">
        <ele>118.68926239014</ele>
        <time>2014-03-29T20:29:11Z</time>
      </trkpt>
      <trkpt lat="49.55014" lon="0.58225">
        <ele>118.46276092529</ele>
        <time>2014-03-29T20:29:24Z</time>
      </trkpt>
      <trkpt lat="49.55014" lon="0.58223">
        <ele>118.35343933106</ele>
        <time>2014-03-29T20:29:37Z</time>
      </trkpt>
      <trkpt lat="49.55013" lon="0.58223">
        <ele>118.18310546875</ele>
        <time>2014-03-29T20:29:43Z</time>
      </trkpt>
      <trkpt lat="49.55007" lon="0.58222">
        <ele>117.39933776856</ele>
        <time>2014-03-29T20:29:58Z</time>
      </trkpt>
      <trkpt lat="49.55007" lon="0.58222">
        <ele>117.39876556397</ele>
        <time>2014-03-29T20:30:01Z</time>
      </trkpt>
      <trkpt lat="49.55007" lon="0.58219">
        <ele>117.41416931152</ele>
        <time>2014-03-29T20:30:12Z</time>
      </trkpt>
      <trkpt lat="49.55004" lon="0.58216">
        <ele>116.94054412842</ele>
        <time>2014-03-29T20:30:26Z</time>
      </trkpt>
      <trkpt lat="49.55" lon="0.58216">
        <ele>116.39465332031</ele>
        <time>2014-03-29T20:30:34Z</time>
      </trkpt>
      <trkpt lat="49.54994" lon="0.58212">
        <ele>115.46332550049</ele>
        <time>2014-03-29T20:30:41Z</time>
      </trkpt>
      <trkpt lat="49.54994" lon="0.58211">
        <ele>115.4687423706</ele>
        <time>2014-03-29T20:30:42Z</time>
      </trkpt>
      <trkpt lat="49.54992" lon="0.58203">
        <ele>115.19458007812</ele>
        <time>2014-03-29T20:30:47Z</time>
      </trkpt>
      <trkpt lat="49.54992" lon="0.58201">
        <ele>115.20458221435</ele>
        <time>2014-03-29T20:30:50Z</time>
      </trkpt>
      <trkpt lat="49.54988" lon="0.58196">
        <ele>114.47148132324</ele>
        <time>2014-03-29T20:30:55Z</time>
      </trkpt>
      <trkpt lat="49.54992" lon="0.5819">
        <ele>115.1371383667</ele>
        <time>2014-03-29T20:31:14Z</time>
      </trkpt>
      <trkpt lat="49.54992" lon="0.5819">
        <ele>115.20645141602</ele>
        <time>2014-03-29T20:31:15Z</time>
      </trkpt>
      <trkpt lat="49.54997" lon="0.5819">
        <ele>116.13227844238</ele>
        <time>2014-03-29T20:31:20Z</time>
      </trkpt>
      <trkpt lat="49.54999" lon="0.5819">
        <ele>116.49267578125</ele>
        <time>2014-03-29T20:31:22Z</time>
      </trkpt>
      <trkpt lat="49.55003" lon="0.58187">
        <ele>117.17133331299</ele>
        <time>2014-03-29T20:31:27Z</time>
      </trkpt>
      <trkpt lat="49.55008" lon="0.58184">
        <ele>117.69923400879</ele>
        <time>2014-03-29T20:31:33Z</time>
      </trkpt>
      <trkpt lat="49.55009" lon="0.58182">
        <ele>117.94102478027</ele>
        <time>2014-03-29T20:31:37Z</time>
      </trkpt>
      <trkpt lat="49.55014" lon="0.58179">
        <ele>118.53665924072</ele>
        <time>2014-03-29T20:31:42Z</time>
      </trkpt>
      <trkpt lat="49.55016" lon="0.58179">
        <ele>118.67114257812</ele>
        <time>2014-03-29T20:31:43Z</time>
      </trkpt>
      <trkpt lat="49.55024" lon="0.58176">
        <ele>119.63816833496</ele>
        <time>2014-03-29T20:31:49Z</time>
      </trkpt>
      <trkpt lat="49.5503" lon="0.58173">
        <ele>120.34699249268</ele>
        <time>2014-03-29T20:31:54Z</time>
      </trkpt>
      <trkpt lat="49.55035" lon="0.58169">
        <ele>120.80824279785</ele>
        <time>2014-03-29T20:31:59Z</time>
      </trkpt>
      <trkpt lat="49.5504" lon="0.58163">
        <ele>121.38076782227</ele>
        <time>2014-03-29T20:32:06Z</time>
      </trkpt>
      <trkpt lat="49.55041" lon="0.58163">
        <ele>121.51711273193</ele>
        <time>2014-03-29T20:32:08Z</time>
      </trkpt>
      <trkpt lat="49.55048" lon="0.58158">
        <ele>122.29624938965</ele>
        <time>2014-03-29T20:32:15Z</time>
      </trkpt>
      <trkpt lat="49.55054" lon="0.58152">
        <ele>122.93785095215</ele>
        <time>2014-03-29T20:32:21Z</time>
      </trkpt>
      <trkpt lat="49.55054" lon="0.58151">
        <ele>123.02070617676</ele>
        <time>2014-03-29T20:32:22Z</time>
      </trkpt>
      <trkpt lat="49.55057" lon="0.58149">
        <ele>123.25712585449</ele>
        <time>2014-03-29T20:32:25Z</time>
      </trkpt>
      <trkpt lat="49.55058" lon="0.58148">
        <ele>123.40728759766</ele>
        <time>2014-03-29T20:32:27Z</time>
      </trkpt>
      <trkpt lat="49.55062" lon="0.58144">
        <ele>123.81809997559</ele>
        <time>2014-03-29T20:32:39Z</time>
      </trkpt>
      <trkpt lat="49.55063" lon="0.58143">
        <ele>123.85409545898</ele>
        <time>2014-03-29T20:32:40Z</time>
      </trkpt>
      <trkpt lat="49.55064" lon="0.58138">
        <ele>123.96878814697</ele>
        <time>2014-03-29T20:32:46Z</time>
      </trkpt>
      <trkpt lat="49.55064" lon="0.58134">
        <ele>123.9765701294</ele>
        <time>2014-03-29T20:32:49Z</time>
      </trkpt>
      <trkpt lat="49.55064" lon="0.58129">
        <ele>124.01615142822</ele>
        <time>2014-03-29T20:32:55Z</time>
      </trkpt>
      <trkpt lat="49.55065" lon="0.58125">
        <ele>124.08249664307</ele>
        <time>2014-03-29T20:33:00Z</time>
      </trkpt>
      <trkpt lat="49.55063" lon="0.58122">
        <ele>123.94123840332</ele>
        <time>2014-03-29T20:33:03Z</time>
      </trkpt>
      <trkpt lat="49.55062" lon="0.58118">
        <ele>123.89633178711</ele>
        <time>2014-03-29T20:33:08Z</time>
      </trkpt>
      <trkpt lat="49.55059" lon="0.58112">
        <ele>123.65295410156</ele>
        <time>2014-03-29T20:33:16Z</time>
      </trkpt>
      <trkpt lat="49.55057" lon="0.58108">
        <ele>123.55091094971</ele>
        <time>2014-03-29T20:33:21Z</time>
      </trkpt>
      <trkpt lat="49.55051" lon="0.58103">
        <ele>123.2324295044</ele>
        <time>2014-03-29T20:33:32Z</time>
      </trkpt>
      <trkpt lat="49.55047" lon="0.58101">
        <ele>123.00169372559</ele>
        <time>2014-03-29T20:33:37Z</time>
      </trkpt>
      <trkpt lat="49.55045" lon="0.58096">
        <ele>122.93705749512</ele>
        <time>2014-03-29T20:33:44Z</time>
      </trkpt>
      <trkpt lat="49.55042" lon="0.58089">
        <ele>122.91332244873</ele>
        <time>2014-03-29T20:33:50Z</time>
      </trkpt>
      <trkpt lat="49.5504" lon="0.58087">
        <ele>122.86130523682</ele>
        <time>2014-03-29T20:33:52Z</time>
      </trkpt>
      <trkpt lat="49.55036" lon="0.58086">
        <ele>122.65155792236</ele>
        <time>2014-03-29T20:33:59Z</time>
      </trkpt>
      <trkpt lat="49.55029" lon="0.58088">
        <ele>122.27928161621</ele>
        <time>2014-03-29T20:34:05Z</time>
      </trkpt>
      <trkpt lat="49.55026" lon="0.58089">
        <ele>122.08583831787</ele>
        <time>2014-03-29T20:34:09Z</time>
      </trkpt>
      <trkpt lat="49.5502" lon="0.58088">
        <ele>121.80642700195</ele>
        <time>2014-03-29T20:34:15Z</time>
      </trkpt>
      <trkpt lat="49.55018" lon="0.58087">
        <ele>121.74429321289</ele>
        <time>2014-03-29T20:34:22Z</time>
      </trkpt>
      <trkpt lat="49.55014" lon="0.58083">
        <ele>121.67601013184</ele>
        <time>2014-03-29T20:34:27Z</time>
      </trkpt>
      <trkpt lat="49.55013" lon="0.58082">
        <ele>121.65898132324</ele>
        <time>2014-03-29T20:34:28Z</time>
      </trkpt>
      <trkpt lat="49.55011" lon="0.58082">
        <ele>121.59854125977</ele>
        <time>2014-03-29T20:34:30Z</time>
      </trkpt>
      <trkpt lat="49.55007" lon="0.58084">
        <ele>121.30192565918</ele>
        <time>2014-03-29T20:34:34Z</time>
      </trkpt>
      <trkpt lat="49.55" lon="0.58083">
        <ele>121.03227996826</ele>
        <time>2014-03-29T20:34:40Z</time>
      </trkpt>
      <trkpt lat="49.54997" lon="0.58082">
        <ele>120.30080413818</ele>
        <time>2014-03-29T20:34:43Z</time>
      </trkpt>
      <trkpt lat="49.54992" lon="0.58083">
        <ele>119.16933441162</ele>
        <time>2014-03-29T20:34:47Z</time>
      </trkpt>
      <trkpt lat="49.54985" lon="0.58082">
        <ele>117.55533599853</ele>
        <time>2014-03-29T20:34:53Z</time>
      </trkpt>
      <trkpt lat="49.54982" lon="0.58084">
        <ele>116.5700378418</ele>
        <time>2014-03-29T20:34:56Z</time>
      </trkpt>
      <trkpt lat="49.54977" lon="0.58084">
        <ele>115.55142211914</ele>
        <time>2014-03-29T20:35:00Z</time>
      </trkpt>
      <trkpt lat="49.54971" lon="0.58081">
        <ele>114.13547515869</ele>
        <time>2014-03-29T20:35:08Z</time>
      </trkpt>
      <trkpt lat="49.5497" lon="0.58081">
        <ele>113.97273254394</ele>
        <time>2014-03-29T20:35:09Z</time>
      </trkpt>
      <trkpt lat="49.54964" lon="0.58075">
        <ele>112.90188598633</ele>
        <time>2014-03-29T20:35:15Z</time>
      </trkpt>
      <trkpt lat="49.54963" lon="0.5807">
        <ele>112.7340927124</ele>
        <time>2014-03-29T20:35:18Z</time>
      </trkpt>
      <trkpt lat="49.54958" lon="0.58055">
        <ele>112.18935394287</ele>
        <time>2014-03-29T20:35:26Z</time>
      </trkpt>
      <trkpt lat="49.54955" lon="0.58046">
        <ele>112.0354385376</ele>
        <time>2014-03-29T20:35:30Z</time>
      </trkpt>
      <trkpt lat="49.54955" lon="0.58039">
        <ele>112.24493408203</ele>
        <time>2014-03-29T20:35:34Z</time>
      </trkpt>
      <trkpt lat="49.54953" lon="0.58035">
        <ele>111.96270751953</ele>
        <time>2014-03-29T20:35:36Z</time>
      </trkpt>
      <trkpt lat="49.54948" lon="0.58028">
        <ele>110.90506744385</ele>
        <time>2014-03-29T20:35:39Z</time>
      </trkpt>
      <trkpt lat="49.54944" lon="0.58017">
        <ele>110.50895690918</ele>
        <time>2014-03-29T20:35:45Z</time>
      </trkpt>
      <trkpt lat="49.54944" lon="0.58013">
        <ele>110.60610198975</ele>
        <time>2014-03-29T20:35:47Z</time>
      </trkpt>
      <trkpt lat="49.54944" lon="0.58003">
        <ele>111.06456756592</ele>
        <time>2014-03-29T20:35:53Z</time>
      </trkpt>
      <trkpt lat="49.54941" lon="0.57987">
        <ele>111.57927703857</ele>
        <time>2014-03-29T20:36:00Z</time>
      </trkpt>
      <trkpt lat="49.54938" lon="0.57977">
        <ele>111.97604370117</ele>
        <time>2014-03-29T20:36:07Z</time>
      </trkpt>
      <trkpt lat="49.54935" lon="0.57965">
        <ele>112.54267120361</ele>
        <time>2014-03-29T20:36:14Z</time>
      </trkpt>
      <trkpt lat="49.54934" lon="0.57961">
        <ele>112.66100311279</ele>
        <time>2014-03-29T20:36:16Z</time>
      </trkpt>
      <trkpt lat="49.5493" lon="0.57952">
        <ele>112.65658569336</ele>
        <time>2014-03-29T20:36:21Z</time>
      </trkpt>
      <trkpt lat="49.54927" lon="0.57941">
        <ele>113.30759429932</ele>
        <time>2014-03-29T20:36:26Z</time>
      </trkpt>
      <trkpt lat="49.54927" lon="0.57939">
        <ele>113.39540863037</ele>
        <time>2014-03-29T20:36:27Z</time>
      </trkpt>
      <trkpt lat="49.54926" lon="0.5793">
        <ele>114.12134552002</ele>
        <time>2014-03-29T20:36:32Z</time>
      </trkpt>
      <trkpt lat="49.54923" lon="0.57921">
        <ele>114.67211914062</ele>
        <time>2014-03-29T20:36:37Z</time>
      </trkpt>
      <trkpt lat="49.54922" lon="0.57916">
        <ele>115.09715270996</ele>
        <time>2014-03-29T20:36:39Z</time>
      </trkpt>
      <trkpt lat="49.54921" lon="0.57911">
        <ele>115.68349456787</ele>
        <time>2014-03-29T20:36:42Z</time>
      </trkpt>
      <trkpt lat="49.54917" lon="0.57905">
        <ele>115.92376708984</ele>
        <time>2014-03-29T20:36:46Z</time>
      </trkpt>
      <trkpt lat="49.54913" lon="0.579">
        <ele>116.05029296875</ele>
        <time>2014-03-29T20:36:51Z</time>
      </trkpt>
      <trkpt lat="49.54906" lon="0.57891">
        <ele>115.95124053955</ele>
        <time>2014-03-29T20:36:58Z</time>
      </trkpt>
      <trkpt lat="49.54902" lon="0.57887">
        <ele>115.89900970459</ele>
        <time>2014-03-29T20:37:01Z</time>
      </trkpt>
      <trkpt lat="49.54896" lon="0.5788">
        <ele>115.93013763428</ele>
        <time>2014-03-29T20:37:05Z</time>
      </trkpt>
      <trkpt lat="49.54891" lon="0.57874">
        <ele>116.14541625977</ele>
        <time>2014-03-29T20:37:09Z</time>
      </trkpt>
      <trkpt lat="49.54886" lon="0.57866">
        <ele>116.5198059082</ele>
        <time>2014-03-29T20:37:14Z</time>
      </trkpt>
      <trkpt lat="49.54882" lon="0.57862">
        <ele>116.47769165039</ele>
        <time>2014-03-29T20:37:17Z</time>
      </trkpt>
      <trkpt lat="49.54875" lon="0.57854">
        <ele>116.59342956543</ele>
        <time>2014-03-29T20:37:24Z</time>
      </trkpt>
      <trkpt lat="49.54874" lon="0.57853">
        <ele>116.6141204834</ele>
        <time>2014-03-29T20:37:25Z</time>
      </trkpt>
      <trkpt lat="49.54871" lon="0.57846">
        <ele>117.23994445801</ele>
        <time>2014-03-29T20:37:30Z</time>
      </trkpt>
      <trkpt lat="49.54867" lon="0.57838">
        <ele>117.87640380859</ele>
        <time>2014-03-29T20:37:35Z</time>
      </trkpt>
      <trkpt lat="49.54865" lon="0.57829">
        <ele>118.67707061768</ele>
        <time>2014-03-29T20:37:40Z</time>
      </trkpt>
      <trkpt lat="49.54863" lon="0.57823">
        <ele>118.9969329834</ele>
        <time>2014-03-29T20:37:43Z</time>
      </trkpt>
      <trkpt lat="49.5486" lon="0.57812">
        <ele>119.44325256348</ele>
        <time>2014-03-29T20:37:49Z</time>
      </trkpt>
      <trkpt lat="49.54859" lon="0.57808">
        <ele>119.70589447022</ele>
        <time>2014-03-29T20:37:52Z</time>
      </trkpt>
      <trkpt lat="49.54855" lon="0.578">
        <ele>119.7854309082</ele>
        <time>2014-03-29T20:37:57Z</time>
      </trkpt>
      <trkpt lat="49.54848" lon="0.57793">
        <ele>119.45240783691</ele>
        <time>2014-03-29T20:38:02Z</time>
      </trkpt>
      <trkpt lat="49.54847" lon="0.57791">
        <ele>119.3688659668</ele>
        <time>2014-03-29T20:38:03Z</time>
      </trkpt>
      <trkpt lat="49.54845" lon="0.57787">
        <ele>119.47129058838</ele>
        <time>2014-03-29T20:38:05Z</time>
      </trkpt>
      <trkpt lat="49.54838" lon="0.57777">
        <ele>119.1771774292</ele>
        <time>2014-03-29T20:38:10Z</time>
      </trkpt>
      <trkpt lat="49.54836" lon="0.57773">
        <ele>119.24584197998</ele>
        <time>2014-03-29T20:38:13Z</time>
      </trkpt>
      <trkpt lat="49.54831" lon="0.57761">
        <ele>119.3995513916</ele>
        <time>2014-03-29T20:38:19Z</time>
      </trkpt>
      <trkpt lat="49.54828" lon="0.57753">
        <ele>119.36396789551</ele>
        <time>2014-03-29T20:38:24Z</time>
      </trkpt>
      <trkpt lat="49.54827" lon="0.57747">
        <ele>119.35626220703</ele>
        <time>2014-03-29T20:38:27Z</time>
      </trkpt>
      <trkpt lat="49.54823" lon="0.57736">
        <ele>118.12881469727</ele>
        <time>2014-03-29T20:38:32Z</time>
      </trkpt>
      <trkpt lat="49.54822" lon="0.57725">
        <ele>117.90688323975</ele>
        <time>2014-03-29T20:38:37Z</time>
      </trkpt>
      <trkpt lat="49.54822" lon="0.57714">
        <ele>117.8892288208</ele>
        <time>2014-03-29T20:38:41Z</time>
      </trkpt>
      <trkpt lat="49.54822" lon="0.57701">
        <ele>117.86767578125</ele>
        <time>2014-03-29T20:38:47Z</time>
      </trkpt>
      <trkpt lat="49.54821" lon="0.57697">
        <ele>117.65424346924</ele>
        <time>2014-03-29T20:38:49Z</time>
      </trkpt>
      <trkpt lat="49.5482" lon="0.57688">
        <ele>117.32497406006</ele>
        <time>2014-03-29T20:38:54Z</time>
      </trkpt>
      <trkpt lat="49.54816" lon="0.57681">
        <ele>116.16126251221</ele>
        <time>2014-03-29T20:38:58Z</time>
      </trkpt>
      <trkpt lat="49.54818" lon="0.57675">
        <ele>116.88182067871</ele>
        <time>2014-03-29T20:39:01Z</time>
      </trkpt>
      <trkpt lat="49.54823" lon="0.57668">
        <ele>118.23348999023</ele>
        <time>2014-03-29T20:39:05Z</time>
      </trkpt>
      <trkpt lat="49.54825" lon="0.57663">
        <ele>118.24816131592</ele>
        <time>2014-03-29T20:39:07Z</time>
      </trkpt>
      <trkpt lat="49.54827" lon="0.5765">
        <ele>117.66598510742</ele>
        <time>2014-03-29T20:39:13Z</time>
      </trkpt>
      <trkpt lat="49.54829" lon="0.57645">
        <ele>117.58473205566</ele>
        <time>2014-03-29T20:39:17Z</time>
      </trkpt>
      <trkpt lat="49.54832" lon="0.57635">
        <ele>117.39954376221</ele>
        <time>2014-03-29T20:39:21Z</time>
      </trkpt>
      <trkpt lat="49.54834" lon="0.57631">
        <ele>117.16679382324</ele>
        <time>2014-03-29T20:39:24Z</time>
      </trkpt>
      <trkpt lat="49.54837" lon="0.57622">
        <ele>116.80712127685</ele>
        <time>2014-03-29T20:39:30Z</time>
      </trkpt>
      <trkpt lat="49.54837" lon="0.5762">
        <ele>116.65339660644</ele>
        <time>2014-03-29T20:39:32Z</time>
      </trkpt>
      <trkpt lat="49.54836" lon="0.57617">
        <ele>115.99043273926</ele>
        <time>2014-03-29T20:39:36Z</time>
      </trkpt>
      <trkpt lat="49.54841" lon="0.57606">
        <ele>115.90375518799</ele>
        <time>2014-03-29T20:39:42Z</time>
      </trkpt>
      <trkpt lat="49.54846" lon="0.57603">
        <ele>116.49573516846</ele>
        <time>2014-03-29T20:39:44Z</time>
      </trkpt>
      <trkpt lat="49.54848" lon="0.57601">
        <ele>116.79016876221</ele>
        <time>2014-03-29T20:39:46Z</time>
      </trkpt>
      <trkpt lat="49.54854" lon="0.57596">
        <ele>117.2915725708</ele>
        <time>2014-03-29T20:39:49Z</time>
      </trkpt>
      <trkpt lat="49.54861" lon="0.57591">
        <ele>118.19635009766</ele>
        <time>2014-03-29T20:39:54Z</time>
      </trkpt>
      <trkpt lat="49.54869" lon="0.57584">
        <ele>118.89970397949</ele>
        <time>2014-03-29T20:39:58Z</time>
      </trkpt>
      <trkpt lat="49.54875" lon="0.57578">
        <ele>119.07292175293</ele>
        <time>2014-03-29T20:40:03Z</time>
      </trkpt>
      <trkpt lat="49.54876" lon="0.57574">
        <ele>118.6534576416</ele>
        <time>2014-03-29T20:40:06Z</time>
      </trkpt>
      <trkpt lat="49.54876" lon="0.57569">
        <ele>117.83166503906</ele>
        <time>2014-03-29T20:40:09Z</time>
      </trkpt>
      <trkpt lat="49.54879" lon="0.57567">
        <ele>117.87273406982</ele>
        <time>2014-03-29T20:40:11Z</time>
      </trkpt>
      <trkpt lat="49.54884" lon="0.57562">
        <ele>118.09565734863</ele>
        <time>2014-03-29T20:40:14Z</time>
      </trkpt>
      <trkpt lat="49.54891" lon="0.57552">
        <ele>117.88230895996</ele>
        <time>2014-03-29T20:40:20Z</time>
      </trkpt>
      <trkpt lat="49.54901" lon="0.5755">
        <ele>119.44820404053</ele>
        <time>2014-03-29T20:40:28Z</time>
      </trkpt>
      <trkpt lat="49.54903" lon="0.57546">
        <ele>119.27449798584</ele>
        <time>2014-03-29T20:40:32Z</time>
      </trkpt>
      <trkpt lat="49.54906" lon="0.57544">
        <ele>119.51262664795</ele>
        <time>2014-03-29T20:40:35Z</time>
      </trkpt>
      <trkpt lat="49.5491" lon="0.57541">
        <ele>120.02462005615</ele>
        <time>2014-03-29T20:40:38Z</time>
      </trkpt>
      <trkpt lat="49.54913" lon="0.57531">
        <ele>118.96078491211</ele>
        <time>2014-03-29T20:40:43Z</time>
      </trkpt>
      <trkpt lat="49.54915" lon="0.57525">
        <ele>118.46325683594</ele>
        <time>2014-03-29T20:40:47Z</time>
      </trkpt>
      <trkpt lat="49.54918" lon="0.57517">
        <ele>117.77897644043</ele>
        <time>2014-03-29T20:40:52Z</time>
      </trkpt>
      <trkpt lat="49.54919" lon="0.57513">
        <ele>117.33799743652</ele>
        <time>2014-03-29T20:40:54Z</time>
      </trkpt>
      <trkpt lat="49.5492" lon="0.57512">
        <ele>117.2452545166</ele>
        <time>2014-03-29T20:40:56Z</time>
      </trkpt>
      <trkpt lat="49.54925" lon="0.57503">
        <ele>116.45989227295</ele>
        <time>2014-03-29T20:41:00Z</time>
      </trkpt>
      <trkpt lat="49.54931" lon="0.57484">
        <ele>114.56422424316</ele>
        <time>2014-03-29T20:41:07Z</time>
      </trkpt>
      <trkpt lat="49.54932" lon="0.57465">
        <ele>111.71875</ele>
        <time>2014-03-29T20:41:13Z</time>
      </trkpt>
      <trkpt lat="49.54931" lon="0.57456">
        <ele>110.37418365478</ele>
        <time>2014-03-29T20:41:16Z</time>
      </trkpt>
      <trkpt lat="49.54932" lon="0.57439">
        <ele>107.91102600098</ele>
        <time>2014-03-29T20:41:21Z</time>
      </trkpt>
      <trkpt lat="49.54937" lon="0.57427">
        <ele>107.05103302002</ele>
        <time>2014-03-29T20:41:25Z</time>
      </trkpt>
      <trkpt lat="49.54939" lon="0.57422">
        <ele>106.48146820068</ele>
        <time>2014-03-29T20:41:27Z</time>
      </trkpt>
      <trkpt lat="49.54942" lon="0.5741">
        <ele>106.10318756103</ele>
        <time>2014-03-29T20:41:32Z</time>
      </trkpt>
      <trkpt lat="49.54944" lon="0.57399">
        <ele>106.21478271484</ele>
        <time>2014-03-29T20:41:38Z</time>
      </trkpt>
      <trkpt lat="49.54945" lon="0.57395">
        <ele>106.1580581665</ele>
        <time>2014-03-29T20:41:40Z</time>
      </trkpt>
      <trkpt lat="49.5494" lon="0.57385">
        <ele>105.39877319336</ele>
        <time>2014-03-29T20:41:45Z</time>
      </trkpt>
      <trkpt lat="49.54936" lon="0.5738">
        <ele>104.79974365234</ele>
        <time>2014-03-29T20:41:51Z</time>
      </trkpt>
      <trkpt lat="49.54935" lon="0.57378">
        <ele>104.59003448486</ele>
        <time>2014-03-29T20:41:54Z</time>
      </trkpt>
      <trkpt lat="49.54935" lon="0.57377">
        <ele>104.57574462891</ele>
        <time>2014-03-29T20:42:00Z</time>
      </trkpt>
      <trkpt lat="49.54933" lon="0.57376">
        <ele>104.39476013184</ele>
        <time>2014-03-29T20:42:03Z</time>
      </trkpt>
      <trkpt lat="49.54923" lon="0.57388">
        <ele>103.15725708008</ele>
        <time>2014-03-29T20:42:08Z</time>
      </trkpt>
      <trkpt lat="49.54917" lon="0.57395">
        <ele>102.32894134522</ele>
        <time>2014-03-29T20:42:11Z</time>
      </trkpt>
      <trkpt lat="49.54909" lon="0.57403">
        <ele>101.46841430664</ele>
        <time>2014-03-29T20:42:15Z</time>
      </trkpt>
      <trkpt lat="49.54897" lon="0.57413">
        <ele>99.905464172363</ele>
        <time>2014-03-29T20:42:20Z</time>
      </trkpt>
      <trkpt lat="49.54883" lon="0.57426">
        <ele>99.033004760742</ele>
        <time>2014-03-29T20:42:26Z</time>
      </trkpt>
      <trkpt lat="49.54868" lon="0.57437">
        <ele>98.084442138672</ele>
        <time>2014-03-29T20:42:32Z</time>
      </trkpt>
      <trkpt lat="49.54855" lon="0.57445">
        <ele>96.755256652832</ele>
        <time>2014-03-29T20:42:37Z</time>
      </trkpt>
      <trkpt lat="49.54838" lon="0.57454">
        <ele>94.591468811035</ele>
        <time>2014-03-29T20:42:44Z</time>
      </trkpt>
      <trkpt lat="49.54826" lon="0.57459">
        <ele>93.157600402832</ele>
        <time>2014-03-29T20:42:49Z</time>
      </trkpt>
      <trkpt lat="49.54815" lon="0.57466">
        <ele>92.024383544922</ele>
        <time>2014-03-29T20:42:54Z</time>
      </trkpt>
      <trkpt lat="49.54805" lon="0.5747">
        <ele>90.866432189941</ele>
        <time>2014-03-29T20:42:59Z</time>
      </trkpt>
      <trkpt lat="49.54795" lon="0.57475">
        <ele>89.652137756348</ele>
        <time>2014-03-29T20:43:04Z</time>
      </trkpt>
      <trkpt lat="49.54782" lon="0.57481">
        <ele>87.936752319336</ele>
        <time>2014-03-29T20:43:10Z</time>
      </trkpt>
      <trkpt lat="49.54768" lon="0.57487">
        <ele>85.969589233398</ele>
        <time>2014-03-29T20:43:16Z</time>
      </trkpt>
      <trkpt lat="49.54757" lon="0.57492">
        <ele>84.167167663574</ele>
        <time>2014-03-29T20:43:21Z</time>
      </trkpt>
      <trkpt lat="49.54745" lon="0.575">
        <ele>83.363380432129</ele>
        <time>2014-03-29T20:43:27Z</time>
      </trkpt>
      <trkpt lat="49.54734" lon="0.57506">
        <ele>84.614601135254</ele>
        <time>2014-03-29T20:43:32Z</time>
      </trkpt>
      <trkpt lat="49.54723" lon="0.57511">
        <ele>85.665252685547</ele>
        <time>2014-03-29T20:43:37Z</time>
      </trkpt>
      <trkpt lat="49.54709" lon="0.57518">
        <ele>86.69261932373</ele>
        <time>2014-03-29T20:43:43Z</time>
      </trkpt>
      <trkpt lat="49.54708" lon="0.57518">
        <ele>86.800666809082</ele>
        <time>2014-03-29T20:43:44Z</time>
      </trkpt>
      <trkpt lat="49.54701" lon="0.57513">
        <ele>86.934036254883</ele>
        <time>2014-03-29T20:43:51Z</time>
      </trkpt>
      <trkpt lat="49.54698" lon="0.5751">
        <ele>87.006332397461</ele>
        <time>2014-03-29T20:43:57Z</time>
      </trkpt>
      <trkpt lat="49.54697" lon="0.57508">
        <ele>87.055519104004</ele>
        <time>2014-03-29T20:44:03Z</time>
      </trkpt>
      <trkpt lat="49.54694" lon="0.57508">
        <ele>87.191764831543</ele>
        <time>2014-03-29T20:44:12Z</time>
      </trkpt>
      <trkpt lat="49.54693" lon="0.57508">
        <ele>87.265548706055</ele>
        <time>2014-03-29T20:44:19Z</time>
      </trkpt>
      <trkpt lat="49.54691" lon="0.57509">
        <ele>87.448257446289</ele>
        <time>2014-03-29T20:44:24Z</time>
      </trkpt>
      <trkpt lat="49.54684" lon="0.57511">
        <ele>87.839988708496</ele>
        <time>2014-03-29T20:44:44Z</time>
      </trkpt>
      <trkpt lat="49.54682" lon="0.57511">
        <ele>87.971138000488</ele>
        <time>2014-03-29T20:44:49Z</time>
      </trkpt>
      <trkpt lat="49.54677" lon="0.5751">
        <ele>88.257949829102</ele>
        <time>2014-03-29T20:44:55Z</time>
      </trkpt>
      <trkpt lat="49.54674" lon="0.57509">
        <ele>88.463508605957</ele>
        <time>2014-03-29T20:45:00Z</time>
      </trkpt>
      <trkpt lat="49.54669" lon="0.57507">
        <ele>88.778205871582</ele>
        <time>2014-03-29T20:45:07Z</time>
      </trkpt>
      <trkpt lat="49.54665" lon="0.57505">
        <ele>89.225708007812</ele>
        <time>2014-03-29T20:45:13Z</time>
      </trkpt>
      <trkpt lat="49.54662" lon="0.57501">
        <ele>89.840972900391</ele>
        <time>2014-03-29T20:45:18Z</time>
      </trkpt>
      <trkpt lat="49.54659" lon="0.57498">
        <ele>90.289772033691</ele>
        <time>2014-03-29T20:45:24Z</time>
      </trkpt>
      <trkpt lat="49.54656" lon="0.57496">
        <ele>90.778381347656</ele>
        <time>2014-03-29T20:45:30Z</time>
      </trkpt>
      <trkpt lat="49.54652" lon="0.57494">
        <ele>91.336227416992</ele>
        <time>2014-03-29T20:45:35Z</time>
      </trkpt>
      <trkpt lat="49.54649" lon="0.57492">
        <ele>91.901443481445</ele>
        <time>2014-03-29T20:45:40Z</time>
      </trkpt>
      <trkpt lat="49.54646" lon="0.57491">
        <ele>92.402038574219</ele>
        <time>2014-03-29T20:45:45Z</time>
      </trkpt>
      <trkpt lat="49.54642" lon="0.5749">
        <ele>93.041885375977</ele>
        <time>2014-03-29T20:45:51Z</time>
      </trkpt>
      <trkpt lat="49.54638" lon="0.57492">
        <ele>93.83570098877</ele>
        <time>2014-03-29T20:45:57Z</time>
      </trkpt>
      <trkpt lat="49.54634" lon="0.57492">
        <ele>94.416519165039</ele>
        <time>2014-03-29T20:46:01Z</time>
      </trkpt>
      <trkpt lat="49.54633" lon="0.57492">
        <ele>94.673149108887</ele>
        <time>2014-03-29T20:46:03Z</time>
      </trkpt>
      <trkpt lat="49.5463" lon="0.57489">
        <ele>95.16584777832</ele>
        <time>2014-03-29T20:46:09Z</time>
      </trkpt>
      <trkpt lat="49.54627" lon="0.57485">
        <ele>95.595771789551</ele>
        <time>2014-03-29T20:46:14Z</time>
      </trkpt>
      <trkpt lat="49.54623" lon="0.5748">
        <ele>96.150695800781</ele>
        <time>2014-03-29T20:46:21Z</time>
      </trkpt>
      <trkpt lat="49.54622" lon="0.57475">
        <ele>96.45076751709</ele>
        <time>2014-03-29T20:46:25Z</time>
      </trkpt>
      <trkpt lat="49.54616" lon="0.57467">
        <ele>97.326354980469</ele>
        <time>2014-03-29T20:46:32Z</time>
      </trkpt>
      <trkpt lat="49.54615" lon="0.57465">
        <ele>97.582595825195</ele>
        <time>2014-03-29T20:46:33Z</time>
      </trkpt>
      <trkpt lat="49.54612" lon="0.57459">
        <ele>98.086395263672</ele>
        <time>2014-03-29T20:46:38Z</time>
      </trkpt>
      <trkpt lat="49.54611" lon="0.57458">
        <ele>98.147979736328</ele>
        <time>2014-03-29T20:46:39Z</time>
      </trkpt>
      <trkpt lat="49.54609" lon="0.57456">
        <ele>98.472785949707</ele>
        <time>2014-03-29T20:46:41Z</time>
      </trkpt>
      <trkpt lat="49.54606" lon="0.5745">
        <ele>98.985740661621</ele>
        <time>2014-03-29T20:46:45Z</time>
      </trkpt>
      <trkpt lat="49.54603" lon="0.57446">
        <ele>99.508140563965</ele>
        <time>2014-03-29T20:46:50Z</time>
      </trkpt>
      <trkpt lat="49.546" lon="0.57442">
        <ele>100.10363006592</ele>
        <time>2014-03-29T20:46:53Z</time>
      </trkpt>
      <trkpt lat="49.54595" lon="0.57434">
        <ele>100.96449279785</ele>
        <time>2014-03-29T20:46:59Z</time>
      </trkpt>
      <trkpt lat="49.54589" lon="0.57427">
        <ele>102.04180145264</ele>
        <time>2014-03-29T20:47:04Z</time>
      </trkpt>
      <trkpt lat="49.54581" lon="0.57419">
        <ele>103.33931732178</ele>
        <time>2014-03-29T20:47:11Z</time>
      </trkpt>
      <trkpt lat="49.54579" lon="0.57416">
        <ele>103.70824432373</ele>
        <time>2014-03-29T20:47:13Z</time>
      </trkpt>
      <trkpt lat="49.54576" lon="0.57412">
        <ele>103.93644714356</ele>
        <time>2014-03-29T20:47:16Z</time>
      </trkpt>
      <trkpt lat="49.54573" lon="0.57409">
        <ele>104.26196289062</ele>
        <time>2014-03-29T20:47:21Z</time>
      </trkpt>
      <trkpt lat="49.54569" lon="0.57404">
        <ele>104.67684936523</ele>
        <time>2014-03-29T20:47:25Z</time>
      </trkpt>
      <trkpt lat="49.54564" lon="0.57395">
        <ele>104.79446411133</ele>
        <time>2014-03-29T20:47:31Z</time>
      </trkpt>
      <trkpt lat="49.54561" lon="0.57389">
        <ele>104.8793258667</ele>
        <time>2014-03-29T20:47:35Z</time>
      </trkpt>
      <trkpt lat="49.54558" lon="0.57386">
        <ele>105.24850463867</ele>
        <time>2014-03-29T20:47:38Z</time>
      </trkpt>
      <trkpt lat="49.54554" lon="0.5738">
        <ele>105.4633102417</ele>
        <time>2014-03-29T20:47:42Z</time>
      </trkpt>
      <trkpt lat="49.54549" lon="0.5737">
        <ele>105.58522796631</ele>
        <time>2014-03-29T20:47:47Z</time>
      </trkpt>
      <trkpt lat="49.54546" lon="0.57367">
        <ele>105.7783203125</ele>
        <time>2014-03-29T20:47:49Z</time>
      </trkpt>
      <trkpt lat="49.54544" lon="0.57364">
        <ele>105.92332458496</ele>
        <time>2014-03-29T20:47:51Z</time>
      </trkpt>
      <trkpt lat="49.5454" lon="0.57355">
        <ele>105.9215927124</ele>
        <time>2014-03-29T20:47:56Z</time>
      </trkpt>
      <trkpt lat="49.54536" lon="0.57344">
        <ele>105.8161239624</ele>
        <time>2014-03-29T20:48:02Z</time>
      </trkpt>
      <trkpt lat="49.54535" lon="0.57343">
        <ele>105.81380462647</ele>
        <time>2014-03-29T20:48:03Z</time>
      </trkpt>
      <trkpt lat="49.54533" lon="0.5734">
        <ele>106.00493621826</ele>
        <time>2014-03-29T20:48:06Z</time>
      </trkpt>
      <trkpt lat="49.54531" lon="0.5734">
        <ele>106.28887939453</ele>
        <time>2014-03-29T20:48:13Z</time>
      </trkpt>
      <trkpt lat="49.54528" lon="0.57342">
        <ele>107.0419845581</ele>
        <time>2014-03-29T20:48:21Z</time>
      </trkpt>
      <trkpt lat="49.54527" lon="0.57345">
        <ele>107.50186157227</ele>
        <time>2014-03-29T20:48:26Z</time>
      </trkpt>
      <trkpt lat="49.54527" lon="0.57349">
        <ele>107.80247497559</ele>
        <time>2014-03-29T20:48:31Z</time>
      </trkpt>
      <trkpt lat="49.54526" lon="0.57353">
        <ele>108.22142791748</ele>
        <time>2014-03-29T20:48:35Z</time>
      </trkpt>
      <trkpt lat="49.54526" lon="0.57359">
        <ele>108.75072479248</ele>
        <time>2014-03-29T20:48:41Z</time>
      </trkpt>
      <trkpt lat="49.54525" lon="0.57365">
        <ele>109.37501525879</ele>
        <time>2014-03-29T20:48:46Z</time>
      </trkpt>
      <trkpt lat="49.54524" lon="0.57371">
        <ele>110.04733276367</ele>
        <time>2014-03-29T20:48:52Z</time>
      </trkpt>
      <trkpt lat="49.54522" lon="0.57379">
        <ele>110.9023513794</ele>
        <time>2014-03-29T20:48:59Z</time>
      </trkpt>
      <trkpt lat="49.54521" lon="0.57385">
        <ele>111.65580749512</ele>
        <time>2014-03-29T20:49:05Z</time>
      </trkpt>
      <trkpt lat="49.5452" lon="0.57391">
        <ele>112.3359451294</ele>
        <time>2014-03-29T20:49:10Z</time>
      </trkpt>
      <trkpt lat="49.5452" lon="0.57393">
        <ele>112.4635848999</ele>
        <time>2014-03-29T20:49:11Z</time>
      </trkpt>
      <trkpt lat="49.5452" lon="0.57402">
        <ele>113.26197814941</ele>
        <time>2014-03-29T20:49:16Z</time>
      </trkpt>
      <trkpt lat="49.5452" lon="0.5742">
        <ele>114.48857116699</ele>
        <time>2014-03-29T20:49:25Z</time>
      </trkpt>
      <trkpt lat="49.54519" lon="0.5743">
        <ele>114.79741668701</ele>
        <time>2014-03-29T20:49:31Z</time>
      </trkpt>
      <trkpt lat="49.54519" lon="0.57436">
        <ele>114.85216522217</ele>
        <time>2014-03-29T20:49:34Z</time>
      </trkpt>
      <trkpt lat="49.54519" lon="0.57449">
        <ele>114.96555328369</ele>
        <time>2014-03-29T20:49:42Z</time>
      </trkpt>
      <trkpt lat="49.54519" lon="0.57455">
        <ele>114.95748138428</ele>
        <time>2014-03-29T20:49:50Z</time>
      </trkpt>
      <trkpt lat="49.5452" lon="0.57462">
        <ele>114.80548858643</ele>
        <time>2014-03-29T20:49:55Z</time>
      </trkpt>
      <trkpt lat="49.54522" lon="0.57465">
        <ele>114.40637207031</ele>
        <time>2014-03-29T20:50:01Z</time>
      </trkpt>
      <trkpt lat="49.54527" lon="0.57469">
        <ele>113.50846862793</ele>
        <time>2014-03-29T20:50:08Z</time>
      </trkpt>
      <trkpt lat="49.54533" lon="0.57471">
        <ele>112.52339935303</ele>
        <time>2014-03-29T20:50:13Z</time>
      </trkpt>
      <trkpt lat="49.54538" lon="0.57474">
        <ele>111.54383087158</ele>
        <time>2014-03-29T20:50:18Z</time>
      </trkpt>
      <trkpt lat="49.54543" lon="0.57476">
        <ele>110.61813354492</ele>
        <time>2014-03-29T20:50:35Z</time>
      </trkpt>
      <trkpt lat="49.54539" lon="0.57473">
        <ele>111.3212966919</ele>
        <time>2014-03-29T20:50:45Z</time>
      </trkpt>
      <trkpt lat="49.54534" lon="0.57473">
        <ele>112.32417297363</ele>
        <time>2014-03-29T20:50:52Z</time>
      </trkpt>
      <trkpt lat="49.54532" lon="0.57473">
        <ele>112.68090057373</ele>
        <time>2014-03-29T20:50:54Z</time>
      </trkpt>
      <trkpt lat="49.54527" lon="0.57473">
        <ele>113.54401397705</ele>
        <time>2014-03-29T20:50:59Z</time>
      </trkpt>
      <trkpt lat="49.54523" lon="0.57474">
        <ele>114.41622924805</ele>
        <time>2014-03-29T20:51:04Z</time>
      </trkpt>
      <trkpt lat="49.54522" lon="0.57476">
        <ele>114.57211303711</ele>
        <time>2014-03-29T20:51:06Z</time>
      </trkpt>
      <trkpt lat="49.5452" lon="0.57484">
        <ele>115.00335693359</ele>
        <time>2014-03-29T20:51:11Z</time>
      </trkpt>
      <trkpt lat="49.54521" lon="0.57492">
        <ele>114.93146514893</ele>
        <time>2014-03-29T20:51:17Z</time>
      </trkpt>
      <trkpt lat="49.54521" lon="0.57496">
        <ele>114.96775054932</ele>
        <time>2014-03-29T20:51:20Z</time>
      </trkpt>
      <trkpt lat="49.54521" lon="0.57505">
        <ele>115.17451477051</ele>
        <time>2014-03-29T20:51:26Z</time>
      </trkpt>
      <trkpt lat="49.5452" lon="0.57514">
        <ele>115.53694915772</ele>
        <time>2014-03-29T20:51:34Z</time>
      </trkpt>
      <trkpt lat="49.54521" lon="0.57522">
        <ele>115.73434448242</ele>
        <time>2014-03-29T20:51:41Z</time>
      </trkpt>
      <trkpt lat="49.54521" lon="0.57529">
        <ele>115.88013458252</ele>
        <time>2014-03-29T20:51:46Z</time>
      </trkpt>
      <trkpt lat="49.54521" lon="0.57534">
        <ele>116.1396560669</ele>
        <time>2014-03-29T20:51:50Z</time>
      </trkpt>
      <trkpt lat="49.54524" lon="0.57545">
        <ele>115.71074676514</ele>
        <time>2014-03-29T20:51:56Z</time>
      </trkpt>
      <trkpt lat="49.54527" lon="0.5755">
        <ele>115.17636108398</ele>
        <time>2014-03-29T20:52:01Z</time>
      </trkpt>
      <trkpt lat="49.5453" lon="0.57553">
        <ele>114.73062896728</ele>
        <time>2014-03-29T20:52:08Z</time>
      </trkpt>
      <trkpt lat="49.54533" lon="0.57557">
        <ele>114.14205932617</ele>
        <time>2014-03-29T20:52:14Z</time>
      </trkpt>
      <trkpt lat="49.54536" lon="0.5756">
        <ele>113.40981292725</ele>
        <time>2014-03-29T20:52:19Z</time>
      </trkpt>
      <trkpt lat="49.54538" lon="0.57566">
        <ele>113.067237854</ele>
        <time>2014-03-29T20:52:26Z</time>
      </trkpt>
      <trkpt lat="49.54541" lon="0.57576">
        <ele>112.61996459961</ele>
        <time>2014-03-29T20:53:10Z</time>
      </trkpt>
      <trkpt lat="49.54541" lon="0.57576">
        <ele>112.53414154053</ele>
        <time>2014-03-29T20:53:23Z</time>
      </trkpt>
      <trkpt lat="49.54539" lon="0.57573">
        <ele>112.94718170166</ele>
        <time>2014-03-29T20:53:32Z</time>
      </trkpt>
      <trkpt lat="49.54537" lon="0.57571">
        <ele>113.4592666626</ele>
        <time>2014-03-29T20:53:37Z</time>
      </trkpt>
      <trkpt lat="49.54536" lon="0.5757">
        <ele>113.70169830322</ele>
        <time>2014-03-29T20:53:41Z</time>
      </trkpt>
      <trkpt lat="49.54532" lon="0.57568">
        <ele>114.48442077637</ele>
        <time>2014-03-29T20:53:46Z</time>
      </trkpt>
      <trkpt lat="49.54529" lon="0.57565">
        <ele>115.14404296875</ele>
        <time>2014-03-29T20:53:51Z</time>
      </trkpt>
      <trkpt lat="49.54527" lon="0.57559">
        <ele>115.44561004639</ele>
        <time>2014-03-29T20:53:58Z</time>
      </trkpt>
      <trkpt lat="49.54526" lon="0.57553">
        <ele>115.60577392578</ele>
        <time>2014-03-29T20:54:12Z</time>
      </trkpt>
      <trkpt lat="49.54524" lon="0.57546">
        <ele>115.75991821289</ele>
        <time>2014-03-29T20:54:33Z</time>
      </trkpt>
      <trkpt lat="49.54523" lon="0.57533">
        <ele>115.52301025391</ele>
        <time>2014-03-29T20:54:38Z</time>
      </trkpt>
      <trkpt lat="49.5452" lon="0.57523">
        <ele>115.86028289795</ele>
        <time>2014-03-29T20:54:42Z</time>
      </trkpt>
      <trkpt lat="49.5452" lon="0.57521">
        <ele>115.77076721191</ele>
        <time>2014-03-29T20:54:43Z</time>
      </trkpt>
      <trkpt lat="49.5452" lon="0.57504">
        <ele>115.29637145996</ele>
        <time>2014-03-29T20:54:49Z</time>
      </trkpt>
      <trkpt lat="49.5452" lon="0.57499">
        <ele>115.14874267578</ele>
        <time>2014-03-29T20:54:52Z</time>
      </trkpt>
      <trkpt lat="49.54519" lon="0.57491">
        <ele>115.21401977539</ele>
        <time>2014-03-29T20:54:59Z</time>
      </trkpt>
      <trkpt lat="49.54519" lon="0.57489">
        <ele>115.34568023682</ele>
        <time>2014-03-29T20:55:04Z</time>
      </trkpt>
      <trkpt lat="49.54516" lon="0.57484">
        <ele>115.80783081055</ele>
        <time>2014-03-29T20:55:14Z</time>
      </trkpt>
      <trkpt lat="49.54513" lon="0.57483">
        <ele>116.30020904541</ele>
        <time>2014-03-29T20:55:17Z</time>
      </trkpt>
      <trkpt lat="49.54506" lon="0.57482">
        <ele>117.58605957031</ele>
        <time>2014-03-29T20:55:24Z</time>
      </trkpt>
      <trkpt lat="49.54503" lon="0.57482">
        <ele>118.23752593994</ele>
        <time>2014-03-29T20:55:28Z</time>
      </trkpt>
      <trkpt lat="49.54499" lon="0.57483">
        <ele>118.91702270508</ele>
        <time>2014-03-29T20:55:33Z</time>
      </trkpt>
      <trkpt lat="49.54493" lon="0.57482">
        <ele>119.45070648193</ele>
        <time>2014-03-29T20:55:38Z</time>
      </trkpt>
      <trkpt lat="49.54491" lon="0.57483">
        <ele>119.63417053223</ele>
        <time>2014-03-29T20:55:40Z</time>
      </trkpt>
      <trkpt lat="49.54485" lon="0.57484">
        <ele>120.24715423584</ele>
        <time>2014-03-29T20:55:47Z</time>
      </trkpt>
      <trkpt lat="49.54479" lon="0.57487">
        <ele>120.74535369873</ele>
        <time>2014-03-29T20:55:52Z</time>
      </trkpt>
      <trkpt lat="49.54477" lon="0.57488">
        <ele>120.9529800415</ele>
        <time>2014-03-29T20:55:54Z</time>
      </trkpt>
      <trkpt lat="49.54475" lon="0.57489">
        <ele>121.12535095215</ele>
        <time>2014-03-29T20:55:56Z</time>
      </trkpt>
      <trkpt lat="49.54472" lon="0.57491">
        <ele>121.3572845459</ele>
        <time>2014-03-29T20:56:01Z</time>
      </trkpt>
      <trkpt lat="49.54468" lon="0.57493">
        <ele>121.7513961792</ele>
        <time>2014-03-29T20:56:05Z</time>
      </trkpt>
      <trkpt lat="49.54459" lon="0.57497">
        <ele>122.44602966309</ele>
        <time>2014-03-29T20:56:13Z</time>
      </trkpt>
      <trkpt lat="49.54455" lon="0.57498">
        <ele>122.78556060791</ele>
        <time>2014-03-29T20:56:18Z</time>
      </trkpt>
      <trkpt lat="49.54449" lon="0.57503">
        <ele>123.32307434082</ele>
        <time>2014-03-29T20:56:26Z</time>
      </trkpt>
      <trkpt lat="49.54449" lon="0.57504">
        <ele>123.42052459717</ele>
        <time>2014-03-29T20:56:27Z</time>
      </trkpt>
      <trkpt lat="49.54445" lon="0.57511">
        <ele>123.91569519043</ele>
        <time>2014-03-29T20:56:36Z</time>
      </trkpt>
      <trkpt lat="49.54441" lon="0.57514">
        <ele>124.28579711914</ele>
        <time>2014-03-29T20:56:41Z</time>
      </trkpt>
      <trkpt lat="49.54438" lon="0.57512">
        <ele>124.4540939331</ele>
        <time>2014-03-29T20:56:46Z</time>
      </trkpt>
      <trkpt lat="49.54436" lon="0.57509">
        <ele>124.5266494751</ele>
        <time>2014-03-29T20:56:48Z</time>
      </trkpt>
      <trkpt lat="49.54434" lon="0.57505">
        <ele>124.64762115478</ele>
        <time>2014-03-29T20:56:52Z</time>
      </trkpt>
      <trkpt lat="49.54428" lon="0.57496">
        <ele>125.14933776856</ele>
        <time>2014-03-29T20:56:59Z</time>
      </trkpt>
      <trkpt lat="49.54425" lon="0.57492">
        <ele>125.55716705322</ele>
        <time>2014-03-29T20:57:05Z</time>
      </trkpt>
      <trkpt lat="49.54421" lon="0.5748">
        <ele>126.32891082764</ele>
        <time>2014-03-29T20:57:13Z</time>
      </trkpt>
      <trkpt lat="49.54419" lon="0.57473">
        <ele>126.77675628662</ele>
        <time>2014-03-29T20:57:18Z</time>
      </trkpt>
      <trkpt lat="49.54416" lon="0.57466">
        <ele>127.23550415039</ele>
        <time>2014-03-29T20:57:23Z</time>
      </trkpt>
      <trkpt lat="49.54411" lon="0.5746">
        <ele>127.50197601318</ele>
        <time>2014-03-29T20:57:28Z</time>
      </trkpt>
      <trkpt lat="49.54406" lon="0.57452">
        <ele>127.82917022705</ele>
        <time>2014-03-29T20:57:34Z</time>
      </trkpt>
      <trkpt lat="49.54406" lon="0.57451">
        <ele>127.88666534424</ele>
        <time>2014-03-29T20:57:35Z</time>
      </trkpt>
      <trkpt lat="49.54404" lon="0.57447">
        <ele>128.02952575684</ele>
        <time>2014-03-29T20:57:37Z</time>
      </trkpt>
      <trkpt lat="49.54398" lon="0.57436">
        <ele>128.40809631348</ele>
        <time>2014-03-29T20:57:43Z</time>
      </trkpt>
      <trkpt lat="49.54392" lon="0.57428">
        <ele>128.67375183106</ele>
        <time>2014-03-29T20:57:49Z</time>
      </trkpt>
      <trkpt lat="49.54389" lon="0.57424">
        <ele>128.79225158691</ele>
        <time>2014-03-29T20:57:52Z</time>
      </trkpt>
      <trkpt lat="49.54387" lon="0.5742">
        <ele>128.91275024414</ele>
        <time>2014-03-29T20:57:55Z</time>
      </trkpt>
      <trkpt lat="49.54384" lon="0.57408">
        <ele>128.93327331543</ele>
        <time>2014-03-29T20:58:02Z</time>
      </trkpt>
      <trkpt lat="49.54382" lon="0.57397">
        <ele>128.88243103027</ele>
        <time>2014-03-29T20:58:07Z</time>
      </trkpt>
      <trkpt lat="49.54376" lon="0.57385">
        <ele>128.96617126465</ele>
        <time>2014-03-29T20:58:13Z</time>
      </trkpt>
      <trkpt lat="49.54372" lon="0.57374">
        <ele>129.12396240234</ele>
        <time>2014-03-29T20:58:19Z</time>
      </trkpt>
      <trkpt lat="49.54371" lon="0.57372">
        <ele>129.15921020508</ele>
        <time>2014-03-29T20:58:20Z</time>
      </trkpt>
      <trkpt lat="49.5437" lon="0.57369">
        <ele>129.21672058106</ele>
        <time>2014-03-29T20:58:22Z</time>
      </trkpt>
      <trkpt lat="49.54367" lon="0.57361">
        <ele>129.39889526367</ele>
        <time>2014-03-29T20:58:26Z</time>
      </trkpt>
      <trkpt lat="49.54366" lon="0.57358">
        <ele>129.48355102539</ele>
        <time>2014-03-29T20:58:28Z</time>
      </trkpt>
      <trkpt lat="49.54363" lon="0.57351">
        <ele>129.6641998291</ele>
        <time>2014-03-29T20:58:32Z</time>
      </trkpt>
      <trkpt lat="49.5436" lon="0.57345">
        <ele>129.94139099121</ele>
        <time>2014-03-29T20:58:36Z</time>
      </trkpt>
      <trkpt lat="49.54354" lon="0.57339">
        <ele>130.37431335449</ele>
        <time>2014-03-29T20:58:41Z</time>
      </trkpt>
      <trkpt lat="49.54351" lon="0.57337">
        <ele>130.65232849121</ele>
        <time>2014-03-29T20:58:43Z</time>
      </trkpt>
      <trkpt lat="49.54343" lon="0.57331">
        <ele>131.27185058594</ele>
        <time>2014-03-29T20:58:48Z</time>
      </trkpt>
      <trkpt lat="49.54341" lon="0.57327">
        <ele>131.45051574707</ele>
        <time>2014-03-29T20:58:51Z</time>
      </trkpt>
      <trkpt lat="49.54339" lon="0.57325">
        <ele>131.64540100098</ele>
        <time>2014-03-29T20:58:54Z</time>
      </trkpt>
      <trkpt lat="49.54337" lon="0.57325">
        <ele>131.83001708984</ele>
        <time>2014-03-29T20:58:59Z</time>
      </trkpt>
      <trkpt lat="49.54332" lon="0.57316">
        <ele>132.25819396973</ele>
        <time>2014-03-29T20:59:06Z</time>
      </trkpt>
      <trkpt lat="49.5433" lon="0.57312">
        <ele>132.34239196777</ele>
        <time>2014-03-29T20:59:12Z</time>
      </trkpt>
      <trkpt lat="49.5433" lon="0.5731">
        <ele>132.36009216309</ele>
        <time>2014-03-29T20:59:15Z</time>
      </trkpt>
      <trkpt lat="49.54333" lon="0.57304">
        <ele>132.32853698731</ele>
        <time>2014-03-29T20:59:20Z</time>
      </trkpt>
      <trkpt lat="49.54332" lon="0.57289">
        <ele>132.54986572266</ele>
        <time>2014-03-29T20:59:27Z</time>
      </trkpt>
      <trkpt lat="49.54332" lon="0.57285">
        <ele>132.61888122559</ele>
        <time>2014-03-29T20:59:30Z</time>
      </trkpt>
      <trkpt lat="49.54329" lon="0.57275">
        <ele>132.78283691406</ele>
        <time>2014-03-29T20:59:38Z</time>
      </trkpt>
      <trkpt lat="49.54324" lon="0.57261">
        <ele>133.00796508789</ele>
        <time>2014-03-29T20:59:43Z</time>
      </trkpt>
      <trkpt lat="49.54319" lon="0.57249">
        <ele>133.12852478027</ele>
        <time>2014-03-29T20:59:49Z</time>
      </trkpt>
      <trkpt lat="49.54314" lon="0.57236">
        <ele>132.63148498535</ele>
        <time>2014-03-29T20:59:53Z</time>
      </trkpt>
      <trkpt lat="49.54309" lon="0.57225">
        <ele>132.3141784668</ele>
        <time>2014-03-29T20:59:57Z</time>
      </trkpt>
      <trkpt lat="49.54302" lon="0.57208">
        <ele>131.99510192871</ele>
        <time>2014-03-29T21:00:03Z</time>
      </trkpt>
      <trkpt lat="49.54294" lon="0.57193">
        <ele>131.98121643066</ele>
        <time>2014-03-29T21:00:08Z</time>
      </trkpt>
      <trkpt lat="49.54288" lon="0.57182">
        <ele>132.14067077637</ele>
        <time>2014-03-29T21:00:13Z</time>
      </trkpt>
      <trkpt lat="49.54287" lon="0.5718">
        <ele>132.16481018066</ele>
        <time>2014-03-29T21:00:14Z</time>
      </trkpt>
      <trkpt lat="49.5428" lon="0.57164">
        <ele>132.45051574707</ele>
        <time>2014-03-29T21:00:19Z</time>
      </trkpt>
      <trkpt lat="49.54274" lon="0.57149">
        <ele>132.8942565918</ele>
        <time>2014-03-29T21:00:24Z</time>
      </trkpt>
      <trkpt lat="49.5427" lon="0.57137">
        <ele>133.23078918457</ele>
        <time>2014-03-29T21:00:28Z</time>
      </trkpt>
      <trkpt lat="49.54264" lon="0.57117">
        <ele>133.86476135254</ele>
        <time>2014-03-29T21:00:34Z</time>
      </trkpt>
      <trkpt lat="49.54261" lon="0.57106">
        <ele>134.37129211426</ele>
        <time>2014-03-29T21:00:38Z</time>
      </trkpt>
      <trkpt lat="49.54259" lon="0.57103">
        <ele>134.53103637695</ele>
        <time>2014-03-29T21:00:39Z</time>
      </trkpt>
      <trkpt lat="49.54253" lon="0.57093">
        <ele>135.4216003418</ele>
        <time>2014-03-29T21:00:43Z</time>
      </trkpt>
      <trkpt lat="49.54247" lon="0.57079">
        <ele>135.82385253906</ele>
        <time>2014-03-29T21:00:48Z</time>
      </trkpt>
      <trkpt lat="49.54242" lon="0.57066">
        <ele>135.41627502441</ele>
        <time>2014-03-29T21:00:52Z</time>
      </trkpt>
      <trkpt lat="49.54235" lon="0.5705">
        <ele>134.98643493652</ele>
        <time>2014-03-29T21:00:57Z</time>
      </trkpt>
      <trkpt lat="49.54229" lon="0.57037">
        <ele>134.6555480957</ele>
        <time>2014-03-29T21:01:02Z</time>
      </trkpt>
      <trkpt lat="49.54222" lon="0.57022">
        <ele>134.34535217285</ele>
        <time>2014-03-29T21:01:07Z</time>
      </trkpt>
      <trkpt lat="49.54216" lon="0.57007">
        <ele>134.10125732422</ele>
        <time>2014-03-29T21:01:13Z</time>
      </trkpt>
      <trkpt lat="49.54214" lon="0.56995">
        <ele>133.92387390137</ele>
        <time>2014-03-29T21:01:19Z</time>
      </trkpt>
      <trkpt lat="49.54214" lon="0.56991">
        <ele>133.85049438477</ele>
        <time>2014-03-29T21:01:21Z</time>
      </trkpt>
      <trkpt lat="49.54219" lon="0.56984">
        <ele>133.6619720459</ele>
        <time>2014-03-29T21:01:27Z</time>
      </trkpt>
      <trkpt lat="49.54223" lon="0.56977">
        <ele>133.44473266602</ele>
        <time>2014-03-29T21:01:31Z</time>
      </trkpt>
      <trkpt lat="49.54228" lon="0.56973">
        <ele>133.21342468262</ele>
        <time>2014-03-29T21:01:36Z</time>
      </trkpt>
      <trkpt lat="49.54234" lon="0.5697">
        <ele>132.97328186035</ele>
        <time>2014-03-29T21:01:41Z</time>
      </trkpt>
      <trkpt lat="49.54238" lon="0.56967">
        <ele>132.76387023926</ele>
        <time>2014-03-29T21:01:44Z</time>
      </trkpt>
      <trkpt lat="49.54241" lon="0.5696">
        <ele>132.4139251709</ele>
        <time>2014-03-29T21:01:50Z</time>
      </trkpt>
      <trkpt lat="49.54244" lon="0.56955">
        <ele>132.06953430176</ele>
        <time>2014-03-29T21:01:54Z</time>
      </trkpt>
      <trkpt lat="49.54247" lon="0.56945">
        <ele>131.48181152344</ele>
        <time>2014-03-29T21:02:00Z</time>
      </trkpt>
      <trkpt lat="49.54247" lon="0.56943">
        <ele>131.39909362793</ele>
        <time>2014-03-29T21:02:01Z</time>
      </trkpt>
      <trkpt lat="49.54248" lon="0.56939">
        <ele>131.17492675781</ele>
        <time>2014-03-29T21:02:07Z</time>
      </trkpt>
      <trkpt lat="49.54253" lon="0.5693">
        <ele>130.17105102539</ele>
        <time>2014-03-29T21:02:15Z</time>
      </trkpt>
      <trkpt lat="49.54259" lon="0.56927">
        <ele>129.13163757324</ele>
        <time>2014-03-29T21:02:19Z</time>
      </trkpt>
      <trkpt lat="49.54265" lon="0.56919">
        <ele>127.73921966553</ele>
        <time>2014-03-29T21:02:25Z</time>
      </trkpt>
      <trkpt lat="49.54266" lon="0.56917">
        <ele>127.53859710693</ele>
        <time>2014-03-29T21:02:26Z</time>
      </trkpt>
      <trkpt lat="49.5427" lon="0.56913">
        <ele>126.52136993408</ele>
        <time>2014-03-29T21:02:30Z</time>
      </trkpt>
      <trkpt lat="49.54272" lon="0.56913">
        <ele>126.14527893066</ele>
        <time>2014-03-29T21:02:32Z</time>
      </trkpt>
      <trkpt lat="49.54279" lon="0.5691">
        <ele>124.90658569336</ele>
        <time>2014-03-29T21:02:37Z</time>
      </trkpt>
      <trkpt lat="49.5428" lon="0.56909">
        <ele>124.6236038208</ele>
        <time>2014-03-29T21:02:38Z</time>
      </trkpt>
      <trkpt lat="49.54281" lon="0.56906">
        <ele>124.09941101074</ele>
        <time>2014-03-29T21:02:40Z</time>
      </trkpt>
      <trkpt lat="49.54286" lon="0.56899">
        <ele>122.59818267822</ele>
        <time>2014-03-29T21:02:45Z</time>
      </trkpt>
      <trkpt lat="49.54287" lon="0.56898">
        <ele>122.37957763672</ele>
        <time>2014-03-29T21:02:46Z</time>
      </trkpt>
      <trkpt lat="49.54292" lon="0.56893">
        <ele>121.08428192139</ele>
        <time>2014-03-29T21:02:51Z</time>
      </trkpt>
      <trkpt lat="49.54296" lon="0.5689">
        <ele>120.00775146484</ele>
        <time>2014-03-29T21:02:56Z</time>
      </trkpt>
      <trkpt lat="49.54299" lon="0.56888">
        <ele>119.40486907959</ele>
        <time>2014-03-29T21:02:59Z</time>
      </trkpt>
      <trkpt lat="49.54305" lon="0.56883">
        <ele>118.00183105469</ele>
        <time>2014-03-29T21:03:05Z</time>
      </trkpt>
      <trkpt lat="49.54307" lon="0.56879">
        <ele>117.24000549316</ele>
        <time>2014-03-29T21:03:08Z</time>
      </trkpt>
      <trkpt lat="49.54308" lon="0.56875">
        <ele>116.52206420898</ele>
        <time>2014-03-29T21:03:10Z</time>
      </trkpt>
      <trkpt lat="49.54311" lon="0.56864">
        <ele>114.93213653565</ele>
        <time>2014-03-29T21:03:16Z</time>
      </trkpt>
      <trkpt lat="49.54318" lon="0.56857">
        <ele>113.14589691162</ele>
        <time>2014-03-29T21:03:21Z</time>
      </trkpt>
      <trkpt lat="49.54322" lon="0.56857">
        <ele>112.2988357544</ele>
        <time>2014-03-29T21:03:25Z</time>
      </trkpt>
      <trkpt lat="49.54323" lon="0.56856">
        <ele>112.16495513916</ele>
        <time>2014-03-29T21:03:26Z</time>
      </trkpt>
      <trkpt lat="49.54327" lon="0.5685">
        <ele>110.8371963501</ele>
        <time>2014-03-29T21:03:31Z</time>
      </trkpt>
      <trkpt lat="49.54329" lon="0.56845">
        <ele>110.05680847168</ele>
        <time>2014-03-29T21:03:34Z</time>
      </trkpt>
      <trkpt lat="49.54329" lon="0.56838">
        <ele>109.32381439209</ele>
        <time>2014-03-29T21:03:37Z</time>
      </trkpt>
      <trkpt lat="49.5433" lon="0.56826">
        <ele>107.77462005615</ele>
        <time>2014-03-29T21:03:43Z</time>
      </trkpt>
      <trkpt lat="49.54329" lon="0.56818">
        <ele>107.24990844727</ele>
        <time>2014-03-29T21:03:48Z</time>
      </trkpt>
      <trkpt lat="49.54325" lon="0.56809">
        <ele>107.01244354248</ele>
        <time>2014-03-29T21:03:55Z</time>
      </trkpt>
      <trkpt lat="49.54322" lon="0.56804">
        <ele>107.07424163818</ele>
        <time>2014-03-29T21:04:01Z</time>
      </trkpt>
      <trkpt lat="49.54319" lon="0.56797">
        <ele>106.88999176025</ele>
        <time>2014-03-29T21:04:09Z</time>
      </trkpt>
      <trkpt lat="49.54316" lon="0.56792">
        <ele>107.00443267822</ele>
        <time>2014-03-29T21:04:14Z</time>
      </trkpt>
      <trkpt lat="49.54313" lon="0.56788">
        <ele>107.09484100342</ele>
        <time>2014-03-29T21:04:17Z</time>
      </trkpt>
      <trkpt lat="49.54308" lon="0.56781">
        <ele>107.14576721191</ele>
        <time>2014-03-29T21:04:24Z</time>
      </trkpt>
      <trkpt lat="49.54307" lon="0.56779">
        <ele>107.20756530762</ele>
        <time>2014-03-29T21:04:26Z</time>
      </trkpt>
      <trkpt lat="49.54302" lon="0.56773">
        <ele>107.45018005371</ele>
        <time>2014-03-29T21:04:30Z</time>
      </trkpt>
      <trkpt lat="49.543" lon="0.56769">
        <ele>107.47592926025</ele>
        <time>2014-03-29T21:04:33Z</time>
      </trkpt>
      <trkpt lat="49.54292" lon="0.56758">
        <ele>107.61955261231</ele>
        <time>2014-03-29T21:04:39Z</time>
      </trkpt>
      <trkpt lat="49.54287" lon="0.56748">
        <ele>107.58596038818</ele>
        <time>2014-03-29T21:04:44Z</time>
      </trkpt>
      <trkpt lat="49.5428" lon="0.56736">
        <ele>107.76708984375</ele>
        <time>2014-03-29T21:04:50Z</time>
      </trkpt>
      <trkpt lat="49.54274" lon="0.56725">
        <ele>107.86923217773</ele>
        <time>2014-03-29T21:04:55Z</time>
      </trkpt>
      <trkpt lat="49.54266" lon="0.56711">
        <ele>107.91190338135</ele>
        <time>2014-03-29T21:05:02Z</time>
      </trkpt>
      <trkpt lat="49.54261" lon="0.567">
        <ele>107.85124206543</ele>
        <time>2014-03-29T21:05:06Z</time>
      </trkpt>
      <trkpt lat="49.54255" lon="0.56686">
        <ele>107.67826843262</ele>
        <time>2014-03-29T21:05:11Z</time>
      </trkpt>
      <trkpt lat="49.54249" lon="0.56673">
        <ele>107.70486450195</ele>
        <time>2014-03-29T21:05:16Z</time>
      </trkpt>
      <trkpt lat="49.54241" lon="0.56656">
        <ele>107.33554077148</ele>
        <time>2014-03-29T21:05:22Z</time>
      </trkpt>
      <trkpt lat="49.54238" lon="0.56648">
        <ele>106.93016052246</ele>
        <time>2014-03-29T21:05:27Z</time>
      </trkpt>
      <trkpt lat="49.54234" lon="0.56639">
        <ele>106.51880645752</ele>
        <time>2014-03-29T21:05:33Z</time>
      </trkpt>
      <trkpt lat="49.54232" lon="0.56631">
        <ele>105.93337249756</ele>
        <time>2014-03-29T21:05:42Z</time>
      </trkpt>
      <trkpt lat="49.54227" lon="0.56624">
        <ele>105.8857345581</ele>
        <time>2014-03-29T21:05:53Z</time>
      </trkpt>
      <trkpt lat="49.54224" lon="0.56618">
        <ele>105.54940795898</ele>
        <time>2014-03-29T21:05:57Z</time>
      </trkpt>
      <trkpt lat="49.5422" lon="0.56609">
        <ele>105.2011795044</ele>
        <time>2014-03-29T21:06:03Z</time>
      </trkpt>
      <trkpt lat="49.54216" lon="0.56599">
        <ele>104.72898864746</ele>
        <time>2014-03-29T21:06:07Z</time>
      </trkpt>
      <trkpt lat="49.54214" lon="0.56596">
        <ele>104.52634429932</ele>
        <time>2014-03-29T21:06:08Z</time>
      </trkpt>
      <trkpt lat="49.54209" lon="0.56578">
        <ele>103.38313293457</ele>
        <time>2014-03-29T21:06:13Z</time>
      </trkpt>
      <trkpt lat="49.54204" lon="0.56566">
        <ele>102.81383514404</ele>
        <time>2014-03-29T21:06:17Z</time>
      </trkpt>
      <trkpt lat="49.54203" lon="0.56563">
        <ele>102.64539337158</ele>
        <time>2014-03-29T21:06:18Z</time>
      </trkpt>
      <trkpt lat="49.54195" lon="0.5655">
        <ele>102.47486877441</ele>
        <time>2014-03-29T21:06:24Z</time>
      </trkpt>
      <trkpt lat="49.5419" lon="0.56543">
        <ele>102.54708862305</ele>
        <time>2014-03-29T21:06:28Z</time>
      </trkpt>
      <trkpt lat="49.54185" lon="0.56535">
        <ele>102.31874084473</ele>
        <time>2014-03-29T21:06:33Z</time>
      </trkpt>
      <trkpt lat="49.54184" lon="0.56533">
        <ele>102.27868652344</ele>
        <time>2014-03-29T21:06:34Z</time>
      </trkpt>
      <trkpt lat="49.54179" lon="0.56525">
        <ele>102.125</ele>
        <time>2014-03-29T21:06:38Z</time>
      </trkpt>
      <trkpt lat="49.54173" lon="0.56513">
        <ele>101.65908813477</ele>
        <time>2014-03-29T21:06:43Z</time>
      </trkpt>
      <trkpt lat="49.54168" lon="0.56505">
        <ele>101.38732147217</ele>
        <time>2014-03-29T21:06:46Z</time>
      </trkpt>
      <trkpt lat="49.54161" lon="0.56492">
        <ele>100.66809844971</ele>
        <time>2014-03-29T21:06:50Z</time>
      </trkpt>
      <trkpt lat="49.54158" lon="0.56486">
        <ele>100.30144500732</ele>
        <time>2014-03-29T21:06:52Z</time>
      </trkpt>
      <trkpt lat="49.54153" lon="0.56472">
        <ele>99.211318969727</ele>
        <time>2014-03-29T21:06:57Z</time>
      </trkpt>
      <trkpt lat="49.54148" lon="0.56463">
        <ele>98.525779724121</ele>
        <time>2014-03-29T21:07:01Z</time>
      </trkpt>
      <trkpt lat="49.54142" lon="0.56448">
        <ele>97.201789855957</ele>
        <time>2014-03-29T21:07:06Z</time>
      </trkpt>
      <trkpt lat="49.54137" lon="0.5644">
        <ele>96.590187072754</ele>
        <time>2014-03-29T21:07:09Z</time>
      </trkpt>
      <trkpt lat="49.54131" lon="0.56428">
        <ele>95.603034973145</ele>
        <time>2014-03-29T21:07:13Z</time>
      </trkpt>
      <trkpt lat="49.54119" lon="0.56413">
        <ele>94.362869262695</ele>
        <time>2014-03-29T21:07:19Z</time>
      </trkpt>
      <trkpt lat="49.54111" lon="0.56398">
        <ele>92.536666870117</ele>
        <time>2014-03-29T21:07:25Z</time>
      </trkpt>
      <trkpt lat="49.54109" lon="0.56392">
        <ele>91.878379821777</ele>
        <time>2014-03-29T21:07:27Z</time>
      </trkpt>
      <trkpt lat="49.54105" lon="0.56384">
        <ele>91.171890258789</ele>
        <time>2014-03-29T21:07:31Z</time>
      </trkpt>
      <trkpt lat="49.54094" lon="0.56366">
        <ele>89.88159942627</ele>
        <time>2014-03-29T21:07:38Z</time>
      </trkpt>
      <trkpt lat="49.54086" lon="0.56359">
        <ele>89.932952880859</ele>
        <time>2014-03-29T21:07:42Z</time>
      </trkpt>
      <trkpt lat="49.54073" lon="0.56347">
        <ele>89.544891357422</ele>
        <time>2014-03-29T21:07:49Z</time>
      </trkpt>
      <trkpt lat="49.54071" lon="0.56344">
        <ele>89.295227050781</ele>
        <time>2014-03-29T21:07:51Z</time>
      </trkpt>
      <trkpt lat="49.54066" lon="0.56336">
        <ele>88.625328063965</ele>
        <time>2014-03-29T21:07:57Z</time>
      </trkpt>
      <trkpt lat="49.54062" lon="0.56332">
        <ele>88.29451751709</ele>
        <time>2014-03-29T21:08:00Z</time>
      </trkpt>
      <trkpt lat="49.54058" lon="0.56328">
        <ele>87.558219909668</ele>
        <time>2014-03-29T21:08:04Z</time>
      </trkpt>
      <trkpt lat="49.54049" lon="0.56318">
        <ele>86.065139770508</ele>
        <time>2014-03-29T21:08:11Z</time>
      </trkpt>
      <trkpt lat="49.54047" lon="0.56316">
        <ele>85.756629943848</ele>
        <time>2014-03-29T21:08:12Z</time>
      </trkpt>
      <trkpt lat="49.54035" lon="0.56308">
        <ele>84.861221313477</ele>
        <time>2014-03-29T21:08:18Z</time>
      </trkpt>
      <trkpt lat="49.5403" lon="0.56306">
        <ele>84.734893798828</ele>
        <time>2014-03-29T21:08:21Z</time>
      </trkpt>
      <trkpt lat="49.5402" lon="0.56304">
        <ele>84.839324951172</ele>
        <time>2014-03-29T21:08:26Z</time>
      </trkpt>
      <trkpt lat="49.5401" lon="0.563">
        <ele>84.71573638916</ele>
        <time>2014-03-29T21:08:31Z</time>
      </trkpt>
      <trkpt lat="49.54" lon="0.56298">
        <ele>84.990783691406</ele>
        <time>2014-03-29T21:08:36Z</time>
      </trkpt>
      <trkpt lat="49.53992" lon="0.563">
        <ele>85.152389526367</ele>
        <time>2014-03-29T21:08:40Z</time>
      </trkpt>
      <trkpt lat="49.53982" lon="0.56302">
        <ele>85.434844970703</ele>
        <time>2014-03-29T21:08:46Z</time>
      </trkpt>
      <trkpt lat="49.53977" lon="0.56304">
        <ele>85.76293182373</ele>
        <time>2014-03-29T21:08:48Z</time>
      </trkpt>
      <trkpt lat="49.53964" lon="0.5631">
        <ele>86.912567138672</ele>
        <time>2014-03-29T21:08:54Z</time>
      </trkpt>
      <trkpt lat="49.53958" lon="0.56312">
        <ele>87.229133605957</ele>
        <time>2014-03-29T21:08:57Z</time>
      </trkpt>
      <trkpt lat="49.53947" lon="0.56315">
        <ele>87.469177246094</ele>
        <time>2014-03-29T21:09:02Z</time>
      </trkpt>
      <trkpt lat="49.53936" lon="0.56318">
        <ele>88.059478759766</ele>
        <time>2014-03-29T21:09:09Z</time>
      </trkpt>
      <trkpt lat="49.53933" lon="0.56319">
        <ele>88.182281494141</ele>
        <time>2014-03-29T21:09:11Z</time>
      </trkpt>
      <trkpt lat="49.5393" lon="0.56321">
        <ele>88.385276794434</ele>
        <time>2014-03-29T21:09:13Z</time>
      </trkpt>
      <trkpt lat="49.53926" lon="0.56322">
        <ele>88.689834594727</ele>
        <time>2014-03-29T21:09:15Z</time>
      </trkpt>
      <trkpt lat="49.53918" lon="0.56325">
        <ele>89.161468505859</ele>
        <time>2014-03-29T21:09:21Z</time>
      </trkpt>
      <trkpt lat="49.53912" lon="0.56328">
        <ele>89.659233093262</ele>
        <time>2014-03-29T21:09:26Z</time>
      </trkpt>
      <trkpt lat="49.53906" lon="0.56329">
        <ele>89.654434204102</ele>
        <time>2014-03-29T21:09:31Z</time>
      </trkpt>
      <trkpt lat="49.53901" lon="0.5633">
        <ele>89.923202514648</ele>
        <time>2014-03-29T21:09:34Z</time>
      </trkpt>
      <trkpt lat="49.53891" lon="0.56335">
        <ele>90.692153930664</ele>
        <time>2014-03-29T21:09:42Z</time>
      </trkpt>
      <trkpt lat="49.53884" lon="0.56338">
        <ele>91.151702880859</ele>
        <time>2014-03-29T21:09:47Z</time>
      </trkpt>
      <trkpt lat="49.53881" lon="0.56339">
        <ele>91.410873413086</ele>
        <time>2014-03-29T21:09:49Z</time>
      </trkpt>
      <trkpt lat="49.53875" lon="0.56341">
        <ele>91.633499145508</ele>
        <time>2014-03-29T21:09:57Z</time>
      </trkpt>
      <trkpt lat="49.53874" lon="0.56342">
        <ele>91.79029083252</ele>
        <time>2014-03-29T21:10:04Z</time>
      </trkpt>
      <trkpt lat="49.53869" lon="0.56343">
        <ele>91.970191955566</ele>
        <time>2014-03-29T21:10:10Z</time>
      </trkpt>
      <trkpt lat="49.53867" lon="0.56344">
        <ele>92.075210571289</ele>
        <time>2014-03-29T21:10:15Z</time>
      </trkpt>
      <trkpt lat="49.5386" lon="0.56346">
        <ele>92.282234191895</ele>
        <time>2014-03-29T21:10:20Z</time>
      </trkpt>
      <trkpt lat="49.53859" lon="0.56347">
        <ele>92.502799987793</ele>
        <time>2014-03-29T21:10:22Z</time>
      </trkpt>
      <trkpt lat="49.53855" lon="0.56348">
        <ele>92.633247375488</ele>
        <time>2014-03-29T21:10:27Z</time>
      </trkpt>
      <trkpt lat="49.53854" lon="0.56349">
        <ele>92.830131530762</ele>
        <time>2014-03-29T21:10:29Z</time>
      </trkpt>
      <trkpt lat="49.53849" lon="0.56352">
        <ele>93.19612121582</ele>
        <time>2014-03-29T21:10:36Z</time>
      </trkpt>
      <trkpt lat="49.53846" lon="0.56354">
        <ele>93.633277893066</ele>
        <time>2014-03-29T21:10:42Z</time>
      </trkpt>
      <trkpt lat="49.53845" lon="0.56355">
        <ele>93.744583129883</ele>
        <time>2014-03-29T21:10:50Z</time>
      </trkpt>
      <trkpt lat="49.53846" lon="0.56352">
        <ele>93.13102722168</ele>
        <time>2014-03-29T21:10:59Z</time>
      </trkpt>
      <trkpt lat="49.53845" lon="0.56349">
        <ele>92.50373840332</ele>
        <time>2014-03-29T21:11:15Z</time>
      </trkpt>
      <trkpt lat="49.53846" lon="0.56347">
        <ele>92.022010803223</ele>
        <time>2014-03-29T21:11:21Z</time>
      </trkpt>
      <trkpt lat="49.53848" lon="0.56345">
        <ele>91.758193969727</ele>
        <time>2014-03-29T21:11:27Z</time>
      </trkpt>
      <trkpt lat="49.53848" lon="0.56344">
        <ele>91.522308349609</ele>
        <time>2014-03-29T21:11:32Z</time>
      </trkpt>
      <trkpt lat="49.53848" lon="0.56343">
        <ele>91.403022766113</ele>
        <time>2014-03-29T21:11:33Z</time>
      </trkpt>
      <trkpt lat="49.5385" lon="0.56336">
        <ele>89.888931274414</ele>
        <time>2014-03-29T21:11:39Z</time>
      </trkpt>
      <trkpt lat="49.5385" lon="0.56333">
        <ele>89.271049499512</ele>
        <time>2014-03-29T21:11:47Z</time>
      </trkpt>
      <trkpt lat="49.53852" lon="0.56332">
        <ele>89.050308227539</ele>
        <time>2014-03-29T21:11:59Z</time>
      </trkpt>
      <trkpt lat="49.53853" lon="0.5633">
        <ele>88.740997314453</ele>
        <time>2014-03-29T21:12:16Z</time>
      </trkpt>
      <trkpt lat="49.53854" lon="0.56329">
        <ele>88.409767150879</ele>
        <time>2014-03-29T21:12:17Z</time>
      </trkpt>
      <trkpt lat="49.53859" lon="0.5632">
        <ele>86.47509765625</ele>
        <time>2014-03-29T21:12:22Z</time>
      </trkpt>
      <trkpt lat="49.53864" lon="0.56309">
        <ele>83.898284912109</ele>
        <time>2014-03-29T21:12:29Z</time>
      </trkpt>
      <trkpt lat="49.53865" lon="0.563">
        <ele>81.837074279785</ele>
        <time>2014-03-29T21:12:34Z</time>
      </trkpt>
      <trkpt lat="49.53865" lon="0.56295">
        <ele>80.767517089844</ele>
        <time>2014-03-29T21:12:37Z</time>
      </trkpt>
      <trkpt lat="49.53865" lon="0.56292">
        <ele>80.020988464355</ele>
        <time>2014-03-29T21:12:39Z</time>
      </trkpt>
      <trkpt lat="49.53864" lon="0.56287">
        <ele>78.774826049805</ele>
        <time>2014-03-29T21:12:45Z</time>
      </trkpt>
      <trkpt lat="49.53864" lon="0.56276">
        <ele>76.268547058105</ele>
        <time>2014-03-29T21:12:51Z</time>
      </trkpt>
      <trkpt lat="49.53863" lon="0.56274">
        <ele>75.819580078125</ele>
        <time>2014-03-29T21:12:53Z</time>
      </trkpt>
      <trkpt lat="49.53863" lon="0.56265">
        <ele>73.538856506348</ele>
        <time>2014-03-29T21:13:00Z</time>
      </trkpt>
      <trkpt lat="49.53863" lon="0.56258">
        <ele>71.907356262207</ele>
        <time>2014-03-29T21:13:04Z</time>
      </trkpt>
      <trkpt lat="49.53862" lon="0.56252">
        <ele>70.437873840332</ele>
        <time>2014-03-29T21:13:08Z</time>
      </trkpt>
      <trkpt lat="49.53861" lon="0.56245">
        <ele>69.126510620117</ele>
        <time>2014-03-29T21:13:12Z</time>
      </trkpt>
      <trkpt lat="49.53861" lon="0.5624">
        <ele>68.064712524414</ele>
        <time>2014-03-29T21:13:19Z</time>
      </trkpt>
      <trkpt lat="49.53858" lon="0.56237">
        <ele>67.457191467285</ele>
        <time>2014-03-29T21:13:36Z</time>
      </trkpt>
      <trkpt lat="49.53855" lon="0.56232">
        <ele>66.337905883789</ele>
        <time>2014-03-29T21:13:44Z</time>
      </trkpt>
      <trkpt lat="49.53855" lon="0.56225">
        <ele>65.062644958496</ele>
        <time>2014-03-29T21:13:50Z</time>
      </trkpt>
      <trkpt lat="49.53854" lon="0.5622">
        <ele>64.129013061523</ele>
        <time>2014-03-29T21:13:56Z</time>
      </trkpt>
      <trkpt lat="49.53853" lon="0.56217">
        <ele>63.496017456055</ele>
        <time>2014-03-29T21:14:00Z</time>
      </trkpt>
      <trkpt lat="49.53851" lon="0.56213">
        <ele>62.690551757812</ele>
        <time>2014-03-29T21:14:06Z</time>
      </trkpt>
      <trkpt lat="49.53851" lon="0.56212">
        <ele>62.544582366943</ele>
        <time>2014-03-29T21:14:07Z</time>
      </trkpt>
      <trkpt lat="49.53844" lon="0.56215">
        <ele>62.922016143799</ele>
        <time>2014-03-29T21:14:15Z</time>
      </trkpt>
      <trkpt lat="49.53839" lon="0.56217">
        <ele>63.157878875732</ele>
        <time>2014-03-29T21:14:20Z</time>
      </trkpt>
      <trkpt lat="49.53829" lon="0.56223">
        <ele>64.039260864258</ele>
        <time>2014-03-29T21:14:29Z</time>
      </trkpt>
      <trkpt lat="49.53824" lon="0.56225">
        <ele>64.334426879883</ele>
        <time>2014-03-29T21:14:33Z</time>
      </trkpt>
      <trkpt lat="49.53816" lon="0.56229">
        <ele>64.819709777832</ele>
        <time>2014-03-29T21:14:38Z</time>
      </trkpt>
      <trkpt lat="49.53806" lon="0.56237">
        <ele>65.620750427246</ele>
        <time>2014-03-29T21:14:46Z</time>
      </trkpt>
      <trkpt lat="49.53803" lon="0.56239">
        <ele>65.699111938477</ele>
        <time>2014-03-29T21:14:48Z</time>
      </trkpt>
      <trkpt lat="49.5379" lon="0.5625">
        <ele>66.406547546387</ele>
        <time>2014-03-29T21:14:58Z</time>
      </trkpt>
      <trkpt lat="49.53782" lon="0.56255">
        <ele>66.929672241211</ele>
        <time>2014-03-29T21:15:04Z</time>
      </trkpt>
      <trkpt lat="49.53776" lon="0.56259">
        <ele>67.421989440918</ele>
        <time>2014-03-29T21:15:09Z</time>
      </trkpt>
      <trkpt lat="49.53768" lon="0.56266">
        <ele>68.160987854004</ele>
        <time>2014-03-29T21:15:15Z</time>
      </trkpt>
      <trkpt lat="49.53761" lon="0.56274">
        <ele>69.227897644043</ele>
        <time>2014-03-29T21:15:21Z</time>
      </trkpt>
      <trkpt lat="49.5376" lon="0.56275">
        <ele>69.341644287109</ele>
        <time>2014-03-29T21:15:22Z</time>
      </trkpt>
      <trkpt lat="49.53753" lon="0.5628">
        <ele>69.68871307373</ele>
        <time>2014-03-29T21:15:27Z</time>
      </trkpt>
      <trkpt lat="49.53748" lon="0.56284">
        <ele>70.065032958984</ele>
        <time>2014-03-29T21:15:30Z</time>
      </trkpt>
      <trkpt lat="49.53744" lon="0.56288">
        <ele>70.830940246582</ele>
        <time>2014-03-29T21:15:34Z</time>
      </trkpt>
      <trkpt lat="49.53737" lon="0.56294">
        <ele>71.538360595703</ele>
        <time>2014-03-29T21:15:39Z</time>
      </trkpt>
      <trkpt lat="49.53733" lon="0.56298">
        <ele>71.899032592773</ele>
        <time>2014-03-29T21:15:42Z</time>
      </trkpt>
      <trkpt lat="49.53725" lon="0.56306">
        <ele>72.335754394531</ele>
        <time>2014-03-29T21:15:48Z</time>
      </trkpt>
      <trkpt lat="49.53718" lon="0.56315">
        <ele>72.547325134277</ele>
        <time>2014-03-29T21:15:54Z</time>
      </trkpt>
      <trkpt lat="49.53709" lon="0.56325">
        <ele>72.240386962891</ele>
        <time>2014-03-29T21:16:01Z</time>
      </trkpt>
      <trkpt lat="49.53703" lon="0.56333">
        <ele>71.656372070312</ele>
        <time>2014-03-29T21:16:07Z</time>
      </trkpt>
      <trkpt lat="49.53699" lon="0.56341">
        <ele>72.089935302734</ele>
        <time>2014-03-29T21:16:12Z</time>
      </trkpt>
      <trkpt lat="49.53691" lon="0.56349">
        <ele>71.912414550781</ele>
        <time>2014-03-29T21:16:18Z</time>
      </trkpt>
      <trkpt lat="49.5369" lon="0.56351">
        <ele>71.919410705566</ele>
        <time>2014-03-29T21:16:19Z</time>
      </trkpt>
      <trkpt lat="49.53686" lon="0.56356">
        <ele>71.709167480469</ele>
        <time>2014-03-29T21:16:23Z</time>
      </trkpt>
      <trkpt lat="49.53682" lon="0.5636">
        <ele>71.567199707031</ele>
        <time>2014-03-29T21:16:26Z</time>
      </trkpt>
      <trkpt lat="49.53674" lon="0.56371">
        <ele>71.067939758301</ele>
        <time>2014-03-29T21:16:33Z</time>
      </trkpt>
      <trkpt lat="49.53669" lon="0.56379">
        <ele>70.915351867676</ele>
        <time>2014-03-29T21:16:38Z</time>
      </trkpt>
      <trkpt lat="49.53662" lon="0.56395">
        <ele>72.038040161133</ele>
        <time>2014-03-29T21:16:46Z</time>
      </trkpt>
      <trkpt lat="49.53658" lon="0.56403">
        <ele>72.875297546387</ele>
        <time>2014-03-29T21:16:51Z</time>
      </trkpt>
      <trkpt lat="49.53656" lon="0.56407">
        <ele>73.164390563965</ele>
        <time>2014-03-29T21:16:53Z</time>
      </trkpt>
      <trkpt lat="49.53652" lon="0.56412">
        <ele>73.545150756836</ele>
        <time>2014-03-29T21:16:57Z</time>
      </trkpt>
      <trkpt lat="49.53644" lon="0.56426">
        <ele>75.036376953125</ele>
        <time>2014-03-29T21:17:05Z</time>
      </trkpt>
      <trkpt lat="49.53639" lon="0.56434">
        <ele>75.875465393066</ele>
        <time>2014-03-29T21:17:10Z</time>
      </trkpt>
      <trkpt lat="49.53633" lon="0.56444">
        <ele>76.809997558594</ele>
        <time>2014-03-29T21:17:16Z</time>
      </trkpt>
      <trkpt lat="49.53625" lon="0.56456">
        <ele>77.576469421387</ele>
        <time>2014-03-29T21:17:24Z</time>
      </trkpt>
      <trkpt lat="49.53621" lon="0.56465">
        <ele>78.013122558594</ele>
        <time>2014-03-29T21:17:29Z</time>
      </trkpt>
      <trkpt lat="49.53613" lon="0.56477">
        <ele>78.128776550293</ele>
        <time>2014-03-29T21:17:36Z</time>
      </trkpt>
      <trkpt lat="49.53605" lon="0.56489">
        <ele>77.950096130371</ele>
        <time>2014-03-29T21:17:43Z</time>
      </trkpt>
      <trkpt lat="49.53598" lon="0.56501">
        <ele>77.679344177246</ele>
        <time>2014-03-29T21:17:50Z</time>
      </trkpt>
      <trkpt lat="49.53594" lon="0.56508">
        <ele>77.611976623535</ele>
        <time>2014-03-29T21:17:54Z</time>
      </trkpt>
      <trkpt lat="49.53587" lon="0.56516">
        <ele>77.225875854492</ele>
        <time>2014-03-29T21:17:59Z</time>
      </trkpt>
      <trkpt lat="49.53583" lon="0.56526">
        <ele>77.475845336914</ele>
        <time>2014-03-29T21:18:04Z</time>
      </trkpt>
      <trkpt lat="49.53578" lon="0.5654">
        <ele>79.111549377441</ele>
        <time>2014-03-29T21:18:11Z</time>
      </trkpt>
      <trkpt lat="49.53571" lon="0.56553">
        <ele>80.439712524414</ele>
        <time>2014-03-29T21:18:18Z</time>
      </trkpt>
      <trkpt lat="49.53566" lon="0.56561">
        <ele>81.10718536377</ele>
        <time>2014-03-29T21:18:23Z</time>
      </trkpt>
      <trkpt lat="49.53563" lon="0.56568">
        <ele>81.598281860352</ele>
        <time>2014-03-29T21:18:27Z</time>
      </trkpt>
      <trkpt lat="49.53558" lon="0.5658">
        <ele>82.227325439453</ele>
        <time>2014-03-29T21:18:33Z</time>
      </trkpt>
      <trkpt lat="49.53555" lon="0.56586">
        <ele>82.631820678711</ele>
        <time>2014-03-29T21:18:36Z</time>
      </trkpt>
      <trkpt lat="49.53551" lon="0.56597">
        <ele>83.630630493164</ele>
        <time>2014-03-29T21:18:41Z</time>
      </trkpt>
      <trkpt lat="49.53544" lon="0.56609">
        <ele>84.585151672363</ele>
        <time>2014-03-29T21:18:48Z</time>
      </trkpt>
      <trkpt lat="49.53535" lon="0.56622">
        <ele>85.329963684082</ele>
        <time>2014-03-29T21:18:55Z</time>
      </trkpt>
      <trkpt lat="49.53529" lon="0.56632">
        <ele>85.655982971191</ele>
        <time>2014-03-29T21:19:01Z</time>
      </trkpt>
      <trkpt lat="49.53523" lon="0.56644">
        <ele>86.066040039062</ele>
        <time>2014-03-29T21:19:07Z</time>
      </trkpt>
      <trkpt lat="49.53518" lon="0.56654">
        <ele>86.311782836914</ele>
        <time>2014-03-29T21:19:13Z</time>
      </trkpt>
      <trkpt lat="49.53514" lon="0.56662">
        <ele>86.468154907227</ele>
        <time>2014-03-29T21:19:17Z</time>
      </trkpt>
      <trkpt lat="49.53513" lon="0.56665">
        <ele>86.421989440918</ele>
        <time>2014-03-29T21:19:19Z</time>
      </trkpt>
      <trkpt lat="49.53509" lon="0.56671">
        <ele>86.457717895508</ele>
        <time>2014-03-29T21:19:24Z</time>
      </trkpt>
      <trkpt lat="49.53505" lon="0.56679">
        <ele>86.89754486084</ele>
        <time>2014-03-29T21:19:30Z</time>
      </trkpt>
      <trkpt lat="49.535" lon="0.56687">
        <ele>86.948699951172</ele>
        <time>2014-03-29T21:19:36Z</time>
      </trkpt>
      <trkpt lat="49.53496" lon="0.56696">
        <ele>88.163780212402</ele>
        <time>2014-03-29T21:19:41Z</time>
      </trkpt>
      <trkpt lat="49.53491" lon="0.56703">
        <ele>89.133926391602</ele>
        <time>2014-03-29T21:19:46Z</time>
      </trkpt>
      <trkpt lat="49.53489" lon="0.56705">
        <ele>89.504081726074</ele>
        <time>2014-03-29T21:19:48Z</time>
      </trkpt>
      <trkpt lat="49.53486" lon="0.5671">
        <ele>90.059120178223</ele>
        <time>2014-03-29T21:19:52Z</time>
      </trkpt>
      <trkpt lat="49.53484" lon="0.56715">
        <ele>90.552207946777</ele>
        <time>2014-03-29T21:19:56Z</time>
      </trkpt>
      <trkpt lat="49.53482" lon="0.56721">
        <ele>91.063125610352</ele>
        <time>2014-03-29T21:19:59Z</time>
      </trkpt>
      <trkpt lat="49.53477" lon="0.56733">
        <ele>92.012298583984</ele>
        <time>2014-03-29T21:20:05Z</time>
      </trkpt>
      <trkpt lat="49.53471" lon="0.56744">
        <ele>92.678070068359</ele>
        <time>2014-03-29T21:20:11Z</time>
      </trkpt>
      <trkpt lat="49.53468" lon="0.5675">
        <ele>93.019523620605</ele>
        <time>2014-03-29T21:20:15Z</time>
      </trkpt>
      <trkpt lat="49.53467" lon="0.56753">
        <ele>93.226669311523</ele>
        <time>2014-03-29T21:20:18Z</time>
      </trkpt>
      <trkpt lat="49.53466" lon="0.56763">
        <ele>93.809959411621</ele>
        <time>2014-03-29T21:20:23Z</time>
      </trkpt>
      <trkpt lat="49.53465" lon="0.56768">
        <ele>94.155494689941</ele>
        <time>2014-03-29T21:20:26Z</time>
      </trkpt>
      <trkpt lat="49.53463" lon="0.56772">
        <ele>94.304779052734</ele>
        <time>2014-03-29T21:20:28Z</time>
      </trkpt>
      <trkpt lat="49.53459" lon="0.5678">
        <ele>94.645782470703</ele>
        <time>2014-03-29T21:20:34Z</time>
      </trkpt>
      <trkpt lat="49.53458" lon="0.56782">
        <ele>94.708770751953</ele>
        <time>2014-03-29T21:20:35Z</time>
      </trkpt>
      <trkpt lat="49.53457" lon="0.56786">
        <ele>94.853179931641</ele>
        <time>2014-03-29T21:20:37Z</time>
      </trkpt>
      <trkpt lat="49.53452" lon="0.56799">
        <ele>95.231201171875</ele>
        <time>2014-03-29T21:20:43Z</time>
      </trkpt>
      <trkpt lat="49.53448" lon="0.5681">
        <ele>95.447937011719</ele>
        <time>2014-03-29T21:20:48Z</time>
      </trkpt>
      <trkpt lat="49.53445" lon="0.56825">
        <ele>95.79224395752</ele>
        <time>2014-03-29T21:20:55Z</time>
      </trkpt>
      <trkpt lat="49.53445" lon="0.56829">
        <ele>95.864646911621</ele>
        <time>2014-03-29T21:20:57Z</time>
      </trkpt>
      <trkpt lat="49.53444" lon="0.56838">
        <ele>96.039901733398</ele>
        <time>2014-03-29T21:21:02Z</time>
      </trkpt>
      <trkpt lat="49.53441" lon="0.56845">
        <ele>95.951286315918</ele>
        <time>2014-03-29T21:21:06Z</time>
      </trkpt>
      <trkpt lat="49.5344" lon="0.56854">
        <ele>96.137351989746</ele>
        <time>2014-03-29T21:21:18Z</time>
      </trkpt>
      <trkpt lat="49.5344" lon="0.56858">
        <ele>96.208312988281</ele>
        <time>2014-03-29T21:21:21Z</time>
      </trkpt>
      <trkpt lat="49.53439" lon="0.56863">
        <ele>96.183822631836</ele>
        <time>2014-03-29T21:21:24Z</time>
      </trkpt>
      <trkpt lat="49.53439" lon="0.56863">
        <ele>96.280548095703</ele>
        <time>2014-03-29T21:21:31Z</time>
      </trkpt>
      <trkpt lat="49.53439" lon="0.56858">
        <ele>96.046112060547</ele>
        <time>2014-03-29T21:21:36Z</time>
      </trkpt>
      <trkpt lat="49.5344" lon="0.56853">
        <ele>96.154106140137</ele>
        <time>2014-03-29T21:21:40Z</time>
      </trkpt>
      <trkpt lat="49.53441" lon="0.56849">
        <ele>96.081916809082</ele>
        <time>2014-03-29T21:21:44Z</time>
      </trkpt>
      <trkpt lat="49.53441" lon="0.56848">
        <ele>96.046318054199</ele>
        <time>2014-03-29T21:21:45Z</time>
      </trkpt>
      <trkpt lat="49.53442" lon="0.56842">
        <ele>95.994247436523</ele>
        <time>2014-03-29T21:21:50Z</time>
      </trkpt>
      <trkpt lat="49.53441" lon="0.56843">
        <ele>95.935653686523</ele>
        <time>2014-03-29T21:21:55Z</time>
      </trkpt>
      <trkpt lat="49.53441" lon="0.56845">
        <ele>95.970222473145</ele>
        <time>2014-03-29T21:21:57Z</time>
      </trkpt>
      <trkpt lat="49.53439" lon="0.5685">
        <ele>95.840042114258</ele>
        <time>2014-03-29T21:22:01Z</time>
      </trkpt>
      <trkpt lat="49.53436" lon="0.5686">
        <ele>95.808654785156</ele>
        <time>2014-03-29T21:22:08Z</time>
      </trkpt>
      <trkpt lat="49.53434" lon="0.56867">
        <ele>95.733039855957</ele>
        <time>2014-03-29T21:22:13Z</time>
      </trkpt>
      <trkpt lat="49.53435" lon="0.56875">
        <ele>96.040534973145</ele>
        <time>2014-03-29T21:22:17Z</time>
      </trkpt>
      <trkpt lat="49.53435" lon="0.56888">
        <ele>96.389144897461</ele>
        <time>2014-03-29T21:22:23Z</time>
      </trkpt>
      <trkpt lat="49.53437" lon="0.56896">
        <ele>96.822967529297</ele>
        <time>2014-03-29T21:22:26Z</time>
      </trkpt>
      <trkpt lat="49.53437" lon="0.5691">
        <ele>97.181205749512</ele>
        <time>2014-03-29T21:22:33Z</time>
      </trkpt>
      <trkpt lat="49.53437" lon="0.56919">
        <ele>97.593719482422</ele>
        <time>2014-03-29T21:22:38Z</time>
      </trkpt>
      <trkpt lat="49.53437" lon="0.56924">
        <ele>97.716957092285</ele>
        <time>2014-03-29T21:22:40Z</time>
      </trkpt>
      <trkpt lat="49.53439" lon="0.56932">
        <ele>98.293228149414</ele>
        <time>2014-03-29T21:22:45Z</time>
      </trkpt>
      <trkpt lat="49.53439" lon="0.5694">
        <ele>98.735336303711</ele>
        <time>2014-03-29T21:22:49Z</time>
      </trkpt>
      <trkpt lat="49.53439" lon="0.56957">
        <ele>99.325469970703</ele>
        <time>2014-03-29T21:22:58Z</time>
      </trkpt>
      <trkpt lat="49.53437" lon="0.5696">
        <ele>99.247032165527</ele>
        <time>2014-03-29T21:23:00Z</time>
      </trkpt>
      <trkpt lat="49.53433" lon="0.56965">
        <ele>98.971557617188</ele>
        <time>2014-03-29T21:23:04Z</time>
      </trkpt>
      <trkpt lat="49.53427" lon="0.56968">
        <ele>98.36075592041</ele>
        <time>2014-03-29T21:23:10Z</time>
      </trkpt>
      <trkpt lat="49.53424" lon="0.56968">
        <ele>98.049392700195</ele>
        <time>2014-03-29T21:23:14Z</time>
      </trkpt>
      <trkpt lat="49.5342" lon="0.56972">
        <ele>97.70182800293</ele>
        <time>2014-03-29T21:23:19Z</time>
      </trkpt>
      <trkpt lat="49.53417" lon="0.56973">
        <ele>97.400505065918</ele>
        <time>2014-03-29T21:23:22Z</time>
      </trkpt>
      <trkpt lat="49.53411" lon="0.56976">
        <ele>97.984230041504</ele>
        <time>2014-03-29T21:23:27Z</time>
      </trkpt>
      <trkpt lat="49.53404" lon="0.56979">
        <ele>98.780059814453</ele>
        <time>2014-03-29T21:23:33Z</time>
      </trkpt>
      <trkpt lat="49.53397" lon="0.56981">
        <ele>99.474159240723</ele>
        <time>2014-03-29T21:23:38Z</time>
      </trkpt>
      <trkpt lat="49.53397" lon="0.56981">
        <ele>99.526924133301</ele>
        <time>2014-03-29T21:23:39Z</time>
      </trkpt>
      <trkpt lat="49.53392" lon="0.5698">
        <ele>99.883178710938</ele>
        <time>2014-03-29T21:23:45Z</time>
      </trkpt>
      <trkpt lat="49.5339" lon="0.5698">
        <ele>100.05191802978</ele>
        <time>2014-03-29T21:23:47Z</time>
      </trkpt>
      <trkpt lat="49.53385" lon="0.56978">
        <ele>100.36546325684</ele>
        <time>2014-03-29T21:23:52Z</time>
      </trkpt>
      <trkpt lat="49.53383" lon="0.56978">
        <ele>100.50972747803</ele>
        <time>2014-03-29T21:23:54Z</time>
      </trkpt>
      <trkpt lat="49.53382" lon="0.56978">
        <ele>100.63891601562</ele>
        <time>2014-03-29T21:23:56Z</time>
      </trkpt>
      <trkpt lat="49.5338" lon="0.56977">
        <ele>100.71161651611</ele>
        <time>2014-03-29T21:23:58Z</time>
      </trkpt>
      <trkpt lat="49.53375" lon="0.56974">
        <ele>101.0866394043</ele>
        <time>2014-03-29T21:24:07Z</time>
      </trkpt>
      <trkpt lat="49.53372" lon="0.56974">
        <ele>101.31843566894</ele>
        <time>2014-03-29T21:24:10Z</time>
      </trkpt>
      <trkpt lat="49.53368" lon="0.56974">
        <ele>101.62865447998</ele>
        <time>2014-03-29T21:24:14Z</time>
      </trkpt>
      <trkpt lat="49.53365" lon="0.56974">
        <ele>101.96514892578</ele>
        <time>2014-03-29T21:24:18Z</time>
      </trkpt>
      <trkpt lat="49.53361" lon="0.56974">
        <ele>102.29360961914</ele>
        <time>2014-03-29T21:24:23Z</time>
      </trkpt>
      <trkpt lat="49.5336" lon="0.56973">
        <ele>102.38674926758</ele>
        <time>2014-03-29T21:24:25Z</time>
      </trkpt>
      <trkpt lat="49.53355" lon="0.56969">
        <ele>102.64180755615</ele>
        <time>2014-03-29T21:24:31Z</time>
      </trkpt>
      <trkpt lat="49.53355" lon="0.56964">
        <ele>102.51084899902</ele>
        <time>2014-03-29T21:24:36Z</time>
      </trkpt>
      <trkpt lat="49.53355" lon="0.5696">
        <ele>102.45067596435</ele>
        <time>2014-03-29T21:24:39Z</time>
      </trkpt>
      <trkpt lat="49.53355" lon="0.56953">
        <ele>102.32856750488</ele>
        <time>2014-03-29T21:24:44Z</time>
      </trkpt>
      <trkpt lat="49.53355" lon="0.56949">
        <ele>102.19444274902</ele>
        <time>2014-03-29T21:24:48Z</time>
      </trkpt>
      <trkpt lat="49.53356" lon="0.56946">
        <ele>102.04720306397</ele>
        <time>2014-03-29T21:24:50Z</time>
      </trkpt>
      <trkpt lat="49.53359" lon="0.56938">
        <ele>101.50498199463</ele>
        <time>2014-03-29T21:24:56Z</time>
      </trkpt>
      <trkpt lat="49.5336" lon="0.56934">
        <ele>101.2345123291</ele>
        <time>2014-03-29T21:24:58Z</time>
      </trkpt>
      <trkpt lat="49.53363" lon="0.56921">
        <ele>100.5184173584</ele>
        <time>2014-03-29T21:25:06Z</time>
      </trkpt>
      <trkpt lat="49.53364" lon="0.56919">
        <ele>100.4052658081</ele>
        <time>2014-03-29T21:25:07Z</time>
      </trkpt>
      <trkpt lat="49.53365" lon="0.56913">
        <ele>100.35237121582</ele>
        <time>2014-03-29T21:25:10Z</time>
      </trkpt>
      <trkpt lat="49.53366" lon="0.56904">
        <ele>100.32820129394</ele>
        <time>2014-03-29T21:25:16Z</time>
      </trkpt>
      <trkpt lat="49.53366" lon="0.56898">
        <ele>100.52587890625</ele>
        <time>2014-03-29T21:25:20Z</time>
      </trkpt>
      <trkpt lat="49.53366" lon="0.56892">
        <ele>100.71704101562</ele>
        <time>2014-03-29T21:25:23Z</time>
      </trkpt>
      <trkpt lat="49.53366" lon="0.56886">
        <ele>100.81490325928</ele>
        <time>2014-03-29T21:25:27Z</time>
      </trkpt>
      <trkpt lat="49.53365" lon="0.56872">
        <ele>101.27396392822</ele>
        <time>2014-03-29T21:25:35Z</time>
      </trkpt>
      <trkpt lat="49.53363" lon="0.5686">
        <ele>101.8807220459</ele>
        <time>2014-03-29T21:25:41Z</time>
      </trkpt>
      <trkpt lat="49.53363" lon="0.56859">
        <ele>101.97742462158</ele>
        <time>2014-03-29T21:25:42Z</time>
      </trkpt>
      <trkpt lat="49.53362" lon="0.56848">
        <ele>102.51191711426</ele>
        <time>2014-03-29T21:25:52Z</time>
      </trkpt>
      <trkpt lat="49.53361" lon="0.56842">
        <ele>102.8166885376</ele>
        <time>2014-03-29T21:25:56Z</time>
      </trkpt>
      <trkpt lat="49.53362" lon="0.56836">
        <ele>102.86456298828</ele>
        <time>2014-03-29T21:26:00Z</time>
      </trkpt>
      <trkpt lat="49.53362" lon="0.56828">
        <ele>102.97073364258</ele>
        <time>2014-03-29T21:26:04Z</time>
      </trkpt>
      <trkpt lat="49.53361" lon="0.56815">
        <ele>103.21083068848</ele>
        <time>2014-03-29T21:26:11Z</time>
      </trkpt>
      <trkpt lat="49.5336" lon="0.56808">
        <ele>103.40950012207</ele>
        <time>2014-03-29T21:26:15Z</time>
      </trkpt>
      <trkpt lat="49.53359" lon="0.568">
        <ele>103.6167678833</ele>
        <time>2014-03-29T21:26:21Z</time>
      </trkpt>
      <trkpt lat="49.53356" lon="0.56797">
        <ele>104.28039550781</ele>
        <time>2014-03-29T21:26:28Z</time>
      </trkpt>
      <trkpt lat="49.53353" lon="0.56794">
        <ele>104.79433441162</ele>
        <time>2014-03-29T21:26:36Z</time>
      </trkpt>
      <trkpt lat="49.53347" lon="0.56792">
        <ele>105.8818435669</ele>
        <time>2014-03-29T21:26:45Z</time>
      </trkpt>
      <trkpt lat="49.53344" lon="0.5679">
        <ele>106.54333496094</ele>
        <time>2014-03-29T21:26:51Z</time>
      </trkpt>
      <trkpt lat="49.53339" lon="0.56785">
        <ele>107.45364379883</ele>
        <time>2014-03-29T21:26:58Z</time>
      </trkpt>
      <trkpt lat="49.53335" lon="0.56784">
        <ele>108.31540679932</ele>
        <time>2014-03-29T21:27:04Z</time>
      </trkpt>
      <trkpt lat="49.5333" lon="0.56782">
        <ele>109.31418609619</ele>
        <time>2014-03-29T21:27:10Z</time>
      </trkpt>
      <trkpt lat="49.53325" lon="0.56778">
        <ele>110.27935791016</ele>
        <time>2014-03-29T21:27:16Z</time>
      </trkpt>
      <trkpt lat="49.53322" lon="0.56775">
        <ele>110.9252243042</ele>
        <time>2014-03-29T21:27:20Z</time>
      </trkpt>
      <trkpt lat="49.5332" lon="0.56773">
        <ele>111.41915130615</ele>
        <time>2014-03-29T21:27:23Z</time>
      </trkpt>
      <trkpt lat="49.53317" lon="0.5677">
        <ele>112.06706237793</ele>
        <time>2014-03-29T21:27:27Z</time>
      </trkpt>
      <trkpt lat="49.53312" lon="0.56767">
        <ele>113.10675811768</ele>
        <time>2014-03-29T21:27:34Z</time>
      </trkpt>
      <trkpt lat="49.53307" lon="0.56765">
        <ele>114.06360626221</ele>
        <time>2014-03-29T21:27:40Z</time>
      </trkpt>
      <trkpt lat="49.53304" lon="0.56764">
        <ele>114.77207946777</ele>
        <time>2014-03-29T21:27:45Z</time>
      </trkpt>
      <trkpt lat="49.53299" lon="0.56764">
        <ele>115.69705963135</ele>
        <time>2014-03-29T21:27:51Z</time>
      </trkpt>
      <trkpt lat="49.53294" lon="0.56764">
        <ele>116.69724273682</ele>
        <time>2014-03-29T21:27:58Z</time>
      </trkpt>
      <trkpt lat="49.53288" lon="0.56767">
        <ele>118.03015136719</ele>
        <time>2014-03-29T21:28:09Z</time>
      </trkpt>
      <trkpt lat="49.53284" lon="0.56768">
        <ele>118.63134002685</ele>
        <time>2014-03-29T21:28:14Z</time>
      </trkpt>
      <trkpt lat="49.53281" lon="0.56768">
        <ele>119.38875579834</ele>
        <time>2014-03-29T21:28:21Z</time>
      </trkpt>
      <trkpt lat="49.53277" lon="0.56768">
        <ele>120.08721160889</ele>
        <time>2014-03-29T21:28:33Z</time>
      </trkpt>
      <trkpt lat="49.53274" lon="0.56768">
        <ele>120.77350616455</ele>
        <time>2014-03-29T21:28:44Z</time>
      </trkpt>
      <trkpt lat="49.53269" lon="0.56767">
        <ele>121.72248840332</ele>
        <time>2014-03-29T21:28:50Z</time>
      </trkpt>
      <trkpt lat="49.53264" lon="0.56766">
        <ele>122.75377655029</ele>
        <time>2014-03-29T21:28:56Z</time>
      </trkpt>
      <trkpt lat="49.5326" lon="0.56765">
        <ele>123.69702148438</ele>
        <time>2014-03-29T21:29:02Z</time>
      </trkpt>
      <trkpt lat="49.53255" lon="0.56763">
        <ele>124.73946380615</ele>
        <time>2014-03-29T21:29:09Z</time>
      </trkpt>
      <trkpt lat="49.53252" lon="0.56762">
        <ele>125.29872894287</ele>
        <time>2014-03-29T21:29:12Z</time>
      </trkpt>
      <trkpt lat="49.53247" lon="0.56762">
        <ele>125.73822784424</ele>
        <time>2014-03-29T21:29:20Z</time>
      </trkpt>
      <trkpt lat="49.53245" lon="0.56762">
        <ele>125.76556396484</ele>
        <time>2014-03-29T21:29:25Z</time>
      </trkpt>
      <trkpt lat="49.53236" lon="0.56768">
        <ele>125.69110870361</ele>
        <time>2014-03-29T21:29:33Z</time>
      </trkpt>
      <trkpt lat="49.53228" lon="0.56776">
        <ele>125.5528793335</ele>
        <time>2014-03-29T21:29:41Z</time>
      </trkpt>
      <trkpt lat="49.53225" lon="0.56778">
        <ele>125.52159118652</ele>
        <time>2014-03-29T21:29:44Z</time>
      </trkpt>
      <trkpt lat="49.53222" lon="0.56779">
        <ele>125.50832366943</ele>
        <time>2014-03-29T21:29:57Z</time>
      </trkpt>
      <trkpt lat="49.53221" lon="0.5678">
        <ele>125.49526977539</ele>
        <time>2014-03-29T21:30:06Z</time>
      </trkpt>
      <trkpt lat="49.53221" lon="0.56778">
        <ele>125.55630493164</ele>
        <time>2014-03-29T21:30:22Z</time>
      </trkpt>
      <trkpt lat="49.53219" lon="0.56776">
        <ele>125.6424407959</ele>
        <time>2014-03-29T21:30:28Z</time>
      </trkpt>
      <trkpt lat="49.53218" lon="0.56775">
        <ele>125.67265319824</ele>
        <time>2014-03-29T21:30:29Z</time>
      </trkpt>
      <trkpt lat="49.53216" lon="0.56767">
        <ele>125.90828704834</ele>
        <time>2014-03-29T21:30:34Z</time>
      </trkpt>
      <trkpt lat="49.53212" lon="0.56757">
        <ele>126.26692199707</ele>
        <time>2014-03-29T21:30:41Z</time>
      </trkpt>
      <trkpt lat="49.53208" lon="0.56749">
        <ele>126.53805541992</ele>
        <time>2014-03-29T21:30:46Z</time>
      </trkpt>
      <trkpt lat="49.53207" lon="0.56747">
        <ele>126.58458709717</ele>
        <time>2014-03-29T21:30:47Z</time>
      </trkpt>
      <trkpt lat="49.53206" lon="0.56742">
        <ele>126.7230758667</ele>
        <time>2014-03-29T21:30:51Z</time>
      </trkpt>
      <trkpt lat="49.53203" lon="0.56736">
        <ele>126.91543579102</ele>
        <time>2014-03-29T21:30:56Z</time>
      </trkpt>
      <trkpt lat="49.53204" lon="0.56728">
        <ele>127.11087799072</ele>
        <time>2014-03-29T21:31:02Z</time>
      </trkpt>
      <trkpt lat="49.53205" lon="0.56724">
        <ele>127.17245483398</ele>
        <time>2014-03-29T21:31:04Z</time>
      </trkpt>
      <trkpt lat="49.53213" lon="0.56714">
        <ele>127.25792694092</ele>
        <time>2014-03-29T21:31:12Z</time>
      </trkpt>
      <trkpt lat="49.53222" lon="0.56706">
        <ele>127.23593139648</ele>
        <time>2014-03-29T21:31:20Z</time>
      </trkpt>
      <trkpt lat="49.53235" lon="0.56698">
        <ele>127.03787994385</ele>
        <time>2014-03-29T21:31:30Z</time>
      </trkpt>
      <trkpt lat="49.5324" lon="0.56694">
        <ele>126.9446182251</ele>
        <time>2014-03-29T21:31:34Z</time>
      </trkpt>
      <trkpt lat="49.53248" lon="0.56681">
        <ele>126.8810043335</ele>
        <time>2014-03-29T21:31:43Z</time>
      </trkpt>
      <trkpt lat="49.53255" lon="0.56675">
        <ele>125.86931610107</ele>
        <time>2014-03-29T21:31:49Z</time>
      </trkpt>
      <trkpt lat="49.53263" lon="0.56672">
        <ele>124.34288787842</ele>
        <time>2014-03-29T21:31:55Z</time>
      </trkpt>
      <trkpt lat="49.53273" lon="0.56665">
        <ele>122.33416748047</ele>
        <time>2014-03-29T21:32:04Z</time>
      </trkpt>
      <trkpt lat="49.53279" lon="0.56658">
        <ele>121.18605041504</ele>
        <time>2014-03-29T21:32:10Z</time>
      </trkpt>
      <trkpt lat="49.53282" lon="0.56655">
        <ele>120.73937988281</ele>
        <time>2014-03-29T21:32:12Z</time>
      </trkpt>
      <trkpt lat="49.53284" lon="0.56643">
        <ele>120.7421951294</ele>
        <time>2014-03-29T21:32:19Z</time>
      </trkpt>
      <trkpt lat="49.53284" lon="0.56641">
        <ele>120.64931488037</ele>
        <time>2014-03-29T21:32:20Z</time>
      </trkpt>
      <trkpt lat="49.53288" lon="0.56632">
        <ele>120.26802825928</ele>
        <time>2014-03-29T21:32:26Z</time>
      </trkpt>
      <trkpt lat="49.5329" lon="0.56618">
        <ele>120.24146270752</ele>
        <time>2014-03-29T21:32:32Z</time>
      </trkpt>
      <trkpt lat="49.53292" lon="0.56611">
        <ele>120.09490203857</ele>
        <time>2014-03-29T21:32:35Z</time>
      </trkpt>
      <trkpt lat="49.53296" lon="0.56593">
        <ele>119.96713256836</ele>
        <time>2014-03-29T21:32:43Z</time>
      </trkpt>
      <trkpt lat="49.533" lon="0.56575">
        <ele>119.81391906738</ele>
        <time>2014-03-29T21:32:51Z</time>
      </trkpt>
      <trkpt lat="49.533" lon="0.56572">
        <ele>119.73919677734</ele>
        <time>2014-03-29T21:32:52Z</time>
      </trkpt>
      <trkpt lat="49.53303" lon="0.56563">
        <ele>119.50659179688</ele>
        <time>2014-03-29T21:32:56Z</time>
      </trkpt>
      <trkpt lat="49.53305" lon="0.56551">
        <ele>119.55869293213</ele>
        <time>2014-03-29T21:33:02Z</time>
      </trkpt>
      <trkpt lat="49.53309" lon="0.5654">
        <ele>119.26884460449</ele>
        <time>2014-03-29T21:33:08Z</time>
      </trkpt>
      <trkpt lat="49.53309" lon="0.56538">
        <ele>119.26565551758</ele>
        <time>2014-03-29T21:33:09Z</time>
      </trkpt>
      <trkpt lat="49.53314" lon="0.56527">
        <ele>119.02600097656</ele>
        <time>2014-03-29T21:33:15Z</time>
      </trkpt>
      <trkpt lat="49.53318" lon="0.56515">
        <ele>118.89854431152</ele>
        <time>2014-03-29T21:33:21Z</time>
      </trkpt>
      <trkpt lat="49.53321" lon="0.56508">
        <ele>118.82837677002</ele>
        <time>2014-03-29T21:33:24Z</time>
      </trkpt>
      <trkpt lat="49.53328" lon="0.5649">
        <ele>118.54614257812</ele>
        <time>2014-03-29T21:33:30Z</time>
      </trkpt>
      <trkpt lat="49.53336" lon="0.56466">
        <ele>117.52906036377</ele>
        <time>2014-03-29T21:33:37Z</time>
      </trkpt>
      <trkpt lat="49.53339" lon="0.56455">
        <ele>117.09308624268</ele>
        <time>2014-03-29T21:33:40Z</time>
      </trkpt>
      <trkpt lat="49.53345" lon="0.56437">
        <ele>116.19157409668</ele>
        <time>2014-03-29T21:33:46Z</time>
      </trkpt>
      <trkpt lat="49.53353" lon="0.56416">
        <ele>115.21533966065</ele>
        <time>2014-03-29T21:33:53Z</time>
      </trkpt>
      <trkpt lat="49.53358" lon="0.56402">
        <ele>115.06243896484</ele>
        <time>2014-03-29T21:33:58Z</time>
      </trkpt>
      <trkpt lat="49.53363" lon="0.56386">
        <ele>115.14664459228</ele>
        <time>2014-03-29T21:34:03Z</time>
      </trkpt>
      <trkpt lat="49.53371" lon="0.56368">
        <ele>115.06963348389</ele>
        <time>2014-03-29T21:34:09Z</time>
      </trkpt>
      <trkpt lat="49.53374" lon="0.56362">
        <ele>115.12110900879</ele>
        <time>2014-03-29T21:34:11Z</time>
      </trkpt>
      <trkpt lat="49.53379" lon="0.56344">
        <ele>115.4031829834</ele>
        <time>2014-03-29T21:34:18Z</time>
      </trkpt>
      <trkpt lat="49.53385" lon="0.56331">
        <ele>115.59568023682</ele>
        <time>2014-03-29T21:34:24Z</time>
      </trkpt>
      <trkpt lat="49.53392" lon="0.56317">
        <ele>115.68927764893</ele>
        <time>2014-03-29T21:34:32Z</time>
      </trkpt>
      <trkpt lat="49.53394" lon="0.56313">
        <ele>115.74208068848</ele>
        <time>2014-03-29T21:34:35Z</time>
      </trkpt>
      <trkpt lat="49.53397" lon="0.56302">
        <ele>116.12044525147</ele>
        <time>2014-03-29T21:34:41Z</time>
      </trkpt>
      <trkpt lat="49.53401" lon="0.56289">
        <ele>116.63220977783</ele>
        <time>2014-03-29T21:34:49Z</time>
      </trkpt>
      <trkpt lat="49.53409" lon="0.56274">
        <ele>116.91947937012</ele>
        <time>2014-03-29T21:34:57Z</time>
      </trkpt>
      <trkpt lat="49.53416" lon="0.5626">
        <ele>117.29956054688</ele>
        <time>2014-03-29T21:35:02Z</time>
      </trkpt>
      <trkpt lat="49.53426" lon="0.56244">
        <ele>117.18305206299</ele>
        <time>2014-03-29T21:35:08Z</time>
      </trkpt>
      <trkpt lat="49.53432" lon="0.56234">
        <ele>116.94638061523</ele>
        <time>2014-03-29T21:35:13Z</time>
      </trkpt>
      <trkpt lat="49.53439" lon="0.56227">
        <ele>116.67108917236</ele>
        <time>2014-03-29T21:35:19Z</time>
      </trkpt>
      <trkpt lat="49.53447" lon="0.56219">
        <ele>116.39632415772</ele>
        <time>2014-03-29T21:35:27Z</time>
      </trkpt>
      <trkpt lat="49.53448" lon="0.56218">
        <ele>116.3751449585</ele>
        <time>2014-03-29T21:35:28Z</time>
      </trkpt>
      <trkpt lat="49.5345" lon="0.56215">
        <ele>116.43560028076</ele>
        <time>2014-03-29T21:35:35Z</time>
      </trkpt>
      <trkpt lat="49.53455" lon="0.56208">
        <ele>116.56388854981</ele>
        <time>2014-03-29T21:35:40Z</time>
      </trkpt>
      <trkpt lat="49.53458" lon="0.56197">
        <ele>117.15793609619</ele>
        <time>2014-03-29T21:35:46Z</time>
      </trkpt>
      <trkpt lat="49.53456" lon="0.56178">
        <ele>118.72135162353</ele>
        <time>2014-03-29T21:35:52Z</time>
      </trkpt>
      <trkpt lat="49.53456" lon="0.56168">
        <ele>119.5005569458</ele>
        <time>2014-03-29T21:35:55Z</time>
      </trkpt>
      <trkpt lat="49.53453" lon="0.56143">
        <ele>119.90802001953</ele>
        <time>2014-03-29T21:36:02Z</time>
      </trkpt>
      <trkpt lat="49.5345" lon="0.56122">
        <ele>120.12202453613</ele>
        <time>2014-03-29T21:36:08Z</time>
      </trkpt>
      <trkpt lat="49.53447" lon="0.56111">
        <ele>120.21081542969</ele>
        <time>2014-03-29T21:36:15Z</time>
      </trkpt>
      <trkpt lat="49.53447" lon="0.56099">
        <ele>120.27722167969</ele>
        <time>2014-03-29T21:36:21Z</time>
      </trkpt>
      <trkpt lat="49.53448" lon="0.56092">
        <ele>120.32661437988</ele>
        <time>2014-03-29T21:36:25Z</time>
      </trkpt>
      <trkpt lat="49.53448" lon="0.56086">
        <ele>120.36218261719</ele>
        <time>2014-03-29T21:36:28Z</time>
      </trkpt>
      <trkpt lat="49.53445" lon="0.56068">
        <ele>120.03701782227</ele>
        <time>2014-03-29T21:36:37Z</time>
      </trkpt>
      <trkpt lat="49.53444" lon="0.56047">
        <ele>119.60451507568</ele>
        <time>2014-03-29T21:36:46Z</time>
      </trkpt>
      <trkpt lat="49.53442" lon="0.56036">
        <ele>119.38101959228</ele>
        <time>2014-03-29T21:36:51Z</time>
      </trkpt>
      <trkpt lat="49.53442" lon="0.56027">
        <ele>119.21896362305</ele>
        <time>2014-03-29T21:36:55Z</time>
      </trkpt>
      <trkpt lat="49.53442" lon="0.56022">
        <ele>119.11429595947</ele>
        <time>2014-03-29T21:36:57Z</time>
      </trkpt>
      <trkpt lat="49.53441" lon="0.56002">
        <ele>118.74216461182</ele>
        <time>2014-03-29T21:37:04Z</time>
      </trkpt>
      <trkpt lat="49.5344" lon="0.55985">
        <ele>118.60353088379</ele>
        <time>2014-03-29T21:37:11Z</time>
      </trkpt>
      <trkpt lat="49.53437" lon="0.55965">
        <ele>118.54351043701</ele>
        <time>2014-03-29T21:37:17Z</time>
      </trkpt>
      <trkpt lat="49.53434" lon="0.55943">
        <ele>118.62396240234</ele>
        <time>2014-03-29T21:37:23Z</time>
      </trkpt>
      <trkpt lat="49.53434" lon="0.5594">
        <ele>118.61384582519</ele>
        <time>2014-03-29T21:37:24Z</time>
      </trkpt>
      <trkpt lat="49.53431" lon="0.5592">
        <ele>118.83319854736</ele>
        <time>2014-03-29T21:37:30Z</time>
      </trkpt>
      <trkpt lat="49.53428" lon="0.55898">
        <ele>118.93834686279</ele>
        <time>2014-03-29T21:37:36Z</time>
      </trkpt>
      <trkpt lat="49.53426" lon="0.55877">
        <ele>119.00563049316</ele>
        <time>2014-03-29T21:37:42Z</time>
      </trkpt>
      <trkpt lat="49.53423" lon="0.5586">
        <ele>119.22707366943</ele>
        <time>2014-03-29T21:37:47Z</time>
      </trkpt>
      <trkpt lat="49.5342" lon="0.55838">
        <ele>119.58428192139</ele>
        <time>2014-03-29T21:37:54Z</time>
      </trkpt>
      <trkpt lat="49.53415" lon="0.55823">
        <ele>119.92116546631</ele>
        <time>2014-03-29T21:37:59Z</time>
      </trkpt>
      <trkpt lat="49.53414" lon="0.5582">
        <ele>119.9220199585</ele>
        <time>2014-03-29T21:38:01Z</time>
      </trkpt>
      <trkpt lat="49.53412" lon="0.55815">
        <ele>119.92925262451</ele>
        <time>2014-03-29T21:38:08Z</time>
      </trkpt>
      <trkpt lat="49.53413" lon="0.55813">
        <ele>119.88906860352</ele>
        <time>2014-03-29T21:38:10Z</time>
      </trkpt>
      <trkpt lat="49.53415" lon="0.55809">
        <ele>119.77095794678</ele>
        <time>2014-03-29T21:38:16Z</time>
      </trkpt>
      <trkpt lat="49.53418" lon="0.55805">
        <ele>119.51301574707</ele>
        <time>2014-03-29T21:38:19Z</time>
      </trkpt>
      <trkpt lat="49.53423" lon="0.55799">
        <ele>118.51573181152</ele>
        <time>2014-03-29T21:38:24Z</time>
      </trkpt>
      <trkpt lat="49.53427" lon="0.55796">
        <ele>117.82711791992</ele>
        <time>2014-03-29T21:38:28Z</time>
      </trkpt>
      <trkpt lat="49.53434" lon="0.5579">
        <ele>116.48769378662</ele>
        <time>2014-03-29T21:38:35Z</time>
      </trkpt>
      <trkpt lat="49.53439" lon="0.55786">
        <ele>115.64464569092</ele>
        <time>2014-03-29T21:38:39Z</time>
      </trkpt>
      <trkpt lat="49.53442" lon="0.55784">
        <ele>115.06633758545</ele>
        <time>2014-03-29T21:38:42Z</time>
      </trkpt>
      <trkpt lat="49.53451" lon="0.55776">
        <ele>113.04111480713</ele>
        <time>2014-03-29T21:38:49Z</time>
      </trkpt>
      <trkpt lat="49.53456" lon="0.55772">
        <ele>112.03628540039</ele>
        <time>2014-03-29T21:38:53Z</time>
      </trkpt>
      <trkpt lat="49.53459" lon="0.55771">
        <ele>111.36570739746</ele>
        <time>2014-03-29T21:38:56Z</time>
      </trkpt>
      <trkpt lat="49.53463" lon="0.55768">
        <ele>110.53707885742</ele>
        <time>2014-03-29T21:39:00Z</time>
      </trkpt>
      <trkpt lat="49.53464" lon="0.55767">
        <ele>110.28675842285</ele>
        <time>2014-03-29T21:39:05Z</time>
      </trkpt>
      <trkpt lat="49.53464" lon="0.55767">
        <ele>110.2974319458</ele>
        <time>2014-03-29T21:39:06Z</time>
      </trkpt>
      <trkpt lat="49.53463" lon="0.55768">
        <ele>110.391456604</ele>
        <time>2014-03-29T21:39:08Z</time>
      </trkpt>
      <trkpt lat="49.53463" lon="0.55768">
        <ele>110.40237426758</ele>
        <time>2014-03-29T21:39:09Z</time>
      </trkpt>
      <trkpt lat="49.53465" lon="0.5577">
        <ele>110.26226043701</ele>
        <time>2014-03-29T21:39:31Z</time>
      </trkpt>
      <trkpt lat="49.53466" lon="0.5577">
        <ele>110.02333068848</ele>
        <time>2014-03-29T21:39:34Z</time>
      </trkpt>
      <trkpt lat="49.53466" lon="0.55771">
        <ele>110.03174591065</ele>
        <time>2014-03-29T21:39:41Z</time>
      </trkpt>
      <trkpt lat="49.5347" lon="0.55769">
        <ele>109.25378417969</ele>
        <time>2014-03-29T21:40:03Z</time>
      </trkpt>
      <trkpt lat="49.53469" lon="0.55764">
        <ele>109.06122589111</ele>
        <time>2014-03-29T21:40:09Z</time>
      </trkpt>
      <trkpt lat="49.53471" lon="0.55759">
        <ele>108.50040435791</ele>
        <time>2014-03-29T21:40:13Z</time>
      </trkpt>
      <trkpt lat="49.53475" lon="0.5575">
        <ele>107.06627655029</ele>
        <time>2014-03-29T21:40:18Z</time>
      </trkpt>
      <trkpt lat="49.53477" lon="0.55748">
        <ele>106.67953491211</ele>
        <time>2014-03-29T21:40:19Z</time>
      </trkpt>
      <trkpt lat="49.53486" lon="0.55738">
        <ele>104.26146697998</ele>
        <time>2014-03-29T21:40:25Z</time>
      </trkpt>
      <trkpt lat="49.53487" lon="0.55735">
        <ele>103.82721710205</ele>
        <time>2014-03-29T21:40:26Z</time>
      </trkpt>
      <trkpt lat="49.53493" lon="0.55723">
        <ele>101.84558105469</ele>
        <time>2014-03-29T21:40:31Z</time>
      </trkpt>
      <trkpt lat="49.53494" lon="0.55721">
        <ele>101.55735778809</ele>
        <time>2014-03-29T21:40:32Z</time>
      </trkpt>
      <trkpt lat="49.53498" lon="0.55713">
        <ele>100.11952972412</ele>
        <time>2014-03-29T21:40:39Z</time>
      </trkpt>
      <trkpt lat="49.53499" lon="0.55711">
        <ele>99.866180419922</ele>
        <time>2014-03-29T21:40:40Z</time>
      </trkpt>
      <trkpt lat="49.53502" lon="0.55706">
        <ele>98.639106750488</ele>
        <time>2014-03-29T21:40:44Z</time>
      </trkpt>
      <trkpt lat="49.53505" lon="0.557">
        <ele>97.573051452637</ele>
        <time>2014-03-29T21:40:48Z</time>
      </trkpt>
      <trkpt lat="49.53505" lon="0.55698">
        <ele>97.226249694824</ele>
        <time>2014-03-29T21:40:50Z</time>
      </trkpt>
      <trkpt lat="49.53506" lon="0.55693">
        <ele>96.692283630371</ele>
        <time>2014-03-29T21:40:54Z</time>
      </trkpt>
      <trkpt lat="49.53505" lon="0.55681">
        <ele>96.261093139648</ele>
        <time>2014-03-29T21:41:00Z</time>
      </trkpt>
      <trkpt lat="49.53505" lon="0.55679">
        <ele>96.164680480957</ele>
        <time>2014-03-29T21:41:01Z</time>
      </trkpt>
      <trkpt lat="49.53504" lon="0.55667">
        <ele>95.921493530273</ele>
        <time>2014-03-29T21:41:07Z</time>
      </trkpt>
      <trkpt lat="49.53499" lon="0.55644">
        <ele>94.641464233398</ele>
        <time>2014-03-29T21:41:14Z</time>
      </trkpt>
      <trkpt lat="49.53495" lon="0.55633">
        <ele>94.169258117676</ele>
        <time>2014-03-29T21:41:19Z</time>
      </trkpt>
      <trkpt lat="49.53492" lon="0.55623">
        <ele>93.91234588623</ele>
        <time>2014-03-29T21:41:24Z</time>
      </trkpt>
      <trkpt lat="49.5349" lon="0.55616">
        <ele>93.738739013672</ele>
        <time>2014-03-29T21:41:28Z</time>
      </trkpt>
      <trkpt lat="49.53486" lon="0.5561">
        <ele>94.135375976562</ele>
        <time>2014-03-29T21:41:33Z</time>
      </trkpt>
      <trkpt lat="49.53485" lon="0.55601">
        <ele>93.313377380371</ele>
        <time>2014-03-29T21:41:38Z</time>
      </trkpt>
      <trkpt lat="49.53482" lon="0.55595">
        <ele>93.366729736328</ele>
        <time>2014-03-29T21:41:42Z</time>
      </trkpt>
      <trkpt lat="49.5348" lon="0.55589">
        <ele>93.329734802246</ele>
        <time>2014-03-29T21:41:47Z</time>
      </trkpt>
      <trkpt lat="49.53478" lon="0.55584">
        <ele>93.324295043945</ele>
        <time>2014-03-29T21:41:50Z</time>
      </trkpt>
      <trkpt lat="49.53478" lon="0.55581">
        <ele>93.018394470215</ele>
        <time>2014-03-29T21:41:52Z</time>
      </trkpt>
      <trkpt lat="49.53474" lon="0.55571">
        <ele>92.595413208008</ele>
        <time>2014-03-29T21:41:57Z</time>
      </trkpt>
      <trkpt lat="49.53469" lon="0.5556">
        <ele>92.109352111816</ele>
        <time>2014-03-29T21:42:01Z</time>
      </trkpt>
      <trkpt lat="49.53466" lon="0.55552">
        <ele>91.785690307617</ele>
        <time>2014-03-29T21:42:04Z</time>
      </trkpt>
      <trkpt lat="49.53461" lon="0.5554">
        <ele>91.000389099121</ele>
        <time>2014-03-29T21:42:09Z</time>
      </trkpt>
      <trkpt lat="49.53451" lon="0.55521">
        <ele>89.61653137207</ele>
        <time>2014-03-29T21:42:17Z</time>
      </trkpt>
      <trkpt lat="49.53442" lon="0.55506">
        <ele>88.173767089844</ele>
        <time>2014-03-29T21:42:22Z</time>
      </trkpt>
      <trkpt lat="49.53432" lon="0.55495">
        <ele>87.947975158691</ele>
        <time>2014-03-29T21:42:28Z</time>
      </trkpt>
      <trkpt lat="49.53426" lon="0.55485">
        <ele>87.44995880127</ele>
        <time>2014-03-29T21:42:33Z</time>
      </trkpt>
      <trkpt lat="49.53421" lon="0.55471">
        <ele>86.227233886719</ele>
        <time>2014-03-29T21:42:39Z</time>
      </trkpt>
      <trkpt lat="49.5342" lon="0.55468">
        <ele>85.975761413574</ele>
        <time>2014-03-29T21:42:40Z</time>
      </trkpt>
      <trkpt lat="49.5341" lon="0.55445">
        <ele>85.235443115234</ele>
        <time>2014-03-29T21:42:47Z</time>
      </trkpt>
      <trkpt lat="49.53404" lon="0.55425">
        <ele>84.230941772461</ele>
        <time>2014-03-29T21:42:53Z</time>
      </trkpt>
      <trkpt lat="49.53397" lon="0.55406">
        <ele>83.526901245117</ele>
        <time>2014-03-29T21:42:59Z</time>
      </trkpt>
      <trkpt lat="49.53394" lon="0.55397">
        <ele>83.031005859375</ele>
        <time>2014-03-29T21:43:03Z</time>
      </trkpt>
      <trkpt lat="49.53389" lon="0.55382">
        <ele>82.422050476074</ele>
        <time>2014-03-29T21:43:08Z</time>
      </trkpt>
      <trkpt lat="49.53386" lon="0.55376">
        <ele>82.401473999023</ele>
        <time>2014-03-29T21:43:11Z</time>
      </trkpt>
      <trkpt lat="49.53379" lon="0.55363">
        <ele>82.115768432617</ele>
        <time>2014-03-29T21:43:16Z</time>
      </trkpt>
      <trkpt lat="49.53378" lon="0.55358">
        <ele>81.833488464355</ele>
        <time>2014-03-29T21:43:18Z</time>
      </trkpt>
      <trkpt lat="49.53371" lon="0.55343">
        <ele>81.016479492188</ele>
        <time>2014-03-29T21:43:24Z</time>
      </trkpt>
      <trkpt lat="49.53367" lon="0.55337">
        <ele>81.073699951172</ele>
        <time>2014-03-29T21:43:28Z</time>
      </trkpt>
      <trkpt lat="49.53365" lon="0.55333">
        <ele>81.063026428223</ele>
        <time>2014-03-29T21:43:34Z</time>
      </trkpt>
      <trkpt lat="49.53363" lon="0.55328">
        <ele>80.578941345215</ele>
        <time>2014-03-29T21:43:40Z</time>
      </trkpt>
      <trkpt lat="49.53358" lon="0.55322">
        <ele>80.746002197266</ele>
        <time>2014-03-29T21:43:44Z</time>
      </trkpt>
      <trkpt lat="49.53351" lon="0.55306">
        <ele>80.011383056641</ele>
        <time>2014-03-29T21:43:50Z</time>
      </trkpt>
      <trkpt lat="49.53352" lon="0.55297">
        <ele>78.268241882324</ele>
        <time>2014-03-29T21:43:54Z</time>
      </trkpt>
      <trkpt lat="49.53351" lon="0.55288">
        <ele>76.95085144043</ele>
        <time>2014-03-29T21:43:58Z</time>
      </trkpt>
      <trkpt lat="49.53348" lon="0.55277">
        <ele>75.967765808105</ele>
        <time>2014-03-29T21:44:03Z</time>
      </trkpt>
      <trkpt lat="49.53343" lon="0.55269">
        <ele>75.766548156738</ele>
        <time>2014-03-29T21:44:08Z</time>
      </trkpt>
      <trkpt lat="49.53337" lon="0.55259">
        <ele>75.581809997559</ele>
        <time>2014-03-29T21:44:13Z</time>
      </trkpt>
      <trkpt lat="49.53332" lon="0.55249">
        <ele>74.860649108887</ele>
        <time>2014-03-29T21:44:20Z</time>
      </trkpt>
      <trkpt lat="49.53329" lon="0.55244">
        <ele>74.167678833008</ele>
        <time>2014-03-29T21:44:23Z</time>
      </trkpt>
      <trkpt lat="49.53327" lon="0.55233">
        <ele>71.641868591309</ele>
        <time>2014-03-29T21:44:28Z</time>
      </trkpt>
      <trkpt lat="49.53326" lon="0.55232">
        <ele>71.413421630859</ele>
        <time>2014-03-29T21:44:29Z</time>
      </trkpt>
      <trkpt lat="49.53322" lon="0.55228">
        <ele>70.963554382324</ele>
        <time>2014-03-29T21:44:32Z</time>
      </trkpt>
      <trkpt lat="49.53312" lon="0.55213">
        <ele>68.217094421387</ele>
        <time>2014-03-29T21:44:38Z</time>
      </trkpt>
      <trkpt lat="49.53311" lon="0.55211">
        <ele>67.866073608398</ele>
        <time>2014-03-29T21:44:39Z</time>
      </trkpt>
      <trkpt lat="49.53306" lon="0.55202">
        <ele>65.97762298584</ele>
        <time>2014-03-29T21:44:43Z</time>
      </trkpt>
      <trkpt lat="49.53304" lon="0.55191">
        <ele>63.148262023926</ele>
        <time>2014-03-29T21:45:07Z</time>
      </trkpt>
      <trkpt lat="49.53304" lon="0.55191">
        <ele>62.990474700928</ele>
        <time>2014-03-29T21:45:08Z</time>
      </trkpt>
      <trkpt lat="49.53308" lon="0.5518">
        <ele>59.610557556152</ele>
        <time>2014-03-29T21:45:14Z</time>
      </trkpt>
      <trkpt lat="49.53309" lon="0.55171">
        <ele>57.307209014893</ele>
        <time>2014-03-29T21:45:18Z</time>
      </trkpt>
      <trkpt lat="49.53307" lon="0.55165">
        <ele>55.818359375</ele>
        <time>2014-03-29T21:45:24Z</time>
      </trkpt>
      <trkpt lat="49.53307" lon="0.55164">
        <ele>55.70735168457</ele>
        <time>2014-03-29T21:45:29Z</time>
      </trkpt>
      <trkpt lat="49.53314" lon="0.5516">
        <ele>54.249374389648</ele>
        <time>2014-03-29T21:46:17Z</time>
      </trkpt>
      <trkpt lat="49.53316" lon="0.55152">
        <ele>52.554504394531</ele>
        <time>2014-03-29T21:46:22Z</time>
      </trkpt>
      <trkpt lat="49.53318" lon="0.55144">
        <ele>51.006118774414</ele>
        <time>2014-03-29T21:46:26Z</time>
      </trkpt>
      <trkpt lat="49.5332" lon="0.55139">
        <ele>49.764434814453</ele>
        <time>2014-03-29T21:46:29Z</time>
      </trkpt>
      <trkpt lat="49.53321" lon="0.55133">
        <ele>48.514739990234</ele>
        <time>2014-03-29T21:46:36Z</time>
      </trkpt>
      <trkpt lat="49.53321" lon="0.55129">
        <ele>47.912780761719</ele>
        <time>2014-03-29T21:46:40Z</time>
      </trkpt>
      <trkpt lat="49.53319" lon="0.55126">
        <ele>47.443572998047</ele>
        <time>2014-03-29T21:46:44Z</time>
      </trkpt>
      <trkpt lat="49.53314" lon="0.55121">
        <ele>46.824447631836</ele>
        <time>2014-03-29T21:46:49Z</time>
      </trkpt>
      <trkpt lat="49.53314" lon="0.55119">
        <ele>46.531478881836</ele>
        <time>2014-03-29T21:46:51Z</time>
      </trkpt>
      <trkpt lat="49.53313" lon="0.55115">
        <ele>45.698348999023</ele>
        <time>2014-03-29T21:46:54Z</time>
      </trkpt>
      <trkpt lat="49.53308" lon="0.5511">
        <ele>45.210830688477</ele>
        <time>2014-03-29T21:46:59Z</time>
      </trkpt>
      <trkpt lat="49.53305" lon="0.55108">
        <ele>45.115844726562</ele>
        <time>2014-03-29T21:47:06Z</time>
      </trkpt>
      <trkpt lat="49.53303" lon="0.55108">
        <ele>45.282928466797</ele>
        <time>2014-03-29T21:47:16Z</time>
      </trkpt>
      <trkpt lat="49.53303" lon="0.55106">
        <ele>44.866363525391</ele>
        <time>2014-03-29T21:47:18Z</time>
      </trkpt>
      <trkpt lat="49.53304" lon="0.55097">
        <ele>43.128005981445</ele>
        <time>2014-03-29T21:47:23Z</time>
      </trkpt>
      <trkpt lat="49.53303" lon="0.55096">
        <ele>42.982666015625</ele>
        <time>2014-03-29T21:47:24Z</time>
      </trkpt>
      <trkpt lat="49.53293" lon="0.55092">
        <ele>42.981521606445</ele>
        <time>2014-03-29T21:47:30Z</time>
      </trkpt>
      <trkpt lat="49.53285" lon="0.55088">
        <ele>43.060485839844</ele>
        <time>2014-03-29T21:47:35Z</time>
      </trkpt>
      <trkpt lat="49.53272" lon="0.55084">
        <ele>43.189804077148</ele>
        <time>2014-03-29T21:47:41Z</time>
      </trkpt>
      <trkpt lat="49.53259" lon="0.55079">
        <ele>43.654083251953</ele>
        <time>2014-03-29T21:47:46Z</time>
      </trkpt>
      <trkpt lat="49.53246" lon="0.55067">
        <ele>42.739337921143</ele>
        <time>2014-03-29T21:47:52Z</time>
      </trkpt>
      <trkpt lat="49.53239" lon="0.55058">
        <ele>41.718769073486</ele>
        <time>2014-03-29T21:47:56Z</time>
      </trkpt>
      <trkpt lat="49.5323" lon="0.5505">
        <ele>40.746097564697</ele>
        <time>2014-03-29T21:48:01Z</time>
      </trkpt>
      <trkpt lat="49.53214" lon="0.55043">
        <ele>39.997646331787</ele>
        <time>2014-03-29T21:48:08Z</time>
      </trkpt>
      <trkpt lat="49.5321" lon="0.55042">
        <ele>39.98669052124</ele>
        <time>2014-03-29T21:48:10Z</time>
      </trkpt>
      <trkpt lat="49.53199" lon="0.55029">
        <ele>38.010051727295</ele>
        <time>2014-03-29T21:48:18Z</time>
      </trkpt>
      <trkpt lat="49.53187" lon="0.55019">
        <ele>36.355339050293</ele>
        <time>2014-03-29T21:48:27Z</time>
      </trkpt>
      <trkpt lat="49.53178" lon="0.55012">
        <ele>35.291748046875</ele>
        <time>2014-03-29T21:48:34Z</time>
      </trkpt>
      <trkpt lat="49.53168" lon="0.55006">
        <ele>34.185272216797</ele>
        <time>2014-03-29T21:48:41Z</time>
      </trkpt>
      <trkpt lat="49.53155" lon="0.54998">
        <ele>33.637874603271</ele>
        <time>2014-03-29T21:48:47Z</time>
      </trkpt>
      <trkpt lat="49.5314" lon="0.54988">
        <ele>33.970714569092</ele>
        <time>2014-03-29T21:48:53Z</time>
      </trkpt>
      <trkpt lat="49.53125" lon="0.54979">
        <ele>34.236572265625</ele>
        <time>2014-03-29T21:48:59Z</time>
      </trkpt>
      <trkpt lat="49.53111" lon="0.5497">
        <ele>34.2965965271</ele>
        <time>2014-03-29T21:49:05Z</time>
      </trkpt>
      <trkpt lat="49.53098" lon="0.54956">
        <ele>33.796115875244</ele>
        <time>2014-03-29T21:49:11Z</time>
      </trkpt>
      <trkpt lat="49.53085" lon="0.54942">
        <ele>33.11828994751</ele>
        <time>2014-03-29T21:49:16Z</time>
      </trkpt>
      <trkpt lat="49.53069" lon="0.54928">
        <ele>32.88680267334</ele>
        <time>2014-03-29T21:49:22Z</time>
      </trkpt>
      <trkpt lat="49.53062" lon="0.54918">
        <ele>32.473438262939</ele>
        <time>2014-03-29T21:49:26Z</time>
      </trkpt>
      <trkpt lat="49.53066" lon="0.54913">
        <ele>31.974046707153</ele>
        <time>2014-03-29T21:49:30Z</time>
      </trkpt>
      <trkpt lat="49.53076" lon="0.54919">
        <ele>31.675466537476</ele>
        <time>2014-03-29T21:49:34Z</time>
      </trkpt>
      <trkpt lat="49.53086" lon="0.54922">
        <ele>31.424345016479</ele>
        <time>2014-03-29T21:49:39Z</time>
      </trkpt>
      <trkpt lat="49.5309" lon="0.54923">
        <ele>31.425420761108</ele>
        <time>2014-03-29T21:49:42Z</time>
      </trkpt>
      <trkpt lat="49.531" lon="0.54917">
        <ele>30.824865341186</ele>
        <time>2014-03-29T21:49:50Z</time>
      </trkpt>
      <trkpt lat="49.53109" lon="0.54918">
        <ele>30.772092819214</ele>
        <time>2014-03-29T21:49:57Z</time>
      </trkpt>
      <trkpt lat="49.53114" lon="0.54919">
        <ele>30.800178527832</ele>
        <time>2014-03-29T21:50:01Z</time>
      </trkpt>
      <trkpt lat="49.53115" lon="0.54919">
        <ele>30.777698516846</ele>
        <time>2014-03-29T21:50:03Z</time>
      </trkpt>
      <trkpt lat="49.53118" lon="0.54919">
        <ele>30.714433670044</ele>
        <time>2014-03-29T21:50:08Z</time>
      </trkpt>
      <trkpt lat="49.53116" lon="0.54918">
        <ele>30.675939559936</ele>
        <time>2014-03-29T21:50:46Z</time>
      </trkpt>
      <trkpt lat="49.53115" lon="0.54918">
        <ele>30.710165023804</ele>
        <time>2014-03-29T21:50:50Z</time>
      </trkpt>
      <trkpt lat="49.53115" lon="0.54918">
        <ele>30.727821350098</ele>
        <time>2014-03-29T21:50:51Z</time>
      </trkpt>
      <trkpt lat="49.5311" lon="0.54915">
        <ele>30.688312530518</ele>
        <time>2014-03-29T21:50:58Z</time>
      </trkpt>
      <trkpt lat="49.53108" lon="0.54913">
        <ele>30.733615875244</ele>
        <time>2014-03-29T21:51:03Z</time>
      </trkpt>
      <trkpt lat="49.53107" lon="0.54912">
        <ele>30.747861862183</ele>
        <time>2014-03-29T21:51:15Z</time>
      </trkpt>
      <trkpt lat="49.53107" lon="0.54911">
        <ele>30.755001068115</ele>
        <time>2014-03-29T21:51:25Z</time>
      </trkpt>
      <trkpt lat="49.53107" lon="0.5491">
        <ele>30.762336730957</ele>
        <time>2014-03-29T21:51:46Z</time>
      </trkpt>
      <trkpt lat="49.53107" lon="0.54913">
        <ele>30.744735717773</ele>
        <time>2014-03-29T21:51:55Z</time>
      </trkpt>
      <trkpt lat="49.53108" lon="0.54917">
        <ele>30.748155593872</ele>
        <time>2014-03-29T21:52:01Z</time>
      </trkpt>
      <trkpt lat="49.53114" lon="0.5493">
        <ele>31.503885269165</ele>
        <time>2014-03-29T21:52:09Z</time>
      </trkpt>
      <trkpt lat="49.53115" lon="0.54933">
        <ele>31.683294296265</ele>
        <time>2014-03-29T21:52:11Z</time>
      </trkpt>
      <trkpt lat="49.53115" lon="0.54941">
        <ele>32.214019775391</ele>
        <time>2014-03-29T21:52:18Z</time>
      </trkpt>
      <trkpt lat="49.53115" lon="0.54943">
        <ele>32.34366607666</ele>
        <time>2014-03-29T21:52:26Z</time>
      </trkpt>
      <trkpt lat="49.53115" lon="0.54946">
        <ele>32.533630371094</ele>
        <time>2014-03-29T21:52:28Z</time>
      </trkpt>
      <trkpt lat="49.5312" lon="0.54954">
        <ele>32.905212402344</ele>
        <time>2014-03-29T21:52:33Z</time>
      </trkpt>
      <trkpt lat="49.53125" lon="0.54957">
        <ele>32.924793243408</ele>
        <time>2014-03-29T21:52:39Z</time>
      </trkpt>
      <trkpt lat="49.53125" lon="0.54956">
        <ele>32.882972717285</ele>
        <time>2014-03-29T21:52:44Z</time>
      </trkpt>
      <trkpt lat="49.53126" lon="0.54957">
        <ele>32.898944854736</ele>
        <time>2014-03-29T21:52:51Z</time>
      </trkpt>
      <trkpt lat="49.53124" lon="0.54955">
        <ele>32.840393066406</ele>
        <time>2014-03-29T21:52:57Z</time>
      </trkpt>
      <trkpt lat="49.53124" lon="0.54954">
        <ele>32.736640930176</ele>
        <time>2014-03-29T21:53:04Z</time>
      </trkpt>
      <trkpt lat="49.53125" lon="0.54943">
        <ele>32.094745635986</ele>
        <time>2014-03-29T21:53:08Z</time>
      </trkpt>
      <trkpt lat="49.53131" lon="0.54927">
        <ele>31.038564682007</ele>
        <time>2014-03-29T21:53:13Z</time>
      </trkpt>
      <trkpt lat="49.53132" lon="0.54925">
        <ele>30.865961074829</ele>
        <time>2014-03-29T21:53:14Z</time>
      </trkpt>
      <trkpt lat="49.53143" lon="0.54905">
        <ele>30.479103088379</ele>
        <time>2014-03-29T21:53:21Z</time>
      </trkpt>
      <trkpt lat="49.53144" lon="0.54903">
        <ele>30.503402709961</ele>
        <time>2014-03-29T21:53:22Z</time>
      </trkpt>
      <trkpt lat="49.5315" lon="0.54913">
        <ele>30.269058227539</ele>
        <time>2014-03-29T21:53:27Z</time>
      </trkpt>
      <trkpt lat="49.5315" lon="0.54915">
        <ele>30.232046127319</ele>
        <time>2014-03-29T21:53:28Z</time>
      </trkpt>
      <trkpt lat="49.53152" lon="0.54919">
        <ele>30.282279968262</ele>
        <time>2014-03-29T21:53:36Z</time>
      </trkpt>
      <trkpt lat="49.53151" lon="0.54921">
        <ele>30.39342880249</ele>
        <time>2014-03-29T21:53:38Z</time>
      </trkpt>
      <trkpt lat="49.5315" lon="0.54929">
        <ele>30.764448165894</ele>
        <time>2014-03-29T21:53:44Z</time>
      </trkpt>
      <trkpt lat="49.53149" lon="0.54934">
        <ele>31.027944564819</ele>
        <time>2014-03-29T21:53:50Z</time>
      </trkpt>
      <trkpt lat="49.53149" lon="0.54934">
        <ele>31.00798034668</ele>
        <time>2014-03-29T21:53:59Z</time>
      </trkpt>
      <trkpt lat="49.5315" lon="0.54933">
        <ele>30.936351776123</ele>
        <time>2014-03-29T21:54:00Z</time>
      </trkpt>
      <trkpt lat="49.53154" lon="0.5492">
        <ele>30.296255111694</ele>
        <time>2014-03-29T21:54:07Z</time>
      </trkpt>
      <trkpt lat="49.53155" lon="0.54919">
        <ele>30.257116317749</ele>
        <time>2014-03-29T21:54:08Z</time>
      </trkpt>
      <trkpt lat="49.53156" lon="0.54919">
        <ele>30.244472503662</ele>
        <time>2014-03-29T21:54:10Z</time>
      </trkpt>
      <trkpt lat="49.5316" lon="0.54925">
        <ele>30.391048431396</ele>
        <time>2014-03-29T21:54:14Z</time>
      </trkpt>
      <trkpt lat="49.53172" lon="0.54934">
        <ele>30.832416534424</ele>
        <time>2014-03-29T21:54:20Z</time>
      </trkpt>
      <trkpt lat="49.53179" lon="0.54937">
        <ele>31.175954818726</ele>
        <time>2014-03-29T21:54:22Z</time>
      </trkpt>
      <trkpt lat="49.53188" lon="0.54925">
        <ele>31.235330581665</ele>
        <time>2014-03-29T21:54:27Z</time>
      </trkpt>
      <trkpt lat="49.53199" lon="0.5491">
        <ele>31.864566802979</ele>
        <time>2014-03-29T21:54:32Z</time>
      </trkpt>
      <trkpt lat="49.53209" lon="0.54899">
        <ele>33.117454528809</ele>
        <time>2014-03-29T21:54:38Z</time>
      </trkpt>
      <trkpt lat="49.5321" lon="0.54897">
        <ele>33.315547943115</ele>
        <time>2014-03-29T21:54:40Z</time>
      </trkpt>
      <trkpt lat="49.53214" lon="0.5489">
        <ele>34.012306213379</ele>
        <time>2014-03-29T21:54:47Z</time>
      </trkpt>
      <trkpt lat="49.53215" lon="0.54889">
        <ele>34.132232666016</ele>
        <time>2014-03-29T21:54:48Z</time>
      </trkpt>
      <trkpt lat="49.5322" lon="0.54882">
        <ele>34.963157653809</ele>
        <time>2014-03-29T21:54:54Z</time>
      </trkpt>
      <trkpt lat="49.53222" lon="0.54879">
        <ele>35.387382507324</ele>
        <time>2014-03-29T21:54:58Z</time>
      </trkpt>
      <trkpt lat="49.53223" lon="0.54877">
        <ele>35.572105407715</ele>
        <time>2014-03-29T21:55:04Z</time>
      </trkpt>
      <trkpt lat="49.53223" lon="0.54879">
        <ele>35.395664215088</ele>
        <time>2014-03-29T21:55:07Z</time>
      </trkpt>
      <trkpt lat="49.53219" lon="0.54889">
        <ele>34.476974487305</ele>
        <time>2014-03-29T21:55:15Z</time>
      </trkpt>
      <trkpt lat="49.53214" lon="0.54897">
        <ele>33.556198120117</ele>
        <time>2014-03-29T21:55:23Z</time>
      </trkpt>
      <trkpt lat="49.53211" lon="0.549">
        <ele>33.203319549561</ele>
        <time>2014-03-29T21:55:26Z</time>
      </trkpt>
      <trkpt lat="49.53204" lon="0.54895">
        <ele>32.968955993652</ele>
        <time>2014-03-29T21:55:32Z</time>
      </trkpt>
      <trkpt lat="49.53196" lon="0.54887">
        <ele>32.883586883545</ele>
        <time>2014-03-29T21:55:36Z</time>
      </trkpt>
      <trkpt lat="49.53189" lon="0.54877">
        <ele>32.803493499756</ele>
        <time>2014-03-29T21:55:40Z</time>
      </trkpt>
      <trkpt lat="49.53187" lon="0.54873">
        <ele>32.813674926758</ele>
        <time>2014-03-29T21:55:42Z</time>
      </trkpt>
      <trkpt lat="49.53173" lon="0.54867">
        <ele>31.794342041016</ele>
        <time>2014-03-29T21:55:48Z</time>
      </trkpt>
      <trkpt lat="49.53164" lon="0.54875">
        <ele>30.997676849365</ele>
        <time>2014-03-29T21:55:52Z</time>
      </trkpt>
      <trkpt lat="49.53159" lon="0.54875">
        <ele>30.98952293396</ele>
        <time>2014-03-29T21:55:54Z</time>
      </trkpt>
      <trkpt lat="49.53142" lon="0.54878">
        <ele>30.951753616333</ele>
        <time>2014-03-29T21:56:00Z</time>
      </trkpt>
      <trkpt lat="49.53125" lon="0.54878">
        <ele>30.965473175049</ele>
        <time>2014-03-29T21:56:06Z</time>
      </trkpt>
      <trkpt lat="49.53114" lon="0.54878">
        <ele>30.973035812378</ele>
        <time>2014-03-29T21:56:10Z</time>
      </trkpt>
      <trkpt lat="49.531" lon="0.54874">
        <ele>31.005924224854</ele>
        <time>2014-03-29T21:56:15Z</time>
      </trkpt>
      <trkpt lat="49.53098" lon="0.54871">
        <ele>31.01655960083</ele>
        <time>2014-03-29T21:56:16Z</time>
      </trkpt>
      <trkpt lat="49.53088" lon="0.5486">
        <ele>31.020282745361</ele>
        <time>2014-03-29T21:56:21Z</time>
      </trkpt>
      <trkpt lat="49.53082" lon="0.54847">
        <ele>30.999523162842</ele>
        <time>2014-03-29T21:56:27Z</time>
      </trkpt>
      <trkpt lat="49.53081" lon="0.54823">
        <ele>31.787742614746</ele>
        <time>2014-03-29T21:56:34Z</time>
      </trkpt>
      <trkpt lat="49.53077" lon="0.54816">
        <ele>32.332595825195</ele>
        <time>2014-03-29T21:56:38Z</time>
      </trkpt>
      <trkpt lat="49.5307" lon="0.54815">
        <ele>32.243846893311</ele>
        <time>2014-03-29T21:56:42Z</time>
      </trkpt>
      <trkpt lat="49.53066" lon="0.54817">
        <ele>32.012325286865</ele>
        <time>2014-03-29T21:56:44Z</time>
      </trkpt>
      <trkpt lat="49.53064" lon="0.54815">
        <ele>32.083759307861</ele>
        <time>2014-03-29T21:56:50Z</time>
      </trkpt>
      <trkpt lat="49.53066" lon="0.54814">
        <ele>32.196212768555</ele>
        <time>2014-03-29T21:56:59Z</time>
      </trkpt>
      <trkpt lat="49.53065" lon="0.54814">
        <ele>32.234867095947</ele>
        <time>2014-03-29T21:57:02Z</time>
      </trkpt>
      <trkpt lat="49.53057" lon="0.54811">
        <ele>32.188777923584</ele>
        <time>2014-03-29T21:57:09Z</time>
      </trkpt>
      <trkpt lat="49.53048" lon="0.54812">
        <ele>31.909553527832</ele>
        <time>2014-03-29T21:57:16Z</time>
      </trkpt>
      <trkpt lat="49.53042" lon="0.54815">
        <ele>31.639814376831</ele>
        <time>2014-03-29T21:57:22Z</time>
      </trkpt>
      <trkpt lat="49.53032" lon="0.54815">
        <ele>31.411193847656</ele>
        <time>2014-03-29T21:57:30Z</time>
      </trkpt>
      <trkpt lat="49.53019" lon="0.54816">
        <ele>31.037452697754</ele>
        <time>2014-03-29T21:57:40Z</time>
      </trkpt>
      <trkpt lat="49.53009" lon="0.54817">
        <ele>30.799795150757</ele>
        <time>2014-03-29T21:57:46Z</time>
      </trkpt>
      <trkpt lat="49.53001" lon="0.54816">
        <ele>30.642147064209</ele>
        <time>2014-03-29T21:57:54Z</time>
      </trkpt>
      <trkpt lat="49.52989" lon="0.54818">
        <ele>30.480739593506</ele>
        <time>2014-03-29T21:58:03Z</time>
      </trkpt>
      <trkpt lat="49.52985" lon="0.54819">
        <ele>30.444755554199</ele>
        <time>2014-03-29T21:58:09Z</time>
      </trkpt>
      <trkpt lat="49.52982" lon="0.54817">
        <ele>30.462202072144</ele>
        <time>2014-03-29T21:58:19Z</time>
      </trkpt>
      <trkpt lat="49.52982" lon="0.54815">
        <ele>30.488843917847</ele>
        <time>2014-03-29T21:58:25Z</time>
      </trkpt>
      <trkpt lat="49.52984" lon="0.54794">
        <ele>30.876634597778</ele>
        <time>2014-03-29T21:58:31Z</time>
      </trkpt>
      <trkpt lat="49.52984" lon="0.54778">
        <ele>31.174095153809</ele>
        <time>2014-03-29T21:58:35Z</time>
      </trkpt>
      <trkpt lat="49.52986" lon="0.54756">
        <ele>31.682264328003</ele>
        <time>2014-03-29T21:58:40Z</time>
      </trkpt>
      <trkpt lat="49.52987" lon="0.54742">
        <ele>32.603996276855</ele>
        <time>2014-03-29T21:58:44Z</time>
      </trkpt>
      <trkpt lat="49.52987" lon="0.54733">
        <ele>33.368167877197</ele>
        <time>2014-03-29T21:58:49Z</time>
      </trkpt>
      <trkpt lat="49.52985" lon="0.54722">
        <ele>34.131843566895</ele>
        <time>2014-03-29T21:58:56Z</time>
      </trkpt>
      <trkpt lat="49.52987" lon="0.54718">
        <ele>34.69490814209</ele>
        <time>2014-03-29T21:58:59Z</time>
      </trkpt>
      <trkpt lat="49.52988" lon="0.54715">
        <ele>35.066528320312</ele>
        <time>2014-03-29T21:59:10Z</time>
      </trkpt>
      <trkpt lat="49.52988" lon="0.54718">
        <ele>34.789505004883</ele>
        <time>2014-03-29T21:59:20Z</time>
      </trkpt>
      <trkpt lat="49.52988" lon="0.54719">
        <ele>34.730514526367</ele>
        <time>2014-03-29T21:59:21Z</time>
      </trkpt>
      <trkpt lat="49.52992" lon="0.54728">
        <ele>34.320838928223</ele>
        <time>2014-03-29T21:59:26Z</time>
      </trkpt>
      <trkpt lat="49.52995" lon="0.54733">
        <ele>34.135631561279</ele>
        <time>2014-03-29T21:59:30Z</time>
      </trkpt>
      <trkpt lat="49.52998" lon="0.54736">
        <ele>34.072769165039</ele>
        <time>2014-03-29T21:59:33Z</time>
      </trkpt>
      <trkpt lat="49.52998" lon="0.54736">
        <ele>34.196277618408</ele>
        <time>2014-03-29T21:59:39Z</time>
      </trkpt>
      <trkpt lat="49.53004" lon="0.54741">
        <ele>34.091938018799</ele>
        <time>2014-03-29T21:59:46Z</time>
      </trkpt>
      <trkpt lat="49.53013" lon="0.54751">
        <ele>33.76900100708</ele>
        <time>2014-03-29T21:59:50Z</time>
      </trkpt>
      <trkpt lat="49.53029" lon="0.54765">
        <ele>33.985439300537</ele>
        <time>2014-03-29T21:59:57Z</time>
      </trkpt>
      <trkpt lat="49.53045" lon="0.54775">
        <ele>34.155181884766</ele>
        <time>2014-03-29T22:00:04Z</time>
      </trkpt>
      <trkpt lat="49.53054" lon="0.54781">
        <ele>34.153518676758</ele>
        <time>2014-03-29T22:00:10Z</time>
      </trkpt>
      <trkpt lat="49.53064" lon="0.54789">
        <ele>33.990417480469</ele>
        <time>2014-03-29T22:00:19Z</time>
      </trkpt>
      <trkpt lat="49.5307" lon="0.54793">
        <ele>33.873153686523</ele>
        <time>2014-03-29T22:00:24Z</time>
      </trkpt>
      <trkpt lat="49.53074" lon="0.54796">
        <ele>33.771240234375</ele>
        <time>2014-03-29T22:00:29Z</time>
      </trkpt>
      <trkpt lat="49.53076" lon="0.54799">
        <ele>33.66862487793</ele>
        <time>2014-03-29T22:00:32Z</time>
      </trkpt>
      <trkpt lat="49.53078" lon="0.54797">
        <ele>33.847682952881</ele>
        <time>2014-03-29T22:00:35Z</time>
      </trkpt>
      <trkpt lat="49.53079" lon="0.54795">
        <ele>34.094848632812</ele>
        <time>2014-03-29T22:00:40Z</time>
      </trkpt>
      <trkpt lat="49.53078" lon="0.54795">
        <ele>34.043106079102</ele>
        <time>2014-03-29T22:00:45Z</time>
      </trkpt>
      <trkpt lat="49.53077" lon="0.548">
        <ele>33.563201904297</ele>
        <time>2014-03-29T22:00:52Z</time>
      </trkpt>
      <trkpt lat="49.53079" lon="0.54816">
        <ele>32.385761260986</ele>
        <time>2014-03-29T22:00:57Z</time>
      </trkpt>
      <trkpt lat="49.53083" lon="0.5484">
        <ele>30.998235702515</ele>
        <time>2014-03-29T22:01:04Z</time>
      </trkpt>
      <trkpt lat="49.53085" lon="0.54848">
        <ele>31.015619277954</ele>
        <time>2014-03-29T22:01:06Z</time>
      </trkpt>
      <trkpt lat="49.53093" lon="0.54859">
        <ele>31.045877456665</ele>
        <time>2014-03-29T22:01:11Z</time>
      </trkpt>
      <trkpt lat="49.53099" lon="0.54865">
        <ele>31.044940948486</ele>
        <time>2014-03-29T22:01:15Z</time>
      </trkpt>
      <trkpt lat="49.5311" lon="0.54856">
        <ele>31.14616394043</ele>
        <time>2014-03-29T22:01:20Z</time>
      </trkpt>
      <trkpt lat="49.53119" lon="0.54836">
        <ele>31.401641845703</ele>
        <time>2014-03-29T22:01:26Z</time>
      </trkpt>
      <trkpt lat="49.53126" lon="0.54822">
        <ele>32.887668609619</ele>
        <time>2014-03-29T22:01:31Z</time>
      </trkpt>
      <trkpt lat="49.53127" lon="0.54821">
        <ele>33.006313323975</ele>
        <time>2014-03-29T22:01:32Z</time>
      </trkpt>
      <trkpt lat="49.53127" lon="0.54817">
        <ele>33.552265167236</ele>
        <time>2014-03-29T22:01:36Z</time>
      </trkpt>
      <trkpt lat="49.53122" lon="0.54809">
        <ele>34.297054290771</ele>
        <time>2014-03-29T22:01:45Z</time>
      </trkpt>
      <trkpt lat="49.53118" lon="0.54806">
        <ele>34.543601989746</ele>
        <time>2014-03-29T22:01:52Z</time>
      </trkpt>
      <trkpt lat="49.53121" lon="0.54804">
        <ele>34.877487182617</ele>
        <time>2014-03-29T22:01:59Z</time>
      </trkpt>
      <trkpt lat="49.5312" lon="0.54807">
        <ele>34.526351928711</ele>
        <time>2014-03-29T22:02:04Z</time>
      </trkpt>
      <trkpt lat="49.53122" lon="0.5481">
        <ele>34.184429168701</ele>
        <time>2014-03-29T22:02:07Z</time>
      </trkpt>
      <trkpt lat="49.5313" lon="0.54811">
        <ele>34.289169311523</ele>
        <time>2014-03-29T22:02:13Z</time>
      </trkpt>
      <trkpt lat="49.53135" lon="0.54804">
        <ele>35.388847351074</ele>
        <time>2014-03-29T22:02:19Z</time>
      </trkpt>
      <trkpt lat="49.53138" lon="0.54801">
        <ele>35.876964569092</ele>
        <time>2014-03-29T22:02:25Z</time>
      </trkpt>
      <trkpt lat="49.53138" lon="0.54797">
        <ele>36.503673553467</ele>
        <time>2014-03-29T22:02:35Z</time>
      </trkpt>
      <trkpt lat="49.53137" lon="0.54793">
        <ele>36.867584228516</ele>
        <time>2014-03-29T22:02:43Z</time>
      </trkpt>
      <trkpt lat="49.53136" lon="0.5479">
        <ele>37.247714996338</ele>
        <time>2014-03-29T22:02:50Z</time>
      </trkpt>
      <trkpt lat="49.53135" lon="0.54788">
        <ele>37.512420654297</ele>
        <time>2014-03-29T22:02:57Z</time>
      </trkpt>
      <trkpt lat="49.53135" lon="0.54784">
        <ele>38.005462646484</ele>
        <time>2014-03-29T22:03:06Z</time>
      </trkpt>
      <trkpt lat="49.53134" lon="0.5478">
        <ele>38.398136138916</ele>
        <time>2014-03-29T22:03:13Z</time>
      </trkpt>
      <trkpt lat="49.53134" lon="0.54779">
        <ele>38.482528686523</ele>
        <time>2014-03-29T22:03:14Z</time>
      </trkpt>
      <trkpt lat="49.5313" lon="0.5477">
        <ele>39.442512512207</ele>
        <time>2014-03-29T22:03:20Z</time>
      </trkpt>
      <trkpt lat="49.53122" lon="0.54752">
        <ele>40.955432891846</ele>
        <time>2014-03-29T22:03:31Z</time>
      </trkpt>
      <trkpt lat="49.53115" lon="0.5474">
        <ele>42.198669433594</ele>
        <time>2014-03-29T22:03:39Z</time>
      </trkpt>
      <trkpt lat="49.53111" lon="0.54731">
        <ele>43.123649597168</ele>
        <time>2014-03-29T22:03:46Z</time>
      </trkpt>
      <trkpt lat="49.53107" lon="0.54723">
        <ele>43.959354400635</ele>
        <time>2014-03-29T22:03:56Z</time>
      </trkpt>
      <trkpt lat="49.53104" lon="0.54717">
        <ele>44.618503570557</ele>
        <time>2014-03-29T22:04:00Z</time>
      </trkpt>
      <trkpt lat="49.53092" lon="0.54707">
        <ele>45.007194519043</ele>
        <time>2014-03-29T22:04:08Z</time>
      </trkpt>
      <trkpt lat="49.53081" lon="0.54699">
        <ele>45.131229400635</ele>
        <time>2014-03-29T22:04:13Z</time>
      </trkpt>
      <trkpt lat="49.53067" lon="0.54693">
        <ele>44.758068084717</ele>
        <time>2014-03-29T22:04:18Z</time>
      </trkpt>
      <trkpt lat="49.53055" lon="0.54684">
        <ele>44.724124908447</ele>
        <time>2014-03-29T22:04:23Z</time>
      </trkpt>
      <trkpt lat="49.53037" lon="0.54676">
        <ele>43.931205749512</ele>
        <time>2014-03-29T22:04:30Z</time>
      </trkpt>
      <trkpt lat="49.53027" lon="0.54668">
        <ele>43.732559204102</ele>
        <time>2014-03-29T22:04:35Z</time>
      </trkpt>
      <trkpt lat="49.53018" lon="0.54663">
        <ele>43.569641113281</ele>
        <time>2014-03-29T22:04:41Z</time>
      </trkpt>
      <trkpt lat="49.53009" lon="0.54657">
        <ele>43.568820953369</ele>
        <time>2014-03-29T22:04:48Z</time>
      </trkpt>
      <trkpt lat="49.53004" lon="0.54652">
        <ele>43.773983001709</ele>
        <time>2014-03-29T22:04:52Z</time>
      </trkpt>
      <trkpt lat="49.52997" lon="0.54646">
        <ele>43.780853271484</ele>
        <time>2014-03-29T22:04:57Z</time>
      </trkpt>
      <trkpt lat="49.52984" lon="0.54636">
        <ele>43.376575469971</ele>
        <time>2014-03-29T22:05:03Z</time>
      </trkpt>
      <trkpt lat="49.52972" lon="0.54631">
        <ele>42.358150482178</ele>
        <time>2014-03-29T22:05:08Z</time>
      </trkpt>
      <trkpt lat="49.52967" lon="0.54627">
        <ele>42.139713287354</ele>
        <time>2014-03-29T22:05:10Z</time>
      </trkpt>
      <trkpt lat="49.52961" lon="0.54614">
        <ele>43.037952423096</ele>
        <time>2014-03-29T22:05:14Z</time>
      </trkpt>
      <trkpt lat="49.52959" lon="0.54613">
        <ele>42.874038696289</ele>
        <time>2014-03-29T22:05:15Z</time>
      </trkpt>
      <trkpt lat="49.52945" lon="0.54604">
        <ele>41.813747406006</ele>
        <time>2014-03-29T22:05:21Z</time>
      </trkpt>
      <trkpt lat="49.52938" lon="0.54596">
        <ele>41.905643463135</ele>
        <time>2014-03-29T22:05:26Z</time>
      </trkpt>
      <trkpt lat="49.52933" lon="0.54596">
        <ele>41.060657501221</ele>
        <time>2014-03-29T22:05:29Z</time>
      </trkpt>
      <trkpt lat="49.5293" lon="0.54594">
        <ele>40.923927307129</ele>
        <time>2014-03-29T22:05:35Z</time>
      </trkpt>
      <trkpt lat="49.5293" lon="0.5459">
        <ele>41.391551971436</ele>
        <time>2014-03-29T22:05:40Z</time>
      </trkpt>
      <trkpt lat="49.5293" lon="0.54587">
        <ele>41.79109954834</ele>
        <time>2014-03-29T22:05:45Z</time>
      </trkpt>
      <trkpt lat="49.52932" lon="0.54582">
        <ele>42.68920135498</ele>
        <time>2014-03-29T22:05:50Z</time>
      </trkpt>
      <trkpt lat="49.52933" lon="0.54578">
        <ele>43.732780456543</ele>
        <time>2014-03-29T22:05:55Z</time>
      </trkpt>
      <trkpt lat="49.52934" lon="0.54575">
        <ele>44.403713226318</ele>
        <time>2014-03-29T22:05:57Z</time>
      </trkpt>
      <trkpt lat="49.52935" lon="0.54566">
        <ele>46.031036376953</ele>
        <time>2014-03-29T22:06:02Z</time>
      </trkpt>
      <trkpt lat="49.52937" lon="0.54562">
        <ele>47.077491760254</ele>
        <time>2014-03-29T22:06:08Z</time>
      </trkpt>
      <trkpt lat="49.52938" lon="0.54557">
        <ele>48.036804199219</ele>
        <time>2014-03-29T22:06:14Z</time>
      </trkpt>
      <trkpt lat="49.52941" lon="0.54559">
        <ele>48.156349182129</ele>
        <time>2014-03-29T22:06:18Z</time>
      </trkpt>
      <trkpt lat="49.52941" lon="0.54562">
        <ele>47.720962524414</ele>
        <time>2014-03-29T22:06:29Z</time>
      </trkpt>
      <trkpt lat="49.52938" lon="0.54564">
        <ele>46.978588104248</ele>
        <time>2014-03-29T22:06:33Z</time>
      </trkpt>
      <trkpt lat="49.52933" lon="0.54571">
        <ele>44.832759857178</ele>
        <time>2014-03-29T22:06:38Z</time>
      </trkpt>
      <trkpt lat="49.52927" lon="0.54587">
        <ele>41.309978485107</ele>
        <time>2014-03-29T22:06:44Z</time>
      </trkpt>
      <trkpt lat="49.52926" lon="0.54594">
        <ele>40.220096588135</ele>
        <time>2014-03-29T22:06:49Z</time>
      </trkpt>
      <trkpt lat="49.52924" lon="0.54595">
        <ele>39.642055511475</ele>
        <time>2014-03-29T22:06:54Z</time>
      </trkpt>
      <trkpt lat="49.5291" lon="0.54585">
        <ele>38.7541847229</ele>
        <time>2014-03-29T22:07:01Z</time>
      </trkpt>
      <trkpt lat="49.5291" lon="0.54579">
        <ele>39.684284210205</ele>
        <time>2014-03-29T22:07:05Z</time>
      </trkpt>
      <trkpt lat="49.52911" lon="0.54578">
        <ele>40.099853515625</ele>
        <time>2014-03-29T22:07:07Z</time>
      </trkpt>
      <trkpt lat="49.52912" lon="0.54571">
        <ele>41.489452362061</ele>
        <time>2014-03-29T22:07:14Z</time>
      </trkpt>
      <trkpt lat="49.52913" lon="0.54563">
        <ele>42.898288726807</ele>
        <time>2014-03-29T22:07:21Z</time>
      </trkpt>
      <trkpt lat="49.52914" lon="0.54555">
        <ele>44.414798736572</ele>
        <time>2014-03-29T22:07:28Z</time>
      </trkpt>
      <trkpt lat="49.52914" lon="0.54552">
        <ele>44.867546081543</ele>
        <time>2014-03-29T22:07:30Z</time>
      </trkpt>
      <trkpt lat="49.52916" lon="0.54546">
        <ele>46.111831665039</ele>
        <time>2014-03-29T22:07:37Z</time>
      </trkpt>
      <trkpt lat="49.52916" lon="0.54542">
        <ele>46.890571594238</ele>
        <time>2014-03-29T22:07:41Z</time>
      </trkpt>
      <trkpt lat="49.52918" lon="0.54535">
        <ele>48.417671203613</ele>
        <time>2014-03-29T22:07:47Z</time>
      </trkpt>
      <trkpt lat="49.52922" lon="0.54524">
        <ele>50.915977478027</ele>
        <time>2014-03-29T22:07:57Z</time>
      </trkpt>
      <trkpt lat="49.52925" lon="0.54517">
        <ele>52.705638885498</ele>
        <time>2014-03-29T22:08:04Z</time>
      </trkpt>
      <trkpt lat="49.52926" lon="0.54516">
        <ele>52.928791046143</ele>
        <time>2014-03-29T22:08:05Z</time>
      </trkpt>
      <trkpt lat="49.52928" lon="0.54511">
        <ele>54.136051177979</ele>
        <time>2014-03-29T22:08:12Z</time>
      </trkpt>
      <trkpt lat="49.5293" lon="0.54506">
        <ele>55.388645172119</ele>
        <time>2014-03-29T22:08:20Z</time>
      </trkpt>
      <trkpt lat="49.52929" lon="0.54502">
        <ele>55.968105316162</ele>
        <time>2014-03-29T22:08:27Z</time>
      </trkpt>
      <trkpt lat="49.52929" lon="0.54499">
        <ele>56.420913696289</ele>
        <time>2014-03-29T22:08:33Z</time>
      </trkpt>
      <trkpt lat="49.5293" lon="0.54494">
        <ele>57.736717224121</ele>
        <time>2014-03-29T22:08:38Z</time>
      </trkpt>
      <trkpt lat="49.52931" lon="0.54488">
        <ele>59.128746032715</ele>
        <time>2014-03-29T22:08:43Z</time>
      </trkpt>
      <trkpt lat="49.52935" lon="0.5448">
        <ele>61.669940948486</ele>
        <time>2014-03-29T22:08:51Z</time>
      </trkpt>
      <trkpt lat="49.52937" lon="0.54475">
        <ele>63.267601013184</ele>
        <time>2014-03-29T22:08:57Z</time>
      </trkpt>
      <trkpt lat="49.5294" lon="0.54468">
        <ele>65.387313842773</ele>
        <time>2014-03-29T22:09:08Z</time>
      </trkpt>
      <trkpt lat="49.52938" lon="0.54462">
        <ele>66.424301147461</ele>
        <time>2014-03-29T22:09:15Z</time>
      </trkpt>
      <trkpt lat="49.52938" lon="0.54458">
        <ele>67.186149597168</ele>
        <time>2014-03-29T22:09:20Z</time>
      </trkpt>
      <trkpt lat="49.52937" lon="0.54451">
        <ele>68.393775939941</ele>
        <time>2014-03-29T22:09:27Z</time>
      </trkpt>
      <trkpt lat="49.52936" lon="0.54445">
        <ele>69.746490478516</ele>
        <time>2014-03-29T22:09:32Z</time>
      </trkpt>
      <trkpt lat="49.52937" lon="0.54442">
        <ele>70.55997467041</ele>
        <time>2014-03-29T22:09:34Z</time>
      </trkpt>
      <trkpt lat="49.52934" lon="0.54432">
        <ele>72.050712585449</ele>
        <time>2014-03-29T22:09:40Z</time>
      </trkpt>
      <trkpt lat="49.52932" lon="0.54426">
        <ele>72.758819580078</ele>
        <time>2014-03-29T22:09:44Z</time>
      </trkpt>
      <trkpt lat="49.52931" lon="0.54425">
        <ele>72.82593536377</ele>
        <time>2014-03-29T22:09:45Z</time>
      </trkpt>
      <trkpt lat="49.52929" lon="0.54421">
        <ele>73.303398132324</ele>
        <time>2014-03-29T22:09:50Z</time>
      </trkpt>
      <trkpt lat="49.52928" lon="0.54417">
        <ele>73.755661010742</ele>
        <time>2014-03-29T22:09:56Z</time>
      </trkpt>
      <trkpt lat="49.52927" lon="0.54412">
        <ele>74.879699707031</ele>
        <time>2014-03-29T22:10:04Z</time>
      </trkpt>
      <trkpt lat="49.52925" lon="0.54406">
        <ele>75.882011413574</ele>
        <time>2014-03-29T22:10:10Z</time>
      </trkpt>
      <trkpt lat="49.52923" lon="0.54403">
        <ele>76.139976501465</ele>
        <time>2014-03-29T22:10:15Z</time>
      </trkpt>
      <trkpt lat="49.52921" lon="0.54398">
        <ele>76.944183349609</ele>
        <time>2014-03-29T22:10:21Z</time>
      </trkpt>
      <trkpt lat="49.52919" lon="0.54394">
        <ele>77.479644775391</ele>
        <time>2014-03-29T22:10:25Z</time>
      </trkpt>
      <trkpt lat="49.52914" lon="0.54386">
        <ele>78.78052520752</ele>
        <time>2014-03-29T22:10:32Z</time>
      </trkpt>
      <trkpt lat="49.52914" lon="0.54381">
        <ele>79.876235961914</ele>
        <time>2014-03-29T22:10:36Z</time>
      </trkpt>
      <trkpt lat="49.52917" lon="0.54374">
        <ele>82.25798034668</ele>
        <time>2014-03-29T22:10:44Z</time>
      </trkpt>
      <trkpt lat="49.5292" lon="0.54371">
        <ele>83.762725830078</ele>
        <time>2014-03-29T22:10:50Z</time>
      </trkpt>
      <trkpt lat="49.52922" lon="0.54369">
        <ele>84.91975402832</ele>
        <time>2014-03-29T22:10:55Z</time>
      </trkpt>
      <trkpt lat="49.52927" lon="0.54369">
        <ele>86.147583007812</ele>
        <time>2014-03-29T22:11:01Z</time>
      </trkpt>
      <trkpt lat="49.5293" lon="0.54369">
        <ele>86.808372497559</ele>
        <time>2014-03-29T22:11:06Z</time>
      </trkpt>
      <trkpt lat="49.52932" lon="0.54367">
        <ele>87.763458251953</ele>
        <time>2014-03-29T22:11:09Z</time>
      </trkpt>
      <trkpt lat="49.52938" lon="0.54365">
        <ele>89.72590637207</ele>
        <time>2014-03-29T22:11:16Z</time>
      </trkpt>
      <trkpt lat="49.52944" lon="0.54364">
        <ele>91.530281066895</ele>
        <time>2014-03-29T22:11:28Z</time>
      </trkpt>
      <trkpt lat="49.52946" lon="0.54361">
        <ele>92.737350463867</ele>
        <time>2014-03-29T22:11:35Z</time>
      </trkpt>
      <trkpt lat="49.52948" lon="0.5436">
        <ele>93.38793182373</ele>
        <time>2014-03-29T22:11:43Z</time>
      </trkpt>
      <trkpt lat="49.52949" lon="0.54359">
        <ele>93.743843078613</ele>
        <time>2014-03-29T22:11:45Z</time>
      </trkpt>
      <trkpt lat="49.52951" lon="0.54358">
        <ele>94.494163513184</ele>
        <time>2014-03-29T22:11:47Z</time>
      </trkpt>
      <trkpt lat="49.52956" lon="0.5436">
        <ele>95.24666595459</ele>
        <time>2014-03-29T22:11:53Z</time>
      </trkpt>
      <trkpt lat="49.52959" lon="0.54361">
        <ele>95.587677001953</ele>
        <time>2014-03-29T22:12:02Z</time>
      </trkpt>
      <trkpt lat="49.52966" lon="0.54369">
        <ele>95.243255615234</ele>
        <time>2014-03-29T22:12:27Z</time>
      </trkpt>
      <trkpt lat="49.52969" lon="0.5437">
        <ele>95.802619934082</ele>
        <time>2014-03-29T22:12:30Z</time>
      </trkpt>
      <trkpt lat="49.52973" lon="0.5437">
        <ele>96.687980651855</ele>
        <time>2014-03-29T22:12:37Z</time>
      </trkpt>
      <trkpt lat="49.52978" lon="0.5437">
        <ele>98.003265380859</ele>
        <time>2014-03-29T22:12:44Z</time>
      </trkpt>
      <trkpt lat="49.52982" lon="0.54369">
        <ele>99.289070129395</ele>
        <time>2014-03-29T22:12:49Z</time>
      </trkpt>
      <trkpt lat="49.52985" lon="0.54368">
        <ele>100.130027771</ele>
        <time>2014-03-29T22:12:52Z</time>
      </trkpt>
      <trkpt lat="49.52987" lon="0.54363">
        <ele>101.84408569336</ele>
        <time>2014-03-29T22:13:01Z</time>
      </trkpt>
      <trkpt lat="49.52988" lon="0.54361">
        <ele>102.33805847168</ele>
        <time>2014-03-29T22:13:12Z</time>
      </trkpt>
      <trkpt lat="49.5299" lon="0.54358">
        <ele>103.74868011475</ele>
        <time>2014-03-29T22:13:27Z</time>
      </trkpt>
      <trkpt lat="49.52987" lon="0.54356">
        <ele>103.61318969727</ele>
        <time>2014-03-29T22:13:33Z</time>
      </trkpt>
      <trkpt lat="49.52985" lon="0.54354">
        <ele>103.56623077393</ele>
        <time>2014-03-29T22:13:37Z</time>
      </trkpt>
      <trkpt lat="49.52983" lon="0.54352">
        <ele>103.67133331299</ele>
        <time>2014-03-29T22:13:42Z</time>
      </trkpt>
      <trkpt lat="49.52982" lon="0.54351">
        <ele>103.54596710205</ele>
        <time>2014-03-29T22:13:44Z</time>
      </trkpt>
      <trkpt lat="49.52982" lon="0.54351">
        <ele>103.54596710205</ele>
        <time>2014-03-29T22:13:44Z</time>
      </trkpt>
      <trkpt lat="49.52979" lon="0.5435">
        <ele>103.08792877197</ele>
        <time>2014-03-29T22:13:48Z</time>
      </trkpt>
      <trkpt lat="49.52974" lon="0.5435">
        <ele>101.99634552002</ele>
        <time>2014-03-29T22:13:54Z</time>
      </trkpt>
      <trkpt lat="49.52974" lon="0.5435">
        <ele>101.86446380615</ele>
        <time>2014-03-29T22:13:55Z</time>
      </trkpt>
      <trkpt lat="49.52969" lon="0.54347">
        <ele>101.36176300049</ele>
        <time>2014-03-29T22:13:59Z</time>
      </trkpt>
      <trkpt lat="49.52965" lon="0.54346">
        <ele>100.87814331055</ele>
        <time>2014-03-29T22:14:02Z</time>
      </trkpt>
      <trkpt lat="49.52959" lon="0.54347">
        <ele>99.13858795166</ele>
        <time>2014-03-29T22:14:07Z</time>
      </trkpt>
      <trkpt lat="49.52952" lon="0.54345">
        <ele>98.13516998291</ele>
        <time>2014-03-29T22:14:11Z</time>
      </trkpt>
      <trkpt lat="49.52942" lon="0.54343">
        <ele>96.203605651855</ele>
        <time>2014-03-29T22:14:16Z</time>
      </trkpt>
      <trkpt lat="49.52937" lon="0.54342">
        <ele>95.58056640625</ele>
        <time>2014-03-29T22:14:18Z</time>
      </trkpt>
      <trkpt lat="49.52928" lon="0.54341">
        <ele>93.434844970703</ele>
        <time>2014-03-29T22:14:23Z</time>
      </trkpt>
      <trkpt lat="49.52916" lon="0.54338">
        <ele>91.755424499512</ele>
        <time>2014-03-29T22:14:28Z</time>
      </trkpt>
      <trkpt lat="49.52905" lon="0.54334">
        <ele>90.019744873047</ele>
        <time>2014-03-29T22:14:33Z</time>
      </trkpt>
      <trkpt lat="49.52896" lon="0.54329">
        <ele>89.119918823242</ele>
        <time>2014-03-29T22:14:37Z</time>
      </trkpt>
      <trkpt lat="49.52892" lon="0.54326">
        <ele>88.834968566895</ele>
        <time>2014-03-29T22:14:39Z</time>
      </trkpt>
      <trkpt lat="49.52888" lon="0.54326">
        <ele>87.940277099609</ele>
        <time>2014-03-29T22:14:42Z</time>
      </trkpt>
      <trkpt lat="49.52877" lon="0.54321">
        <ele>86.626815795898</ele>
        <time>2014-03-29T22:14:48Z</time>
      </trkpt>
      <trkpt lat="49.52868" lon="0.54316">
        <ele>85.717506408691</ele>
        <time>2014-03-29T22:14:52Z</time>
      </trkpt>
      <trkpt lat="49.52866" lon="0.54315">
        <ele>85.494636535645</ele>
        <time>2014-03-29T22:14:53Z</time>
      </trkpt>
      <trkpt lat="49.52858" lon="0.5431">
        <ele>85.005874633789</ele>
        <time>2014-03-29T22:14:58Z</time>
      </trkpt>
      <trkpt lat="49.52849" lon="0.54305">
        <ele>84.215667724609</ele>
        <time>2014-03-29T22:15:05Z</time>
      </trkpt>
      <trkpt lat="49.52843" lon="0.543">
        <ele>84.46800994873</ele>
        <time>2014-03-29T22:15:10Z</time>
      </trkpt>
      <trkpt lat="49.52842" lon="0.54299">
        <ele>84.328689575195</ele>
        <time>2014-03-29T22:15:11Z</time>
      </trkpt>
      <trkpt lat="49.52832" lon="0.54293">
        <ele>83.817909240723</ele>
        <time>2014-03-29T22:15:18Z</time>
      </trkpt>
      <trkpt lat="49.52823" lon="0.5429">
        <ele>82.193222045898</ele>
        <time>2014-03-29T22:15:22Z</time>
      </trkpt>
      <trkpt lat="49.52816" lon="0.54288">
        <ele>80.793937683105</ele>
        <time>2014-03-29T22:15:25Z</time>
      </trkpt>
      <trkpt lat="49.52813" lon="0.54285">
        <ele>80.542900085449</ele>
        <time>2014-03-29T22:15:27Z</time>
      </trkpt>
      <trkpt lat="49.52801" lon="0.54277">
        <ele>79.237525939941</ele>
        <time>2014-03-29T22:15:32Z</time>
      </trkpt>
      <trkpt lat="49.5279" lon="0.5427">
        <ele>78.032043457031</ele>
        <time>2014-03-29T22:15:37Z</time>
      </trkpt>
      <trkpt lat="49.52781" lon="0.54263">
        <ele>76.840789794922</ele>
        <time>2014-03-29T22:15:41Z</time>
      </trkpt>
      <trkpt lat="49.52776" lon="0.54261">
        <ele>75.948265075684</ele>
        <time>2014-03-29T22:15:43Z</time>
      </trkpt>
      <trkpt lat="49.52765" lon="0.54254">
        <ele>74.555793762207</ele>
        <time>2014-03-29T22:15:47Z</time>
      </trkpt>
      <trkpt lat="49.52752" lon="0.54243">
        <ele>73.301025390625</ele>
        <time>2014-03-29T22:15:53Z</time>
      </trkpt>
      <trkpt lat="49.52742" lon="0.54237">
        <ele>72.190902709961</ele>
        <time>2014-03-29T22:15:57Z</time>
      </trkpt>
      <trkpt lat="49.5274" lon="0.54235">
        <ele>72.373657226562</ele>
        <time>2014-03-29T22:15:58Z</time>
      </trkpt>
      <trkpt lat="49.52721" lon="0.54215">
        <ele>72.466850280762</ele>
        <time>2014-03-29T22:16:05Z</time>
      </trkpt>
      <trkpt lat="49.52708" lon="0.54206">
        <ele>71.274810791016</ele>
        <time>2014-03-29T22:16:10Z</time>
      </trkpt>
      <trkpt lat="49.52698" lon="0.54198">
        <ele>70.208930969238</ele>
        <time>2014-03-29T22:16:14Z</time>
      </trkpt>
      <trkpt lat="49.52692" lon="0.54193">
        <ele>69.96753692627</ele>
        <time>2014-03-29T22:16:17Z</time>
      </trkpt>
      <trkpt lat="49.52692" lon="0.54193">
        <ele>69.96753692627</ele>
        <time>2014-03-29T22:16:17Z</time>
      </trkpt>
      <trkpt lat="49.52688" lon="0.54189">
        <ele>69.967819213867</ele>
        <time>2014-03-29T22:16:19Z</time>
      </trkpt>
      <trkpt lat="49.52678" lon="0.5418">
        <ele>69.432952880859</ele>
        <time>2014-03-29T22:16:25Z</time>
      </trkpt>
      <trkpt lat="49.5267" lon="0.54173">
        <ele>69.169021606445</ele>
        <time>2014-03-29T22:16:29Z</time>
      </trkpt>
      <trkpt lat="49.52662" lon="0.5416">
        <ele>70.248352050781</ele>
        <time>2014-03-29T22:16:34Z</time>
      </trkpt>
      <trkpt lat="49.5265" lon="0.54147">
        <ele>70.188606262207</ele>
        <time>2014-03-29T22:16:39Z</time>
      </trkpt>
      <trkpt lat="49.52642" lon="0.54138">
        <ele>69.89119720459</ele>
        <time>2014-03-29T22:16:43Z</time>
      </trkpt>
      <trkpt lat="49.52636" lon="0.54131">
        <ele>69.719764709473</ele>
        <time>2014-03-29T22:16:47Z</time>
      </trkpt>
      <trkpt lat="49.52621" lon="0.54115">
        <ele>68.976715087891</ele>
        <time>2014-03-29T22:16:54Z</time>
      </trkpt>
      <trkpt lat="49.52617" lon="0.54111">
        <ele>68.666778564453</ele>
        <time>2014-03-29T22:16:57Z</time>
      </trkpt>
      <trkpt lat="49.52607" lon="0.54101">
        <ele>68.281539916992</ele>
        <time>2014-03-29T22:17:02Z</time>
      </trkpt>
      <trkpt lat="49.52606" lon="0.54099">
        <ele>68.404121398926</ele>
        <time>2014-03-29T22:17:03Z</time>
      </trkpt>
      <trkpt lat="49.52592" lon="0.5408">
        <ele>68.400100708008</ele>
        <time>2014-03-29T22:17:10Z</time>
      </trkpt>
      <trkpt lat="49.52585" lon="0.54073">
        <ele>67.982109069824</ele>
        <time>2014-03-29T22:17:14Z</time>
      </trkpt>
      <trkpt lat="49.52579" lon="0.54065">
        <ele>68.113121032715</ele>
        <time>2014-03-29T22:17:18Z</time>
      </trkpt>
      <trkpt lat="49.52575" lon="0.54057">
        <ele>68.368133544922</ele>
        <time>2014-03-29T22:17:21Z</time>
      </trkpt>
      <trkpt lat="49.52567" lon="0.54049">
        <ele>67.90315246582</ele>
        <time>2014-03-29T22:17:26Z</time>
      </trkpt>
      <trkpt lat="49.52562" lon="0.54042">
        <ele>67.581703186035</ele>
        <time>2014-03-29T22:17:30Z</time>
      </trkpt>
      <trkpt lat="49.52553" lon="0.5403">
        <ele>67.566696166992</ele>
        <time>2014-03-29T22:17:34Z</time>
      </trkpt>
      <trkpt lat="49.52545" lon="0.54018">
        <ele>67.254318237305</ele>
        <time>2014-03-29T22:17:38Z</time>
      </trkpt>
      <trkpt lat="49.52539" lon="0.5401">
        <ele>67.020240783691</ele>
        <time>2014-03-29T22:17:42Z</time>
      </trkpt>
      <trkpt lat="49.52531" lon="0.53997">
        <ele>66.784217834473</ele>
        <time>2014-03-29T22:17:48Z</time>
      </trkpt>
      <trkpt lat="49.52525" lon="0.53985">
        <ele>66.254425048828</ele>
        <time>2014-03-29T22:17:53Z</time>
      </trkpt>
      <trkpt lat="49.52518" lon="0.53973">
        <ele>65.640594482422</ele>
        <time>2014-03-29T22:17:58Z</time>
      </trkpt>
      <trkpt lat="49.52512" lon="0.5396">
        <ele>65.681793212891</ele>
        <time>2014-03-29T22:18:02Z</time>
      </trkpt>
      <trkpt lat="49.52506" lon="0.5395">
        <ele>64.896301269531</ele>
        <time>2014-03-29T22:18:06Z</time>
      </trkpt>
      <trkpt lat="49.52505" lon="0.53949">
        <ele>64.680511474609</ele>
        <time>2014-03-29T22:18:07Z</time>
      </trkpt>
      <trkpt lat="49.52505" lon="0.53949">
        <ele>64.680511474609</ele>
        <time>2014-03-29T22:18:07Z</time>
      </trkpt>
      <trkpt lat="49.52497" lon="0.53939">
        <ele>63.278915405273</ele>
        <time>2014-03-29T22:18:13Z</time>
      </trkpt>
      <trkpt lat="49.52494" lon="0.53935">
        <ele>62.785579681396</ele>
        <time>2014-03-29T22:18:15Z</time>
      </trkpt>
      <trkpt lat="49.52486" lon="0.53926">
        <ele>61.578643798828</ele>
        <time>2014-03-29T22:18:19Z</time>
      </trkpt>
      <trkpt lat="49.5248" lon="0.53915">
        <ele>60.421394348145</ele>
        <time>2014-03-29T22:18:24Z</time>
      </trkpt>
      <trkpt lat="49.52478" lon="0.53912">
        <ele>59.919986724854</ele>
        <time>2014-03-29T22:18:25Z</time>
      </trkpt>
      <trkpt lat="49.52471" lon="0.53899">
        <ele>57.654983520508</ele>
        <time>2014-03-29T22:18:31Z</time>
      </trkpt>
      <trkpt lat="49.52468" lon="0.53893">
        <ele>56.906776428223</ele>
        <time>2014-03-29T22:18:33Z</time>
      </trkpt>
      <trkpt lat="49.5246" lon="0.53878">
        <ele>54.574909210205</ele>
        <time>2014-03-29T22:18:39Z</time>
      </trkpt>
      <trkpt lat="49.52452" lon="0.53866">
        <ele>52.481109619141</ele>
        <time>2014-03-29T22:18:44Z</time>
      </trkpt>
      <trkpt lat="49.52451" lon="0.53863">
        <ele>52.393630981445</ele>
        <time>2014-03-29T22:18:46Z</time>
      </trkpt>
      <trkpt lat="49.52448" lon="0.53852">
        <ele>52.105731964111</ele>
        <time>2014-03-29T22:18:54Z</time>
      </trkpt>
      <trkpt lat="49.52448" lon="0.53851">
        <ele>52.052070617676</ele>
        <time>2014-03-29T22:18:55Z</time>
      </trkpt>
      <trkpt lat="49.52448" lon="0.53844">
        <ele>52.568801879883</ele>
        <time>2014-03-29T22:19:03Z</time>
      </trkpt>
      <trkpt lat="49.5245" lon="0.53835">
        <ele>53.471298217773</ele>
        <time>2014-03-29T22:19:09Z</time>
      </trkpt>
      <trkpt lat="49.5245" lon="0.53834">
        <ele>53.638870239258</ele>
        <time>2014-03-29T22:19:10Z</time>
      </trkpt>
      <trkpt lat="49.52451" lon="0.5382">
        <ele>53.782115936279</ele>
        <time>2014-03-29T22:19:18Z</time>
      </trkpt>
      <trkpt lat="49.52451" lon="0.53812">
        <ele>53.551677703857</ele>
        <time>2014-03-29T22:19:22Z</time>
      </trkpt>
      <trkpt lat="49.52451" lon="0.53804">
        <ele>53.536880493164</ele>
        <time>2014-03-29T22:19:29Z</time>
      </trkpt>
      <trkpt lat="49.52455" lon="0.53797">
        <ele>54.484348297119</ele>
        <time>2014-03-29T22:19:42Z</time>
      </trkpt>
      <trkpt lat="49.52459" lon="0.53799">
        <ele>55.648742675781</ele>
        <time>2014-03-29T22:19:47Z</time>
      </trkpt>
      <trkpt lat="49.52461" lon="0.53797">
        <ele>56.025371551514</ele>
        <time>2014-03-29T22:19:50Z</time>
      </trkpt>
      <trkpt lat="49.52466" lon="0.53795">
        <ele>57.347412109375</ele>
        <time>2014-03-29T22:19:56Z</time>
      </trkpt>
      <trkpt lat="49.52468" lon="0.53795">
        <ele>57.852981567383</ele>
        <time>2014-03-29T22:19:58Z</time>
      </trkpt>
      <trkpt lat="49.52472" lon="0.53794">
        <ele>58.880714416504</ele>
        <time>2014-03-29T22:20:02Z</time>
      </trkpt>
      <trkpt lat="49.52475" lon="0.53794">
        <ele>59.69677734375</ele>
        <time>2014-03-29T22:20:06Z</time>
      </trkpt>
      <trkpt lat="49.52479" lon="0.53792">
        <ele>60.892127990723</ele>
        <time>2014-03-29T22:20:13Z</time>
      </trkpt>
      <trkpt lat="49.52483" lon="0.53793">
        <ele>61.945770263672</ele>
        <time>2014-03-29T22:20:20Z</time>
      </trkpt>
      <trkpt lat="49.52488" lon="0.53794">
        <ele>63.320899963379</ele>
        <time>2014-03-29T22:20:27Z</time>
      </trkpt>
      <trkpt lat="49.52491" lon="0.53794">
        <ele>64.136436462402</ele>
        <time>2014-03-29T22:20:31Z</time>
      </trkpt>
      <trkpt lat="49.52494" lon="0.53794">
        <ele>64.875091552734</ele>
        <time>2014-03-29T22:20:34Z</time>
      </trkpt>
      <trkpt lat="49.52501" lon="0.53793">
        <ele>66.774398803711</ele>
        <time>2014-03-29T22:20:40Z</time>
      </trkpt>
      <trkpt lat="49.52503" lon="0.53793">
        <ele>67.340660095215</ele>
        <time>2014-03-29T22:20:43Z</time>
      </trkpt>
      <trkpt lat="49.52506" lon="0.53794">
        <ele>68.04443359375</ele>
        <time>2014-03-29T22:20:47Z</time>
      </trkpt>
      <trkpt lat="49.52512" lon="0.53794">
        <ele>69.491142272949</ele>
        <time>2014-03-29T22:20:55Z</time>
      </trkpt>
      <trkpt lat="49.52516" lon="0.53797">
        <ele>70.755889892578</ele>
        <time>2014-03-29T22:21:05Z</time>
      </trkpt>
      <trkpt lat="49.52526" lon="0.53799">
        <ele>73.420989990234</ele>
        <time>2014-03-29T22:21:23Z</time>
      </trkpt>
      <trkpt lat="49.5253" lon="0.53795">
        <ele>74.22144317627</ele>
        <time>2014-03-29T22:21:29Z</time>
      </trkpt>
      <trkpt lat="49.52533" lon="0.53793">
        <ele>74.820678710938</ele>
        <time>2014-03-29T22:21:32Z</time>
      </trkpt>
      <trkpt lat="49.52539" lon="0.53791">
        <ele>75.935905456543</ele>
        <time>2014-03-29T22:21:41Z</time>
      </trkpt>
      <trkpt lat="49.52538" lon="0.53788">
        <ele>75.591384887695</ele>
        <time>2014-03-29T22:21:47Z</time>
      </trkpt>
      <trkpt lat="49.52539" lon="0.53786">
        <ele>75.682334899902</ele>
        <time>2014-03-29T22:21:52Z</time>
      </trkpt>
      <trkpt lat="49.52541" lon="0.53784">
        <ele>75.923202514648</ele>
        <time>2014-03-29T22:21:57Z</time>
      </trkpt>
      <trkpt lat="49.52542" lon="0.53784">
        <ele>76.054206848145</ele>
        <time>2014-03-29T22:22:00Z</time>
      </trkpt>
      <trkpt lat="49.52546" lon="0.53782">
        <ele>76.939399719238</ele>
        <time>2014-03-29T22:22:05Z</time>
      </trkpt>
      <trkpt lat="49.52549" lon="0.53781">
        <ele>77.470039367676</ele>
        <time>2014-03-29T22:22:07Z</time>
      </trkpt>
      <trkpt lat="49.52551" lon="0.5378">
        <ele>77.744125366211</ele>
        <time>2014-03-29T22:22:09Z</time>
      </trkpt>
      <trkpt lat="49.52556" lon="0.53776">
        <ele>78.568466186523</ele>
        <time>2014-03-29T22:22:15Z</time>
      </trkpt>
      <trkpt lat="49.5256" lon="0.53773">
        <ele>79.250221252441</ele>
        <time>2014-03-29T22:22:21Z</time>
      </trkpt>
      <trkpt lat="49.52561" lon="0.53773">
        <ele>79.355010986328</ele>
        <time>2014-03-29T22:22:22Z</time>
      </trkpt>
      <trkpt lat="49.52562" lon="0.53771">
        <ele>79.441215515137</ele>
        <time>2014-03-29T22:22:24Z</time>
      </trkpt>
      <trkpt lat="49.52567" lon="0.5377">
        <ele>80.289978027344</ele>
        <time>2014-03-29T22:22:30Z</time>
      </trkpt>
      <trkpt lat="49.52568" lon="0.53769">
        <ele>80.383155822754</ele>
        <time>2014-03-29T22:22:31Z</time>
      </trkpt>
      <trkpt lat="49.5257" lon="0.53766">
        <ele>80.457107543945</ele>
        <time>2014-03-29T22:22:34Z</time>
      </trkpt>
      <trkpt lat="49.5257" lon="0.53766">
        <ele>80.457107543945</ele>
        <time>2014-03-29T22:22:34Z</time>
      </trkpt>
      <trkpt lat="49.52576" lon="0.5376">
        <ele>80.825500488281</ele>
        <time>2014-03-29T22:22:39Z</time>
      </trkpt>
      <trkpt lat="49.52585" lon="0.53755">
        <ele>81.927398681641</ele>
        <time>2014-03-29T22:22:44Z</time>
      </trkpt>
      <trkpt lat="49.52594" lon="0.5375">
        <ele>82.149322509766</ele>
        <time>2014-03-29T22:22:48Z</time>
      </trkpt>
      <trkpt lat="49.52599" lon="0.53745">
        <ele>81.654205322266</ele>
        <time>2014-03-29T22:22:51Z</time>
      </trkpt>
      <trkpt lat="49.52613" lon="0.53735">
        <ele>81.081840515137</ele>
        <time>2014-03-29T22:22:56Z</time>
      </trkpt>
      <trkpt lat="49.52623" lon="0.53725">
        <ele>80.171424865723</ele>
        <time>2014-03-29T22:23:02Z</time>
      </trkpt>
      <trkpt lat="49.52633" lon="0.53718">
        <ele>79.654632568359</ele>
        <time>2014-03-29T22:23:06Z</time>
      </trkpt>
      <trkpt lat="49.52637" lon="0.53714">
        <ele>79.392684936523</ele>
        <time>2014-03-29T22:23:09Z</time>
      </trkpt>
      <trkpt lat="49.52644" lon="0.53707">
        <ele>78.719360351562</ele>
        <time>2014-03-29T22:23:14Z</time>
      </trkpt>
      <trkpt lat="49.52647" lon="0.53705">
        <ele>78.69709777832</ele>
        <time>2014-03-29T22:23:16Z</time>
      </trkpt>
      <trkpt lat="49.52652" lon="0.53698">
        <ele>77.838569641113</ele>
        <time>2014-03-29T22:23:20Z</time>
      </trkpt>
      <trkpt lat="49.52655" lon="0.53689">
        <ele>76.102729797363</ele>
        <time>2014-03-29T22:23:26Z</time>
      </trkpt>
      <trkpt lat="49.52652" lon="0.53686">
        <ele>75.302307128906</ele>
        <time>2014-03-29T22:23:28Z</time>
      </trkpt>
      <trkpt lat="49.52646" lon="0.53683">
        <ele>73.90739440918</ele>
        <time>2014-03-29T22:23:32Z</time>
      </trkpt>
      <trkpt lat="49.52634" lon="0.53675">
        <ele>70.694175720215</ele>
        <time>2014-03-29T22:23:39Z</time>
      </trkpt>
      <trkpt lat="49.52628" lon="0.53663">
        <ele>67.384544372559</ele>
        <time>2014-03-29T22:23:44Z</time>
      </trkpt>
      <trkpt lat="49.52621" lon="0.53652">
        <ele>63.690269470215</ele>
        <time>2014-03-29T22:23:48Z</time>
      </trkpt>
      <trkpt lat="49.52611" lon="0.53639">
        <ele>58.811031341553</ele>
        <time>2014-03-29T22:23:53Z</time>
      </trkpt>
      <trkpt lat="49.52604" lon="0.53636">
        <ele>57.173542022705</ele>
        <time>2014-03-29T22:23:56Z</time>
      </trkpt>
      <trkpt lat="49.52594" lon="0.53635">
        <ele>55.424545288086</ele>
        <time>2014-03-29T22:24:00Z</time>
      </trkpt>
      <trkpt lat="49.5258" lon="0.53634">
        <ele>53.782276153564</ele>
        <time>2014-03-29T22:24:05Z</time>
      </trkpt>
      <trkpt lat="49.52567" lon="0.53632">
        <ele>52.25008392334</ele>
        <time>2014-03-29T22:24:11Z</time>
      </trkpt>
      <trkpt lat="49.52555" lon="0.53627">
        <ele>49.984008789062</ele>
        <time>2014-03-29T22:24:16Z</time>
      </trkpt>
      <trkpt lat="49.52547" lon="0.53625">
        <ele>48.899543762207</ele>
        <time>2014-03-29T22:24:19Z</time>
      </trkpt>
      <trkpt lat="49.52538" lon="0.53623">
        <ele>47.699375152588</ele>
        <time>2014-03-29T22:24:23Z</time>
      </trkpt>
      <trkpt lat="49.52526" lon="0.53618">
        <ele>45.237689971924</ele>
        <time>2014-03-29T22:24:28Z</time>
      </trkpt>
      <trkpt lat="49.52515" lon="0.53613">
        <ele>42.900485992432</ele>
        <time>2014-03-29T22:24:33Z</time>
      </trkpt>
      <trkpt lat="49.52512" lon="0.53613">
        <ele>42.732929229736</ele>
        <time>2014-03-29T22:24:35Z</time>
      </trkpt>
      <trkpt lat="49.52497" lon="0.53604">
        <ele>39.028350830078</ele>
        <time>2014-03-29T22:24:41Z</time>
      </trkpt>
      <trkpt lat="49.5248" lon="0.53594">
        <ele>34.617210388184</ele>
        <time>2014-03-29T22:24:48Z</time>
      </trkpt>
      <trkpt lat="49.52462" lon="0.53581">
        <ele>30.366859436035</ele>
        <time>2014-03-29T22:24:55Z</time>
      </trkpt>
      <trkpt lat="49.52451" lon="0.53574">
        <ele>28.675786972046</ele>
        <time>2014-03-29T22:25:00Z</time>
      </trkpt>
      <trkpt lat="49.52438" lon="0.53568">
        <ele>27.131641387939</ele>
        <time>2014-03-29T22:25:06Z</time>
      </trkpt>
      <trkpt lat="49.52423" lon="0.53561">
        <ele>25.618478775024</ele>
        <time>2014-03-29T22:25:12Z</time>
      </trkpt>
      <trkpt lat="49.52409" lon="0.5356">
        <ele>24.812414169311</ele>
        <time>2014-03-29T22:25:18Z</time>
      </trkpt>
      <trkpt lat="49.52394" lon="0.53559">
        <ele>24.033184051514</ele>
        <time>2014-03-29T22:25:25Z</time>
      </trkpt>
      <trkpt lat="49.5238" lon="0.53559">
        <ele>23.358110427856</ele>
        <time>2014-03-29T22:25:31Z</time>
      </trkpt>
      <trkpt lat="49.52366" lon="0.53558">
        <ele>22.617109298706</ele>
        <time>2014-03-29T22:25:37Z</time>
      </trkpt>
      <trkpt lat="49.52352" lon="0.53558">
        <ele>21.9755859375</ele>
        <time>2014-03-29T22:25:43Z</time>
      </trkpt>
      <trkpt lat="49.52339" lon="0.53559">
        <ele>21.393671035767</ele>
        <time>2014-03-29T22:25:49Z</time>
      </trkpt>
      <trkpt lat="49.52328" lon="0.53556">
        <ele>20.963514328003</ele>
        <time>2014-03-29T22:25:54Z</time>
      </trkpt>
      <trkpt lat="49.5232" lon="0.53552">
        <ele>20.737293243408</ele>
        <time>2014-03-29T22:26:02Z</time>
      </trkpt>
      <trkpt lat="49.52309" lon="0.53545">
        <ele>20.43279838562</ele>
        <time>2014-03-29T22:26:12Z</time>
      </trkpt>
      <trkpt lat="49.52299" lon="0.53536">
        <ele>20.18355178833</ele>
        <time>2014-03-29T22:26:20Z</time>
      </trkpt>
      <trkpt lat="49.52297" lon="0.53534">
        <ele>20.136528015137</ele>
        <time>2014-03-29T22:26:22Z</time>
      </trkpt>
      <trkpt lat="49.52288" lon="0.53527">
        <ele>19.992248535156</ele>
        <time>2014-03-29T22:26:30Z</time>
      </trkpt>
      <trkpt lat="49.52283" lon="0.53522">
        <ele>19.918888092041</ele>
        <time>2014-03-29T22:26:35Z</time>
      </trkpt>
      <trkpt lat="49.5228" lon="0.53512">
        <ele>19.799053192139</ele>
        <time>2014-03-29T22:26:41Z</time>
      </trkpt>
      <trkpt lat="49.52282" lon="0.53508">
        <ele>19.721267700195</ele>
        <time>2014-03-29T22:26:44Z</time>
      </trkpt>
      <trkpt lat="49.52285" lon="0.53492">
        <ele>19.049007415771</ele>
        <time>2014-03-29T22:26:51Z</time>
      </trkpt>
      <trkpt lat="49.52285" lon="0.53489">
        <ele>18.839286804199</ele>
        <time>2014-03-29T22:26:52Z</time>
      </trkpt>
      <trkpt lat="49.52288" lon="0.53471">
        <ele>17.633491516113</ele>
        <time>2014-03-29T22:26:58Z</time>
      </trkpt>
      <trkpt lat="49.52295" lon="0.53455">
        <ele>16.5023021698</ele>
        <time>2014-03-29T22:27:03Z</time>
      </trkpt>
      <trkpt lat="49.52298" lon="0.5344">
        <ele>15.407738685608</ele>
        <time>2014-03-29T22:27:08Z</time>
      </trkpt>
      <trkpt lat="49.52303" lon="0.53417">
        <ele>13.758686065674</ele>
        <time>2014-03-29T22:27:15Z</time>
      </trkpt>
      <trkpt lat="49.52303" lon="0.53404">
        <ele>13.177186965942</ele>
        <time>2014-03-29T22:27:21Z</time>
      </trkpt>
      <trkpt lat="49.52304" lon="0.53401">
        <ele>13.035845756531</ele>
        <time>2014-03-29T22:27:23Z</time>
      </trkpt>
      <trkpt lat="49.52307" lon="0.53392">
        <ele>12.573382377624</ele>
        <time>2014-03-29T22:27:28Z</time>
      </trkpt>
      <trkpt lat="49.52307" lon="0.53384">
        <ele>12.206377983093</ele>
        <time>2014-03-29T22:27:36Z</time>
      </trkpt>
      <trkpt lat="49.5231" lon="0.53379">
        <ele>11.957822799683</ele>
        <time>2014-03-29T22:27:42Z</time>
      </trkpt>
      <trkpt lat="49.52312" lon="0.53379">
        <ele>11.927633285523</ele>
        <time>2014-03-29T22:27:46Z</time>
      </trkpt>
      <trkpt lat="49.52327" lon="0.53377">
        <ele>11.647379875183</ele>
        <time>2014-03-29T22:27:55Z</time>
      </trkpt>
      <trkpt lat="49.52336" lon="0.53378">
        <ele>11.615648269653</ele>
        <time>2014-03-29T22:28:01Z</time>
      </trkpt>
      <trkpt lat="49.52337" lon="0.53378">
        <ele>11.611571311951</ele>
        <time>2014-03-29T22:28:02Z</time>
      </trkpt>
      <trkpt lat="49.52344" lon="0.53382">
        <ele>11.755337715149</ele>
        <time>2014-03-29T22:28:08Z</time>
      </trkpt>
      <trkpt lat="49.52353" lon="0.53386">
        <ele>11.904897689819</ele>
        <time>2014-03-29T22:28:14Z</time>
      </trkpt>
      <trkpt lat="49.52361" lon="0.53385">
        <ele>11.873998641968</ele>
        <time>2014-03-29T22:28:20Z</time>
      </trkpt>
      <trkpt lat="49.52363" lon="0.53384">
        <ele>11.834087371826</ele>
        <time>2014-03-29T22:28:22Z</time>
      </trkpt>
      <trkpt lat="49.52369" lon="0.53376">
        <ele>11.525526046753</ele>
        <time>2014-03-29T22:28:30Z</time>
      </trkpt>
      <trkpt lat="49.52369" lon="0.53375">
        <ele>11.494626998901</ele>
        <time>2014-03-29T22:28:40Z</time>
      </trkpt>
      <trkpt lat="49.5237" lon="0.53374">
        <ele>11.460294723511</ele>
        <time>2014-03-29T22:28:50Z</time>
      </trkpt>
      <trkpt lat="49.52367" lon="0.53372">
        <ele>11.384763717651</ele>
        <time>2014-03-29T22:28:53Z</time>
      </trkpt>
      <trkpt lat="49.52365" lon="0.53365">
        <ele>11.141862869263</ele>
        <time>2014-03-29T22:28:59Z</time>
      </trkpt>
      <trkpt lat="49.52364" lon="0.53365">
        <ele>11.123838424683</ele>
        <time>2014-03-29T22:29:00Z</time>
      </trkpt>
      <trkpt lat="49.52364" lon="0.53362">
        <ele>11.028137207031</ele>
        <time>2014-03-29T22:29:02Z</time>
      </trkpt>
      <trkpt lat="49.52364" lon="0.53351">
        <ele>10.65327167511</ele>
        <time>2014-03-29T22:29:09Z</time>
      </trkpt>
      <trkpt lat="49.52365" lon="0.53347">
        <ele>10.509719848633</ele>
        <time>2014-03-29T22:29:14Z</time>
      </trkpt>
      <trkpt lat="49.52364" lon="0.53341">
        <ele>10.262956619263</ele>
        <time>2014-03-29T22:29:20Z</time>
      </trkpt>
      <trkpt lat="49.52365" lon="0.53332">
        <ele>10</ele>
        <time>2014-03-29T22:29:26Z</time>
      </trkpt>
      <trkpt lat="49.52364" lon="0.53331">
        <ele>10</ele>
        <time>2014-03-29T22:29:34Z</time>
      </trkpt>
      <trkpt lat="49.52362" lon="0.53329">
        <ele>10</ele>
        <time>2014-03-29T22:29:47Z</time>
      </trkpt>
      <trkpt lat="49.52361" lon="0.53328">
        <ele>10</ele>
        <time>2014-03-29T22:29:52Z</time>
      </trkpt>
      <trkpt lat="49.52363" lon="0.53326">
        <ele>10</ele>
        <time>2014-03-29T22:30:33Z</time>
      </trkpt>
      <trkpt lat="49.52364" lon="0.53325">
        <ele>10</ele>
        <time>2014-03-29T22:30:43Z</time>
      </trkpt>
      <trkpt lat="49.52363" lon="0.53313">
        <ele>10</ele>
        <time>2014-03-29T22:30:48Z</time>
      </trkpt>
      <trkpt lat="49.5236" lon="0.53296">
        <ele>10</ele>
        <time>2014-03-29T22:30:53Z</time>
      </trkpt>
      <trkpt lat="49.52359" lon="0.53284">
        <ele>10</ele>
        <time>2014-03-29T22:30:57Z</time>
      </trkpt>
      <trkpt lat="49.52357" lon="0.53276">
        <ele>10</ele>
        <time>2014-03-29T22:31:02Z</time>
      </trkpt>
      <trkpt lat="49.52355" lon="0.53266">
        <ele>10</ele>
        <time>2014-03-29T22:31:07Z</time>
      </trkpt>
      <trkpt lat="49.52354" lon="0.53257">
        <ele>10</ele>
        <time>2014-03-29T22:31:12Z</time>
      </trkpt>
      <trkpt lat="49.52354" lon="0.53247">
        <ele>9.9692783355713</ele>
        <time>2014-03-29T22:31:18Z</time>
      </trkpt>
      <trkpt lat="49.52353" lon="0.53236">
        <ele>9.8295888900757</ele>
        <time>2014-03-29T22:31:26Z</time>
      </trkpt>
      <trkpt lat="49.52352" lon="0.53223">
        <ele>9.6798143386841</ele>
        <time>2014-03-29T22:31:33Z</time>
      </trkpt>
      <trkpt lat="49.52351" lon="0.53211">
        <ele>9.5273218154907</ele>
        <time>2014-03-29T22:31:40Z</time>
      </trkpt>
      <trkpt lat="49.52351" lon="0.53201">
        <ele>9.4109497070312</ele>
        <time>2014-03-29T22:31:45Z</time>
      </trkpt>
      <trkpt lat="49.5235" lon="0.53194">
        <ele>9.3279800415039</ele>
        <time>2014-03-29T22:31:49Z</time>
      </trkpt>
      <trkpt lat="49.52353" lon="0.53191">
        <ele>9.2962942123413</ele>
        <time>2014-03-29T22:31:52Z</time>
      </trkpt>
      <trkpt lat="49.52355" lon="0.53187">
        <ele>9.2404327392578</ele>
        <time>2014-03-29T22:32:01Z</time>
      </trkpt>
      <trkpt lat="49.52356" lon="0.53185">
        <ele>9.2206201553345</ele>
        <time>2014-03-29T22:32:03Z</time>
      </trkpt>
      <trkpt lat="49.52362" lon="0.53178">
        <ele>9.1398677825928</ele>
        <time>2014-03-29T22:32:09Z</time>
      </trkpt>
      <trkpt lat="49.52364" lon="0.53176">
        <ele>9.1126880645752</ele>
        <time>2014-03-29T22:32:14Z</time>
      </trkpt>
      <trkpt lat="49.52365" lon="0.53175">
        <ele>9.1011009216309</ele>
        <time>2014-03-29T22:32:17Z</time>
      </trkpt>
      <trkpt lat="49.52367" lon="0.53176">
        <ele>9.1112575531006</ele>
        <time>2014-03-29T22:32:19Z</time>
      </trkpt>
      <trkpt lat="49.52374" lon="0.53176">
        <ele>9.116192817688</ele>
        <time>2014-03-29T22:32:25Z</time>
      </trkpt>
      <trkpt lat="49.52377" lon="0.5317">
        <ele>9.0375146865845</ele>
        <time>2014-03-29T22:32:31Z</time>
      </trkpt>
      <trkpt lat="49.52377" lon="0.53168">
        <ele>9.0198478698731</ele>
        <time>2014-03-29T22:32:36Z</time>
      </trkpt>
      <trkpt lat="49.52378" lon="0.53171">
        <ele>9.0491018295288</ele>
        <time>2014-03-29T22:32:41Z</time>
      </trkpt>
      <trkpt lat="49.52378" lon="0.5317">
        <ele>9.0412340164185</ele>
        <time>2014-03-29T22:32:47Z</time>
      </trkpt>
      <trkpt lat="49.5238" lon="0.53171">
        <ele>9.0522489547729</ele>
        <time>2014-03-29T22:32:56Z</time>
      </trkpt>
      <trkpt lat="49.52386" lon="0.53172">
        <ele>9.0596876144409</ele>
        <time>2014-03-29T22:33:32Z</time>
      </trkpt>
      <trkpt lat="49.52391" lon="0.53172">
        <ele>9.0607604980469</ele>
        <time>2014-03-29T22:33:38Z</time>
      </trkpt>
      <trkpt lat="49.52398" lon="0.53175">
        <ele>9.0944490432739</ele>
        <time>2014-03-29T22:33:45Z</time>
      </trkpt>
      <trkpt lat="49.52401" lon="0.53175">
        <ele>9.1011009216309</ele>
        <time>2014-03-29T22:33:50Z</time>
      </trkpt>
      <trkpt lat="49.52403" lon="0.53177">
        <ele>9.1197690963745</ele>
        <time>2014-03-29T22:33:59Z</time>
      </trkpt>
      <trkpt lat="49.52404" lon="0.53178">
        <ele>9.139009475708</ele>
        <time>2014-03-29T22:34:22Z</time>
      </trkpt>
      <trkpt lat="49.52408" lon="0.5318">
        <ele>9.1625413894653</ele>
        <time>2014-03-29T22:34:29Z</time>
      </trkpt>
      <trkpt lat="49.52417" lon="0.53184">
        <ele>9.2043123245239</ele>
        <time>2014-03-29T22:34:36Z</time>
      </trkpt>
      <trkpt lat="49.52426" lon="0.53187">
        <ele>9.1574945449829</ele>
        <time>2014-03-29T22:34:43Z</time>
      </trkpt>
      <trkpt lat="49.52431" lon="0.5319">
        <ele>9.1552228927612</ele>
        <time>2014-03-29T22:34:47Z</time>
      </trkpt>
      <trkpt lat="49.52438" lon="0.53196">
        <ele>9.1791343688965</ele>
        <time>2014-03-29T22:34:52Z</time>
      </trkpt>
      <trkpt lat="49.52445" lon="0.532">
        <ele>9.1963386535644</ele>
        <time>2014-03-29T22:34:58Z</time>
      </trkpt>
      <trkpt lat="49.52449" lon="0.53203">
        <ele>9.2180957794189</ele>
        <time>2014-03-29T22:35:01Z</time>
      </trkpt>
      <trkpt lat="49.52459" lon="0.53211">
        <ele>9.2933893203735</ele>
        <time>2014-03-29T22:35:08Z</time>
      </trkpt>
      <trkpt lat="49.52466" lon="0.53218">
        <ele>9.3960027694702</ele>
        <time>2014-03-29T22:35:15Z</time>
      </trkpt>
      <trkpt lat="49.52473" lon="0.53224">
        <ele>9.4801216125488</ele>
        <time>2014-03-29T22:35:21Z</time>
      </trkpt>
      <trkpt lat="49.5248" lon="0.5323">
        <ele>9.580132484436</ele>
        <time>2014-03-29T22:35:28Z</time>
      </trkpt>
      <trkpt lat="49.52485" lon="0.53238">
        <ele>9.7451057434082</ele>
        <time>2014-03-29T22:35:34Z</time>
      </trkpt>
      <trkpt lat="49.52493" lon="0.53251">
        <ele>9.9903974533081</ele>
        <time>2014-03-29T22:35:40Z</time>
      </trkpt>
      <trkpt lat="49.525" lon="0.53271">
        <ele>9.7507419586182</ele>
        <time>2014-03-29T22:35:46Z</time>
      </trkpt>
      <trkpt lat="49.52507" lon="0.53288">
        <ele>9.3401489257812</ele>
        <time>2014-03-29T22:35:51Z</time>
      </trkpt>
      <trkpt lat="49.52513" lon="0.53299">
        <ele>9.0011005401611</ele>
        <time>2014-03-29T22:35:55Z</time>
      </trkpt>
      <trkpt lat="49.52523" lon="0.5331">
        <ele>8.5229063034058</ele>
        <time>2014-03-29T22:36:01Z</time>
      </trkpt>
      <trkpt lat="49.52533" lon="0.53311">
        <ele>8.1961603164673</ele>
        <time>2014-03-29T22:36:05Z</time>
      </trkpt>
      <trkpt lat="49.52538" lon="0.53311">
        <ele>8.0238132476807</ele>
        <time>2014-03-29T22:36:08Z</time>
      </trkpt>
      <trkpt lat="49.52547" lon="0.53311">
        <ele>7.7313084602356</ele>
        <time>2014-03-29T22:36:13Z</time>
      </trkpt>
      <trkpt lat="49.52555" lon="0.53312">
        <ele>7.4346761703491</ele>
        <time>2014-03-29T22:36:16Z</time>
      </trkpt>
      <trkpt lat="49.5257" lon="0.53316">
        <ele>6.8585457801819</ele>
        <time>2014-03-29T22:36:22Z</time>
      </trkpt>
      <trkpt lat="49.52578" lon="0.53326">
        <ele>6.3559975624084</ele>
        <time>2014-03-29T22:36:30Z</time>
      </trkpt>
      <trkpt lat="49.52582" lon="0.53332">
        <ele>6.0914540290833</ele>
        <time>2014-03-29T22:36:35Z</time>
      </trkpt>
      <trkpt lat="49.52585" lon="0.53337">
        <ele>6.3269925117493</ele>
        <time>2014-03-29T22:36:42Z</time>
      </trkpt>
      <trkpt lat="49.5259" lon="0.53344">
        <ele>7.1291184425354</ele>
        <time>2014-03-29T22:36:49Z</time>
      </trkpt>
      <trkpt lat="49.52596" lon="0.5334">
        <ele>6.9091463088989</ele>
        <time>2014-03-29T22:36:55Z</time>
      </trkpt>
      <trkpt lat="49.526" lon="0.5333">
        <ele>6.4722318649292</ele>
        <time>2014-03-29T22:36:59Z</time>
      </trkpt>
      <trkpt lat="49.52601" lon="0.53327">
        <ele>6.5476813316345</ele>
        <time>2014-03-29T22:37:00Z</time>
      </trkpt>
      <trkpt lat="49.52606" lon="0.53312">
        <ele>6.9248323440552</ele>
        <time>2014-03-29T22:37:05Z</time>
      </trkpt>
      <trkpt lat="49.52612" lon="0.53292">
        <ele>7.3463521003723</ele>
        <time>2014-03-29T22:37:10Z</time>
      </trkpt>
      <trkpt lat="49.52618" lon="0.53276">
        <ele>7.64142370224</ele>
        <time>2014-03-29T22:37:15Z</time>
      </trkpt>
      <trkpt lat="49.52627" lon="0.53263">
        <ele>7.8539276123047</ele>
        <time>2014-03-29T22:37:20Z</time>
      </trkpt>
      <trkpt lat="49.52639" lon="0.53257">
        <ele>7.9426002502441</ele>
        <time>2014-03-29T22:37:25Z</time>
      </trkpt>
      <trkpt lat="49.52651" lon="0.53252">
        <ele>7.990517616272</ele>
        <time>2014-03-29T22:37:30Z</time>
      </trkpt>
      <trkpt lat="49.52661" lon="0.53247">
        <ele>8.0319538116455</ele>
        <time>2014-03-29T22:37:34Z</time>
      </trkpt>
      <trkpt lat="49.52673" lon="0.53242">
        <ele>8.0735664367676</ele>
        <time>2014-03-29T22:37:40Z</time>
      </trkpt>
      <trkpt lat="49.52682" lon="0.53246">
        <ele>8.0229959487915</ele>
        <time>2014-03-29T22:37:45Z</time>
      </trkpt>
      <trkpt lat="49.52685" lon="0.53249">
        <ele>8.0043411254883</ele>
        <time>2014-03-29T22:37:50Z</time>
      </trkpt>
      <trkpt lat="49.52686" lon="0.53249">
        <ele>8.0023717880249</ele>
        <time>2014-03-29T22:37:51Z</time>
      </trkpt>
      <trkpt lat="49.52693" lon="0.53256">
        <ele>8.114538192749</ele>
        <time>2014-03-29T22:37:57Z</time>
      </trkpt>
      <trkpt lat="49.52695" lon="0.5326">
        <ele>8.2000598907471</ele>
        <time>2014-03-29T22:38:00Z</time>
      </trkpt>
      <trkpt lat="49.52699" lon="0.53263">
        <ele>8.2928962707519</ele>
        <time>2014-03-29T22:38:10Z</time>
      </trkpt>
      <trkpt lat="49.52698" lon="0.53259">
        <ele>8.20751953125</ele>
        <time>2014-03-29T22:38:21Z</time>
      </trkpt>
      <trkpt lat="49.52694" lon="0.53254">
        <ele>8.0796899795532</ele>
        <time>2014-03-29T22:38:29Z</time>
      </trkpt>
      <trkpt lat="49.52691" lon="0.5325">
        <ele>8.0001697540283</ele>
        <time>2014-03-29T22:38:34Z</time>
      </trkpt>
      <trkpt lat="49.52689" lon="0.53249">
        <ele>8.0032157897949</ele>
        <time>2014-03-29T22:38:36Z</time>
      </trkpt>
      <trkpt lat="49.52682" lon="0.53243">
        <ele>8.0364456176758</ele>
        <time>2014-03-29T22:38:43Z</time>
      </trkpt>
      <trkpt lat="49.52681" lon="0.53243">
        <ele>8.0421953201294</ele>
        <time>2014-03-29T22:38:44Z</time>
      </trkpt>
      <trkpt lat="49.52677" lon="0.5324">
        <ele>8.0713443756103</ele>
        <time>2014-03-29T22:38:47Z</time>
      </trkpt>
      <trkpt lat="49.52671" lon="0.53237">
        <ele>8.1356229782104</ele>
        <time>2014-03-29T22:38:52Z</time>
      </trkpt>
      <trkpt lat="49.52661" lon="0.53233">
        <ele>8.1935319900513</ele>
        <time>2014-03-29T22:39:00Z</time>
      </trkpt>
      <trkpt lat="49.52658" lon="0.53231">
        <ele>8.2002019882202</ele>
        <time>2014-03-29T22:39:02Z</time>
      </trkpt>
      <trkpt lat="49.52656" lon="0.53231">
        <ele>8.1974296569824</ele>
        <time>2014-03-29T22:39:04Z</time>
      </trkpt>
      <trkpt lat="49.52645" lon="0.53229">
        <ele>8.1836643218994</ele>
        <time>2014-03-29T22:39:11Z</time>
      </trkpt>
      <trkpt lat="49.5264" lon="0.53226">
        <ele>8.1957302093506</ele>
        <time>2014-03-29T22:39:16Z</time>
      </trkpt>
      <trkpt lat="49.52636" lon="0.53224">
        <ele>8.1992969512939</ele>
        <time>2014-03-29T22:39:19Z</time>
      </trkpt>
      <trkpt lat="49.52625" lon="0.53217">
        <ele>8.198920249939</ele>
        <time>2014-03-29T22:39:27Z</time>
      </trkpt>
      <trkpt lat="49.52613" lon="0.53211">
        <ele>8.1690111160278</ele>
        <time>2014-03-29T22:39:32Z</time>
      </trkpt>
      <trkpt lat="49.52601" lon="0.53204">
        <ele>8.1153182983398</ele>
        <time>2014-03-29T22:39:37Z</time>
      </trkpt>
      <trkpt lat="49.52593" lon="0.53195">
        <ele>8.0782642364502</ele>
        <time>2014-03-29T22:39:41Z</time>
      </trkpt>
      <trkpt lat="49.52584" lon="0.5318">
        <ele>8.011326789856</ele>
        <time>2014-03-29T22:39:46Z</time>
      </trkpt>
      <trkpt lat="49.52577" lon="0.53172">
        <ele>8.0092144012451</ele>
        <time>2014-03-29T22:39:53Z</time>
      </trkpt>
      <trkpt lat="49.52575" lon="0.5317">
        <ele>8.0071268081665</ele>
        <time>2014-03-29T22:40:00Z</time>
      </trkpt>
      <trkpt lat="49.52575" lon="0.53168">
        <ele>8.0039644241333</ele>
        <time>2014-03-29T22:40:04Z</time>
      </trkpt>
      <trkpt lat="49.52575" lon="0.53165">
        <ele>7.9984111785889</ele>
        <time>2014-03-29T22:40:06Z</time>
      </trkpt>
      <trkpt lat="49.52574" lon="0.53159">
        <ele>7.9890775680542</ele>
        <time>2014-03-29T22:40:10Z</time>
      </trkpt>
      <trkpt lat="49.52573" lon="0.53144">
        <ele>7.9649357795715</ele>
        <time>2014-03-29T22:40:18Z</time>
      </trkpt>
      <trkpt lat="49.52575" lon="0.53134">
        <ele>7.9582023620606</ele>
        <time>2014-03-29T22:40:23Z</time>
      </trkpt>
      <trkpt lat="49.52577" lon="0.5312">
        <ele>7.9584684371948</ele>
        <time>2014-03-29T22:40:29Z</time>
      </trkpt>
      <trkpt lat="49.5258" lon="0.53092">
        <ele>7.9631056785583</ele>
        <time>2014-03-29T22:40:36Z</time>
      </trkpt>
      <trkpt lat="49.52586" lon="0.53087">
        <ele>7.9668049812317</ele>
        <time>2014-03-29T22:40:40Z</time>
      </trkpt>
      <trkpt lat="49.52597" lon="0.53079">
        <ele>7.7255153656006</ele>
        <time>2014-03-29T22:40:45Z</time>
      </trkpt>
      <trkpt lat="49.526" lon="0.53063">
        <ele>7.317533493042</ele>
        <time>2014-03-29T22:40:50Z</time>
      </trkpt>
      <trkpt lat="49.52594" lon="0.53043">
        <ele>6.8991088867188</ele>
        <time>2014-03-29T22:40:57Z</time>
      </trkpt>
      <trkpt lat="49.52584" lon="0.53023">
        <ele>6.5472030639648</ele>
        <time>2014-03-29T22:41:04Z</time>
      </trkpt>
      <trkpt lat="49.52576" lon="0.53013">
        <ele>6.4487447738647</ele>
        <time>2014-03-29T22:41:09Z</time>
      </trkpt>
      <trkpt lat="49.52566" lon="0.53004">
        <ele>6.48237657547</ele>
        <time>2014-03-29T22:41:14Z</time>
      </trkpt>
      <trkpt lat="49.52554" lon="0.52994">
        <ele>6.8574976921081</ele>
        <time>2014-03-29T22:41:20Z</time>
      </trkpt>
      <trkpt lat="49.52545" lon="0.5299">
        <ele>7.1557726860046</ele>
        <time>2014-03-29T22:41:24Z</time>
      </trkpt>
      <trkpt lat="49.52537" lon="0.52988">
        <ele>7.3886847496033</ele>
        <time>2014-03-29T22:41:30Z</time>
      </trkpt>
      <trkpt lat="49.52528" lon="0.52988">
        <ele>7.577645778656</ele>
        <time>2014-03-29T22:41:36Z</time>
      </trkpt>
      <trkpt lat="49.52517" lon="0.52988">
        <ele>7.79430103302</ele>
        <time>2014-03-29T22:41:44Z</time>
      </trkpt>
      <trkpt lat="49.52502" lon="0.52995">
        <ele>8.008376121521</ele>
        <time>2014-03-29T22:41:51Z</time>
      </trkpt>
      <trkpt lat="49.52493" lon="0.53001">
        <ele>7.9113764762878</ele>
        <time>2014-03-29T22:41:56Z</time>
      </trkpt>
      <trkpt lat="49.52485" lon="0.52997">
        <ele>7.8591976165772</ele>
        <time>2014-03-29T22:42:02Z</time>
      </trkpt>
      <trkpt lat="49.52474" lon="0.52992">
        <ele>7.8182582855225</ele>
        <time>2014-03-29T22:42:10Z</time>
      </trkpt>
      <trkpt lat="49.52465" lon="0.5299">
        <ele>7.763307094574</ele>
        <time>2014-03-29T22:42:16Z</time>
      </trkpt>
      <trkpt lat="49.52458" lon="0.5299">
        <ele>7.6856665611267</ele>
        <time>2014-03-29T22:42:21Z</time>
      </trkpt>
      <trkpt lat="49.52454" lon="0.52991">
        <ele>7.6272282600403</ele>
        <time>2014-03-29T22:42:24Z</time>
      </trkpt>
      <trkpt lat="49.52452" lon="0.52988">
        <ele>7.6439933776856</ele>
        <time>2014-03-29T22:42:29Z</time>
      </trkpt>
      <trkpt lat="49.52452" lon="0.52991">
        <ele>7.6063628196716</ele>
        <time>2014-03-29T22:42:48Z</time>
      </trkpt>
      <trkpt lat="49.52458" lon="0.52991">
        <ele>7.6597805023193</ele>
        <time>2014-03-29T22:42:54Z</time>
      </trkpt>
      <trkpt lat="49.52466" lon="0.52991">
        <ele>7.7457242012024</ele>
        <time>2014-03-29T22:43:01Z</time>
      </trkpt>
      <trkpt lat="49.5247" lon="0.52992">
        <ele>7.7766509056091</ele>
        <time>2014-03-29T22:43:05Z</time>
      </trkpt>
      <trkpt lat="49.52479" lon="0.52997">
        <ele>7.7990965843201</ele>
        <time>2014-03-29T22:43:14Z</time>
      </trkpt>
      <trkpt lat="49.52488" lon="0.53003">
        <ele>7.8235974311829</ele>
        <time>2014-03-29T22:43:24Z</time>
      </trkpt>
      <trkpt lat="49.52493" lon="0.53007">
        <ele>7.8429737091064</ele>
        <time>2014-03-29T22:43:30Z</time>
      </trkpt>
      <trkpt lat="49.52499" lon="0.53003">
        <ele>7.9549856185913</ele>
        <time>2014-03-29T22:43:38Z</time>
      </trkpt>
      <trkpt lat="49.52507" lon="0.52998">
        <ele>7.8700914382935</ele>
        <time>2014-03-29T22:43:46Z</time>
      </trkpt>
      <trkpt lat="49.52517" lon="0.52993">
        <ele>7.6977038383484</ele>
        <time>2014-03-29T22:43:55Z</time>
      </trkpt>
      <trkpt lat="49.52526" lon="0.52991">
        <ele>7.5504035949707</ele>
        <time>2014-03-29T22:44:02Z</time>
      </trkpt>
      <trkpt lat="49.5254" lon="0.5299">
        <ele>7.270655632019</ele>
        <time>2014-03-29T22:44:12Z</time>
      </trkpt>
      <trkpt lat="49.52551" lon="0.52986">
        <ele>7.1605396270752</ele>
        <time>2014-03-29T22:44:19Z</time>
      </trkpt>
      <trkpt lat="49.52559" lon="0.52984">
        <ele>7.0687737464905</ele>
        <time>2014-03-29T22:44:25Z</time>
      </trkpt>
      <trkpt lat="49.52571" lon="0.52983">
        <ele>6.8479313850403</ele>
        <time>2014-03-29T22:44:33Z</time>
      </trkpt>
      <trkpt lat="49.52582" lon="0.52981">
        <ele>6.6944861412048</ele>
        <time>2014-03-29T22:44:41Z</time>
      </trkpt>
      <trkpt lat="49.52595" lon="0.52973">
        <ele>6.7594647407532</ele>
        <time>2014-03-29T22:44:51Z</time>
      </trkpt>
      <trkpt lat="49.52607" lon="0.52958">
        <ele>6.9450244903564</ele>
        <time>2014-03-29T22:45:02Z</time>
      </trkpt>
      <trkpt lat="49.5261" lon="0.52952">
        <ele>7.0432395935059</ele>
        <time>2014-03-29T22:45:06Z</time>
      </trkpt>
      <trkpt lat="49.52614" lon="0.52946">
        <ele>7.0864090919495</ele>
        <time>2014-03-29T22:45:11Z</time>
      </trkpt>
      <trkpt lat="49.52613" lon="0.52945">
        <ele>7.1569414138794</ele>
        <time>2014-03-29T22:45:16Z</time>
      </trkpt>
      <trkpt lat="49.52612" lon="0.52945">
        <ele>7.1792087554932</ele>
        <time>2014-03-29T22:45:24Z</time>
      </trkpt>
      <trkpt lat="49.52613" lon="0.52944">
        <ele>7.1782531738281</ele>
        <time>2014-03-29T22:45:30Z</time>
      </trkpt>
      <trkpt lat="49.52615" lon="0.52944">
        <ele>7.1308298110962</ele>
        <time>2014-03-29T22:45:36Z</time>
      </trkpt>
      <trkpt lat="49.52613" lon="0.52944">
        <ele>7.1892538070679</ele>
        <time>2014-03-29T22:45:40Z</time>
      </trkpt>
      <trkpt lat="49.52614" lon="0.52945">
        <ele>7.1288499832153</ele>
        <time>2014-03-29T22:46:17Z</time>
      </trkpt>
      <trkpt lat="49.52613" lon="0.52945">
        <ele>7.1472797393799</ele>
        <time>2014-03-29T22:46:31Z</time>
      </trkpt>
      <trkpt lat="49.52611" lon="0.52942">
        <ele>7.3016610145569</ele>
        <time>2014-03-29T22:46:42Z</time>
      </trkpt>
      <trkpt lat="49.5261" lon="0.52942">
        <ele>7.3126163482666</ele>
        <time>2014-03-29T22:46:48Z</time>
      </trkpt>
      <trkpt lat="49.5261" lon="0.5294">
        <ele>7.3534693717956</ele>
        <time>2014-03-29T22:46:49Z</time>
      </trkpt>
      <trkpt lat="49.52605" lon="0.5293">
        <ele>7.8207411766052</ele>
        <time>2014-03-29T22:46:54Z</time>
      </trkpt>
      <trkpt lat="49.52597" lon="0.52911">
        <ele>8.8471794128418</ele>
        <time>2014-03-29T22:47:01Z</time>
      </trkpt>
      <trkpt lat="49.52594" lon="0.52902">
        <ele>9.5104904174805</ele>
        <time>2014-03-29T22:47:04Z</time>
      </trkpt>
      <trkpt lat="49.5259" lon="0.52885">
        <ele>10.619396209717</ele>
        <time>2014-03-29T22:47:09Z</time>
      </trkpt>
      <trkpt lat="49.52591" lon="0.52879">
        <ele>10.945504188538</ele>
        <time>2014-03-29T22:47:11Z</time>
      </trkpt>
      <trkpt lat="49.52602" lon="0.52868">
        <ele>11.099387168884</ele>
        <time>2014-03-29T22:47:16Z</time>
      </trkpt>
      <trkpt lat="49.52609" lon="0.52857">
        <ele>11.442902565002</ele>
        <time>2014-03-29T22:47:20Z</time>
      </trkpt>
      <trkpt lat="49.52617" lon="0.52844">
        <ele>11.782477378845</ele>
        <time>2014-03-29T22:47:25Z</time>
      </trkpt>
      <trkpt lat="49.52626" lon="0.52837">
        <ele>11.785509109497</ele>
        <time>2014-03-29T22:47:29Z</time>
      </trkpt>
      <trkpt lat="49.52635" lon="0.52827">
        <ele>12.207975387573</ele>
        <time>2014-03-29T22:47:34Z</time>
      </trkpt>
      <trkpt lat="49.52642" lon="0.52821">
        <ele>12.550906181335</ele>
        <time>2014-03-29T22:47:38Z</time>
      </trkpt>
      <trkpt lat="49.52649" lon="0.52818">
        <ele>12.649648666382</ele>
        <time>2014-03-29T22:47:43Z</time>
      </trkpt>
      <trkpt lat="49.52653" lon="0.52816">
        <ele>12.714710235596</ele>
        <time>2014-03-29T22:47:48Z</time>
      </trkpt>
      <trkpt lat="49.52657" lon="0.52815">
        <ele>12.658923149109</ele>
        <time>2014-03-29T22:47:58Z</time>
      </trkpt>
      <trkpt lat="49.52661" lon="0.52815">
        <ele>12.509554862976</ele>
        <time>2014-03-29T22:48:05Z</time>
      </trkpt>
      <trkpt lat="49.52662" lon="0.52814">
        <ele>12.491196632385</ele>
        <time>2014-03-29T22:48:15Z</time>
      </trkpt>
      <trkpt lat="49.52668" lon="0.52814">
        <ele>12.224550247192</ele>
        <time>2014-03-29T22:48:21Z</time>
      </trkpt>
      <trkpt lat="49.52676" lon="0.52815">
        <ele>11.707537651062</ele>
        <time>2014-03-29T22:48:26Z</time>
      </trkpt>
      <trkpt lat="49.52684" lon="0.52815">
        <ele>11.27370262146</ele>
        <time>2014-03-29T22:48:30Z</time>
      </trkpt>
      <trkpt lat="49.52693" lon="0.52814">
        <ele>10.89287853241</ele>
        <time>2014-03-29T22:48:37Z</time>
      </trkpt>
      <trkpt lat="49.52697" lon="0.52811">
        <ele>10.860277175903</ele>
        <time>2014-03-29T22:48:41Z</time>
      </trkpt>
      <trkpt lat="49.52699" lon="0.52811">
        <ele>10.826096534729</ele>
        <time>2014-03-29T22:48:47Z</time>
      </trkpt>
      <trkpt lat="49.52702" lon="0.52812">
        <ele>10.524846076965</ele>
        <time>2014-03-29T22:48:51Z</time>
      </trkpt>
      <trkpt lat="49.52703" lon="0.52813">
        <ele>10.324890136719</ele>
        <time>2014-03-29T22:48:53Z</time>
      </trkpt>
      <trkpt lat="49.5271" lon="0.52816">
        <ele>9.7171297073364</ele>
        <time>2014-03-29T22:48:59Z</time>
      </trkpt>
      <trkpt lat="49.52711" lon="0.52816">
        <ele>9.6527843475342</ele>
        <time>2014-03-29T22:49:00Z</time>
      </trkpt>
      <trkpt lat="49.52716" lon="0.52817">
        <ele>9.3843688964844</ele>
        <time>2014-03-29T22:49:04Z</time>
      </trkpt>
      <trkpt lat="49.52724" lon="0.52817">
        <ele>8.9532861709595</ele>
        <time>2014-03-29T22:49:11Z</time>
      </trkpt>
      <trkpt lat="49.52734" lon="0.52816">
        <ele>8.5170125961304</ele>
        <time>2014-03-29T22:49:19Z</time>
      </trkpt>
      <trkpt lat="49.52744" lon="0.52808">
        <ele>8.3015613555908</ele>
        <time>2014-03-29T22:49:29Z</time>
      </trkpt>
      <trkpt lat="49.52753" lon="0.52798">
        <ele>8.2516193389893</ele>
        <time>2014-03-29T22:49:39Z</time>
      </trkpt>
      <trkpt lat="49.52756" lon="0.52792">
        <ele>8.4192171096802</ele>
        <time>2014-03-29T22:49:43Z</time>
      </trkpt>
      <trkpt lat="49.52757" lon="0.52791">
        <ele>8.4299802780151</ele>
        <time>2014-03-29T22:49:54Z</time>
      </trkpt>
      <trkpt lat="49.52758" lon="0.52793">
        <ele>8.3651418685913</ele>
        <time>2014-03-29T22:50:01Z</time>
      </trkpt>
      <trkpt lat="49.52757" lon="0.52793">
        <ele>8.3805055618286</ele>
        <time>2014-03-29T22:50:49Z</time>
      </trkpt>
      <trkpt lat="49.52761" lon="0.528">
        <ele>8.1036434173584</ele>
        <time>2014-03-29T22:50:55Z</time>
      </trkpt>
      <trkpt lat="49.52764" lon="0.52804">
        <ele>7.9351072311401</ele>
        <time>2014-03-29T22:51:01Z</time>
      </trkpt>
      <trkpt lat="49.52765" lon="0.52808">
        <ele>7.7977776527405</ele>
        <time>2014-03-29T22:51:06Z</time>
      </trkpt>
      <trkpt lat="49.5277" lon="0.52815">
        <ele>7.5403156280518</ele>
        <time>2014-03-29T22:51:12Z</time>
      </trkpt>
      <trkpt lat="49.52774" lon="0.52811">
        <ele>7.651798248291</ele>
        <time>2014-03-29T22:51:17Z</time>
      </trkpt>
      <trkpt lat="49.5278" lon="0.52796">
        <ele>8.0310401916504</ele>
        <time>2014-03-29T22:51:22Z</time>
      </trkpt>
      <trkpt lat="49.52786" lon="0.5278">
        <ele>8.3658638000488</ele>
        <time>2014-03-29T22:51:26Z</time>
      </trkpt>
      <trkpt lat="49.52793" lon="0.52759">
        <ele>8.7492589950562</ele>
        <time>2014-03-29T22:51:31Z</time>
      </trkpt>
      <trkpt lat="49.52798" lon="0.52742">
        <ele>9.0008659362793</ele>
        <time>2014-03-29T22:51:35Z</time>
      </trkpt>
      <trkpt lat="49.52806" lon="0.52723">
        <ele>9.0829563140869</ele>
        <time>2014-03-29T22:51:40Z</time>
      </trkpt>
      <trkpt lat="49.52814" lon="0.52703">
        <ele>8.9864091873169</ele>
        <time>2014-03-29T22:51:45Z</time>
      </trkpt>
      <trkpt lat="49.52822" lon="0.5268">
        <ele>8.7463607788086</ele>
        <time>2014-03-29T22:51:51Z</time>
      </trkpt>
      <trkpt lat="49.52829" lon="0.52661">
        <ele>8.6827011108398</ele>
        <time>2014-03-29T22:51:57Z</time>
      </trkpt>
      <trkpt lat="49.52835" lon="0.52652">
        <ele>8.8342800140381</ele>
        <time>2014-03-29T22:52:02Z</time>
      </trkpt>
      <trkpt lat="49.52846" lon="0.52645">
        <ele>8.951847076416</ele>
        <time>2014-03-29T22:52:07Z</time>
      </trkpt>
      <trkpt lat="49.52858" lon="0.52654">
        <ele>8.2430019378662</ele>
        <time>2014-03-29T22:52:13Z</time>
      </trkpt>
      <trkpt lat="49.52868" lon="0.52665">
        <ele>7.6467447280884</ele>
        <time>2014-03-29T22:52:18Z</time>
      </trkpt>
      <trkpt lat="49.52877" lon="0.52676">
        <ele>7.4800415039062</ele>
        <time>2014-03-29T22:52:23Z</time>
      </trkpt>
      <trkpt lat="49.52888" lon="0.5269">
        <ele>7.3472900390625</ele>
        <time>2014-03-29T22:52:29Z</time>
      </trkpt>
      <trkpt lat="49.52901" lon="0.52706">
        <ele>7.1870727539062</ele>
        <time>2014-03-29T22:52:36Z</time>
      </trkpt>
      <trkpt lat="49.52911" lon="0.52719">
        <ele>7.0634765625</ele>
        <time>2014-03-29T22:52:42Z</time>
      </trkpt>
      <trkpt lat="49.52921" lon="0.52732">
        <ele>6.9598708152771</ele>
        <time>2014-03-29T22:52:47Z</time>
      </trkpt>
      <trkpt lat="49.52932" lon="0.52749">
        <ele>6.8143520355225</ele>
        <time>2014-03-29T22:52:53Z</time>
      </trkpt>
      <trkpt lat="49.52942" lon="0.52761">
        <ele>6.6074395179748</ele>
        <time>2014-03-29T22:52:58Z</time>
      </trkpt>
      <trkpt lat="49.52951" lon="0.52773">
        <ele>6.4267582893372</ele>
        <time>2014-03-29T22:53:03Z</time>
      </trkpt>
      <trkpt lat="49.52963" lon="0.52787">
        <ele>6.2466764450073</ele>
        <time>2014-03-29T22:53:09Z</time>
      </trkpt>
      <trkpt lat="49.52976" lon="0.52805">
        <ele>6.0954623222351</ele>
        <time>2014-03-29T22:53:16Z</time>
      </trkpt>
      <trkpt lat="49.52985" lon="0.52819">
        <ele>6.0315217971802</ele>
        <time>2014-03-29T22:53:21Z</time>
      </trkpt>
      <trkpt lat="49.52995" lon="0.52831">
        <ele>6.0014839172363</ele>
        <time>2014-03-29T22:53:26Z</time>
      </trkpt>
      <trkpt lat="49.53004" lon="0.52843">
        <ele>6.3801765441894</ele>
        <time>2014-03-29T22:53:31Z</time>
      </trkpt>
      <trkpt lat="49.53017" lon="0.52859">
        <ele>7.1579241752625</ele>
        <time>2014-03-29T22:53:38Z</time>
      </trkpt>
      <trkpt lat="49.53026" lon="0.52872">
        <ele>7.7177219390869</ele>
        <time>2014-03-29T22:53:43Z</time>
      </trkpt>
      <trkpt lat="49.53035" lon="0.52884">
        <ele>8.2353372573853</ele>
        <time>2014-03-29T22:53:48Z</time>
      </trkpt>
      <trkpt lat="49.53037" lon="0.52887">
        <ele>8.3340034484863</ele>
        <time>2014-03-29T22:53:49Z</time>
      </trkpt>
      <trkpt lat="49.53045" lon="0.52897">
        <ele>8.7300214767456</ele>
        <time>2014-03-29T22:53:55Z</time>
      </trkpt>
      <trkpt lat="49.53046" lon="0.52902">
        <ele>8.8321475982666</ele>
        <time>2014-03-29T22:53:59Z</time>
      </trkpt>
      <trkpt lat="49.53048" lon="0.52908">
        <ele>9.0031356811523</ele>
        <time>2014-03-29T22:54:03Z</time>
      </trkpt>
      <trkpt lat="49.53051" lon="0.52913">
        <ele>9.1558065414429</ele>
        <time>2014-03-29T22:54:06Z</time>
      </trkpt>
      <trkpt lat="49.53057" lon="0.52924">
        <ele>9.4866600036621</ele>
        <time>2014-03-29T22:54:13Z</time>
      </trkpt>
      <trkpt lat="49.53059" lon="0.52927">
        <ele>9.5979404449463</ele>
        <time>2014-03-29T22:54:15Z</time>
      </trkpt>
      <trkpt lat="49.53064" lon="0.52937">
        <ele>9.8891944885254</ele>
        <time>2014-03-29T22:54:21Z</time>
      </trkpt>
      <trkpt lat="49.53067" lon="0.52942">
        <ele>10.09428024292</ele>
        <time>2014-03-29T22:54:24Z</time>
      </trkpt>
      <trkpt lat="49.53072" lon="0.52944">
        <ele>10.300899505615</ele>
        <time>2014-03-29T22:54:27Z</time>
      </trkpt>
      <trkpt lat="49.53079" lon="0.52944">
        <ele>10.531374931335</ele>
        <time>2014-03-29T22:54:32Z</time>
      </trkpt>
      <trkpt lat="49.53085" lon="0.52941">
        <ele>10.765463829041</ele>
        <time>2014-03-29T22:54:37Z</time>
      </trkpt>
      <trkpt lat="49.53091" lon="0.52932">
        <ele>11.047538757324</ele>
        <time>2014-03-29T22:54:43Z</time>
      </trkpt>
      <trkpt lat="49.53099" lon="0.52921">
        <ele>11.28259563446</ele>
        <time>2014-03-29T22:54:50Z</time>
      </trkpt>
      <trkpt lat="49.53109" lon="0.52907">
        <ele>11.589866638184</ele>
        <time>2014-03-29T22:54:59Z</time>
      </trkpt>
      <trkpt lat="49.53115" lon="0.52898">
        <ele>11.82474899292</ele>
        <time>2014-03-29T22:55:05Z</time>
      </trkpt>
      <trkpt lat="49.5312" lon="0.52894">
        <ele>12.021432876587</ele>
        <time>2014-03-29T22:55:10Z</time>
      </trkpt>
      <trkpt lat="49.53127" lon="0.5289">
        <ele>12.293830871582</ele>
        <time>2014-03-29T22:55:15Z</time>
      </trkpt>
      <trkpt lat="49.5313" lon="0.52888">
        <ele>12.447137832642</ele>
        <time>2014-03-29T22:55:17Z</time>
      </trkpt>
      <trkpt lat="49.5314" lon="0.52884">
        <ele>12.889488220215</ele>
        <time>2014-03-29T22:55:24Z</time>
      </trkpt>
      <trkpt lat="49.5315" lon="0.52878">
        <ele>13.21879196167</ele>
        <time>2014-03-29T22:55:29Z</time>
      </trkpt>
      <trkpt lat="49.53158" lon="0.52873">
        <ele>13.419400215149</ele>
        <time>2014-03-29T22:55:32Z</time>
      </trkpt>
      <trkpt lat="49.53179" lon="0.52862">
        <ele>15.159985542297</ele>
        <time>2014-03-29T22:55:38Z</time>
      </trkpt>
      <trkpt lat="49.53183" lon="0.52859">
        <ele>15.574201583862</ele>
        <time>2014-03-29T22:55:39Z</time>
      </trkpt>
      <trkpt lat="49.53186" lon="0.52853">
        <ele>15.633309364319</ele>
        <time>2014-03-29T22:55:42Z</time>
      </trkpt>
      <trkpt lat="49.53191" lon="0.52843">
        <ele>15.582278251648</ele>
        <time>2014-03-29T22:55:47Z</time>
      </trkpt>
      <trkpt lat="49.53205" lon="0.52833">
        <ele>16.590902328491</ele>
        <time>2014-03-29T22:55:53Z</time>
      </trkpt>
      <trkpt lat="49.5322" lon="0.52815">
        <ele>17.571571350098</ele>
        <time>2014-03-29T22:56:02Z</time>
      </trkpt>
      <trkpt lat="49.53222" lon="0.52813">
        <ele>17.69362449646</ele>
        <time>2014-03-29T22:56:03Z</time>
      </trkpt>
      <trkpt lat="49.53231" lon="0.52793">
        <ele>17.686742782593</ele>
        <time>2014-03-29T22:56:10Z</time>
      </trkpt>
      <trkpt lat="49.5324" lon="0.52782">
        <ele>17.963979721069</ele>
        <time>2014-03-29T22:56:15Z</time>
      </trkpt>
      <trkpt lat="49.53242" lon="0.52778">
        <ele>17.984603881836</ele>
        <time>2014-03-29T22:56:17Z</time>
      </trkpt>
      <trkpt lat="49.53246" lon="0.52773">
        <ele>18.018749237061</ele>
        <time>2014-03-29T22:56:21Z</time>
      </trkpt>
      <trkpt lat="49.53252" lon="0.52764">
        <ele>18.075855255127</ele>
        <time>2014-03-29T22:56:28Z</time>
      </trkpt>
      <trkpt lat="49.53254" lon="0.52761">
        <ele>18.022834777832</ele>
        <time>2014-03-29T22:56:30Z</time>
      </trkpt>
      <trkpt lat="49.53254" lon="0.52759">
        <ele>17.893350601196</ele>
        <time>2014-03-29T22:56:36Z</time>
      </trkpt>
      <trkpt lat="49.53257" lon="0.5276">
        <ele>18.312614440918</ele>
        <time>2014-03-29T22:56:49Z</time>
      </trkpt>
      <trkpt lat="49.53262" lon="0.52756">
        <ele>18.553113937378</ele>
        <time>2014-03-29T22:56:55Z</time>
      </trkpt>
      <trkpt lat="49.53265" lon="0.52751">
        <ele>18.479043960571</ele>
        <time>2014-03-29T22:56:59Z</time>
      </trkpt>
      <trkpt lat="49.53269" lon="0.52749">
        <ele>18.756458282471</ele>
        <time>2014-03-29T22:57:04Z</time>
      </trkpt>
      <trkpt lat="49.53271" lon="0.52749">
        <ele>18.980409622192</ele>
        <time>2014-03-29T22:57:17Z</time>
      </trkpt>
      <trkpt lat="49.53273" lon="0.52751">
        <ele>19.238935470581</ele>
        <time>2014-03-29T22:57:21Z</time>
      </trkpt>
      <trkpt lat="49.53275" lon="0.52753">
        <ele>19.557521820068</ele>
        <time>2014-03-29T22:57:23Z</time>
      </trkpt>
      <trkpt lat="49.5328" lon="0.5276">
        <ele>20.538719177246</ele>
        <time>2014-03-29T22:57:28Z</time>
      </trkpt>
      <trkpt lat="49.53286" lon="0.52769">
        <ele>21.668033599854</ele>
        <time>2014-03-29T22:57:34Z</time>
      </trkpt>
      <trkpt lat="49.53287" lon="0.52773">
        <ele>22.057758331299</ele>
        <time>2014-03-29T22:57:38Z</time>
      </trkpt>
      <trkpt lat="49.53288" lon="0.52778">
        <ele>22.420871734619</ele>
        <time>2014-03-29T22:57:56Z</time>
      </trkpt>
      <trkpt lat="49.53288" lon="0.52779">
        <ele>22.57878112793</ele>
        <time>2014-03-29T22:58:08Z</time>
      </trkpt>
      <trkpt lat="49.53296" lon="0.5279">
        <ele>24.060569763184</ele>
        <time>2014-03-29T22:58:16Z</time>
      </trkpt>
      <trkpt lat="49.53303" lon="0.52805">
        <ele>25.779335021973</ele>
        <time>2014-03-29T22:58:26Z</time>
      </trkpt>
      <trkpt lat="49.53306" lon="0.52814">
        <ele>26.756246566773</ele>
        <time>2014-03-29T22:58:32Z</time>
      </trkpt>
      <trkpt lat="49.5331" lon="0.52824">
        <ele>27.806531906128</ele>
        <time>2014-03-29T22:58:39Z</time>
      </trkpt>
      <trkpt lat="49.53311" lon="0.52825">
        <ele>27.982511520386</ele>
        <time>2014-03-29T22:58:40Z</time>
      </trkpt>
      <trkpt lat="49.53315" lon="0.52827">
        <ele>28.550537109375</ele>
        <time>2014-03-29T22:58:44Z</time>
      </trkpt>
      <trkpt lat="49.53316" lon="0.52834">
        <ele>29.230361938477</ele>
        <time>2014-03-29T22:58:49Z</time>
      </trkpt>
      <trkpt lat="49.53321" lon="0.52848">
        <ele>31.435066223144</ele>
        <time>2014-03-29T22:58:57Z</time>
      </trkpt>
      <trkpt lat="49.53325" lon="0.52858">
        <ele>33.040672302246</ele>
        <time>2014-03-29T22:59:04Z</time>
      </trkpt>
      <trkpt lat="49.53329" lon="0.52869">
        <ele>34.911636352539</ele>
        <time>2014-03-29T22:59:13Z</time>
      </trkpt>
      <trkpt lat="49.53334" lon="0.52882">
        <ele>36.922348022461</ele>
        <time>2014-03-29T22:59:23Z</time>
      </trkpt>
      <trkpt lat="49.53337" lon="0.5289">
        <ele>38.26358795166</ele>
        <time>2014-03-29T22:59:30Z</time>
      </trkpt>
      <trkpt lat="49.53337" lon="0.52891">
        <ele>38.428295135498</ele>
        <time>2014-03-29T22:59:31Z</time>
      </trkpt>
      <trkpt lat="49.53339" lon="0.52895">
        <ele>39.156452178955</ele>
        <time>2014-03-29T22:59:35Z</time>
      </trkpt>
      <trkpt lat="49.53344" lon="0.52908">
        <ele>41.170154571533</ele>
        <time>2014-03-29T22:59:46Z</time>
      </trkpt>
      <trkpt lat="49.53347" lon="0.52917">
        <ele>42.423511505127</ele>
        <time>2014-03-29T22:59:55Z</time>
      </trkpt>
      <trkpt lat="49.53351" lon="0.52926">
        <ele>43.847774505615</ele>
        <time>2014-03-29T23:00:04Z</time>
      </trkpt>
      <trkpt lat="49.53355" lon="0.52935">
        <ele>45.16495513916</ele>
        <time>2014-03-29T23:00:11Z</time>
      </trkpt>
      <trkpt lat="49.53357" lon="0.52946">
        <ele>46.473876953125</ele>
        <time>2014-03-29T23:00:19Z</time>
      </trkpt>
      <trkpt lat="49.53359" lon="0.52953">
        <ele>47.326457977295</ele>
        <time>2014-03-29T23:00:25Z</time>
      </trkpt>
      <trkpt lat="49.53362" lon="0.52962">
        <ele>48.362335205078</ele>
        <time>2014-03-29T23:00:32Z</time>
      </trkpt>
      <trkpt lat="49.53366" lon="0.52972">
        <ele>49.455902099609</ele>
        <time>2014-03-29T23:00:41Z</time>
      </trkpt>
      <trkpt lat="49.53369" lon="0.52983">
        <ele>50.564586639404</ele>
        <time>2014-03-29T23:00:50Z</time>
      </trkpt>
      <trkpt lat="49.5337" lon="0.52984">
        <ele>50.683689117432</ele>
        <time>2014-03-29T23:00:55Z</time>
      </trkpt>
      <trkpt lat="49.53372" lon="0.52989">
        <ele>51.132129669189</ele>
        <time>2014-03-29T23:01:12Z</time>
      </trkpt>
      <trkpt lat="49.53373" lon="0.52993">
        <ele>51.426429748535</ele>
        <time>2014-03-29T23:01:15Z</time>
      </trkpt>
      <trkpt lat="49.53376" lon="0.52999">
        <ele>51.925804138184</ele>
        <time>2014-03-29T23:01:20Z</time>
      </trkpt>
      <trkpt lat="49.53377" lon="0.53007">
        <ele>52.865459442139</ele>
        <time>2014-03-29T23:01:26Z</time>
      </trkpt>
      <trkpt lat="49.53381" lon="0.53018">
        <ele>54.147247314453</ele>
        <time>2014-03-29T23:01:34Z</time>
      </trkpt>
      <trkpt lat="49.53381" lon="0.53021">
        <ele>54.548450469971</ele>
        <time>2014-03-29T23:01:37Z</time>
      </trkpt>
      <trkpt lat="49.53382" lon="0.53026">
        <ele>55.110198974609</ele>
        <time>2014-03-29T23:01:41Z</time>
      </trkpt>
      <trkpt lat="49.53384" lon="0.53029">
        <ele>55.406650543213</ele>
        <time>2014-03-29T23:01:47Z</time>
      </trkpt>
      <trkpt lat="49.53383" lon="0.53026">
        <ele>55.082164764404</ele>
        <time>2014-03-29T23:02:03Z</time>
      </trkpt>
      <trkpt lat="49.53387" lon="0.53019">
        <ele>53.986598968506</ele>
        <time>2014-03-29T23:02:10Z</time>
      </trkpt>
      <trkpt lat="49.53394" lon="0.53017">
        <ele>53.489101409912</ele>
        <time>2014-03-29T23:02:15Z</time>
      </trkpt>
      <trkpt lat="49.53398" lon="0.53014">
        <ele>53.047538757324</ele>
        <time>2014-03-29T23:02:21Z</time>
      </trkpt>
      <trkpt lat="49.53403" lon="0.53012">
        <ele>52.650417327881</ele>
        <time>2014-03-29T23:02:25Z</time>
      </trkpt>
      <trkpt lat="49.53413" lon="0.53009">
        <ele>52.034175872803</ele>
        <time>2014-03-29T23:02:30Z</time>
      </trkpt>
      <trkpt lat="49.53414" lon="0.53008">
        <ele>51.895824432373</ele>
        <time>2014-03-29T23:02:31Z</time>
      </trkpt>
      <trkpt lat="49.53419" lon="0.53">
        <ele>51.553882598877</ele>
        <time>2014-03-29T23:02:37Z</time>
      </trkpt>
      <trkpt lat="49.53424" lon="0.52988">
        <ele>52.595069885254</ele>
        <time>2014-03-29T23:02:44Z</time>
      </trkpt>
      <trkpt lat="49.53426" lon="0.52984">
        <ele>53.02424621582</ele>
        <time>2014-03-29T23:02:46Z</time>
      </trkpt>
      <trkpt lat="49.53428" lon="0.52977">
        <ele>53.486743927002</ele>
        <time>2014-03-29T23:02:51Z</time>
      </trkpt>
      <trkpt lat="49.5343" lon="0.52972">
        <ele>53.906444549561</ele>
        <time>2014-03-29T23:02:56Z</time>
      </trkpt>
      <trkpt lat="49.53433" lon="0.52959">
        <ele>54.47981262207</ele>
        <time>2014-03-29T23:03:35Z</time>
      </trkpt>
      <trkpt lat="49.53432" lon="0.52957">
        <ele>54.332176208496</ele>
        <time>2014-03-29T23:03:37Z</time>
      </trkpt>
      <trkpt lat="49.53433" lon="0.52952">
        <ele>54.443458557129</ele>
        <time>2014-03-29T23:03:42Z</time>
      </trkpt>
      <trkpt lat="49.53434" lon="0.52947">
        <ele>54.566307067871</ele>
        <time>2014-03-29T23:03:47Z</time>
      </trkpt>
      <trkpt lat="49.53434" lon="0.52941">
        <ele>54.563781738281</ele>
        <time>2014-03-29T23:03:52Z</time>
      </trkpt>
      <trkpt lat="49.53434" lon="0.52935">
        <ele>54.233211517334</ele>
        <time>2014-03-29T23:03:58Z</time>
      </trkpt>
      <trkpt lat="49.53433" lon="0.52925">
        <ele>53.824459075928</ele>
        <time>2014-03-29T23:04:13Z</time>
      </trkpt>
      <trkpt lat="49.53436" lon="0.52919">
        <ele>54.585289001465</ele>
        <time>2014-03-29T23:04:18Z</time>
      </trkpt>
      <trkpt lat="49.53436" lon="0.52917">
        <ele>54.658451080322</ele>
        <time>2014-03-29T23:04:20Z</time>
      </trkpt>
      <trkpt lat="49.5344" lon="0.52911">
        <ele>55.592269897461</ele>
        <time>2014-03-29T23:04:26Z</time>
      </trkpt>
      <trkpt lat="49.53441" lon="0.52906">
        <ele>55.877735137939</ele>
        <time>2014-03-29T23:04:31Z</time>
      </trkpt>
      <trkpt lat="49.53442" lon="0.52897">
        <ele>56.134227752686</ele>
        <time>2014-03-29T23:04:38Z</time>
      </trkpt>
      <trkpt lat="49.53442" lon="0.52895">
        <ele>56.116954803467</ele>
        <time>2014-03-29T23:04:40Z</time>
      </trkpt>
      <trkpt lat="49.53444" lon="0.52888">
        <ele>56.613292694092</ele>
        <time>2014-03-29T23:04:47Z</time>
      </trkpt>
      <trkpt lat="49.53444" lon="0.52882">
        <ele>56.675533294678</ele>
        <time>2014-03-29T23:04:52Z</time>
      </trkpt>
      <trkpt lat="49.53445" lon="0.52877">
        <ele>56.863628387451</ele>
        <time>2014-03-29T23:04:56Z</time>
      </trkpt>
      <trkpt lat="49.53445" lon="0.52871">
        <ele>56.701499938965</ele>
        <time>2014-03-29T23:05:00Z</time>
      </trkpt>
      <trkpt lat="49.53449" lon="0.52866">
        <ele>57.899242401123</ele>
        <time>2014-03-29T23:05:09Z</time>
      </trkpt>
      <trkpt lat="49.53449" lon="0.52864">
        <ele>57.996784210205</ele>
        <time>2014-03-29T23:05:11Z</time>
      </trkpt>
      <trkpt lat="49.53452" lon="0.52863">
        <ele>58.667053222656</ele>
        <time>2014-03-29T23:05:15Z</time>
      </trkpt>
      <trkpt lat="49.53455" lon="0.52859">
        <ele>59.659572601318</ele>
        <time>2014-03-29T23:05:21Z</time>
      </trkpt>
      <trkpt lat="49.53458" lon="0.52854">
        <ele>60.420001983643</ele>
        <time>2014-03-29T23:05:28Z</time>
      </trkpt>
      <trkpt lat="49.53458" lon="0.52851">
        <ele>60.515640258789</ele>
        <time>2014-03-29T23:05:34Z</time>
      </trkpt>
      <trkpt lat="49.53456" lon="0.52846">
        <ele>59.916549682617</ele>
        <time>2014-03-29T23:05:47Z</time>
      </trkpt>
      <trkpt lat="49.53455" lon="0.52838">
        <ele>59.633640289307</ele>
        <time>2014-03-29T23:05:53Z</time>
      </trkpt>
      <trkpt lat="49.53456" lon="0.52834">
        <ele>59.725082397461</ele>
        <time>2014-03-29T23:05:56Z</time>
      </trkpt>
      <trkpt lat="49.53454" lon="0.52825">
        <ele>58.739761352539</ele>
        <time>2014-03-29T23:06:03Z</time>
      </trkpt>
      <trkpt lat="49.53454" lon="0.52818">
        <ele>58.155544281006</ele>
        <time>2014-03-29T23:06:10Z</time>
      </trkpt>
      <trkpt lat="49.53453" lon="0.52811">
        <ele>57.645847320557</ele>
        <time>2014-03-29T23:06:15Z</time>
      </trkpt>
      <trkpt lat="49.53456" lon="0.52805">
        <ele>58.138626098633</ele>
        <time>2014-03-29T23:06:20Z</time>
      </trkpt>
      <trkpt lat="49.53456" lon="0.528">
        <ele>57.592189788818</ele>
        <time>2014-03-29T23:06:23Z</time>
      </trkpt>
      <trkpt lat="49.53454" lon="0.52798">
        <ele>56.913692474365</ele>
        <time>2014-03-29T23:06:25Z</time>
      </trkpt>
      <trkpt lat="49.53451" lon="0.52789">
        <ele>55.540382385254</ele>
        <time>2014-03-29T23:06:31Z</time>
      </trkpt>
      <trkpt lat="49.53445" lon="0.5278">
        <ele>53.621704101562</ele>
        <time>2014-03-29T23:06:36Z</time>
      </trkpt>
      <trkpt lat="49.53441" lon="0.52777">
        <ele>52.264068603516</ele>
        <time>2014-03-29T23:06:41Z</time>
      </trkpt>
      <trkpt lat="49.53439" lon="0.52781">
        <ele>52.044677734375</ele>
        <time>2014-03-29T23:06:45Z</time>
      </trkpt>
      <trkpt lat="49.53436" lon="0.52779">
        <ele>51.080089569092</ele>
        <time>2014-03-29T23:06:55Z</time>
      </trkpt>
      <trkpt lat="49.53433" lon="0.52778">
        <ele>50.31303024292</ele>
        <time>2014-03-29T23:07:05Z</time>
      </trkpt>
      <trkpt lat="49.53432" lon="0.52778">
        <ele>50.095664978027</ele>
        <time>2014-03-29T23:07:08Z</time>
      </trkpt>
      <trkpt lat="49.5343" lon="0.52776">
        <ele>49.419216156006</ele>
        <time>2014-03-29T23:07:15Z</time>
      </trkpt>
      <trkpt lat="49.5343" lon="0.52771">
        <ele>49.218074798584</ele>
        <time>2014-03-29T23:07:19Z</time>
      </trkpt>
      <trkpt lat="49.53433" lon="0.52755">
        <ele>49.104175567627</ele>
        <time>2014-03-29T23:07:28Z</time>
      </trkpt>
      <trkpt lat="49.53433" lon="0.52753">
        <ele>49.13130569458</ele>
        <time>2014-03-29T23:07:29Z</time>
      </trkpt>
      <trkpt lat="49.53436" lon="0.52746">
        <ele>49.063537597656</ele>
        <time>2014-03-29T23:07:36Z</time>
      </trkpt>
      <trkpt lat="49.53437" lon="0.52743">
        <ele>48.936645507812</ele>
        <time>2014-03-29T23:07:43Z</time>
      </trkpt>
      <trkpt lat="49.53437" lon="0.52738">
        <ele>48.39429473877</ele>
        <time>2014-03-29T23:07:53Z</time>
      </trkpt>
      <trkpt lat="49.53437" lon="0.52737">
        <ele>48.128940582275</ele>
        <time>2014-03-29T23:07:54Z</time>
      </trkpt>
      <trkpt lat="49.5344" lon="0.52725">
        <ele>47.547233581543</ele>
        <time>2014-03-29T23:08:00Z</time>
      </trkpt>
      <trkpt lat="49.53443" lon="0.52721">
        <ele>47.576396942139</ele>
        <time>2014-03-29T23:08:02Z</time>
      </trkpt>
      <trkpt lat="49.53453" lon="0.52708">
        <ele>48.537055969238</ele>
        <time>2014-03-29T23:08:07Z</time>
      </trkpt>
      <trkpt lat="49.53465" lon="0.52695">
        <ele>49.776596069336</ele>
        <time>2014-03-29T23:08:12Z</time>
      </trkpt>
      <trkpt lat="49.53473" lon="0.52681">
        <ele>49.911956787109</ele>
        <time>2014-03-29T23:08:17Z</time>
      </trkpt>
      <trkpt lat="49.53474" lon="0.52677">
        <ele>49.766620635986</ele>
        <time>2014-03-29T23:08:19Z</time>
      </trkpt>
      <trkpt lat="49.53479" lon="0.52667">
        <ele>49.772464752197</ele>
        <time>2014-03-29T23:08:26Z</time>
      </trkpt>
      <trkpt lat="49.53483" lon="0.52655">
        <ele>48.927898406982</ele>
        <time>2014-03-29T23:08:34Z</time>
      </trkpt>
      <trkpt lat="49.53484" lon="0.5264">
        <ele>46.692512512207</ele>
        <time>2014-03-29T23:08:41Z</time>
      </trkpt>
      <trkpt lat="49.53484" lon="0.52638">
        <ele>46.366054534912</ele>
        <time>2014-03-29T23:08:42Z</time>
      </trkpt>
      <trkpt lat="49.53484" lon="0.52629">
        <ele>44.940654754639</ele>
        <time>2014-03-29T23:08:48Z</time>
      </trkpt>
      <trkpt lat="49.53481" lon="0.52627">
        <ele>43.953079223633</ele>
        <time>2014-03-29T23:08:50Z</time>
      </trkpt>
      <trkpt lat="49.53477" lon="0.52626">
        <ele>43.152187347412</ele>
        <time>2014-03-29T23:08:52Z</time>
      </trkpt>
      <trkpt lat="49.53473" lon="0.52615">
        <ele>40.743175506592</ele>
        <time>2014-03-29T23:08:58Z</time>
      </trkpt>
      <trkpt lat="49.53473" lon="0.52611">
        <ele>40.176689147949</ele>
        <time>2014-03-29T23:09:00Z</time>
      </trkpt>
      <trkpt lat="49.53476" lon="0.52604">
        <ele>39.598194122314</ele>
        <time>2014-03-29T23:09:07Z</time>
      </trkpt>
      <trkpt lat="49.53477" lon="0.52603">
        <ele>39.659992218018</ele>
        <time>2014-03-29T23:09:15Z</time>
      </trkpt>
      <trkpt lat="49.53481" lon="0.526">
        <ele>39.815196990967</ele>
        <time>2014-03-29T23:09:21Z</time>
      </trkpt>
      <trkpt lat="49.53482" lon="0.52599">
        <ele>39.957927703857</ele>
        <time>2014-03-29T23:09:22Z</time>
      </trkpt>
      <trkpt lat="49.53488" lon="0.52595">
        <ele>40.194538116455</ele>
        <time>2014-03-29T23:09:27Z</time>
      </trkpt>
      <trkpt lat="49.53493" lon="0.52591">
        <ele>40.258205413818</ele>
        <time>2014-03-29T23:09:31Z</time>
      </trkpt>
      <trkpt lat="49.53495" lon="0.52586">
        <ele>39.86727142334</ele>
        <time>2014-03-29T23:09:34Z</time>
      </trkpt>
      <trkpt lat="49.53502" lon="0.52578">
        <ele>39.826984405518</ele>
        <time>2014-03-29T23:09:40Z</time>
      </trkpt>
      <trkpt lat="49.53505" lon="0.52571">
        <ele>39.873538970947</ele>
        <time>2014-03-29T23:09:44Z</time>
      </trkpt>
      <trkpt lat="49.53509" lon="0.52562">
        <ele>39.863430023193</ele>
        <time>2014-03-29T23:09:49Z</time>
      </trkpt>
      <trkpt lat="49.53512" lon="0.52552">
        <ele>39.571109771729</ele>
        <time>2014-03-29T23:09:54Z</time>
      </trkpt>
      <trkpt lat="49.53514" lon="0.52545">
        <ele>39.198955535889</ele>
        <time>2014-03-29T23:09:57Z</time>
      </trkpt>
      <trkpt lat="49.53518" lon="0.52535">
        <ele>38.917598724365</ele>
        <time>2014-03-29T23:10:03Z</time>
      </trkpt>
      <trkpt lat="49.53518" lon="0.52534">
        <ele>38.835964202881</ele>
        <time>2014-03-29T23:10:04Z</time>
      </trkpt>
      <trkpt lat="49.53519" lon="0.52531">
        <ele>38.804000854492</ele>
        <time>2014-03-29T23:10:12Z</time>
      </trkpt>
      <trkpt lat="49.53524" lon="0.52521">
        <ele>38.445892333984</ele>
        <time>2014-03-29T23:10:18Z</time>
      </trkpt>
      <trkpt lat="49.53528" lon="0.52508">
        <ele>37.700313568115</ele>
        <time>2014-03-29T23:10:24Z</time>
      </trkpt>
      <trkpt lat="49.53534" lon="0.52495">
        <ele>37.554809570312</ele>
        <time>2014-03-29T23:10:31Z</time>
      </trkpt>
      <trkpt lat="49.53537" lon="0.52488">
        <ele>37.734569549561</ele>
        <time>2014-03-29T23:10:34Z</time>
      </trkpt>
      <trkpt lat="49.53541" lon="0.52476">
        <ele>37.928321838379</ele>
        <time>2014-03-29T23:10:40Z</time>
      </trkpt>
      <trkpt lat="49.53546" lon="0.52467">
        <ele>38.261779785156</ele>
        <time>2014-03-29T23:10:45Z</time>
      </trkpt>
      <trkpt lat="49.53552" lon="0.52454">
        <ele>38.648742675781</ele>
        <time>2014-03-29T23:10:53Z</time>
      </trkpt>
      <trkpt lat="49.53556" lon="0.5244">
        <ele>38.567760467529</ele>
        <time>2014-03-29T23:11:01Z</time>
      </trkpt>
      <trkpt lat="49.53558" lon="0.52432">
        <ele>38.450233459473</ele>
        <time>2014-03-29T23:11:05Z</time>
      </trkpt>
      <trkpt lat="49.53558" lon="0.52428">
        <ele>38.143207550049</ele>
        <time>2014-03-29T23:11:08Z</time>
      </trkpt>
      <trkpt lat="49.53559" lon="0.52426">
        <ele>38.296573638916</ele>
        <time>2014-03-29T23:11:13Z</time>
      </trkpt>
      <trkpt lat="49.53561" lon="0.52423">
        <ele>38.365489959717</ele>
        <time>2014-03-29T23:11:18Z</time>
      </trkpt>
      <trkpt lat="49.53561" lon="0.52422">
        <ele>38.251884460449</ele>
        <time>2014-03-29T23:11:29Z</time>
      </trkpt>
      <trkpt lat="49.53561" lon="0.52421">
        <ele>38.232738494873</ele>
        <time>2014-03-29T23:11:32Z</time>
      </trkpt>
      <trkpt lat="49.53568" lon="0.52414">
        <ele>39.008377075195</ele>
        <time>2014-03-29T23:11:37Z</time>
      </trkpt>
      <trkpt lat="49.53574" lon="0.52411">
        <ele>39.810245513916</ele>
        <time>2014-03-29T23:11:40Z</time>
      </trkpt>
      <trkpt lat="49.5358" lon="0.52409">
        <ele>40.731300354004</ele>
        <time>2014-03-29T23:11:43Z</time>
      </trkpt>
      <trkpt lat="49.53588" lon="0.52402">
        <ele>41.486003875732</ele>
        <time>2014-03-29T23:11:47Z</time>
      </trkpt>
      <trkpt lat="49.53594" lon="0.52398">
        <ele>41.892101287842</ele>
        <time>2014-03-29T23:11:51Z</time>
      </trkpt>
      <trkpt lat="49.53603" lon="0.52392">
        <ele>42.525001525879</ele>
        <time>2014-03-29T23:11:59Z</time>
      </trkpt>
      <trkpt lat="49.53614" lon="0.52384">
        <ele>43.19202041626</ele>
        <time>2014-03-29T23:12:09Z</time>
      </trkpt>
      <trkpt lat="49.53618" lon="0.52382">
        <ele>43.405467987061</ele>
        <time>2014-03-29T23:12:12Z</time>
      </trkpt>
      <trkpt lat="49.53618" lon="0.52372">
        <ele>43.357032775879</ele>
        <time>2014-03-29T23:12:17Z</time>
      </trkpt>
      <trkpt lat="49.53616" lon="0.52365">
        <ele>43.240383148193</ele>
        <time>2014-03-29T23:12:21Z</time>
      </trkpt>
      <trkpt lat="49.53611" lon="0.52347">
        <ele>42.979141235352</ele>
        <time>2014-03-29T23:12:31Z</time>
      </trkpt>
      <trkpt lat="49.53605" lon="0.52329">
        <ele>43.015407562256</ele>
        <time>2014-03-29T23:12:41Z</time>
      </trkpt>
      <trkpt lat="49.53603" lon="0.52324">
        <ele>43.193756103516</ele>
        <time>2014-03-29T23:12:45Z</time>
      </trkpt>
      <trkpt lat="49.53601" lon="0.52319">
        <ele>43.35795211792</ele>
        <time>2014-03-29T23:12:51Z</time>
      </trkpt>
      <trkpt lat="49.53601" lon="0.52317">
        <ele>43.42894744873</ele>
        <time>2014-03-29T23:12:52Z</time>
      </trkpt>
      <trkpt lat="49.53595" lon="0.52295">
        <ele>44.473030090332</ele>
        <time>2014-03-29T23:13:04Z</time>
      </trkpt>
      <trkpt lat="49.5359" lon="0.52286">
        <ele>44.911781311035</ele>
        <time>2014-03-29T23:13:10Z</time>
      </trkpt>
      <trkpt lat="49.53582" lon="0.52278">
        <ele>45.110176086426</ele>
        <time>2014-03-29T23:13:17Z</time>
      </trkpt>
      <trkpt lat="49.53572" lon="0.5227">
        <ele>44.312088012695</ele>
        <time>2014-03-29T23:13:25Z</time>
      </trkpt>
      <trkpt lat="49.53569" lon="0.52267">
        <ele>44.072235107422</ele>
        <time>2014-03-29T23:13:31Z</time>
      </trkpt>
      <trkpt lat="49.53566" lon="0.52265">
        <ele>43.78980255127</ele>
        <time>2014-03-29T23:13:36Z</time>
      </trkpt>
      <trkpt lat="49.53559" lon="0.52258">
        <ele>43.180732727051</ele>
        <time>2014-03-29T23:13:41Z</time>
      </trkpt>
      <trkpt lat="49.5355" lon="0.52248">
        <ele>42.252582550049</ele>
        <time>2014-03-29T23:13:46Z</time>
      </trkpt>
      <trkpt lat="49.5354" lon="0.52238">
        <ele>40.760166168213</ele>
        <time>2014-03-29T23:13:52Z</time>
      </trkpt>
      <trkpt lat="49.53531" lon="0.52229">
        <ele>39.382049560547</ele>
        <time>2014-03-29T23:13:57Z</time>
      </trkpt>
      <trkpt lat="49.53519" lon="0.52229">
        <ele>37.608573913574</ele>
        <time>2014-03-29T23:14:02Z</time>
      </trkpt>
      <trkpt lat="49.53507" lon="0.52229">
        <ele>35.831878662109</ele>
        <time>2014-03-29T23:14:07Z</time>
      </trkpt>
      <trkpt lat="49.53497" lon="0.52226">
        <ele>34.207675933838</ele>
        <time>2014-03-29T23:14:12Z</time>
      </trkpt>
      <trkpt lat="49.53494" lon="0.52225">
        <ele>33.767086029053</ele>
        <time>2014-03-29T23:14:15Z</time>
      </trkpt>
      <trkpt lat="49.53492" lon="0.52228">
        <ele>33.436962127686</ele>
        <time>2014-03-29T23:14:20Z</time>
      </trkpt>
      <trkpt lat="49.53491" lon="0.52241">
        <ele>33.4326171875</ele>
        <time>2014-03-29T23:14:30Z</time>
      </trkpt>
      <trkpt lat="49.5349" lon="0.52249">
        <ele>33.429000854492</ele>
        <time>2014-03-29T23:14:46Z</time>
      </trkpt>
      <trkpt lat="49.5349" lon="0.52255">
        <ele>33.404354095459</ele>
        <time>2014-03-29T23:14:49Z</time>
      </trkpt>
      <trkpt lat="49.53491" lon="0.52269">
        <ele>33.677452087402</ele>
        <time>2014-03-29T23:14:55Z</time>
      </trkpt>
      <trkpt lat="49.53491" lon="0.52282">
        <ele>33.709270477295</ele>
        <time>2014-03-29T23:15:01Z</time>
      </trkpt>
      <trkpt lat="49.53491" lon="0.52293">
        <ele>33.737831115723</ele>
        <time>2014-03-29T23:15:07Z</time>
      </trkpt>
      <trkpt lat="49.53491" lon="0.52296">
        <ele>33.746055603027</ele>
        <time>2014-03-29T23:15:09Z</time>
      </trkpt>
      <trkpt lat="49.53493" lon="0.52297">
        <ele>34.074768066406</ele>
        <time>2014-03-29T23:15:14Z</time>
      </trkpt>
      <trkpt lat="49.53493" lon="0.52297">
        <ele>34.073963165283</ele>
        <time>2014-03-29T23:15:19Z</time>
      </trkpt>
      <trkpt lat="49.53495" lon="0.52294">
        <ele>34.341194152832</ele>
        <time>2014-03-29T23:15:23Z</time>
      </trkpt>
      <trkpt lat="49.53494" lon="0.52294">
        <ele>34.12385559082</ele>
        <time>2014-03-29T23:15:29Z</time>
      </trkpt>
      <trkpt lat="49.5349" lon="0.52294">
        <ele>33.577461242676</ele>
        <time>2014-03-29T23:15:37Z</time>
      </trkpt>
      <trkpt lat="49.53487" lon="0.52291">
        <ele>33.073867797852</ele>
        <time>2014-03-29T23:15:43Z</time>
      </trkpt>
      <trkpt lat="49.53487" lon="0.52286">
        <ele>33.108776092529</ele>
        <time>2014-03-29T23:15:47Z</time>
      </trkpt>
      <trkpt lat="49.53487" lon="0.52277">
        <ele>33.13073348999</ele>
        <time>2014-03-29T23:15:56Z</time>
      </trkpt>
      <trkpt lat="49.53488" lon="0.5228">
        <ele>33.199939727783</ele>
        <time>2014-03-29T23:16:00Z</time>
      </trkpt>
      <trkpt lat="49.53488" lon="0.52292">
        <ele>33.241188049316</ele>
        <time>2014-03-29T23:16:07Z</time>
      </trkpt>
      <trkpt lat="49.53487" lon="0.52303">
        <ele>33.117603302002</ele>
        <time>2014-03-29T23:16:13Z</time>
      </trkpt>
      <trkpt lat="49.53486" lon="0.52309">
        <ele>33.087596893311</ele>
        <time>2014-03-29T23:16:16Z</time>
      </trkpt>
      <trkpt lat="49.53485" lon="0.5232">
        <ele>32.923194885254</ele>
        <time>2014-03-29T23:16:21Z</time>
      </trkpt>
      <trkpt lat="49.53483" lon="0.52328">
        <ele>32.703289031982</ele>
        <time>2014-03-29T23:16:25Z</time>
      </trkpt>
      <trkpt lat="49.53481" lon="0.52334">
        <ele>32.489967346191</ele>
        <time>2014-03-29T23:16:28Z</time>
      </trkpt>
      <trkpt lat="49.53477" lon="0.52354">
        <ele>31.068281173706</ele>
        <time>2014-03-29T23:16:34Z</time>
      </trkpt>
      <trkpt lat="49.53473" lon="0.52377">
        <ele>29.488805770874</ele>
        <time>2014-03-29T23:16:40Z</time>
      </trkpt>
      <trkpt lat="49.53469" lon="0.52399">
        <ele>28.132055282593</ele>
        <time>2014-03-29T23:16:46Z</time>
      </trkpt>
      <trkpt lat="49.53468" lon="0.52406">
        <ele>27.756242752075</ele>
        <time>2014-03-29T23:16:49Z</time>
      </trkpt>
      <trkpt lat="49.53467" lon="0.52419">
        <ele>27.276971817017</ele>
        <time>2014-03-29T23:16:53Z</time>
      </trkpt>
      <trkpt lat="49.53465" lon="0.52428">
        <ele>27.288702011108</ele>
        <time>2014-03-29T23:16:56Z</time>
      </trkpt>
      <trkpt lat="49.5346" lon="0.52441">
        <ele>27.22776222229</ele>
        <time>2014-03-29T23:17:05Z</time>
      </trkpt>
      <trkpt lat="49.53458" lon="0.52444">
        <ele>27.160957336426</ele>
        <time>2014-03-29T23:17:09Z</time>
      </trkpt>
      <trkpt lat="49.53456" lon="0.52452">
        <ele>27.165821075439</ele>
        <time>2014-03-29T23:17:17Z</time>
      </trkpt>
      <trkpt lat="49.53455" lon="0.52451">
        <ele>27.046087265015</ele>
        <time>2014-03-29T23:18:00Z</time>
      </trkpt>
      <trkpt lat="49.53455" lon="0.52448">
        <ele>26.944234848023</ele>
        <time>2014-03-29T23:18:12Z</time>
      </trkpt>
      <trkpt lat="49.53457" lon="0.52441">
        <ele>26.97027015686</ele>
        <time>2014-03-29T23:18:16Z</time>
      </trkpt>
      <trkpt lat="49.53459" lon="0.52434">
        <ele>26.983430862427</ele>
        <time>2014-03-29T23:18:20Z</time>
      </trkpt>
      <trkpt lat="49.53463" lon="0.52422">
        <ele>27.010753631592</ele>
        <time>2014-03-29T23:18:27Z</time>
      </trkpt>
      <trkpt lat="49.53463" lon="0.52418">
        <ele>26.928928375244</ele>
        <time>2014-03-29T23:18:29Z</time>
      </trkpt>
      <trkpt lat="49.53465" lon="0.5241">
        <ele>27.287080764771</ele>
        <time>2014-03-29T23:18:34Z</time>
      </trkpt>
      <trkpt lat="49.5347" lon="0.5239">
        <ele>28.6227684021</ele>
        <time>2014-03-29T23:18:43Z</time>
      </trkpt>
      <trkpt lat="49.53477" lon="0.52374">
        <ele>30.043510437012</ele>
        <time>2014-03-29T23:18:51Z</time>
      </trkpt>
      <trkpt lat="49.53479" lon="0.52362">
        <ele>30.877145767212</ele>
        <time>2014-03-29T23:18:57Z</time>
      </trkpt>
      <trkpt lat="49.53482" lon="0.52349">
        <ele>31.801002502441</ele>
        <time>2014-03-29T23:19:04Z</time>
      </trkpt>
      <trkpt lat="49.53485" lon="0.52334">
        <ele>33.055713653564</ele>
        <time>2014-03-29T23:19:11Z</time>
      </trkpt>
      <trkpt lat="49.53489" lon="0.52319">
        <ele>33.490779876709</ele>
        <time>2014-03-29T23:19:18Z</time>
      </trkpt>
      <trkpt lat="49.53491" lon="0.52297">
        <ele>33.747169494629</ele>
        <time>2014-03-29T23:19:28Z</time>
      </trkpt>
      <trkpt lat="49.53492" lon="0.52292">
        <ele>33.899513244629</ele>
        <time>2014-03-29T23:19:30Z</time>
      </trkpt>
      <trkpt lat="49.53494" lon="0.52275">
        <ele>34.146705627441</ele>
        <time>2014-03-29T23:19:37Z</time>
      </trkpt>
      <trkpt lat="49.53495" lon="0.52262">
        <ele>34.299858093262</ele>
        <time>2014-03-29T23:19:42Z</time>
      </trkpt>
      <trkpt lat="49.53495" lon="0.52255">
        <ele>34.171806335449</ele>
        <time>2014-03-29T23:19:45Z</time>
      </trkpt>
      <trkpt lat="49.53495" lon="0.52247">
        <ele>34.241790771484</ele>
        <time>2014-03-29T23:19:48Z</time>
      </trkpt>
      <trkpt lat="49.53493" lon="0.52232">
        <ele>33.732257843018</ele>
        <time>2014-03-29T23:19:54Z</time>
      </trkpt>
      <trkpt lat="49.53495" lon="0.52225">
        <ele>33.886417388916</ele>
        <time>2014-03-29T23:19:57Z</time>
      </trkpt>
      <trkpt lat="49.53495" lon="0.52219">
        <ele>33.867053985596</ele>
        <time>2014-03-29T23:20:00Z</time>
      </trkpt>
      <trkpt lat="49.53495" lon="0.52198">
        <ele>33.596584320068</ele>
        <time>2014-03-29T23:20:08Z</time>
      </trkpt>
      <trkpt lat="49.53495" lon="0.5219">
        <ele>33.484142303467</ele>
        <time>2014-03-29T23:20:14Z</time>
      </trkpt>
      <trkpt lat="49.53495" lon="0.5219">
        <ele>33.484935760498</ele>
        <time>2014-03-29T23:20:30Z</time>
      </trkpt>
      <trkpt lat="49.53496" lon="0.52189">
        <ele>33.542602539062</ele>
        <time>2014-03-29T23:20:34Z</time>
      </trkpt>
      <trkpt lat="49.53498" lon="0.5218">
        <ele>33.748428344727</ele>
        <time>2014-03-29T23:20:39Z</time>
      </trkpt>
      <trkpt lat="49.53499" lon="0.52161">
        <ele>33.648277282715</ele>
        <time>2014-03-29T23:20:47Z</time>
      </trkpt>
      <trkpt lat="49.53492" lon="0.52149">
        <ele>31.992603302002</ele>
        <time>2014-03-29T23:20:53Z</time>
      </trkpt>
      <trkpt lat="49.53483" lon="0.52142">
        <ele>30.018926620483</ele>
        <time>2014-03-29T23:20:58Z</time>
      </trkpt>
      <trkpt lat="49.53468" lon="0.52146">
        <ele>27.483917236328</ele>
        <time>2014-03-29T23:21:05Z</time>
      </trkpt>
      <trkpt lat="49.53462" lon="0.52153">
        <ele>26.654579162598</ele>
        <time>2014-03-29T23:21:09Z</time>
      </trkpt>
      <trkpt lat="49.53461" lon="0.52157">
        <ele>26.582481384277</ele>
        <time>2014-03-29T23:21:16Z</time>
      </trkpt>
      <trkpt lat="49.53459" lon="0.52159">
        <ele>26.377773284912</ele>
        <time>2014-03-29T23:21:47Z</time>
      </trkpt>
      <trkpt lat="49.53461" lon="0.52166">
        <ele>27.047039031982</ele>
        <time>2014-03-29T23:21:54Z</time>
      </trkpt>
      <trkpt lat="49.53462" lon="0.52163">
        <ele>27.074718475342</ele>
        <time>2014-03-29T23:21:59Z</time>
      </trkpt>
      <trkpt lat="49.53467" lon="0.52146">
        <ele>27.345300674439</ele>
        <time>2014-03-29T23:22:09Z</time>
      </trkpt>
      <trkpt lat="49.53468" lon="0.52143">
        <ele>27.374267578125</ele>
        <time>2014-03-29T23:22:11Z</time>
      </trkpt>
      <trkpt lat="49.53476" lon="0.52143">
        <ele>28.803134918213</ele>
        <time>2014-03-29T23:22:17Z</time>
      </trkpt>
      <trkpt lat="49.53484" lon="0.52148">
        <ele>30.433488845825</ele>
        <time>2014-03-29T23:22:24Z</time>
      </trkpt>
      <trkpt lat="49.53489" lon="0.52153">
        <ele>31.585552215576</ele>
        <time>2014-03-29T23:22:31Z</time>
      </trkpt>
      <trkpt lat="49.5349" lon="0.52153">
        <ele>31.802059173584</ele>
        <time>2014-03-29T23:22:32Z</time>
      </trkpt>
      <trkpt lat="49.53492" lon="0.52153">
        <ele>32.130577087402</ele>
        <time>2014-03-29T23:22:43Z</time>
      </trkpt>
      <trkpt lat="49.53492" lon="0.52154">
        <ele>32.084442138672</ele>
        <time>2014-03-29T23:22:49Z</time>
      </trkpt>
      <trkpt lat="49.53493" lon="0.52155">
        <ele>32.353950500488</ele>
        <time>2014-03-29T23:22:57Z</time>
      </trkpt>
      <trkpt lat="49.53494" lon="0.5216">
        <ele>32.710792541504</ele>
        <time>2014-03-29T23:23:02Z</time>
      </trkpt>
      <trkpt lat="49.53494" lon="0.52178">
        <ele>33.050018310547</ele>
        <time>2014-03-29T23:23:11Z</time>
      </trkpt>
      <trkpt lat="49.53493" lon="0.52181">
        <ele>33.032917022705</ele>
        <time>2014-03-29T23:23:13Z</time>
      </trkpt>
      <trkpt lat="49.53487" lon="0.52184">
        <ele>31.870288848877</ele>
        <time>2014-03-29T23:23:19Z</time>
      </trkpt>
      <trkpt lat="49.53481" lon="0.52185">
        <ele>30.956525802612</ele>
        <time>2014-03-29T23:23:22Z</time>
      </trkpt>
      <trkpt lat="49.53472" lon="0.52189">
        <ele>29.431205749512</ele>
        <time>2014-03-29T23:23:27Z</time>
      </trkpt>
      <trkpt lat="49.53468" lon="0.52191">
        <ele>28.735492706299</ele>
        <time>2014-03-29T23:23:29Z</time>
      </trkpt>
      <trkpt lat="49.53457" lon="0.52197">
        <ele>27.035152435303</ele>
        <time>2014-03-29T23:23:35Z</time>
      </trkpt>
      <trkpt lat="49.53454" lon="0.522">
        <ele>26.590238571167</ele>
        <time>2014-03-29T23:23:37Z</time>
      </trkpt>
      <trkpt lat="49.53448" lon="0.52206">
        <ele>25.785423278809</ele>
        <time>2014-03-29T23:23:42Z</time>
      </trkpt>
      <trkpt lat="49.53438" lon="0.52215">
        <ele>24.236539840698</ele>
        <time>2014-03-29T23:23:50Z</time>
      </trkpt>
      <trkpt lat="49.53433" lon="0.52218">
        <ele>23.588094711304</ele>
        <time>2014-03-29T23:23:55Z</time>
      </trkpt>
      <trkpt lat="49.53431" lon="0.5222">
        <ele>23.196418762207</ele>
        <time>2014-03-29T23:23:58Z</time>
      </trkpt>
      <trkpt lat="49.53423" lon="0.52217">
        <ele>21.899423599243</ele>
        <time>2014-03-29T23:24:05Z</time>
      </trkpt>
      <trkpt lat="49.53421" lon="0.52214">
        <ele>21.443964004517</ele>
        <time>2014-03-29T23:24:07Z</time>
      </trkpt>
      <trkpt lat="49.53416" lon="0.52209">
        <ele>20.406398773193</ele>
        <time>2014-03-29T23:24:13Z</time>
      </trkpt>
      <trkpt lat="49.53411" lon="0.52205">
        <ele>19.614833831787</ele>
        <time>2014-03-29T23:24:18Z</time>
      </trkpt>
      <trkpt lat="49.53403" lon="0.52195">
        <ele>18.324310302734</ele>
        <time>2014-03-29T23:24:24Z</time>
      </trkpt>
      <trkpt lat="49.53402" lon="0.52179">
        <ele>17.666688919067</ele>
        <time>2014-03-29T23:24:30Z</time>
      </trkpt>
      <trkpt lat="49.53398" lon="0.5217">
        <ele>16.862810134888</ele>
        <time>2014-03-29T23:24:34Z</time>
      </trkpt>
      <trkpt lat="49.53383" lon="0.52161">
        <ele>14.81351852417</ele>
        <time>2014-03-29T23:24:42Z</time>
      </trkpt>
      <trkpt lat="49.53372" lon="0.52154">
        <ele>13.449425697327</ele>
        <time>2014-03-29T23:24:49Z</time>
      </trkpt>
      <trkpt lat="49.53371" lon="0.52153">
        <ele>13.30877494812</ele>
        <time>2014-03-29T23:24:50Z</time>
      </trkpt>
      <trkpt lat="49.53369" lon="0.52148">
        <ele>12.964093208313</ele>
        <time>2014-03-29T23:24:54Z</time>
      </trkpt>
      <trkpt lat="49.53368" lon="0.52135">
        <ele>12.644661903381</ele>
        <time>2014-03-29T23:25:01Z</time>
      </trkpt>
      <trkpt lat="49.5337" lon="0.52123">
        <ele>12.738451004028</ele>
        <time>2014-03-29T23:25:09Z</time>
      </trkpt>
      <trkpt lat="49.53369" lon="0.52122">
        <ele>12.606073379517</ele>
        <time>2014-03-29T23:25:10Z</time>
      </trkpt>
      <trkpt lat="49.53363" lon="0.52117">
        <ele>11.970014572144</ele>
        <time>2014-03-29T23:25:18Z</time>
      </trkpt>
      <trkpt lat="49.53362" lon="0.52115">
        <ele>11.791508674622</ele>
        <time>2014-03-29T23:25:25Z</time>
      </trkpt>
      <trkpt lat="49.53362" lon="0.52114">
        <ele>11.744500160217</ele>
        <time>2014-03-29T23:25:30Z</time>
      </trkpt>
      <trkpt lat="49.53359" lon="0.52111">
        <ele>11.481307029724</ele>
        <time>2014-03-29T23:25:37Z</time>
      </trkpt>
      <trkpt lat="49.53357" lon="0.52105">
        <ele>11.166726112366</ele>
        <time>2014-03-29T23:25:42Z</time>
      </trkpt>
      <trkpt lat="49.53351" lon="0.52097">
        <ele>10.570359230042</ele>
        <time>2014-03-29T23:25:50Z</time>
      </trkpt>
      <trkpt lat="49.53344" lon="0.52093">
        <ele>9.970401763916</ele>
        <time>2014-03-29T23:25:57Z</time>
      </trkpt>
      <trkpt lat="49.53341" lon="0.5209">
        <ele>9.623875617981</ele>
        <time>2014-03-29T23:26:01Z</time>
      </trkpt>
      <trkpt lat="49.53337" lon="0.52085">
        <ele>9.3504543304443</ele>
        <time>2014-03-29T23:26:06Z</time>
      </trkpt>
      <trkpt lat="49.53336" lon="0.52079">
        <ele>9.2696104049683</ele>
        <time>2014-03-29T23:26:10Z</time>
      </trkpt>
      <trkpt lat="49.53334" lon="0.52069">
        <ele>9.2619371414185</ele>
        <time>2014-03-29T23:26:17Z</time>
      </trkpt>
      <trkpt lat="49.53337" lon="0.52058">
        <ele>9.6092796325684</ele>
        <time>2014-03-29T23:26:23Z</time>
      </trkpt>
      <trkpt lat="49.53342" lon="0.52047">
        <ele>10.008939743042</ele>
        <time>2014-03-29T23:26:29Z</time>
      </trkpt>
      <trkpt lat="49.53343" lon="0.52043">
        <ele>10.116875648498</ele>
        <time>2014-03-29T23:26:31Z</time>
      </trkpt>
      <trkpt lat="49.53347" lon="0.52029">
        <ele>10.455183029175</ele>
        <time>2014-03-29T23:26:39Z</time>
      </trkpt>
      <trkpt lat="49.53349" lon="0.52019">
        <ele>10.649347305298</ele>
        <time>2014-03-29T23:26:44Z</time>
      </trkpt>
      <trkpt lat="49.53355" lon="0.52002">
        <ele>11.016810417175</ele>
        <time>2014-03-29T23:26:53Z</time>
      </trkpt>
      <trkpt lat="49.53358" lon="0.51986">
        <ele>11.036158561707</ele>
        <time>2014-03-29T23:27:01Z</time>
      </trkpt>
      <trkpt lat="49.53359" lon="0.51978">
        <ele>10.983372688293</ele>
        <time>2014-03-29T23:27:04Z</time>
      </trkpt>
      <trkpt lat="49.5336" lon="0.51966">
        <ele>10.87114906311</ele>
        <time>2014-03-29T23:27:10Z</time>
      </trkpt>
      <trkpt lat="49.53358" lon="0.51955">
        <ele>10.623885154724</ele>
        <time>2014-03-29T23:27:17Z</time>
      </trkpt>
      <trkpt lat="49.53355" lon="0.51948">
        <ele>10.439921379089</ele>
        <time>2014-03-29T23:27:22Z</time>
      </trkpt>
      <trkpt lat="49.53355" lon="0.51947">
        <ele>10.381914138794</ele>
        <time>2014-03-29T23:27:24Z</time>
      </trkpt>
      <trkpt lat="49.53354" lon="0.51945">
        <ele>10.32354927063</ele>
        <time>2014-03-29T23:27:30Z</time>
      </trkpt>
      <trkpt lat="49.53357" lon="0.51922">
        <ele>10.20102596283</ele>
        <time>2014-03-29T23:27:43Z</time>
      </trkpt>
      <trkpt lat="49.53335" lon="0.51907">
        <ele>9.0865163803101</ele>
        <time>2014-03-29T23:27:50Z</time>
      </trkpt>
      <trkpt lat="49.53335" lon="0.51901">
        <ele>9.0674104690552</ele>
        <time>2014-03-29T23:27:54Z</time>
      </trkpt>
      <trkpt lat="49.53332" lon="0.519">
        <ele>8.9598093032837</ele>
        <time>2014-03-29T23:27:59Z</time>
      </trkpt>
      <trkpt lat="49.53328" lon="0.51899">
        <ele>8.8322629928589</ele>
        <time>2014-03-29T23:28:06Z</time>
      </trkpt>
      <trkpt lat="49.53328" lon="0.51897">
        <ele>8.8335485458374</ele>
        <time>2014-03-29T23:28:12Z</time>
      </trkpt>
      <trkpt lat="49.53331" lon="0.51889">
        <ele>8.9373083114624</ele>
        <time>2014-03-29T23:28:16Z</time>
      </trkpt>
      <trkpt lat="49.53335" lon="0.51862">
        <ele>9.0592374801636</ele>
        <time>2014-03-29T23:28:23Z</time>
      </trkpt>
      <trkpt lat="49.53342" lon="0.51834">
        <ele>9.3014936447144</ele>
        <time>2014-03-29T23:28:30Z</time>
      </trkpt>
      <trkpt lat="49.53349" lon="0.51815">
        <ele>9.3715829849243</ele>
        <time>2014-03-29T23:28:35Z</time>
      </trkpt>
      <trkpt lat="49.53357" lon="0.51798">
        <ele>9.5289640426636</ele>
        <time>2014-03-29T23:28:41Z</time>
      </trkpt>
      <trkpt lat="49.53357" lon="0.51797">
        <ele>9.5343389511108</ele>
        <time>2014-03-29T23:28:42Z</time>
      </trkpt>
      <trkpt lat="49.53355" lon="0.5179">
        <ele>9.3961410522461</ele>
        <time>2014-03-29T23:28:49Z</time>
      </trkpt>
      <trkpt lat="49.53354" lon="0.51791">
        <ele>9.3417682647705</ele>
        <time>2014-03-29T23:28:54Z</time>
      </trkpt>
      <trkpt lat="49.53354" lon="0.51794">
        <ele>9.3835802078247</ele>
        <time>2014-03-29T23:29:07Z</time>
      </trkpt>
      <trkpt lat="49.53355" lon="0.51795">
        <ele>9.4435977935791</ele>
        <time>2014-03-29T23:29:24Z</time>
      </trkpt>
      <trkpt lat="49.53355" lon="0.51796">
        <ele>9.4473543167114</ele>
        <time>2014-03-29T23:29:32Z</time>
      </trkpt>
      <trkpt lat="49.53355" lon="0.51795">
        <ele>9.4241571426392</ele>
        <time>2014-03-29T23:29:33Z</time>
      </trkpt>
      <trkpt lat="49.53352" lon="0.51786">
        <ele>9.2423286437988</ele>
        <time>2014-03-29T23:29:41Z</time>
      </trkpt>
      <trkpt lat="49.53348" lon="0.51773">
        <ele>8.9205102920532</ele>
        <time>2014-03-29T23:29:48Z</time>
      </trkpt>
      <trkpt lat="49.53344" lon="0.51764">
        <ele>8.6341323852539</ele>
        <time>2014-03-29T23:29:54Z</time>
      </trkpt>
      <trkpt lat="49.53341" lon="0.51759">
        <ele>8.4771614074707</ele>
        <time>2014-03-29T23:29:57Z</time>
      </trkpt>
      <trkpt lat="49.53339" lon="0.51751">
        <ele>8.300856590271</ele>
        <time>2014-03-29T23:30:01Z</time>
      </trkpt>
      <trkpt lat="49.53341" lon="0.5174">
        <ele>8.352352142334</ele>
        <time>2014-03-29T23:30:06Z</time>
      </trkpt>
      <trkpt lat="49.53341" lon="0.51736">
        <ele>8.3483381271362</ele>
        <time>2014-03-29T23:30:07Z</time>
      </trkpt>
      <trkpt lat="49.53344" lon="0.51715">
        <ele>8.4399614334106</ele>
        <time>2014-03-29T23:30:13Z</time>
      </trkpt>
      <trkpt lat="49.53347" lon="0.51706">
        <ele>8.5547914505005</ele>
        <time>2014-03-29T23:30:18Z</time>
      </trkpt>
      <trkpt lat="49.53347" lon="0.51701">
        <ele>8.5754489898682</ele>
        <time>2014-03-29T23:30:21Z</time>
      </trkpt>
      <trkpt lat="49.53349" lon="0.51695">
        <ele>8.641170501709</ele>
        <time>2014-03-29T23:30:24Z</time>
      </trkpt>
      <trkpt lat="49.5335" lon="0.5169">
        <ele>8.6427583694458</ele>
        <time>2014-03-29T23:30:27Z</time>
      </trkpt>
      <trkpt lat="49.53355" lon="0.51679">
        <ele>8.8335886001587</ele>
        <time>2014-03-29T23:30:33Z</time>
      </trkpt>
      <trkpt lat="49.53356" lon="0.51677">
        <ele>8.8414993286133</ele>
        <time>2014-03-29T23:30:34Z</time>
      </trkpt>
      <trkpt lat="49.5336" lon="0.51658">
        <ele>8.8154220581055</ele>
        <time>2014-03-29T23:30:43Z</time>
      </trkpt>
      <trkpt lat="49.53364" lon="0.51645">
        <ele>8.7414331436157</ele>
        <time>2014-03-29T23:30:50Z</time>
      </trkpt>
      <trkpt lat="49.53364" lon="0.51644">
        <ele>8.7301597595215</ele>
        <time>2014-03-29T23:30:51Z</time>
      </trkpt>
      <trkpt lat="49.53365" lon="0.51632">
        <ele>8.5506811141968</ele>
        <time>2014-03-29T23:30:58Z</time>
      </trkpt>
      <trkpt lat="49.53365" lon="0.5163">
        <ele>8.5297498703003</ele>
        <time>2014-03-29T23:30:59Z</time>
      </trkpt>
      <trkpt lat="49.53368" lon="0.51614">
        <ele>8.3607454299927</ele>
        <time>2014-03-29T23:31:08Z</time>
      </trkpt>
      <trkpt lat="49.53371" lon="0.516">
        <ele>8.1844091415405</ele>
        <time>2014-03-29T23:31:15Z</time>
      </trkpt>
      <trkpt lat="49.53374" lon="0.51588">
        <ele>8.070182800293</ele>
        <time>2014-03-29T23:31:21Z</time>
      </trkpt>
      <trkpt lat="49.53378" lon="0.51582">
        <ele>8.0814800262451</ele>
        <time>2014-03-29T23:31:25Z</time>
      </trkpt>
      <trkpt lat="49.53382" lon="0.51569">
        <ele>8.3522758483887</ele>
        <time>2014-03-29T23:31:33Z</time>
      </trkpt>
      <trkpt lat="49.53383" lon="0.51567">
        <ele>8.3860359191894</ele>
        <time>2014-03-29T23:31:34Z</time>
      </trkpt>
      <trkpt lat="49.53388" lon="0.51557">
        <ele>8.6365184783936</ele>
        <time>2014-03-29T23:31:40Z</time>
      </trkpt>
      <trkpt lat="49.53391" lon="0.51552">
        <ele>8.7680540084839</ele>
        <time>2014-03-29T23:31:43Z</time>
      </trkpt>
      <trkpt lat="49.53397" lon="0.51542">
        <ele>9.0356311798096</ele>
        <time>2014-03-29T23:31:50Z</time>
      </trkpt>
      <trkpt lat="49.53406" lon="0.5153">
        <ele>9.3859634399414</ele>
        <time>2014-03-29T23:31:58Z</time>
      </trkpt>
      <trkpt lat="49.53412" lon="0.51526">
        <ele>9.5720729827881</ele>
        <time>2014-03-29T23:32:02Z</time>
      </trkpt>
      <trkpt lat="49.53424" lon="0.51515">
        <ele>10.170353889465</ele>
        <time>2014-03-29T23:32:11Z</time>
      </trkpt>
      <trkpt lat="49.53431" lon="0.51512">
        <ele>10.587550163269</ele>
        <time>2014-03-29T23:32:17Z</time>
      </trkpt>
      <trkpt lat="49.53432" lon="0.51508">
        <ele>10.659501075745</ele>
        <time>2014-03-29T23:32:22Z</time>
      </trkpt>
      <trkpt lat="49.53434" lon="0.51496">
        <ele>10.92322063446</ele>
        <time>2014-03-29T23:32:28Z</time>
      </trkpt>
      <trkpt lat="49.53439" lon="0.51478">
        <ele>11.439474105835</ele>
        <time>2014-03-29T23:32:36Z</time>
      </trkpt>
      <trkpt lat="49.53439" lon="0.51475">
        <ele>11.529386520386</ele>
        <time>2014-03-29T23:32:38Z</time>
      </trkpt>
      <trkpt lat="49.5344" lon="0.51473">
        <ele>11.591203689575</ele>
        <time>2014-03-29T23:32:44Z</time>
      </trkpt>
      <trkpt lat="49.5344" lon="0.51473">
        <ele>11.578969955444</ele>
        <time>2014-03-29T23:32:54Z</time>
      </trkpt>
      <trkpt lat="49.5344" lon="0.51472">
        <ele>11.615840911865</ele>
        <time>2014-03-29T23:33:12Z</time>
      </trkpt>
      <trkpt lat="49.53443" lon="0.51471">
        <ele>11.726282119751</ele>
        <time>2014-03-29T23:33:19Z</time>
      </trkpt>
      <trkpt lat="49.53444" lon="0.51469">
        <ele>11.829359054565</ele>
        <time>2014-03-29T23:33:21Z</time>
      </trkpt>
      <trkpt lat="49.53448" lon="0.51462">
        <ele>12.080082893372</ele>
        <time>2014-03-29T23:33:25Z</time>
      </trkpt>
      <trkpt lat="49.53455" lon="0.51449">
        <ele>12.510785102844</ele>
        <time>2014-03-29T23:33:33Z</time>
      </trkpt>
      <trkpt lat="49.53461" lon="0.51431">
        <ele>12.91054725647</ele>
        <time>2014-03-29T23:33:42Z</time>
      </trkpt>
      <trkpt lat="49.53467" lon="0.51419">
        <ele>13.189305305481</ele>
        <time>2014-03-29T23:33:48Z</time>
      </trkpt>
      <trkpt lat="49.5347" lon="0.51416">
        <ele>13.251139640808</ele>
        <time>2014-03-29T23:33:50Z</time>
      </trkpt>
      <trkpt lat="49.53474" lon="0.51407">
        <ele>13.121473312378</ele>
        <time>2014-03-29T23:33:55Z</time>
      </trkpt>
      <trkpt lat="49.5348" lon="0.51393">
        <ele>12.865755081177</ele>
        <time>2014-03-29T23:34:03Z</time>
      </trkpt>
      <trkpt lat="49.53488" lon="0.51381">
        <ele>12.613094329834</ele>
        <time>2014-03-29T23:34:11Z</time>
      </trkpt>
      <trkpt lat="49.53494" lon="0.5137">
        <ele>12.2856092453</ele>
        <time>2014-03-29T23:34:17Z</time>
      </trkpt>
      <trkpt lat="49.53496" lon="0.5135">
        <ele>11.609536170959</ele>
        <time>2014-03-29T23:34:22Z</time>
      </trkpt>
      <trkpt lat="49.53496" lon="0.51323">
        <ele>11.173790931702</ele>
        <time>2014-03-29T23:34:28Z</time>
      </trkpt>
      <trkpt lat="49.53495" lon="0.51302">
        <ele>11.434144020081</ele>
        <time>2014-03-29T23:34:33Z</time>
      </trkpt>
      <trkpt lat="49.53495" lon="0.5129">
        <ele>11.588353157043</ele>
        <time>2014-03-29T23:34:36Z</time>
      </trkpt>
      <trkpt lat="49.53498" lon="0.51265">
        <ele>11.842483520508</ele>
        <time>2014-03-29T23:34:42Z</time>
      </trkpt>
      <trkpt lat="49.53499" lon="0.51243">
        <ele>12.011668205261</ele>
        <time>2014-03-29T23:34:47Z</time>
      </trkpt>
      <trkpt lat="49.53499" lon="0.51226">
        <ele>12.004051208496</ele>
        <time>2014-03-29T23:34:51Z</time>
      </trkpt>
      <trkpt lat="49.53502" lon="0.51208">
        <ele>12.072509765625</ele>
        <time>2014-03-29T23:34:56Z</time>
      </trkpt>
      <trkpt lat="49.53506" lon="0.51189">
        <ele>12.27392578125</ele>
        <time>2014-03-29T23:35:02Z</time>
      </trkpt>
      <trkpt lat="49.5351" lon="0.5117">
        <ele>12.49365234375</ele>
        <time>2014-03-29T23:35:08Z</time>
      </trkpt>
      <trkpt lat="49.53516" lon="0.51154">
        <ele>12.576374053955</ele>
        <time>2014-03-29T23:35:13Z</time>
      </trkpt>
      <trkpt lat="49.5352" lon="0.51136">
        <ele>12.499766349793</ele>
        <time>2014-03-29T23:35:18Z</time>
      </trkpt>
      <trkpt lat="49.53524" lon="0.51119">
        <ele>12.438322067261</ele>
        <time>2014-03-29T23:35:23Z</time>
      </trkpt>
      <trkpt lat="49.53532" lon="0.51097">
        <ele>12.358649253845</ele>
        <time>2014-03-29T23:35:30Z</time>
      </trkpt>
      <trkpt lat="49.5354" lon="0.51083">
        <ele>12.427960395813</ele>
        <time>2014-03-29T23:35:35Z</time>
      </trkpt>
      <trkpt lat="49.5355" lon="0.51064">
        <ele>12.740466117859</ele>
        <time>2014-03-29T23:35:42Z</time>
      </trkpt>
      <trkpt lat="49.53558" lon="0.5105">
        <ele>12.930644989014</ele>
        <time>2014-03-29T23:35:48Z</time>
      </trkpt>
      <trkpt lat="49.53566" lon="0.51038">
        <ele>13.060263633728</ele>
        <time>2014-03-29T23:35:53Z</time>
      </trkpt>
      <trkpt lat="49.53575" lon="0.51027">
        <ele>13.152493476868</ele>
        <time>2014-03-29T23:35:58Z</time>
      </trkpt>
      <trkpt lat="49.53582" lon="0.51015">
        <ele>13.157439231873</ele>
        <time>2014-03-29T23:36:03Z</time>
      </trkpt>
      <trkpt lat="49.53584" lon="0.51013">
        <ele>13.192538261414</ele>
        <time>2014-03-29T23:36:04Z</time>
      </trkpt>
      <trkpt lat="49.53592" lon="0.50997">
        <ele>13.582907676697</ele>
        <time>2014-03-29T23:36:10Z</time>
      </trkpt>
      <trkpt lat="49.53595" lon="0.50984">
        <ele>13.810699462891</ele>
        <time>2014-03-29T23:36:16Z</time>
      </trkpt>
      <trkpt lat="49.53598" lon="0.50978">
        <ele>13.989151000977</ele>
        <time>2014-03-29T23:36:20Z</time>
      </trkpt>
      <trkpt lat="49.53606" lon="0.50969">
        <ele>14.40735912323</ele>
        <time>2014-03-29T23:36:27Z</time>
      </trkpt>
      <trkpt lat="49.53616" lon="0.50961">
        <ele>14.960619926453</ele>
        <time>2014-03-29T23:36:35Z</time>
      </trkpt>
      <trkpt lat="49.53622" lon="0.50948">
        <ele>15.232169151306</ele>
        <time>2014-03-29T23:36:41Z</time>
      </trkpt>
      <trkpt lat="49.53628" lon="0.50937">
        <ele>15.411144256592</ele>
        <time>2014-03-29T23:36:45Z</time>
      </trkpt>
      <trkpt lat="49.53636" lon="0.50922">
        <ele>15.595517158508</ele>
        <time>2014-03-29T23:36:50Z</time>
      </trkpt>
      <trkpt lat="49.53643" lon="0.50904">
        <ele>16.146862030029</ele>
        <time>2014-03-29T23:36:56Z</time>
      </trkpt>
      <trkpt lat="49.53653" lon="0.5088">
        <ele>17.139348983765</ele>
        <time>2014-03-29T23:37:04Z</time>
      </trkpt>
      <trkpt lat="49.53659" lon="0.5086">
        <ele>17.931728363037</ele>
        <time>2014-03-29T23:37:11Z</time>
      </trkpt>
      <trkpt lat="49.53664" lon="0.50848">
        <ele>18.492458343506</ele>
        <time>2014-03-29T23:37:16Z</time>
      </trkpt>
      <trkpt lat="49.53669" lon="0.50836">
        <ele>18.908451080322</ele>
        <time>2014-03-29T23:37:21Z</time>
      </trkpt>
      <trkpt lat="49.5367" lon="0.50827">
        <ele>19.271408081055</ele>
        <time>2014-03-29T23:37:25Z</time>
      </trkpt>
      <trkpt lat="49.53672" lon="0.50823">
        <ele>19.391008377075</ele>
        <time>2014-03-29T23:37:27Z</time>
      </trkpt>
      <trkpt lat="49.53681" lon="0.50812">
        <ele>19.696870803833</ele>
        <time>2014-03-29T23:37:33Z</time>
      </trkpt>
      <trkpt lat="49.53688" lon="0.508">
        <ele>20.026655197144</ele>
        <time>2014-03-29T23:37:38Z</time>
      </trkpt>
      <trkpt lat="49.53691" lon="0.50795">
        <ele>20.147413253784</ele>
        <time>2014-03-29T23:37:40Z</time>
      </trkpt>
      <trkpt lat="49.53697" lon="0.50776">
        <ele>20.65784072876</ele>
        <time>2014-03-29T23:37:46Z</time>
      </trkpt>
      <trkpt lat="49.53698" lon="0.50772">
        <ele>20.717834472656</ele>
        <time>2014-03-29T23:37:48Z</time>
      </trkpt>
      <trkpt lat="49.53702" lon="0.50764">
        <ele>20.848556518555</ele>
        <time>2014-03-29T23:37:53Z</time>
      </trkpt>
      <trkpt lat="49.53708" lon="0.5075">
        <ele>21.009628295898</ele>
        <time>2014-03-29T23:38:01Z</time>
      </trkpt>
      <trkpt lat="49.53709" lon="0.50733">
        <ele>20.262184143066</ele>
        <time>2014-03-29T23:38:06Z</time>
      </trkpt>
      <trkpt lat="49.53708" lon="0.5071">
        <ele>19.322984695435</ele>
        <time>2014-03-29T23:38:12Z</time>
      </trkpt>
      <trkpt lat="49.53707" lon="0.5069">
        <ele>18.506725311279</ele>
        <time>2014-03-29T23:38:17Z</time>
      </trkpt>
      <trkpt lat="49.53705" lon="0.50665">
        <ele>17.462585449219</ele>
        <time>2014-03-29T23:38:23Z</time>
      </trkpt>
      <trkpt lat="49.53703" lon="0.50642">
        <ele>17.435119628906</ele>
        <time>2014-03-29T23:38:29Z</time>
      </trkpt>
      <trkpt lat="49.53709" lon="0.50629">
        <ele>17.503784179688</ele>
        <time>2014-03-29T23:38:33Z</time>
      </trkpt>
      <trkpt lat="49.5372" lon="0.50621">
        <ele>17.636535644531</ele>
        <time>2014-03-29T23:38:38Z</time>
      </trkpt>
      <trkpt lat="49.53732" lon="0.50618">
        <ele>17.778442382812</ele>
        <time>2014-03-29T23:38:43Z</time>
      </trkpt>
      <trkpt lat="49.53743" lon="0.50613">
        <ele>17.915771484375</ele>
        <time>2014-03-29T23:38:48Z</time>
      </trkpt>
      <trkpt lat="49.53755" lon="0.50606">
        <ele>17.899993896484</ele>
        <time>2014-03-29T23:38:53Z</time>
      </trkpt>
      <trkpt lat="49.53757" lon="0.50598">
        <ele>17.844881057739</ele>
        <time>2014-03-29T23:38:55Z</time>
      </trkpt>
      <trkpt lat="49.53757" lon="0.50564">
        <ele>17.412446975708</ele>
        <time>2014-03-29T23:39:03Z</time>
      </trkpt>
      <trkpt lat="49.53756" lon="0.50541">
        <ele>16.911773681641</ele>
        <time>2014-03-29T23:39:09Z</time>
      </trkpt>
      <trkpt lat="49.53756" lon="0.50537">
        <ele>16.82936668396</ele>
        <time>2014-03-29T23:39:10Z</time>
      </trkpt>
      <trkpt lat="49.53757" lon="0.50519">
        <ele>16.411603927612</ele>
        <time>2014-03-29T23:39:15Z</time>
      </trkpt>
      <trkpt lat="49.53755" lon="0.50491">
        <ele>17.406284332275</ele>
        <time>2014-03-29T23:39:22Z</time>
      </trkpt>
      <trkpt lat="49.53753" lon="0.50464">
        <ele>21.854623794556</ele>
        <time>2014-03-29T23:39:29Z</time>
      </trkpt>
      <trkpt lat="49.53752" lon="0.50451">
        <ele>24.113864898682</ele>
        <time>2014-03-29T23:39:33Z</time>
      </trkpt>
      <trkpt lat="49.53754" lon="0.50439">
        <ele>25.987623214722</ele>
        <time>2014-03-29T23:39:39Z</time>
      </trkpt>
      <trkpt lat="49.53754" lon="0.50439">
        <ele>25.975891113281</ele>
        <time>2014-03-29T23:39:43Z</time>
      </trkpt>
      <trkpt lat="49.53751" lon="0.50441">
        <ele>25.82488822937</ele>
        <time>2014-03-29T23:39:49Z</time>
      </trkpt>
      <trkpt lat="49.53755" lon="0.50446">
        <ele>24.785459518433</ele>
        <time>2014-03-29T23:40:06Z</time>
      </trkpt>
      <trkpt lat="49.53755" lon="0.50448">
        <ele>24.478549957275</ele>
        <time>2014-03-29T23:40:10Z</time>
      </trkpt>
      <trkpt lat="49.53749" lon="0.50444">
        <ele>25.541856765747</ele>
        <time>2014-03-29T23:40:17Z</time>
      </trkpt>
      <trkpt lat="49.53747" lon="0.50443">
        <ele>26.009538650513</ele>
        <time>2014-03-29T23:40:21Z</time>
      </trkpt>
    </trkseg>
  </trk>
</gpx>